<?xml version="1.0" encoding="UTF-8"?><gpx version="1.0" creator="dbj" xmlns="http://www.topografix.com/GPX/1/0"><time>2020-01-12T08:02:00Z</time><bounds minlat="43.69098703" minlon="11.29346796" maxlat="43.73253403" maxlon="11.35094502"/><wpt lat="43.723599007" lon="11.295613982"><name>Start Lat:43.7236, Lon:11.2956</name><sym>Start</sym><ele>90</ele></wpt><trk><trkseg><trkpt lat="43.723599007" lon="11.295613982"><ele>90</ele><time>2020-01-12T08:02:00Z</time></trkpt>
<trkpt lat="43.723582998" lon="11.295624962"><ele>90</ele><time>2020-01-12T08:02:01Z</time></trkpt>
<trkpt lat="43.723563971" lon="11.295639966"><ele>90</ele><time>2020-01-12T08:02:02Z</time></trkpt>
<trkpt lat="43.723544022" lon="11.295657987"><ele>90</ele><time>2020-01-12T08:02:03Z</time></trkpt>
<trkpt lat="43.723521978" lon="11.295680031"><ele>90</ele><time>2020-01-12T08:02:04Z</time></trkpt>
<trkpt lat="43.723499011" lon="11.295705009"><ele>90</ele><time>2020-01-12T08:02:05Z</time></trkpt>
<trkpt lat="43.723474033" lon="11.295730993"><ele>90</ele><time>2020-01-12T08:02:06Z</time></trkpt>
<trkpt lat="43.723447965" lon="11.295758989"><ele>90</ele><time>2020-01-12T08:02:07Z</time></trkpt>
<trkpt lat="43.72341997" lon="11.295788996"><ele>90</ele><time>2020-01-12T08:02:08Z</time></trkpt>
<trkpt lat="43.723390969" lon="11.295819003"><ele>90</ele><time>2020-01-12T08:02:09Z</time></trkpt>
<trkpt lat="43.723361967" lon="11.295848005"><ele>90</ele><time>2020-01-12T08:02:10Z</time></trkpt>
<trkpt lat="43.723331038" lon="11.295878012"><ele>90</ele><time>2020-01-12T08:02:11Z</time></trkpt>
<trkpt lat="43.723300025" lon="11.295906007"><ele>90</ele><time>2020-01-12T08:02:12Z</time></trkpt>
<trkpt lat="43.723268006" lon="11.295932997"><ele>90</ele><time>2020-01-12T08:02:13Z</time></trkpt>
<trkpt lat="43.723234981" lon="11.295957975"><ele>90</ele><time>2020-01-12T08:02:14Z</time></trkpt>
<trkpt lat="43.723202962" lon="11.295980019"><ele>91</ele><time>2020-01-12T08:02:15Z</time></trkpt>
<trkpt lat="43.723171027" lon="11.29600198"><ele>91</ele><time>2020-01-12T08:02:16Z</time></trkpt>
<trkpt lat="43.723142026" lon="11.296026036"><ele>91</ele><time>2020-01-12T08:02:17Z</time></trkpt>
<trkpt lat="43.723116964" lon="11.296054032"><ele>91</ele><time>2020-01-12T08:02:18Z</time></trkpt>
<trkpt lat="43.723098021" lon="11.296087978"><ele>91</ele><time>2020-01-12T08:02:19Z</time></trkpt>
<trkpt lat="43.723086035" lon="11.296129972"><ele>91</ele><time>2020-01-12T08:02:20Z</time></trkpt>
<trkpt lat="43.723078994" lon="11.296178"><ele>91</ele><time>2020-01-12T08:02:21Z</time></trkpt>
<trkpt lat="43.723075977" lon="11.296230974"><ele>91</ele><time>2020-01-12T08:02:22Z</time></trkpt>
<trkpt lat="43.723074971" lon="11.296285037"><ele>91</ele><time>2020-01-12T08:02:23Z</time></trkpt>
<trkpt lat="43.723074971" lon="11.296339016"><ele>91</ele><time>2020-01-12T08:02:24Z</time></trkpt>
<trkpt lat="43.723072959" lon="11.296390984"><ele>91</ele><time>2020-01-12T08:02:25Z</time></trkpt>
<trkpt lat="43.723070025" lon="11.29644203"><ele>91</ele><time>2020-01-12T08:02:26Z</time></trkpt>
<trkpt lat="43.723067008" lon="11.29649098"><ele>91</ele><time>2020-01-12T08:02:27Z</time></trkpt>
<trkpt lat="43.723062985" lon="11.29654102"><ele>91</ele><time>2020-01-12T08:02:28Z</time></trkpt>
<trkpt lat="43.723059967" lon="11.296590976"><ele>91</ele><time>2020-01-12T08:02:29Z</time></trkpt>
<trkpt lat="43.723057033" lon="11.296642022"><ele>91</ele><time>2020-01-12T08:02:30Z</time></trkpt>
<trkpt lat="43.723054016" lon="11.296692984"><ele>91</ele><time>2020-01-12T08:02:31Z</time></trkpt>
<trkpt lat="43.72305301" lon="11.296743024"><ele>91</ele><time>2020-01-12T08:02:32Z</time></trkpt>
<trkpt lat="43.723050999" lon="11.296791974"><ele>91</ele><time>2020-01-12T08:02:33Z</time></trkpt>
<trkpt lat="43.723049993" lon="11.296837991"><ele>91</ele><time>2020-01-12T08:02:34Z</time></trkpt>
<trkpt lat="43.723048987" lon="11.296879984"><ele>91</ele><time>2020-01-12T08:02:35Z</time></trkpt>
<trkpt lat="43.723048987" lon="11.296920972"><ele>91</ele><time>2020-01-12T08:02:36Z</time></trkpt>
<trkpt lat="43.723048987" lon="11.296962965"><ele>91</ele><time>2020-01-12T08:02:37Z</time></trkpt>
<trkpt lat="43.723049993" lon="11.297005964"><ele>92</ele><time>2020-01-12T08:02:38Z</time></trkpt>
<trkpt lat="43.723050999" lon="11.297053993"><ele>92</ele><time>2020-01-12T08:02:39Z</time></trkpt>
<trkpt lat="43.723052004" lon="11.297104033"><ele>92</ele><time>2020-01-12T08:02:40Z</time></trkpt>
<trkpt lat="43.723050999" lon="11.297154995"><ele>92</ele><time>2020-01-12T08:02:41Z</time></trkpt>
<trkpt lat="43.723046975" lon="11.29720604"><ele>92</ele><time>2020-01-12T08:02:42Z</time></trkpt>
<trkpt lat="43.723039012" lon="11.297253985"><ele>92</ele><time>2020-01-12T08:02:43Z</time></trkpt>
<trkpt lat="43.723027026" lon="11.297298996"><ele>92</ele><time>2020-01-12T08:02:44Z</time></trkpt>
<trkpt lat="43.723011017" lon="11.297340989"><ele>92</ele><time>2020-01-12T08:02:45Z</time></trkpt>
<trkpt lat="43.722990984" lon="11.297379965"><ele>92</ele><time>2020-01-12T08:02:46Z</time></trkpt>
<trkpt lat="43.722969024" lon="11.297416007"><ele>92</ele><time>2020-01-12T08:02:47Z</time></trkpt>
<trkpt lat="43.722945973" lon="11.29745096"><ele>92</ele><time>2020-01-12T08:02:48Z</time></trkpt>
<trkpt lat="43.722923007" lon="11.297483984"><ele>93</ele><time>2020-01-12T08:02:49Z</time></trkpt>
<trkpt lat="43.722898029" lon="11.297516003"><ele>93</ele><time>2020-01-12T08:02:50Z</time></trkpt>
<trkpt lat="43.722872967" lon="11.29754601"><ele>93</ele><time>2020-01-12T08:02:51Z</time></trkpt>
<trkpt lat="43.722847989" lon="11.297575012"><ele>93</ele><time>2020-01-12T08:02:52Z</time></trkpt>
<trkpt lat="43.722822005" lon="11.297602002"><ele>93</ele><time>2020-01-12T08:02:53Z</time></trkpt>
<trkpt lat="43.722739024" lon="11.297675008"><ele>94</ele><time>2020-01-12T08:02:56Z</time></trkpt>
<trkpt lat="43.722710023" lon="11.297695963"><ele>94</ele><time>2020-01-12T08:02:57Z</time></trkpt>
<trkpt lat="43.722680015" lon="11.297715995"><ele>94</ele><time>2020-01-12T08:02:58Z</time></trkpt>
<trkpt lat="43.722650008" lon="11.297734017"><ele>94</ele><time>2020-01-12T08:02:59Z</time></trkpt>
<trkpt lat="43.722617989" lon="11.297751032"><ele>94</ele><time>2020-01-12T08:03:00Z</time></trkpt>
<trkpt lat="43.722585971" lon="11.297766035"><ele>94</ele><time>2020-01-12T08:03:01Z</time></trkpt>
<trkpt lat="43.722554035" lon="11.297779027"><ele>94</ele><time>2020-01-12T08:03:02Z</time></trkpt>
<trkpt lat="43.722521011" lon="11.297791013"><ele>94</ele><time>2020-01-12T08:03:03Z</time></trkpt>
<trkpt lat="43.722487986" lon="11.297801994"><ele>94</ele><time>2020-01-12T08:03:04Z</time></trkpt>
<trkpt lat="43.722454961" lon="11.297810962"><ele>94</ele><time>2020-01-12T08:03:05Z</time></trkpt>
<trkpt lat="43.722421015" lon="11.297819009"><ele>94</ele><time>2020-01-12T08:03:06Z</time></trkpt>
<trkpt lat="43.72238799" lon="11.29782496"><ele>94</ele><time>2020-01-12T08:03:07Z</time></trkpt>
<trkpt lat="43.722354965" lon="11.297828984"><ele>94</ele><time>2020-01-12T08:03:08Z</time></trkpt>
<trkpt lat="43.722322024" lon="11.297833007"><ele>94</ele><time>2020-01-12T08:03:09Z</time></trkpt>
<trkpt lat="43.722289" lon="11.297834013"><ele>94</ele><time>2020-01-12T08:03:10Z</time></trkpt>
<trkpt lat="43.722255975" lon="11.297835018"><ele>94</ele><time>2020-01-12T08:03:11Z</time></trkpt>
<trkpt lat="43.72222404" lon="11.297833007"><ele>94</ele><time>2020-01-12T08:03:12Z</time></trkpt>
<trkpt lat="43.722191015" lon="11.297829989"><ele>94</ele><time>2020-01-12T08:03:13Z</time></trkpt>
<trkpt lat="43.722158996" lon="11.297824038"><ele>94</ele><time>2020-01-12T08:03:14Z</time></trkpt>
<trkpt lat="43.722126978" lon="11.297816997"><ele>94</ele><time>2020-01-12T08:03:15Z</time></trkpt>
<trkpt lat="43.722094037" lon="11.297808029"><ele>93</ele><time>2020-01-12T08:03:16Z</time></trkpt>
<trkpt lat="43.722062018" lon="11.297796965"><ele>93</ele><time>2020-01-12T08:03:17Z</time></trkpt>
<trkpt lat="43.722031005" lon="11.297783973"><ele>93</ele><time>2020-01-12T08:03:18Z</time></trkpt>
<trkpt lat="43.721998986" lon="11.297769975"><ele>93</ele><time>2020-01-12T08:03:19Z</time></trkpt>
<trkpt lat="43.721966967" lon="11.297753965"><ele>93</ele><time>2020-01-12T08:03:20Z</time></trkpt>
<trkpt lat="43.721936038" lon="11.297737034"><ele>93</ele><time>2020-01-12T08:03:21Z</time></trkpt>
<trkpt lat="43.721905025" lon="11.297720019"><ele>93</ele><time>2020-01-12T08:03:22Z</time></trkpt>
<trkpt lat="43.721874012" lon="11.297700992"><ele>92</ele><time>2020-01-12T08:03:23Z</time></trkpt>
<trkpt lat="43.721844004" lon="11.297682971"><ele>92</ele><time>2020-01-12T08:03:24Z</time></trkpt>
<trkpt lat="43.721812991" lon="11.297665033"><ele>92</ele><time>2020-01-12T08:03:25Z</time></trkpt>
<trkpt lat="43.721782984" lon="11.297646007"><ele>92</ele><time>2020-01-12T08:03:26Z</time></trkpt>
<trkpt lat="43.721752977" lon="11.297628991"><ele>92</ele><time>2020-01-12T08:03:27Z</time></trkpt>
<trkpt lat="43.72172297" lon="11.29761097"><ele>92</ele><time>2020-01-12T08:03:28Z</time></trkpt>
<trkpt lat="43.721693968" lon="11.297594961"><ele>92</ele><time>2020-01-12T08:03:29Z</time></trkpt>
<trkpt lat="43.721663961" lon="11.297578029"><ele>91</ele><time>2020-01-12T08:03:30Z</time></trkpt>
<trkpt lat="43.72163496" lon="11.297563026"><ele>91</ele><time>2020-01-12T08:03:31Z</time></trkpt>
<trkpt lat="43.721605036" lon="11.297547016"><ele>91</ele><time>2020-01-12T08:03:32Z</time></trkpt>
<trkpt lat="43.721576035" lon="11.297533019"><ele>91</ele><time>2020-01-12T08:03:33Z</time></trkpt>
<trkpt lat="43.721485008" lon="11.297491025"><ele>91</ele><time>2020-01-12T08:03:36Z</time></trkpt>
<trkpt lat="43.721455" lon="11.297479039"><ele>91</ele><time>2020-01-12T08:03:37Z</time></trkpt>
<trkpt lat="43.721423987" lon="11.297466969"><ele>91</ele><time>2020-01-12T08:03:38Z</time></trkpt>
<trkpt lat="43.721392974" lon="11.297454983"><ele>91</ele><time>2020-01-12T08:03:39Z</time></trkpt>
<trkpt lat="43.721361039" lon="11.297444003"><ele>92</ele><time>2020-01-12T08:03:40Z</time></trkpt>
<trkpt lat="43.721330026" lon="11.297433022"><ele>92</ele><time>2020-01-12T08:03:41Z</time></trkpt>
<trkpt lat="43.721298007" lon="11.297421958"><ele>92</ele><time>2020-01-12T08:03:42Z</time></trkpt>
<trkpt lat="43.721265988" lon="11.297411984"><ele>92</ele><time>2020-01-12T08:03:43Z</time></trkpt>
<trkpt lat="43.72123397" lon="11.297402009"><ele>92</ele><time>2020-01-12T08:03:44Z</time></trkpt>
<trkpt lat="43.721202035" lon="11.297392035"><ele>92</ele><time>2020-01-12T08:03:45Z</time></trkpt>
<trkpt lat="43.721170016" lon="11.297381977"><ele>92</ele><time>2020-01-12T08:03:46Z</time></trkpt>
<trkpt lat="43.721137997" lon="11.297373008"><ele>92</ele><time>2020-01-12T08:03:47Z</time></trkpt>
<trkpt lat="43.721105978" lon="11.297363034"><ele>92</ele><time>2020-01-12T08:03:48Z</time></trkpt>
<trkpt lat="43.721073037" lon="11.297353981"><ele>92</ele><time>2020-01-12T08:03:49Z</time></trkpt>
<trkpt lat="43.721041018" lon="11.297345012"><ele>92</ele><time>2020-01-12T08:03:50Z</time></trkpt>
<trkpt lat="43.721008999" lon="11.29733596"><ele>92</ele><time>2020-01-12T08:03:51Z</time></trkpt>
<trkpt lat="43.720975975" lon="11.297326991"><ele>92</ele><time>2020-01-12T08:03:52Z</time></trkpt>
<trkpt lat="43.72094404" lon="11.297317017"><ele>92</ele><time>2020-01-12T08:03:53Z</time></trkpt>
<trkpt lat="43.720912021" lon="11.297307964"><ele>92</ele><time>2020-01-12T08:03:54Z</time></trkpt>
<trkpt lat="43.720880002" lon="11.297298996"><ele>92</ele><time>2020-01-12T08:03:55Z</time></trkpt>
<trkpt lat="43.720847983" lon="11.297289021"><ele>92</ele><time>2020-01-12T08:03:56Z</time></trkpt>
<trkpt lat="43.72081697" lon="11.297279969"><ele>92</ele><time>2020-01-12T08:03:57Z</time></trkpt>
<trkpt lat="43.720785035" lon="11.297271"><ele>92</ele><time>2020-01-12T08:03:58Z</time></trkpt>
<trkpt lat="43.720754022" lon="11.297262032"><ele>92</ele><time>2020-01-12T08:03:59Z</time></trkpt>
<trkpt lat="43.720723009" lon="11.297252979"><ele>92</ele><time>2020-01-12T08:04:00Z</time></trkpt>
<trkpt lat="43.720693002" lon="11.297245016"><ele>92</ele><time>2020-01-12T08:04:01Z</time></trkpt>
<trkpt lat="43.720662994" lon="11.297237976"><ele>92</ele><time>2020-01-12T08:04:02Z</time></trkpt>
<trkpt lat="43.720633993" lon="11.297231019"><ele>92</ele><time>2020-01-12T08:04:03Z</time></trkpt>
<trkpt lat="43.720604992" lon="11.297224984"><ele>92</ele><time>2020-01-12T08:04:04Z</time></trkpt>
<trkpt lat="43.72057599" lon="11.297220038"><ele>92</ele><time>2020-01-12T08:04:05Z</time></trkpt>
<trkpt lat="43.720547995" lon="11.297216015"><ele>92</ele><time>2020-01-12T08:04:06Z</time></trkpt>
<trkpt lat="43.720521005" lon="11.297211992"><ele>92</ele><time>2020-01-12T08:04:07Z</time></trkpt>
<trkpt lat="43.720493009" lon="11.297208974"><ele>92</ele><time>2020-01-12T08:04:08Z</time></trkpt>
<trkpt lat="43.72046602" lon="11.29720604"><ele>92</ele><time>2020-01-12T08:04:09Z</time></trkpt>
<trkpt lat="43.720438024" lon="11.297202017"><ele>92</ele><time>2020-01-12T08:04:10Z</time></trkpt>
<trkpt lat="43.720410028" lon="11.297199"><ele>92</ele><time>2020-01-12T08:04:11Z</time></trkpt>
<trkpt lat="43.720382033" lon="11.297193971"><ele>92</ele><time>2020-01-12T08:04:12Z</time></trkpt>
<trkpt lat="43.720352026" lon="11.297190031"><ele>92</ele><time>2020-01-12T08:04:13Z</time></trkpt>
<trkpt lat="43.720322018" lon="11.297183996"><ele>92</ele><time>2020-01-12T08:04:14Z</time></trkpt>
<trkpt lat="43.720292011" lon="11.297177961"><ele>92</ele><time>2020-01-12T08:04:15Z</time></trkpt>
<trkpt lat="43.720260998" lon="11.297171004"><ele>92</ele><time>2020-01-12T08:04:16Z</time></trkpt>
<trkpt lat="43.720228979" lon="11.297163963"><ele>92</ele><time>2020-01-12T08:04:17Z</time></trkpt>
<trkpt lat="43.72019696" lon="11.297157006"><ele>92</ele><time>2020-01-12T08:04:18Z</time></trkpt>
<trkpt lat="43.720166031" lon="11.297150971"><ele>92</ele><time>2020-01-12T08:04:19Z</time></trkpt>
<trkpt lat="43.720134012" lon="11.297144014"><ele>92</ele><time>2020-01-12T08:04:20Z</time></trkpt>
<trkpt lat="43.720101994" lon="11.297138985"><ele>92</ele><time>2020-01-12T08:04:21Z</time></trkpt>
<trkpt lat="43.720069975" lon="11.29713404"><ele>92</ele><time>2020-01-12T08:04:22Z</time></trkpt>
<trkpt lat="43.720038962" lon="11.297130017"><ele>92</ele><time>2020-01-12T08:04:23Z</time></trkpt>
<trkpt lat="43.720008032" lon="11.297126999"><ele>92</ele><time>2020-01-12T08:04:24Z</time></trkpt>
<trkpt lat="43.719978025" lon="11.297124987"><ele>92</ele><time>2020-01-12T08:04:25Z</time></trkpt>
<trkpt lat="43.719948018" lon="11.297123982"><ele>92</ele><time>2020-01-12T08:04:26Z</time></trkpt>
<trkpt lat="43.719918011" lon="11.297122976"><ele>92</ele><time>2020-01-12T08:04:27Z</time></trkpt>
<trkpt lat="43.719889009" lon="11.297122976"><ele>92</ele><time>2020-01-12T08:04:28Z</time></trkpt>
<trkpt lat="43.719860008" lon="11.29712197"><ele>92</ele><time>2020-01-12T08:04:29Z</time></trkpt>
<trkpt lat="43.719831007" lon="11.29712197"><ele>92</ele><time>2020-01-12T08:04:30Z</time></trkpt>
<trkpt lat="43.719802005" lon="11.297119958"><ele>92</ele><time>2020-01-12T08:04:31Z</time></trkpt>
<trkpt lat="43.719773004" lon="11.29711803"><ele>92</ele><time>2020-01-12T08:04:32Z</time></trkpt>
<trkpt lat="43.719745008" lon="11.297115013"><ele>92</ele><time>2020-01-12T08:04:33Z</time></trkpt>
<trkpt lat="43.719717013" lon="11.297109984"><ele>92</ele><time>2020-01-12T08:04:34Z</time></trkpt>
<trkpt lat="43.719688011" lon="11.297105961"><ele>92</ele><time>2020-01-12T08:04:35Z</time></trkpt>
<trkpt lat="43.71965901" lon="11.297100009"><ele>92</ele><time>2020-01-12T08:04:36Z</time></trkpt>
<trkpt lat="43.719630009" lon="11.29709498"><ele>92</ele><time>2020-01-12T08:04:37Z</time></trkpt>
<trkpt lat="43.719601007" lon="11.297090035"><ele>92</ele><time>2020-01-12T08:04:38Z</time></trkpt>
<trkpt lat="43.719571" lon="11.297086012"><ele>92</ele><time>2020-01-12T08:04:39Z</time></trkpt>
<trkpt lat="43.719540993" lon="11.297081988"><ele>92</ele><time>2020-01-12T08:04:40Z</time></trkpt>
<trkpt lat="43.71950998" lon="11.297078971"><ele>92</ele><time>2020-01-12T08:04:41Z</time></trkpt>
<trkpt lat="43.719477961" lon="11.297076959"><ele>92</ele><time>2020-01-12T08:04:42Z</time></trkpt>
<trkpt lat="43.719446026" lon="11.297076959"><ele>93</ele><time>2020-01-12T08:04:43Z</time></trkpt>
<trkpt lat="43.719413001" lon="11.297077965"><ele>93</ele><time>2020-01-12T08:04:44Z</time></trkpt>
<trkpt lat="43.719379976" lon="11.297080982"><ele>93</ele><time>2020-01-12T08:04:45Z</time></trkpt>
<trkpt lat="43.719347036" lon="11.297084"><ele>93</ele><time>2020-01-12T08:04:46Z</time></trkpt>
<trkpt lat="43.719314011" lon="11.297088023"><ele>93</ele><time>2020-01-12T08:04:47Z</time></trkpt>
<trkpt lat="43.719280986" lon="11.297092969"><ele>93</ele><time>2020-01-12T08:04:48Z</time></trkpt>
<trkpt lat="43.719249973" lon="11.297099004"><ele>93</ele><time>2020-01-12T08:04:49Z</time></trkpt>
<trkpt lat="43.71921896" lon="11.297105039"><ele>93</ele><time>2020-01-12T08:04:50Z</time></trkpt>
<trkpt lat="43.719189959" lon="11.29711099"><ele>93</ele><time>2020-01-12T08:04:51Z</time></trkpt>
<trkpt lat="43.719161963" lon="11.297117025"><ele>93</ele><time>2020-01-12T08:04:52Z</time></trkpt>
<trkpt lat="43.719134973" lon="11.297124987"><ele>93</ele><time>2020-01-12T08:04:53Z</time></trkpt>
<trkpt lat="43.719108989" lon="11.297134962"><ele>93</ele><time>2020-01-12T08:04:54Z</time></trkpt>
<trkpt lat="43.719082" lon="11.297148038"><ele>93</ele><time>2020-01-12T08:04:55Z</time></trkpt>
<trkpt lat="43.71905501" lon="11.297165975"><ele>93</ele><time>2020-01-12T08:04:56Z</time></trkpt>
<trkpt lat="43.71902802" lon="11.297189025"><ele>93</ele><time>2020-01-12T08:04:57Z</time></trkpt>
<trkpt lat="43.719000025" lon="11.297216015"><ele>93</ele><time>2020-01-12T08:04:58Z</time></trkpt>
<trkpt lat="43.718971023" lon="11.297247028"><ele>93</ele><time>2020-01-12T08:04:59Z</time></trkpt>
<trkpt lat="43.718944034" lon="11.297280975"><ele>93</ele><time>2020-01-12T08:05:00Z</time></trkpt>
<trkpt lat="43.718917966" lon="11.297316011"><ele>93</ele><time>2020-01-12T08:05:01Z</time></trkpt>
<trkpt lat="43.718892988" lon="11.297352975"><ele>93</ele><time>2020-01-12T08:05:02Z</time></trkpt>
<trkpt lat="43.718870021" lon="11.297390023"><ele>93</ele><time>2020-01-12T08:05:03Z</time></trkpt>
<trkpt lat="43.718847977" lon="11.297428999"><ele>93</ele><time>2020-01-12T08:05:04Z</time></trkpt>
<trkpt lat="43.718828028" lon="11.297468981"><ele>93</ele><time>2020-01-12T08:05:05Z</time></trkpt>
<trkpt lat="43.718810007" lon="11.297510974"><ele>93</ele><time>2020-01-12T08:05:06Z</time></trkpt>
<trkpt lat="43.718791986" lon="11.297553973"><ele>93</ele><time>2020-01-12T08:05:07Z</time></trkpt>
<trkpt lat="43.718776982" lon="11.297598984"><ele>93</ele><time>2020-01-12T08:05:08Z</time></trkpt>
<trkpt lat="43.718762984" lon="11.297645001"><ele>93</ele><time>2020-01-12T08:05:09Z</time></trkpt>
<trkpt lat="43.718750998" lon="11.297692023"><ele>93</ele><time>2020-01-12T08:05:10Z</time></trkpt>
<trkpt lat="43.718741024" lon="11.29773804"><ele>93</ele><time>2020-01-12T08:05:11Z</time></trkpt>
<trkpt lat="43.718732977" lon="11.297784979"><ele>93</ele><time>2020-01-12T08:05:12Z</time></trkpt>
<trkpt lat="43.718727026" lon="11.297832001"><ele>93</ele><time>2020-01-12T08:05:13Z</time></trkpt>
<trkpt lat="43.718720991" lon="11.297878018"><ele>93</ele><time>2020-01-12T08:05:14Z</time></trkpt>
<trkpt lat="43.718716968" lon="11.29792504"><ele>93</ele><time>2020-01-12T08:05:15Z</time></trkpt>
<trkpt lat="43.718712023" lon="11.297971979"><ele>93</ele><time>2020-01-12T08:05:16Z</time></trkpt>
<trkpt lat="43.718706993" lon="11.298017995"><ele>93</ele><time>2020-01-12T08:05:17Z</time></trkpt>
<trkpt lat="43.718700958" lon="11.298064012"><ele>93</ele><time>2020-01-12T08:05:18Z</time></trkpt>
<trkpt lat="43.718695007" lon="11.298109023"><ele>93</ele><time>2020-01-12T08:05:19Z</time></trkpt>
<trkpt lat="43.718686961" lon="11.298154034"><ele>93</ele><time>2020-01-12T08:05:20Z</time></trkpt>
<trkpt lat="43.718676986" lon="11.298198961"><ele>93</ele><time>2020-01-12T08:05:21Z</time></trkpt>
<trkpt lat="43.718665" lon="11.298242966"><ele>93</ele><time>2020-01-12T08:05:22Z</time></trkpt>
<trkpt lat="43.718652008" lon="11.298285965"><ele>93</ele><time>2020-01-12T08:05:23Z</time></trkpt>
<trkpt lat="43.71863801" lon="11.298328964"><ele>93</ele><time>2020-01-12T08:05:24Z</time></trkpt>
<trkpt lat="43.718623007" lon="11.298371963"><ele>93</ele><time>2020-01-12T08:05:25Z</time></trkpt>
<trkpt lat="43.718608003" lon="11.29841404"><ele>93</ele><time>2020-01-12T08:05:26Z</time></trkpt>
<trkpt lat="43.718591994" lon="11.298455028"><ele>94</ele><time>2020-01-12T08:05:27Z</time></trkpt>
<trkpt lat="43.718546983" lon="11.298574973"><ele>94</ele><time>2020-01-12T08:05:30Z</time></trkpt>
<trkpt lat="43.718532985" lon="11.298614033"><ele>94</ele><time>2020-01-12T08:05:31Z</time></trkpt>
<trkpt lat="43.718519993" lon="11.298653008"><ele>95</ele><time>2020-01-12T08:05:32Z</time></trkpt>
<trkpt lat="43.718507001" lon="11.298690978"><ele>95</ele><time>2020-01-12T08:05:33Z</time></trkpt>
<trkpt lat="43.718494009" lon="11.298729032"><ele>95</ele><time>2020-01-12T08:05:34Z</time></trkpt>
<trkpt lat="43.718482023" lon="11.298767002"><ele>95</ele><time>2020-01-12T08:05:35Z</time></trkpt>
<trkpt lat="43.718470037" lon="11.298804972"><ele>95</ele><time>2020-01-12T08:05:36Z</time></trkpt>
<trkpt lat="43.718456961" lon="11.29884202"><ele>95</ele><time>2020-01-12T08:05:37Z</time></trkpt>
<trkpt lat="43.718444975" lon="11.29887999"><ele>95</ele><time>2020-01-12T08:05:38Z</time></trkpt>
<trkpt lat="43.718432989" lon="11.298917038"><ele>96</ele><time>2020-01-12T08:05:39Z</time></trkpt>
<trkpt lat="43.718421003" lon="11.298955008"><ele>96</ele><time>2020-01-12T08:05:40Z</time></trkpt>
<trkpt lat="43.718408011" lon="11.298993984"><ele>96</ele><time>2020-01-12T08:05:41Z</time></trkpt>
<trkpt lat="43.718396025" lon="11.299032038"><ele>96</ele><time>2020-01-12T08:05:42Z</time></trkpt>
<trkpt lat="43.718383033" lon="11.299071014"><ele>96</ele><time>2020-01-12T08:05:43Z</time></trkpt>
<trkpt lat="43.718370041" lon="11.29910999"><ele>96</ele><time>2020-01-12T08:05:44Z</time></trkpt>
<trkpt lat="43.718356965" lon="11.299149971"><ele>96</ele><time>2020-01-12T08:05:45Z</time></trkpt>
<trkpt lat="43.718343973" lon="11.299190959"><ele>96</ele><time>2020-01-12T08:05:46Z</time></trkpt>
<trkpt lat="43.718329975" lon="11.29923203"><ele>97</ele><time>2020-01-12T08:05:47Z</time></trkpt>
<trkpt lat="43.718316983" lon="11.299274024"><ele>97</ele><time>2020-01-12T08:05:48Z</time></trkpt>
<trkpt lat="43.718302986" lon="11.299317023"><ele>97</ele><time>2020-01-12T08:05:49Z</time></trkpt>
<trkpt lat="43.718288988" lon="11.299360022"><ele>98</ele><time>2020-01-12T08:05:50Z</time></trkpt>
<trkpt lat="43.718273984" lon="11.299403021"><ele>98</ele><time>2020-01-12T08:05:51Z</time></trkpt>
<trkpt lat="43.718257975" lon="11.29944602"><ele>98</ele><time>2020-01-12T08:05:52Z</time></trkpt>
<trkpt lat="43.71824096" lon="11.299487008"><ele>99</ele><time>2020-01-12T08:05:53Z</time></trkpt>
<trkpt lat="43.718223022" lon="11.299527995"><ele>99</ele><time>2020-01-12T08:05:54Z</time></trkpt>
<trkpt lat="43.71820299" lon="11.299565965"><ele>99</ele><time>2020-01-12T08:05:55Z</time></trkpt>
<trkpt lat="43.718181029" lon="11.299602007"><ele>99</ele><time>2020-01-12T08:05:56Z</time></trkpt>
<trkpt lat="43.718156973" lon="11.299636038"><ele>99</ele><time>2020-01-12T08:05:57Z</time></trkpt>
<trkpt lat="43.718130989" lon="11.299665961"><ele>100</ele><time>2020-01-12T08:05:58Z</time></trkpt>
<trkpt lat="43.718101988" lon="11.299692029"><ele>100</ele><time>2020-01-12T08:05:59Z</time></trkpt>
<trkpt lat="43.718070975" lon="11.299716001"><ele>100</ele><time>2020-01-12T08:06:00Z</time></trkpt>
<trkpt lat="43.718038034" lon="11.299735028"><ele>100</ele><time>2020-01-12T08:06:01Z</time></trkpt>
<trkpt lat="43.718004003" lon="11.299750032"><ele>100</ele><time>2020-01-12T08:06:02Z</time></trkpt>
<trkpt lat="43.717967961" lon="11.299762018"><ele>100</ele><time>2020-01-12T08:06:03Z</time></trkpt>
<trkpt lat="43.717933008" lon="11.299769981"><ele>100</ele><time>2020-01-12T08:06:04Z</time></trkpt>
<trkpt lat="43.717896966" lon="11.299774004"><ele>99</ele><time>2020-01-12T08:06:05Z</time></trkpt>
<trkpt lat="43.717861008" lon="11.299772998"><ele>99</ele><time>2020-01-12T08:06:06Z</time></trkpt>
<trkpt lat="43.717825972" lon="11.299768975"><ele>99</ele><time>2020-01-12T08:06:07Z</time></trkpt>
<trkpt lat="43.717792025" lon="11.299761012"><ele>99</ele><time>2020-01-12T08:06:08Z</time></trkpt>
<trkpt lat="43.717759" lon="11.299749026"><ele>99</ele><time>2020-01-12T08:06:09Z</time></trkpt>
<trkpt lat="43.717726981" lon="11.299734022"><ele>99</ele><time>2020-01-12T08:06:10Z</time></trkpt>
<trkpt lat="43.717695968" lon="11.299716001"><ele>98</ele><time>2020-01-12T08:06:11Z</time></trkpt>
<trkpt lat="43.717665961" lon="11.299694963"><ele>98</ele><time>2020-01-12T08:06:12Z</time></trkpt>
<trkpt lat="43.717636038" lon="11.299673002"><ele>98</ele><time>2020-01-12T08:06:13Z</time></trkpt>
<trkpt lat="43.717607036" lon="11.29964903"><ele>98</ele><time>2020-01-12T08:06:14Z</time></trkpt>
<trkpt lat="43.717578035" lon="11.299623968"><ele>97</ele><time>2020-01-12T08:06:15Z</time></trkpt>
<trkpt lat="43.717550039" lon="11.299596978"><ele>97</ele><time>2020-01-12T08:06:16Z</time></trkpt>
<trkpt lat="43.717521038" lon="11.299570994"><ele>97</ele><time>2020-01-12T08:06:17Z</time></trkpt>
<trkpt lat="43.717492959" lon="11.299544005"><ele>97</ele><time>2020-01-12T08:06:18Z</time></trkpt>
<trkpt lat="43.717464963" lon="11.299518021"><ele>97</ele><time>2020-01-12T08:06:19Z</time></trkpt>
<trkpt lat="43.717436967" lon="11.299492037"><ele>97</ele><time>2020-01-12T08:06:20Z</time></trkpt>
<trkpt lat="43.717407966" lon="11.299465969"><ele>97</ele><time>2020-01-12T08:06:21Z</time></trkpt>
<trkpt lat="43.71737997" lon="11.299439985"><ele>96</ele><time>2020-01-12T08:06:22Z</time></trkpt>
<trkpt lat="43.717351975" lon="11.299415007"><ele>96</ele><time>2020-01-12T08:06:23Z</time></trkpt>
<trkpt lat="43.717322974" lon="11.299391035"><ele>96</ele><time>2020-01-12T08:06:24Z</time></trkpt>
<trkpt lat="43.717293972" lon="11.299366979"><ele>96</ele><time>2020-01-12T08:06:25Z</time></trkpt>
<trkpt lat="43.717264971" lon="11.299344013"><ele>96</ele><time>2020-01-12T08:06:26Z</time></trkpt>
<trkpt lat="43.717235969" lon="11.299320962"><ele>96</ele><time>2020-01-12T08:06:27Z</time></trkpt>
<trkpt lat="43.717206968" lon="11.299299002"><ele>96</ele><time>2020-01-12T08:06:28Z</time></trkpt>
<trkpt lat="43.717176961" lon="11.299277963"><ele>96</ele><time>2020-01-12T08:06:29Z</time></trkpt>
<trkpt lat="43.717147037" lon="11.299258014"><ele>96</ele><time>2020-01-12T08:06:30Z</time></trkpt>
<trkpt lat="43.71711703" lon="11.299238987"><ele>96</ele><time>2020-01-12T08:06:31Z</time></trkpt>
<trkpt lat="43.717086017" lon="11.29921996"><ele>96</ele><time>2020-01-12T08:06:32Z</time></trkpt>
<trkpt lat="43.71705601" lon="11.299202023"><ele>96</ele><time>2020-01-12T08:06:33Z</time></trkpt>
<trkpt lat="43.716962971" lon="11.299152989"><ele>96</ele><time>2020-01-12T08:06:36Z</time></trkpt>
<trkpt lat="43.716932964" lon="11.299137985"><ele>96</ele><time>2020-01-12T08:06:37Z</time></trkpt>
<trkpt lat="43.716902034" lon="11.299123988"><ele>96</ele><time>2020-01-12T08:06:38Z</time></trkpt>
<trkpt lat="43.716871021" lon="11.299110996"><ele>96</ele><time>2020-01-12T08:06:39Z</time></trkpt>
<trkpt lat="43.716840008" lon="11.299099009"><ele>96</ele><time>2020-01-12T08:06:40Z</time></trkpt>
<trkpt lat="43.716808995" lon="11.299087023"><ele>97</ele><time>2020-01-12T08:06:41Z</time></trkpt>
<trkpt lat="43.716778988" lon="11.299075959"><ele>97</ele><time>2020-01-12T08:06:42Z</time></trkpt>
<trkpt lat="43.716747975" lon="11.299065985"><ele>97</ele><time>2020-01-12T08:06:43Z</time></trkpt>
<trkpt lat="43.716717968" lon="11.29905601"><ele>97</ele><time>2020-01-12T08:06:44Z</time></trkpt>
<trkpt lat="43.716687039" lon="11.299047964"><ele>97</ele><time>2020-01-12T08:06:45Z</time></trkpt>
<trkpt lat="43.716657031" lon="11.299040001"><ele>97</ele><time>2020-01-12T08:06:46Z</time></trkpt>
<trkpt lat="43.716627024" lon="11.29903296"><ele>98</ele><time>2020-01-12T08:06:47Z</time></trkpt>
<trkpt lat="43.716597017" lon="11.299027009"><ele>98</ele><time>2020-01-12T08:06:48Z</time></trkpt>
<trkpt lat="43.716568016" lon="11.299020974"><ele>98</ele><time>2020-01-12T08:06:49Z</time></trkpt>
<trkpt lat="43.716538008" lon="11.299017034"><ele>98</ele><time>2020-01-12T08:06:50Z</time></trkpt>
<trkpt lat="43.716508001" lon="11.299013011"><ele>98</ele><time>2020-01-12T08:06:51Z</time></trkpt>
<trkpt lat="43.716477994" lon="11.299009994"><ele>98</ele><time>2020-01-12T08:06:52Z</time></trkpt>
<trkpt lat="43.716447987" lon="11.299007982"><ele>99</ele><time>2020-01-12T08:06:53Z</time></trkpt>
<trkpt lat="43.716417979" lon="11.299007982"><ele>99</ele><time>2020-01-12T08:06:54Z</time></trkpt>
<trkpt lat="43.716386966" lon="11.299007982"><ele>99</ele><time>2020-01-12T08:06:55Z</time></trkpt>
<trkpt lat="43.716356959" lon="11.299008988"><ele>99</ele><time>2020-01-12T08:06:56Z</time></trkpt>
<trkpt lat="43.71632603" lon="11.299011"><ele>99</ele><time>2020-01-12T08:06:57Z</time></trkpt>
<trkpt lat="43.716295017" lon="11.299013011"><ele>99</ele><time>2020-01-12T08:06:58Z</time></trkpt>
<trkpt lat="43.716264004" lon="11.299016029"><ele>99</ele><time>2020-01-12T08:06:59Z</time></trkpt>
<trkpt lat="43.716232991" lon="11.299019968"><ele>99</ele><time>2020-01-12T08:07:00Z</time></trkpt>
<trkpt lat="43.716200972" lon="11.299022986"><ele>99</ele><time>2020-01-12T08:07:01Z</time></trkpt>
<trkpt lat="43.716169959" lon="11.299026003"><ele>100</ele><time>2020-01-12T08:07:02Z</time></trkpt>
<trkpt lat="43.716138024" lon="11.299030026"><ele>100</ele><time>2020-01-12T08:07:03Z</time></trkpt>
<trkpt lat="43.716106005" lon="11.29903296"><ele>100</ele><time>2020-01-12T08:07:04Z</time></trkpt>
<trkpt lat="43.716074992" lon="11.299034972"><ele>100</ele><time>2020-01-12T08:07:05Z</time></trkpt>
<trkpt lat="43.716042973" lon="11.299036983"><ele>100</ele><time>2020-01-12T08:07:06Z</time></trkpt>
<trkpt lat="43.71601196" lon="11.299038995"><ele>100</ele><time>2020-01-12T08:07:07Z</time></trkpt>
<trkpt lat="43.715980025" lon="11.299041007"><ele>100</ele><time>2020-01-12T08:07:08Z</time></trkpt>
<trkpt lat="43.715949012" lon="11.299043018"><ele>100</ele><time>2020-01-12T08:07:09Z</time></trkpt>
<trkpt lat="43.715917999" lon="11.299046036"><ele>101</ele><time>2020-01-12T08:07:10Z</time></trkpt>
<trkpt lat="43.715886986" lon="11.29904897"><ele>101</ele><time>2020-01-12T08:07:11Z</time></trkpt>
<trkpt lat="43.715855973" lon="11.299053999"><ele>101</ele><time>2020-01-12T08:07:12Z</time></trkpt>
<trkpt lat="43.715825966" lon="11.299059028"><ele>101</ele><time>2020-01-12T08:07:13Z</time></trkpt>
<trkpt lat="43.715795958" lon="11.299065985"><ele>101</ele><time>2020-01-12T08:07:14Z</time></trkpt>
<trkpt lat="43.715766035" lon="11.299074031"><ele>101</ele><time>2020-01-12T08:07:15Z</time></trkpt>
<trkpt lat="43.715737034" lon="11.299084006"><ele>101</ele><time>2020-01-12T08:07:16Z</time></trkpt>
<trkpt lat="43.715708032" lon="11.29909398"><ele>101</ele><time>2020-01-12T08:07:17Z</time></trkpt>
<trkpt lat="43.715680037" lon="11.299105966"><ele>101</ele><time>2020-01-12T08:07:18Z</time></trkpt>
<trkpt lat="43.715651035" lon="11.299118036"><ele>101</ele><time>2020-01-12T08:07:19Z</time></trkpt>
<trkpt lat="43.71562304" lon="11.299130023"><ele>101</ele><time>2020-01-12T08:07:20Z</time></trkpt>
<trkpt lat="43.715594038" lon="11.299143014"><ele>101</ele><time>2020-01-12T08:07:21Z</time></trkpt>
<trkpt lat="43.715565959" lon="11.299155001"><ele>101</ele><time>2020-01-12T08:07:22Z</time></trkpt>
<trkpt lat="43.715537963" lon="11.299166987"><ele>101</ele><time>2020-01-12T08:07:23Z</time></trkpt>
<trkpt lat="43.715509968" lon="11.299178973"><ele>101</ele><time>2020-01-12T08:07:24Z</time></trkpt>
<trkpt lat="43.715480966" lon="11.299189031"><ele>101</ele><time>2020-01-12T08:07:25Z</time></trkpt>
<trkpt lat="43.715452971" lon="11.299200011"><ele>102</ele><time>2020-01-12T08:07:26Z</time></trkpt>
<trkpt lat="43.71542397" lon="11.299209986"><ele>102</ele><time>2020-01-12T08:07:27Z</time></trkpt>
<trkpt lat="43.715394968" lon="11.29921996"><ele>102</ele><time>2020-01-12T08:07:28Z</time></trkpt>
<trkpt lat="43.715365967" lon="11.299229013"><ele>102</ele><time>2020-01-12T08:07:29Z</time></trkpt>
<trkpt lat="43.715336965" lon="11.299238987"><ele>102</ele><time>2020-01-12T08:07:30Z</time></trkpt>
<trkpt lat="43.715306958" lon="11.299248962"><ele>102</ele><time>2020-01-12T08:07:31Z</time></trkpt>
<trkpt lat="43.715277035" lon="11.299258014"><ele>102</ele><time>2020-01-12T08:07:32Z</time></trkpt>
<trkpt lat="43.715247028" lon="11.299267989"><ele>103</ele><time>2020-01-12T08:07:33Z</time></trkpt>
<trkpt lat="43.715216015" lon="11.299277963"><ele>103</ele><time>2020-01-12T08:07:34Z</time></trkpt>
<trkpt lat="43.715183996" lon="11.299289027"><ele>103</ele><time>2020-01-12T08:07:35Z</time></trkpt>
<trkpt lat="43.715152983" lon="11.299299002"><ele>103</ele><time>2020-01-12T08:07:36Z</time></trkpt>
<trkpt lat="43.715120964" lon="11.299310988"><ele>103</ele><time>2020-01-12T08:07:37Z</time></trkpt>
<trkpt lat="43.715089029" lon="11.299321968"><ele>104</ele><time>2020-01-12T08:07:38Z</time></trkpt>
<trkpt lat="43.71505701" lon="11.299334038"><ele>104</ele><time>2020-01-12T08:07:39Z</time></trkpt>
<trkpt lat="43.715024991" lon="11.299345018"><ele>104</ele><time>2020-01-12T08:07:40Z</time></trkpt>
<trkpt lat="43.714992972" lon="11.29935801"><ele>104</ele><time>2020-01-12T08:07:41Z</time></trkpt>
<trkpt lat="43.714961037" lon="11.299369996"><ele>105</ele><time>2020-01-12T08:07:42Z</time></trkpt>
<trkpt lat="43.714929018" lon="11.299382988"><ele>105</ele><time>2020-01-12T08:07:43Z</time></trkpt>
<trkpt lat="43.714898005" lon="11.299396986"><ele>105</ele><time>2020-01-12T08:07:44Z</time></trkpt>
<trkpt lat="43.714865986" lon="11.299409978"><ele>105</ele><time>2020-01-12T08:07:45Z</time></trkpt>
<trkpt lat="43.714834973" lon="11.299423976"><ele>105</ele><time>2020-01-12T08:07:46Z</time></trkpt>
<trkpt lat="43.714804966" lon="11.299436968"><ele>105</ele><time>2020-01-12T08:07:47Z</time></trkpt>
<trkpt lat="43.714774037" lon="11.299450966"><ele>105</ele><time>2020-01-12T08:07:48Z</time></trkpt>
<trkpt lat="43.71474403" lon="11.299464041"><ele>105</ele><time>2020-01-12T08:07:49Z</time></trkpt>
<trkpt lat="43.714715028" lon="11.299478039"><ele>105</ele><time>2020-01-12T08:07:50Z</time></trkpt>
<trkpt lat="43.714686027" lon="11.299491031"><ele>105</ele><time>2020-01-12T08:07:51Z</time></trkpt>
<trkpt lat="43.714657025" lon="11.299504023"><ele>106</ele><time>2020-01-12T08:07:52Z</time></trkpt>
<trkpt lat="43.71462903" lon="11.299517015"><ele>106</ele><time>2020-01-12T08:07:53Z</time></trkpt>
<trkpt lat="43.714601034" lon="11.299529001"><ele>106</ele><time>2020-01-12T08:07:54Z</time></trkpt>
<trkpt lat="43.714573039" lon="11.299540987"><ele>106</ele><time>2020-01-12T08:07:55Z</time></trkpt>
<trkpt lat="43.714545965" lon="11.299552973"><ele>106</ele><time>2020-01-12T08:07:56Z</time></trkpt>
<trkpt lat="43.71451797" lon="11.299564037"><ele>106</ele><time>2020-01-12T08:07:57Z</time></trkpt>
<trkpt lat="43.71449098" lon="11.299575018"><ele>106</ele><time>2020-01-12T08:07:58Z</time></trkpt>
<trkpt lat="43.71446399" lon="11.299584992"><ele>106</ele><time>2020-01-12T08:07:59Z</time></trkpt>
<trkpt lat="43.714435995" lon="11.299594967"><ele>106</ele><time>2020-01-12T08:08:00Z</time></trkpt>
<trkpt lat="43.714409005" lon="11.299604019"><ele>106</ele><time>2020-01-12T08:08:01Z</time></trkpt>
<trkpt lat="43.714381009" lon="11.299612988"><ele>106</ele><time>2020-01-12T08:08:02Z</time></trkpt>
<trkpt lat="43.714353014" lon="11.299621034"><ele>106</ele><time>2020-01-12T08:08:03Z</time></trkpt>
<trkpt lat="43.714324012" lon="11.299628997"><ele>106</ele><time>2020-01-12T08:08:04Z</time></trkpt>
<trkpt lat="43.714295011" lon="11.299636038"><ele>106</ele><time>2020-01-12T08:08:05Z</time></trkpt>
<trkpt lat="43.714267015" lon="11.299642995"><ele>106</ele><time>2020-01-12T08:08:06Z</time></trkpt>
<trkpt lat="43.714237008" lon="11.299650036"><ele>106</ele><time>2020-01-12T08:08:07Z</time></trkpt>
<trkpt lat="43.714208007" lon="11.299655987"><ele>106</ele><time>2020-01-12T08:08:08Z</time></trkpt>
<trkpt lat="43.714179005" lon="11.299662022"><ele>106</ele><time>2020-01-12T08:08:09Z</time></trkpt>
<trkpt lat="43.714148998" lon="11.299667973"><ele>106</ele><time>2020-01-12T08:08:10Z</time></trkpt>
<trkpt lat="43.714118991" lon="11.299674008"><ele>106</ele><time>2020-01-12T08:08:11Z</time></trkpt>
<trkpt lat="43.714088984" lon="11.299679037"><ele>106</ele><time>2020-01-12T08:08:12Z</time></trkpt>
<trkpt lat="43.714059982" lon="11.299684988"><ele>105</ele><time>2020-01-12T08:08:13Z</time></trkpt>
<trkpt lat="43.714029975" lon="11.299690017"><ele>105</ele><time>2020-01-12T08:08:14Z</time></trkpt>
<trkpt lat="43.713999968" lon="11.299694963"><ele>105</ele><time>2020-01-12T08:08:15Z</time></trkpt>
<trkpt lat="43.713969961" lon="11.299699992"><ele>105</ele><time>2020-01-12T08:08:16Z</time></trkpt>
<trkpt lat="43.713940037" lon="11.299705021"><ele>105</ele><time>2020-01-12T08:08:17Z</time></trkpt>
<trkpt lat="43.71391003" lon="11.299710972"><ele>105</ele><time>2020-01-12T08:08:18Z</time></trkpt>
<trkpt lat="43.713880023" lon="11.299716001"><ele>105</ele><time>2020-01-12T08:08:19Z</time></trkpt>
<trkpt lat="43.713850016" lon="11.299721031"><ele>104</ele><time>2020-01-12T08:08:20Z</time></trkpt>
<trkpt lat="43.713820009" lon="11.299726982"><ele>104</ele><time>2020-01-12T08:08:21Z</time></trkpt>
<trkpt lat="43.713791007" lon="11.299733017"><ele>104</ele><time>2020-01-12T08:08:22Z</time></trkpt>
<trkpt lat="43.713762006" lon="11.299738968"><ele>104</ele><time>2020-01-12T08:08:23Z</time></trkpt>
<trkpt lat="43.713733004" lon="11.299746009"><ele>104</ele><time>2020-01-12T08:08:24Z</time></trkpt>
<trkpt lat="43.713704003" lon="11.299752966"><ele>104</ele><time>2020-01-12T08:08:25Z</time></trkpt>
<trkpt lat="43.713676007" lon="11.299761012"><ele>104</ele><time>2020-01-12T08:08:26Z</time></trkpt>
<trkpt lat="43.713648012" lon="11.299769981"><ele>103</ele><time>2020-01-12T08:08:27Z</time></trkpt>
<trkpt lat="43.713621022" lon="11.299780039"><ele>103</ele><time>2020-01-12T08:08:28Z</time></trkpt>
<trkpt lat="43.713595038" lon="11.299790014"><ele>103</ele><time>2020-01-12T08:08:29Z</time></trkpt>
<trkpt lat="43.713568971" lon="11.299802"><ele>103</ele><time>2020-01-12T08:08:30Z</time></trkpt>
<trkpt lat="43.713544998" lon="11.299813986"><ele>103</ele><time>2020-01-12T08:08:31Z</time></trkpt>
<trkpt lat="43.71352002" lon="11.299827984"><ele>103</ele><time>2020-01-12T08:08:32Z</time></trkpt>
<trkpt lat="43.713494958" lon="11.299840976"><ele>103</ele><time>2020-01-12T08:08:33Z</time></trkpt>
<trkpt lat="43.713468974" lon="11.299854973"><ele>103</ele><time>2020-01-12T08:08:34Z</time></trkpt>
<trkpt lat="43.713440979" lon="11.299868971"><ele>102</ele><time>2020-01-12T08:08:35Z</time></trkpt>
<trkpt lat="43.713411978" lon="11.299882969"><ele>102</ele><time>2020-01-12T08:08:36Z</time></trkpt>
<trkpt lat="43.713380964" lon="11.299895961"><ele>102</ele><time>2020-01-12T08:08:37Z</time></trkpt>
<trkpt lat="43.713349029" lon="11.299908031"><ele>102</ele><time>2020-01-12T08:08:38Z</time></trkpt>
<trkpt lat="43.713317011" lon="11.299920017"><ele>102</ele><time>2020-01-12T08:08:39Z</time></trkpt>
<trkpt lat="43.713287003" lon="11.299929991"><ele>102</ele><time>2020-01-12T08:08:40Z</time></trkpt>
<trkpt lat="43.713256996" lon="11.299939966"><ele>102</ele><time>2020-01-12T08:08:41Z</time></trkpt>
<trkpt lat="43.713226989" lon="11.299950024"><ele>102</ele><time>2020-01-12T08:08:42Z</time></trkpt>
<trkpt lat="43.713197988" lon="11.299958993"><ele>102</ele><time>2020-01-12T08:08:43Z</time></trkpt>
<trkpt lat="43.713169992" lon="11.299967039"><ele>102</ele><time>2020-01-12T08:08:44Z</time></trkpt>
<trkpt lat="43.713141996" lon="11.299976008"><ele>102</ele><time>2020-01-12T08:08:45Z</time></trkpt>
<trkpt lat="43.713114001" lon="11.299984977"><ele>102</ele><time>2020-01-12T08:08:46Z</time></trkpt>
<trkpt lat="43.713086005" lon="11.299995035"><ele>102</ele><time>2020-01-12T08:08:47Z</time></trkpt>
<trkpt lat="43.71305801" lon="11.300005009"><ele>102</ele><time>2020-01-12T08:08:48Z</time></trkpt>
<trkpt lat="43.713030014" lon="11.30001599"><ele>102</ele><time>2020-01-12T08:08:49Z</time></trkpt>
<trkpt lat="43.713002019" lon="11.300027976"><ele>102</ele><time>2020-01-12T08:08:50Z</time></trkpt>
<trkpt lat="43.712973017" lon="11.300040968"><ele>103</ele><time>2020-01-12T08:08:51Z</time></trkpt>
<trkpt lat="43.712944016" lon="11.30005396"><ele>103</ele><time>2020-01-12T08:08:52Z</time></trkpt>
<trkpt lat="43.71291602" lon="11.300068041"><ele>103</ele><time>2020-01-12T08:08:53Z</time></trkpt>
<trkpt lat="43.712887019" lon="11.300082961"><ele>103</ele><time>2020-01-12T08:08:54Z</time></trkpt>
<trkpt lat="43.712858018" lon="11.300096959"><ele>103</ele><time>2020-01-12T08:08:55Z</time></trkpt>
<trkpt lat="43.712830022" lon="11.300111962"><ele>104</ele><time>2020-01-12T08:08:56Z</time></trkpt>
<trkpt lat="43.712802026" lon="11.300126966"><ele>104</ele><time>2020-01-12T08:08:57Z</time></trkpt>
<trkpt lat="43.712774031" lon="11.300140964"><ele>104</ele><time>2020-01-12T08:08:58Z</time></trkpt>
<trkpt lat="43.712747041" lon="11.300155967"><ele>104</ele><time>2020-01-12T08:08:59Z</time></trkpt>
<trkpt lat="43.712720973" lon="11.300168959"><ele>104</ele><time>2020-01-12T08:09:00Z</time></trkpt>
<trkpt lat="43.712693984" lon="11.300183041"><ele>105</ele><time>2020-01-12T08:09:01Z</time></trkpt>
<trkpt lat="43.712668" lon="11.300196033"><ele>105</ele><time>2020-01-12T08:09:02Z</time></trkpt>
<trkpt lat="43.712643022" lon="11.300208019"><ele>105</ele><time>2020-01-12T08:09:03Z</time></trkpt>
<trkpt lat="43.712617038" lon="11.300220005"><ele>105</ele><time>2020-01-12T08:09:04Z</time></trkpt>
<trkpt lat="43.71259097" lon="11.300230986"><ele>105</ele><time>2020-01-12T08:09:05Z</time></trkpt>
<trkpt lat="43.712564986" lon="11.300241966"><ele>105</ele><time>2020-01-12T08:09:06Z</time></trkpt>
<trkpt lat="43.712539002" lon="11.30025303"><ele>105</ele><time>2020-01-12T08:09:07Z</time></trkpt>
<trkpt lat="43.712513018" lon="11.300263004"><ele>106</ele><time>2020-01-12T08:09:08Z</time></trkpt>
<trkpt lat="43.712486029" lon="11.300271973"><ele>106</ele><time>2020-01-12T08:09:09Z</time></trkpt>
<trkpt lat="43.712459039" lon="11.30028002"><ele>106</ele><time>2020-01-12T08:09:10Z</time></trkpt>
<trkpt lat="43.712431965" lon="11.300288988"><ele>106</ele><time>2020-01-12T08:09:11Z</time></trkpt>
<trkpt lat="43.71240397" lon="11.300297035"><ele>106</ele><time>2020-01-12T08:09:12Z</time></trkpt>
<trkpt lat="43.712375974" lon="11.300303992"><ele>106</ele><time>2020-01-12T08:09:13Z</time></trkpt>
<trkpt lat="43.712347979" lon="11.300312039"><ele>106</ele><time>2020-01-12T08:09:14Z</time></trkpt>
<trkpt lat="43.712320989" lon="11.300318995"><ele>107</ele><time>2020-01-12T08:09:15Z</time></trkpt>
<trkpt lat="43.712292993" lon="11.300326958"><ele>107</ele><time>2020-01-12T08:09:16Z</time></trkpt>
<trkpt lat="43.712264998" lon="11.300333999"><ele>107</ele><time>2020-01-12T08:09:17Z</time></trkpt>
<trkpt lat="43.712238008" lon="11.300341962"><ele>107</ele><time>2020-01-12T08:09:18Z</time></trkpt>
<trkpt lat="43.712210013" lon="11.300350009"><ele>107</ele><time>2020-01-12T08:09:19Z</time></trkpt>
<trkpt lat="43.712183023" lon="11.300357971"><ele>107</ele><time>2020-01-12T08:09:20Z</time></trkpt>
<trkpt lat="43.712156033" lon="11.300367024"><ele>107</ele><time>2020-01-12T08:09:21Z</time></trkpt>
<trkpt lat="43.71212896" lon="11.300374987"><ele>107</ele><time>2020-01-12T08:09:22Z</time></trkpt>
<trkpt lat="43.71210197" lon="11.300383033"><ele>108</ele><time>2020-01-12T08:09:23Z</time></trkpt>
<trkpt lat="43.712075986" lon="11.300390996"><ele>108</ele><time>2020-01-12T08:09:24Z</time></trkpt>
<trkpt lat="43.712048996" lon="11.300398959"><ele>108</ele><time>2020-01-12T08:09:25Z</time></trkpt>
<trkpt lat="43.712022007" lon="11.300407005"><ele>108</ele><time>2020-01-12T08:09:26Z</time></trkpt>
<trkpt lat="43.711995017" lon="11.300414968"><ele>108</ele><time>2020-01-12T08:09:27Z</time></trkpt>
<trkpt lat="43.711968027" lon="11.300422009"><ele>108</ele><time>2020-01-12T08:09:28Z</time></trkpt>
<trkpt lat="43.711941037" lon="11.300428966"><ele>108</ele><time>2020-01-12T08:09:29Z</time></trkpt>
<trkpt lat="43.711913964" lon="11.300436007"><ele>108</ele><time>2020-01-12T08:09:30Z</time></trkpt>
<trkpt lat="43.711886974" lon="11.30044397"><ele>109</ele><time>2020-01-12T08:09:31Z</time></trkpt>
<trkpt lat="43.711859984" lon="11.30045101"><ele>109</ele><time>2020-01-12T08:09:32Z</time></trkpt>
<trkpt lat="43.711831989" lon="11.300458973"><ele>109</ele><time>2020-01-12T08:09:33Z</time></trkpt>
<trkpt lat="43.711803993" lon="11.30046702"><ele>109</ele><time>2020-01-12T08:09:34Z</time></trkpt>
<trkpt lat="43.711774992" lon="11.300475989"><ele>109</ele><time>2020-01-12T08:09:35Z</time></trkpt>
<trkpt lat="43.711686982" lon="11.300505996"><ele>109</ele><time>2020-01-12T08:09:38Z</time></trkpt>
<trkpt lat="43.71165798" lon="11.300516976"><ele>110</ele><time>2020-01-12T08:09:39Z</time></trkpt>
<trkpt lat="43.711626967" lon="11.300528962"><ele>110</ele><time>2020-01-12T08:09:40Z</time></trkpt>
<trkpt lat="43.71159696" lon="11.300541032"><ele>110</ele><time>2020-01-12T08:09:41Z</time></trkpt>
<trkpt lat="43.711567037" lon="11.300552012"><ele>110</ele><time>2020-01-12T08:09:42Z</time></trkpt>
<trkpt lat="43.71153703" lon="11.300563999"><ele>110</ele><time>2020-01-12T08:09:43Z</time></trkpt>
<trkpt lat="43.711448014" lon="11.300597023"><ele>111</ele><time>2020-01-12T08:09:46Z</time></trkpt>
<trkpt lat="43.711420018" lon="11.300606998"><ele>111</ele><time>2020-01-12T08:09:47Z</time></trkpt>
<trkpt lat="43.711392023" lon="11.300615966"><ele>111</ele><time>2020-01-12T08:09:48Z</time></trkpt>
<trkpt lat="43.711364027" lon="11.300624013"><ele>111</ele><time>2020-01-12T08:09:49Z</time></trkpt>
<trkpt lat="43.711336032" lon="11.300632982"><ele>111</ele><time>2020-01-12T08:09:50Z</time></trkpt>
<trkpt lat="43.711309042" lon="11.300641028"><ele>111</ele><time>2020-01-12T08:09:51Z</time></trkpt>
<trkpt lat="43.711281968" lon="11.300648991"><ele>111</ele><time>2020-01-12T08:09:52Z</time></trkpt>
<trkpt lat="43.711255984" lon="11.300657038"><ele>111</ele><time>2020-01-12T08:09:53Z</time></trkpt>
<trkpt lat="43.711228995" lon="11.300666006"><ele>112</ele><time>2020-01-12T08:09:54Z</time></trkpt>
<trkpt lat="43.711203011" lon="11.300674975"><ele>112</ele><time>2020-01-12T08:09:55Z</time></trkpt>
<trkpt lat="43.711176021" lon="11.300684027"><ele>112</ele><time>2020-01-12T08:09:56Z</time></trkpt>
<trkpt lat="43.711150037" lon="11.300694002"><ele>112</ele><time>2020-01-12T08:09:57Z</time></trkpt>
<trkpt lat="43.711122964" lon="11.300703976"><ele>112</ele><time>2020-01-12T08:09:58Z</time></trkpt>
<trkpt lat="43.711095974" lon="11.300713029"><ele>112</ele><time>2020-01-12T08:09:59Z</time></trkpt>
<trkpt lat="43.711068984" lon="11.300723003"><ele>112</ele><time>2020-01-12T08:10:00Z</time></trkpt>
<trkpt lat="43.711041994" lon="11.300731972"><ele>113</ele><time>2020-01-12T08:10:01Z</time></trkpt>
<trkpt lat="43.711013999" lon="11.300741024"><ele>113</ele><time>2020-01-12T08:10:02Z</time></trkpt>
<trkpt lat="43.710984997" lon="11.300749993"><ele>113</ele><time>2020-01-12T08:10:03Z</time></trkpt>
<trkpt lat="43.71095499" lon="11.300757034"><ele>113</ele><time>2020-01-12T08:10:04Z</time></trkpt>
<trkpt lat="43.710924983" lon="11.300763991"><ele>113</ele><time>2020-01-12T08:10:05Z</time></trkpt>
<trkpt lat="43.71089397" lon="11.30076902"><ele>113</ele><time>2020-01-12T08:10:06Z</time></trkpt>
<trkpt lat="43.710862035" lon="11.300772959"><ele>113</ele><time>2020-01-12T08:10:07Z</time></trkpt>
<trkpt lat="43.710830016" lon="11.300774971"><ele>113</ele><time>2020-01-12T08:10:08Z</time></trkpt>
<trkpt lat="43.710796991" lon="11.300774971"><ele>113</ele><time>2020-01-12T08:10:09Z</time></trkpt>
<trkpt lat="43.710764972" lon="11.300772037"><ele>114</ele><time>2020-01-12T08:10:10Z</time></trkpt>
<trkpt lat="43.710733037" lon="11.300767008"><ele>114</ele><time>2020-01-12T08:10:11Z</time></trkpt>
<trkpt lat="43.710701019" lon="11.300758962"><ele>114</ele><time>2020-01-12T08:10:12Z</time></trkpt>
<trkpt lat="43.710670006" lon="11.300748987"><ele>114</ele><time>2020-01-12T08:10:13Z</time></trkpt>
<trkpt lat="43.710639998" lon="11.300735995"><ele>114</ele><time>2020-01-12T08:10:14Z</time></trkpt>
<trkpt lat="43.710609991" lon="11.300723003"><ele>114</ele><time>2020-01-12T08:10:15Z</time></trkpt>
<trkpt lat="43.710579984" lon="11.300708"><ele>114</ele><time>2020-01-12T08:10:16Z</time></trkpt>
<trkpt lat="43.710550983" lon="11.30069199"><ele>114</ele><time>2020-01-12T08:10:17Z</time></trkpt>
<trkpt lat="43.710522987" lon="11.300674975"><ele>114</ele><time>2020-01-12T08:10:18Z</time></trkpt>
<trkpt lat="43.710494991" lon="11.300657038"><ele>113</ele><time>2020-01-12T08:10:19Z</time></trkpt>
<trkpt lat="43.71046599" lon="11.300638011"><ele>113</ele><time>2020-01-12T08:10:20Z</time></trkpt>
<trkpt lat="43.710437994" lon="11.300618984"><ele>113</ele><time>2020-01-12T08:10:21Z</time></trkpt>
<trkpt lat="43.710409999" lon="11.300599035"><ele>113</ele><time>2020-01-12T08:10:22Z</time></trkpt>
<trkpt lat="43.710380998" lon="11.300579002"><ele>113</ele><time>2020-01-12T08:10:23Z</time></trkpt>
<trkpt lat="43.710353002" lon="11.300557964"><ele>113</ele><time>2020-01-12T08:10:24Z</time></trkpt>
<trkpt lat="43.710322995" lon="11.300538015"><ele>113</ele><time>2020-01-12T08:10:25Z</time></trkpt>
<trkpt lat="43.710293993" lon="11.300517982"><ele>112</ele><time>2020-01-12T08:10:26Z</time></trkpt>
<trkpt lat="43.710263986" lon="11.300499039"><ele>112</ele><time>2020-01-12T08:10:27Z</time></trkpt>
<trkpt lat="43.710233979" lon="11.300480012"><ele>112</ele><time>2020-01-12T08:10:28Z</time></trkpt>
<trkpt lat="43.710203972" lon="11.300461991"><ele>112</ele><time>2020-01-12T08:10:29Z</time></trkpt>
<trkpt lat="43.710112022" lon="11.300417986"><ele>112</ele><time>2020-01-12T08:10:32Z</time></trkpt>
<trkpt lat="43.710081009" lon="11.300406"><ele>112</ele><time>2020-01-12T08:10:33Z</time></trkpt>
<trkpt lat="43.71004899" lon="11.300397031"><ele>112</ele><time>2020-01-12T08:10:34Z</time></trkpt>
<trkpt lat="43.710017977" lon="11.30038999"><ele>112</ele><time>2020-01-12T08:10:35Z</time></trkpt>
<trkpt lat="43.709986964" lon="11.300384961"><ele>111</ele><time>2020-01-12T08:10:36Z</time></trkpt>
<trkpt lat="43.709956035" lon="11.300381022"><ele>111</ele><time>2020-01-12T08:10:37Z</time></trkpt>
<trkpt lat="43.709925022" lon="11.30037901"><ele>111</ele><time>2020-01-12T08:10:38Z</time></trkpt>
<trkpt lat="43.709893003" lon="11.30037901"><ele>111</ele><time>2020-01-12T08:10:39Z</time></trkpt>
<trkpt lat="43.70986199" lon="11.300380016"><ele>111</ele><time>2020-01-12T08:10:40Z</time></trkpt>
<trkpt lat="43.709830977" lon="11.300382027"><ele>111</ele><time>2020-01-12T08:10:41Z</time></trkpt>
<trkpt lat="43.709799964" lon="11.300384039"><ele>110</ele><time>2020-01-12T08:10:42Z</time></trkpt>
<trkpt lat="43.709769035" lon="11.300387979"><ele>110</ele><time>2020-01-12T08:10:43Z</time></trkpt>
<trkpt lat="43.709738022" lon="11.300392002"><ele>110</ele><time>2020-01-12T08:10:44Z</time></trkpt>
<trkpt lat="43.709707009" lon="11.300397031"><ele>110</ele><time>2020-01-12T08:10:45Z</time></trkpt>
<trkpt lat="43.709675996" lon="11.300401976"><ele>110</ele><time>2020-01-12T08:10:46Z</time></trkpt>
<trkpt lat="43.709645988" lon="11.300408011"><ele>110</ele><time>2020-01-12T08:10:47Z</time></trkpt>
<trkpt lat="43.709614975" lon="11.30041304"><ele>110</ele><time>2020-01-12T08:10:48Z</time></trkpt>
<trkpt lat="43.709584968" lon="11.300417986"><ele>110</ele><time>2020-01-12T08:10:49Z</time></trkpt>
<trkpt lat="43.709554961" lon="11.300423015"><ele>109</ele><time>2020-01-12T08:10:50Z</time></trkpt>
<trkpt lat="43.70952596" lon="11.300427038"><ele>109</ele><time>2020-01-12T08:10:51Z</time></trkpt>
<trkpt lat="43.709496036" lon="11.300430978"><ele>109</ele><time>2020-01-12T08:10:52Z</time></trkpt>
<trkpt lat="43.709467035" lon="11.300433995"><ele>109</ele><time>2020-01-12T08:10:53Z</time></trkpt>
<trkpt lat="43.709438033" lon="11.300437013"><ele>109</ele><time>2020-01-12T08:10:54Z</time></trkpt>
<trkpt lat="43.709409032" lon="11.30044003"><ele>109</ele><time>2020-01-12T08:10:55Z</time></trkpt>
<trkpt lat="43.709381036" lon="11.300442964"><ele>109</ele><time>2020-01-12T08:10:56Z</time></trkpt>
<trkpt lat="43.709352035" lon="11.300446987"><ele>109</ele><time>2020-01-12T08:10:57Z</time></trkpt>
<trkpt lat="43.70932404" lon="11.300453022"><ele>108</ele><time>2020-01-12T08:10:58Z</time></trkpt>
<trkpt lat="43.709295038" lon="11.300459979"><ele>108</ele><time>2020-01-12T08:10:59Z</time></trkpt>
<trkpt lat="43.709266959" lon="11.300470037"><ele>108</ele><time>2020-01-12T08:11:00Z</time></trkpt>
<trkpt lat="43.709238963" lon="11.300482024"><ele>108</ele><time>2020-01-12T08:11:01Z</time></trkpt>
<trkpt lat="43.709209962" lon="11.300497027"><ele>108</ele><time>2020-01-12T08:11:02Z</time></trkpt>
<trkpt lat="43.709181966" lon="11.300514964"><ele>108</ele><time>2020-01-12T08:11:03Z</time></trkpt>
<trkpt lat="43.709152965" lon="11.300536003"><ele>108</ele><time>2020-01-12T08:11:04Z</time></trkpt>
<trkpt lat="43.709124969" lon="11.300560981"><ele>108</ele><time>2020-01-12T08:11:05Z</time></trkpt>
<trkpt lat="43.70909798" lon="11.300587971"><ele>108</ele><time>2020-01-12T08:11:06Z</time></trkpt>
<trkpt lat="43.709071996" lon="11.300617978"><ele>108</ele><time>2020-01-12T08:11:07Z</time></trkpt>
<trkpt lat="43.709048023" lon="11.300651003"><ele>108</ele><time>2020-01-12T08:11:08Z</time></trkpt>
<trkpt lat="43.709024973" lon="11.300685033"><ele>108</ele><time>2020-01-12T08:11:09Z</time></trkpt>
<trkpt lat="43.709004018" lon="11.300721997"><ele>108</ele><time>2020-01-12T08:11:10Z</time></trkpt>
<trkpt lat="43.708985997" lon="11.300759967"><ele>108</ele><time>2020-01-12T08:11:11Z</time></trkpt>
<trkpt lat="43.708969988" lon="11.300800033"><ele>108</ele><time>2020-01-12T08:11:12Z</time></trkpt>
<trkpt lat="43.70895599" lon="11.300842026"><ele>109</ele><time>2020-01-12T08:11:13Z</time></trkpt>
<trkpt lat="43.708944004" lon="11.30088402"><ele>109</ele><time>2020-01-12T08:11:14Z</time></trkpt>
<trkpt lat="43.70893403" lon="11.300927019"><ele>109</ele><time>2020-01-12T08:11:15Z</time></trkpt>
<trkpt lat="43.708924977" lon="11.300971024"><ele>109</ele><time>2020-01-12T08:11:16Z</time></trkpt>
<trkpt lat="43.708917014" lon="11.301016035"><ele>109</ele><time>2020-01-12T08:11:17Z</time></trkpt>
<trkpt lat="43.708908968" lon="11.30106004"><ele>110</ele><time>2020-01-12T08:11:18Z</time></trkpt>
<trkpt lat="43.708901005" lon="11.301103961"><ele>110</ele><time>2020-01-12T08:11:19Z</time></trkpt>
<trkpt lat="43.708892036" lon="11.301147966"><ele>110</ele><time>2020-01-12T08:11:20Z</time></trkpt>
<trkpt lat="43.708882984" lon="11.301190965"><ele>110</ele><time>2020-01-12T08:11:21Z</time></trkpt>
<trkpt lat="43.708873009" lon="11.301233964"><ele>111</ele><time>2020-01-12T08:11:22Z</time></trkpt>
<trkpt lat="43.708862029" lon="11.301275035"><ele>111</ele><time>2020-01-12T08:11:23Z</time></trkpt>
<trkpt lat="43.708849959" lon="11.301316023"><ele>111</ele><time>2020-01-12T08:11:24Z</time></trkpt>
<trkpt lat="43.708836967" lon="11.301356005"><ele>111</ele><time>2020-01-12T08:11:25Z</time></trkpt>
<trkpt lat="43.708822969" lon="11.301395986"><ele>111</ele><time>2020-01-12T08:11:26Z</time></trkpt>
<trkpt lat="43.708808972" lon="11.301434962"><ele>111</ele><time>2020-01-12T08:11:27Z</time></trkpt>
<trkpt lat="43.708793968" lon="11.301473016"><ele>111</ele><time>2020-01-12T08:11:28Z</time></trkpt>
<trkpt lat="43.708778964" lon="11.301510986"><ele>111</ele><time>2020-01-12T08:11:29Z</time></trkpt>
<trkpt lat="43.708763961" lon="11.30154904"><ele>111</ele><time>2020-01-12T08:11:30Z</time></trkpt>
<trkpt lat="43.708748035" lon="11.301586004"><ele>111</ele><time>2020-01-12T08:11:31Z</time></trkpt>
<trkpt lat="43.708701013" lon="11.301694969"><ele>112</ele><time>2020-01-12T08:11:34Z</time></trkpt>
<trkpt lat="43.708685003" lon="11.301731011"><ele>112</ele><time>2020-01-12T08:11:35Z</time></trkpt>
<trkpt lat="43.708667988" lon="11.301766969"><ele>112</ele><time>2020-01-12T08:11:36Z</time></trkpt>
<trkpt lat="43.708651979" lon="11.301803011"><ele>112</ele><time>2020-01-12T08:11:37Z</time></trkpt>
<trkpt lat="43.708634963" lon="11.301837964"><ele>112</ele><time>2020-01-12T08:11:38Z</time></trkpt>
<trkpt lat="43.708619038" lon="11.301873"><ele>113</ele><time>2020-01-12T08:11:39Z</time></trkpt>
<trkpt lat="43.708602022" lon="11.301908037"><ele>113</ele><time>2020-01-12T08:11:40Z</time></trkpt>
<trkpt lat="43.708585007" lon="11.301942989"><ele>113</ele><time>2020-01-12T08:11:41Z</time></trkpt>
<trkpt lat="43.708567992" lon="11.301978026"><ele>113</ele><time>2020-01-12T08:11:42Z</time></trkpt>
<trkpt lat="43.708550977" lon="11.302011972"><ele>113</ele><time>2020-01-12T08:11:43Z</time></trkpt>
<trkpt lat="43.708533961" lon="11.302047009"><ele>113</ele><time>2020-01-12T08:11:44Z</time></trkpt>
<trkpt lat="43.708516024" lon="11.302081039"><ele>113</ele><time>2020-01-12T08:11:45Z</time></trkpt>
<trkpt lat="43.708499009" lon="11.302115992"><ele>113</ele><time>2020-01-12T08:11:46Z</time></trkpt>
<trkpt lat="43.708481994" lon="11.302150022"><ele>113</ele><time>2020-01-12T08:11:47Z</time></trkpt>
<trkpt lat="43.708463972" lon="11.302183969"><ele>113</ele><time>2020-01-12T08:11:48Z</time></trkpt>
<trkpt lat="43.708447041" lon="11.302219005"><ele>114</ele><time>2020-01-12T08:11:49Z</time></trkpt>
<trkpt lat="43.70842902" lon="11.302253036"><ele>114</ele><time>2020-01-12T08:11:50Z</time></trkpt>
<trkpt lat="43.708412005" lon="11.302286983"><ele>114</ele><time>2020-01-12T08:11:51Z</time></trkpt>
<trkpt lat="43.708393984" lon="11.302322019"><ele>114</ele><time>2020-01-12T08:11:52Z</time></trkpt>
<trkpt lat="43.708375962" lon="11.302356971"><ele>114</ele><time>2020-01-12T08:11:53Z</time></trkpt>
<trkpt lat="43.708359031" lon="11.302391002"><ele>114</ele><time>2020-01-12T08:11:54Z</time></trkpt>
<trkpt lat="43.70834101" lon="11.302426038"><ele>114</ele><time>2020-01-12T08:11:55Z</time></trkpt>
<trkpt lat="43.708322989" lon="11.302461997"><ele>114</ele><time>2020-01-12T08:11:56Z</time></trkpt>
<trkpt lat="43.708304968" lon="11.302497033"><ele>114</ele><time>2020-01-12T08:11:57Z</time></trkpt>
<trkpt lat="43.70828703" lon="11.302532991"><ele>114</ele><time>2020-01-12T08:11:58Z</time></trkpt>
<trkpt lat="43.708270015" lon="11.302569034"><ele>114</ele><time>2020-01-12T08:11:59Z</time></trkpt>
<trkpt lat="43.708251994" lon="11.302605998"><ele>114</ele><time>2020-01-12T08:12:00Z</time></trkpt>
<trkpt lat="43.708233973" lon="11.302642962"><ele>114</ele><time>2020-01-12T08:12:01Z</time></trkpt>
<trkpt lat="43.708216036" lon="11.30268001"><ele>114</ele><time>2020-01-12T08:12:02Z</time></trkpt>
<trkpt lat="43.708198015" lon="11.302716974"><ele>114</ele><time>2020-01-12T08:12:03Z</time></trkpt>
<trkpt lat="43.708180999" lon="11.302755028"><ele>114</ele><time>2020-01-12T08:12:04Z</time></trkpt>
<trkpt lat="43.708162978" lon="11.302792998"><ele>114</ele><time>2020-01-12T08:12:05Z</time></trkpt>
<trkpt lat="43.708145963" lon="11.302830968"><ele>114</ele><time>2020-01-12T08:12:06Z</time></trkpt>
<trkpt lat="43.708129032" lon="11.302870028"><ele>114</ele><time>2020-01-12T08:12:07Z</time></trkpt>
<trkpt lat="43.708112016" lon="11.302907998"><ele>114</ele><time>2020-01-12T08:12:08Z</time></trkpt>
<trkpt lat="43.708096007" lon="11.302946974"><ele>114</ele><time>2020-01-12T08:12:09Z</time></trkpt>
<trkpt lat="43.708078992" lon="11.302985027"><ele>114</ele><time>2020-01-12T08:12:10Z</time></trkpt>
<trkpt lat="43.708062982" lon="11.303024003"><ele>114</ele><time>2020-01-12T08:12:11Z</time></trkpt>
<trkpt lat="43.708046973" lon="11.303062979"><ele>114</ele><time>2020-01-12T08:12:12Z</time></trkpt>
<trkpt lat="43.708030963" lon="11.303101033"><ele>114</ele><time>2020-01-12T08:12:13Z</time></trkpt>
<trkpt lat="43.708015038" lon="11.303139003"><ele>114</ele><time>2020-01-12T08:12:14Z</time></trkpt>
<trkpt lat="43.707998022" lon="11.303176973"><ele>114</ele><time>2020-01-12T08:12:15Z</time></trkpt>
<trkpt lat="43.707947982" lon="11.303289039"><ele>113</ele><time>2020-01-12T08:12:18Z</time></trkpt>
<trkpt lat="43.707930967" lon="11.303326003"><ele>113</ele><time>2020-01-12T08:12:19Z</time></trkpt>
<trkpt lat="43.70791303" lon="11.303361962"><ele>113</ele><time>2020-01-12T08:12:20Z</time></trkpt>
<trkpt lat="43.707895009" lon="11.303398004"><ele>113</ele><time>2020-01-12T08:12:21Z</time></trkpt>
<trkpt lat="43.707875982" lon="11.30343304"><ele>113</ele><time>2020-01-12T08:12:22Z</time></trkpt>
<trkpt lat="43.707857039" lon="11.303467993"><ele>112</ele><time>2020-01-12T08:12:23Z</time></trkpt>
<trkpt lat="43.707838012" lon="11.303502023"><ele>112</ele><time>2020-01-12T08:12:24Z</time></trkpt>
<trkpt lat="43.707817979" lon="11.303536976"><ele>112</ele><time>2020-01-12T08:12:25Z</time></trkpt>
<trkpt lat="43.70779803" lon="11.30357"><ele>112</ele><time>2020-01-12T08:12:26Z</time></trkpt>
<trkpt lat="43.707777997" lon="11.303604031"><ele>111</ele><time>2020-01-12T08:12:27Z</time></trkpt>
<trkpt lat="43.707756037" lon="11.303636972"><ele>111</ele><time>2020-01-12T08:12:28Z</time></trkpt>
<trkpt lat="43.707734998" lon="11.303669997"><ele>111</ele><time>2020-01-12T08:12:29Z</time></trkpt>
<trkpt lat="43.707713038" lon="11.303702015"><ele>111</ele><time>2020-01-12T08:12:30Z</time></trkpt>
<trkpt lat="43.707689987" lon="11.30373504"><ele>110</ele><time>2020-01-12T08:12:31Z</time></trkpt>
<trkpt lat="43.707668027" lon="11.303766975"><ele>110</ele><time>2020-01-12T08:12:32Z</time></trkpt>
<trkpt lat="43.707644977" lon="11.303798994"><ele>110</ele><time>2020-01-12T08:12:33Z</time></trkpt>
<trkpt lat="43.707623016" lon="11.303832019"><ele>110</ele><time>2020-01-12T08:12:34Z</time></trkpt>
<trkpt lat="43.707600972" lon="11.303864038"><ele>109</ele><time>2020-01-12T08:12:35Z</time></trkpt>
<trkpt lat="43.707578005" lon="11.303896978"><ele>109</ele><time>2020-01-12T08:12:36Z</time></trkpt>
<trkpt lat="43.707556967" lon="11.303930003"><ele>109</ele><time>2020-01-12T08:12:37Z</time></trkpt>
<trkpt lat="43.707535006" lon="11.303963028"><ele>109</ele><time>2020-01-12T08:12:38Z</time></trkpt>
<trkpt lat="43.707513968" lon="11.303995969"><ele>108</ele><time>2020-01-12T08:12:39Z</time></trkpt>
<trkpt lat="43.707494019" lon="11.304029999"><ele>108</ele><time>2020-01-12T08:12:40Z</time></trkpt>
<trkpt lat="43.707473986" lon="11.30406403"><ele>108</ele><time>2020-01-12T08:12:41Z</time></trkpt>
<trkpt lat="43.707454959" lon="11.304098982"><ele>108</ele><time>2020-01-12T08:12:42Z</time></trkpt>
<trkpt lat="43.707437022" lon="11.304134019"><ele>108</ele><time>2020-01-12T08:12:43Z</time></trkpt>
<trkpt lat="43.707419001" lon="11.304169977"><ele>108</ele><time>2020-01-12T08:12:44Z</time></trkpt>
<trkpt lat="43.707401985" lon="11.304206019"><ele>108</ele><time>2020-01-12T08:12:45Z</time></trkpt>
<trkpt lat="43.70738497" lon="11.304241978"><ele>108</ele><time>2020-01-12T08:12:46Z</time></trkpt>
<trkpt lat="43.707368961" lon="11.304280031"><ele>108</ele><time>2020-01-12T08:12:47Z</time></trkpt>
<trkpt lat="43.707354041" lon="11.304316996"><ele>108</ele><time>2020-01-12T08:12:48Z</time></trkpt>
<trkpt lat="43.707339037" lon="11.304355972"><ele>108</ele><time>2020-01-12T08:12:49Z</time></trkpt>
<trkpt lat="43.707325039" lon="11.304395031"><ele>108</ele><time>2020-01-12T08:12:50Z</time></trkpt>
<trkpt lat="43.707311964" lon="11.304434007"><ele>108</ele><time>2020-01-12T08:12:51Z</time></trkpt>
<trkpt lat="43.707298972" lon="11.304474995"><ele>108</ele><time>2020-01-12T08:12:52Z</time></trkpt>
<trkpt lat="43.707286986" lon="11.304515982"><ele>108</ele><time>2020-01-12T08:12:53Z</time></trkpt>
<trkpt lat="43.707276005" lon="11.30455697"><ele>108</ele><time>2020-01-12T08:12:54Z</time></trkpt>
<trkpt lat="43.707265025" lon="11.304599969"><ele>108</ele><time>2020-01-12T08:12:55Z</time></trkpt>
<trkpt lat="43.707254967" lon="11.304642968"><ele>108</ele><time>2020-01-12T08:12:56Z</time></trkpt>
<trkpt lat="43.707244992" lon="11.304686973"><ele>108</ele><time>2020-01-12T08:12:57Z</time></trkpt>
<trkpt lat="43.707236024" lon="11.304731984"><ele>108</ele><time>2020-01-12T08:12:58Z</time></trkpt>
<trkpt lat="43.707226971" lon="11.304776995"><ele>108</ele><time>2020-01-12T08:12:59Z</time></trkpt>
<trkpt lat="43.707219008" lon="11.304822005"><ele>109</ele><time>2020-01-12T08:13:00Z</time></trkpt>
<trkpt lat="43.707211968" lon="11.304867016"><ele>109</ele><time>2020-01-12T08:13:01Z</time></trkpt>
<trkpt lat="43.707206016" lon="11.304910015"><ele>109</ele><time>2020-01-12T08:13:02Z</time></trkpt>
<trkpt lat="43.707200987" lon="11.304952009"><ele>109</ele><time>2020-01-12T08:13:03Z</time></trkpt>
<trkpt lat="43.707195958" lon="11.304992996"><ele>109</ele><time>2020-01-12T08:13:04Z</time></trkpt>
<trkpt lat="43.707191013" lon="11.305032978"><ele>109</ele><time>2020-01-12T08:13:05Z</time></trkpt>
<trkpt lat="43.707185984" lon="11.30507296"><ele>109</ele><time>2020-01-12T08:13:06Z</time></trkpt>
<trkpt lat="43.707180033" lon="11.305113025"><ele>109</ele><time>2020-01-12T08:13:07Z</time></trkpt>
<trkpt lat="43.707172992" lon="11.305153007"><ele>109</ele><time>2020-01-12T08:13:08Z</time></trkpt>
<trkpt lat="43.707165029" lon="11.305191983"><ele>109</ele><time>2020-01-12T08:13:09Z</time></trkpt>
<trkpt lat="43.707155976" lon="11.305231964"><ele>109</ele><time>2020-01-12T08:13:10Z</time></trkpt>
<trkpt lat="43.707144996" lon="11.305271024"><ele>109</ele><time>2020-01-12T08:13:11Z</time></trkpt>
<trkpt lat="43.707134016" lon="11.305308994"><ele>109</ele><time>2020-01-12T08:13:12Z</time></trkpt>
<trkpt lat="43.707121024" lon="11.305345958"><ele>109</ele><time>2020-01-12T08:13:13Z</time></trkpt>
<trkpt lat="43.707107026" lon="11.305382"><ele>109</ele><time>2020-01-12T08:13:14Z</time></trkpt>
<trkpt lat="43.707091017" lon="11.305417037"><ele>109</ele><time>2020-01-12T08:13:15Z</time></trkpt>
<trkpt lat="43.707074001" lon="11.305450983"><ele>109</ele><time>2020-01-12T08:13:16Z</time></trkpt>
<trkpt lat="43.707054975" lon="11.305481996"><ele>109</ele><time>2020-01-12T08:13:17Z</time></trkpt>
<trkpt lat="43.707035026" lon="11.305513009"><ele>109</ele><time>2020-01-12T08:13:18Z</time></trkpt>
<trkpt lat="43.707012981" lon="11.305541005"><ele>109</ele><time>2020-01-12T08:13:19Z</time></trkpt>
<trkpt lat="43.706991021" lon="11.305567995"><ele>109</ele><time>2020-01-12T08:13:20Z</time></trkpt>
<trkpt lat="43.70696797" lon="11.305593979"><ele>109</ele><time>2020-01-12T08:13:21Z</time></trkpt>
<trkpt lat="43.706942992" lon="11.305618035"><ele>109</ele><time>2020-01-12T08:13:22Z</time></trkpt>
<trkpt lat="43.70691902" lon="11.305641001"><ele>109</ele><time>2020-01-12T08:13:23Z</time></trkpt>
<trkpt lat="43.706893036" lon="11.30566204"><ele>109</ele><time>2020-01-12T08:13:24Z</time></trkpt>
<trkpt lat="43.706867974" lon="11.305681989"><ele>109</ele><time>2020-01-12T08:13:25Z</time></trkpt>
<trkpt lat="43.70684199" lon="11.305701016"><ele>108</ele><time>2020-01-12T08:13:26Z</time></trkpt>
<trkpt lat="43.706817012" lon="11.305718031"><ele>108</ele><time>2020-01-12T08:13:27Z</time></trkpt>
<trkpt lat="43.706791028" lon="11.305734962"><ele>108</ele><time>2020-01-12T08:13:28Z</time></trkpt>
<trkpt lat="43.706765966" lon="11.305750972"><ele>108</ele><time>2020-01-12T08:13:29Z</time></trkpt>
<trkpt lat="43.706739983" lon="11.305766981"><ele>108</ele><time>2020-01-12T08:13:30Z</time></trkpt>
<trkpt lat="43.706715005" lon="11.305782991"><ele>108</ele><time>2020-01-12T08:13:31Z</time></trkpt>
<trkpt lat="43.706690026" lon="11.305799"><ele>108</ele><time>2020-01-12T08:13:32Z</time></trkpt>
<trkpt lat="43.706664965" lon="11.305815009"><ele>108</ele><time>2020-01-12T08:13:33Z</time></trkpt>
<trkpt lat="43.706640992" lon="11.305832025"><ele>108</ele><time>2020-01-12T08:13:34Z</time></trkpt>
<trkpt lat="43.70661702" lon="11.30584904"><ele>108</ele><time>2020-01-12T08:13:35Z</time></trkpt>
<trkpt lat="43.706592964" lon="11.305867983"><ele>108</ele><time>2020-01-12T08:13:36Z</time></trkpt>
<trkpt lat="43.706569998" lon="11.305888016"><ele>108</ele><time>2020-01-12T08:13:37Z</time></trkpt>
<trkpt lat="43.706547031" lon="11.305908971"><ele>108</ele><time>2020-01-12T08:13:38Z</time></trkpt>
<trkpt lat="43.706476036" lon="11.305979965"><ele>108</ele><time>2020-01-12T08:13:41Z</time></trkpt>
<trkpt lat="43.706450975" lon="11.306006033"><ele>108</ele><time>2020-01-12T08:13:42Z</time></trkpt>
<trkpt lat="43.706425996" lon="11.306034029"><ele>109</ele><time>2020-01-12T08:13:43Z</time></trkpt>
<trkpt lat="43.706400013" lon="11.306062024"><ele>109</ele><time>2020-01-12T08:13:44Z</time></trkpt>
<trkpt lat="43.706373023" lon="11.306092031"><ele>109</ele><time>2020-01-12T08:13:45Z</time></trkpt>
<trkpt lat="43.706346033" lon="11.306122961"><ele>109</ele><time>2020-01-12T08:13:46Z</time></trkpt>
<trkpt lat="43.706318038" lon="11.306154979"><ele>109</ele><time>2020-01-12T08:13:47Z</time></trkpt>
<trkpt lat="43.706289036" lon="11.306188004"><ele>109</ele><time>2020-01-12T08:13:48Z</time></trkpt>
<trkpt lat="43.706261041" lon="11.306220023"><ele>109</ele><time>2020-01-12T08:13:49Z</time></trkpt>
<trkpt lat="43.706232961" lon="11.306252964"><ele>109</ele><time>2020-01-12T08:13:50Z</time></trkpt>
<trkpt lat="43.706204966" lon="11.306285989"><ele>109</ele><time>2020-01-12T08:13:51Z</time></trkpt>
<trkpt lat="43.70617697" lon="11.306317002"><ele>109</ele><time>2020-01-12T08:13:52Z</time></trkpt>
<trkpt lat="43.706148975" lon="11.306348015"><ele>109</ele><time>2020-01-12T08:13:53Z</time></trkpt>
<trkpt lat="43.706119973" lon="11.306377016"><ele>109</ele><time>2020-01-12T08:13:54Z</time></trkpt>
<trkpt lat="43.706089966" lon="11.306405012"><ele>109</ele><time>2020-01-12T08:13:55Z</time></trkpt>
<trkpt lat="43.706059037" lon="11.306430995"><ele>109</ele><time>2020-01-12T08:13:56Z</time></trkpt>
<trkpt lat="43.706028024" lon="11.306457985"><ele>109</ele><time>2020-01-12T08:13:57Z</time></trkpt>
<trkpt lat="43.705998017" lon="11.306484975"><ele>109</ele><time>2020-01-12T08:13:58Z</time></trkpt>
<trkpt lat="43.705968009" lon="11.306513976"><ele>109</ele><time>2020-01-12T08:13:59Z</time></trkpt>
<trkpt lat="43.705939008" lon="11.306545995"><ele>109</ele><time>2020-01-12T08:14:00Z</time></trkpt>
<trkpt lat="43.705911012" lon="11.306580026"><ele>109</ele><time>2020-01-12T08:14:01Z</time></trkpt>
<trkpt lat="43.705883017" lon="11.306614978"><ele>109</ele><time>2020-01-12T08:14:02Z</time></trkpt>
<trkpt lat="43.705856027" lon="11.306649009"><ele>109</ele><time>2020-01-12T08:14:03Z</time></trkpt>
<trkpt lat="43.705828032" lon="11.306681028"><ele>109</ele><time>2020-01-12T08:14:04Z</time></trkpt>
<trkpt lat="43.705800036" lon="11.306712963"><ele>109</ele><time>2020-01-12T08:14:05Z</time></trkpt>
<trkpt lat="43.705771035" lon="11.30674297"><ele>109</ele><time>2020-01-12T08:14:06Z</time></trkpt>
<trkpt lat="43.705742033" lon="11.306771971"><ele>109</ele><time>2020-01-12T08:14:07Z</time></trkpt>
<trkpt lat="43.705714038" lon="11.306800973"><ele>109</ele><time>2020-01-12T08:14:08Z</time></trkpt>
<trkpt lat="43.70568403" lon="11.306827962"><ele>109</ele><time>2020-01-12T08:14:09Z</time></trkpt>
<trkpt lat="43.705655029" lon="11.30685403"><ele>109</ele><time>2020-01-12T08:14:10Z</time></trkpt>
<trkpt lat="43.705625022" lon="11.306879008"><ele>109</ele><time>2020-01-12T08:14:11Z</time></trkpt>
<trkpt lat="43.705595015" lon="11.306903986"><ele>109</ele><time>2020-01-12T08:14:12Z</time></trkpt>
<trkpt lat="43.705564002" lon="11.306927959"><ele>109</ele><time>2020-01-12T08:14:13Z</time></trkpt>
<trkpt lat="43.705533994" lon="11.306951009"><ele>109</ele><time>2020-01-12T08:14:14Z</time></trkpt>
<trkpt lat="43.705502981" lon="11.306973975"><ele>109</ele><time>2020-01-12T08:14:15Z</time></trkpt>
<trkpt lat="43.705470962" lon="11.30699602"><ele>109</ele><time>2020-01-12T08:14:16Z</time></trkpt>
<trkpt lat="43.705440033" lon="11.307016974"><ele>109</ele><time>2020-01-12T08:14:17Z</time></trkpt>
<trkpt lat="43.70540902" lon="11.307038013"><ele>108</ele><time>2020-01-12T08:14:18Z</time></trkpt>
<trkpt lat="43.705378007" lon="11.307058968"><ele>108</ele><time>2020-01-12T08:14:19Z</time></trkpt>
<trkpt lat="43.705348" lon="11.307077995"><ele>108</ele><time>2020-01-12T08:14:20Z</time></trkpt>
<trkpt lat="43.705317993" lon="11.307098027"><ele>108</ele><time>2020-01-12T08:14:21Z</time></trkpt>
<trkpt lat="43.705287986" lon="11.307115965"><ele>108</ele><time>2020-01-12T08:14:22Z</time></trkpt>
<trkpt lat="43.705258984" lon="11.307133986"><ele>108</ele><time>2020-01-12T08:14:23Z</time></trkpt>
<trkpt lat="43.705229983" lon="11.307152007"><ele>108</ele><time>2020-01-12T08:14:24Z</time></trkpt>
<trkpt lat="43.705201987" lon="11.307169022"><ele>108</ele><time>2020-01-12T08:14:25Z</time></trkpt>
<trkpt lat="43.705173992" lon="11.307186037"><ele>107</ele><time>2020-01-12T08:14:26Z</time></trkpt>
<trkpt lat="43.705145996" lon="11.307202969"><ele>107</ele><time>2020-01-12T08:14:27Z</time></trkpt>
<trkpt lat="43.705118001" lon="11.307219984"><ele>107</ele><time>2020-01-12T08:14:28Z</time></trkpt>
<trkpt lat="43.705034014" lon="11.307272036"><ele>107</ele><time>2020-01-12T08:14:31Z</time></trkpt>
<trkpt lat="43.705005012" lon="11.307289973"><ele>106</ele><time>2020-01-12T08:14:32Z</time></trkpt>
<trkpt lat="43.704976011" lon="11.307309"><ele>106</ele><time>2020-01-12T08:14:33Z</time></trkpt>
<trkpt lat="43.704946004" lon="11.307328027"><ele>106</ele><time>2020-01-12T08:14:34Z</time></trkpt>
<trkpt lat="43.704915997" lon="11.30734697"><ele>106</ele><time>2020-01-12T08:14:35Z</time></trkpt>
<trkpt lat="43.704885989" lon="11.307365997"><ele>106</ele><time>2020-01-12T08:14:36Z</time></trkpt>
<trkpt lat="43.704854976" lon="11.307385024"><ele>106</ele><time>2020-01-12T08:14:37Z</time></trkpt>
<trkpt lat="43.704823041" lon="11.307403967"><ele>106</ele><time>2020-01-12T08:14:38Z</time></trkpt>
<trkpt lat="43.704791022" lon="11.307422994"><ele>106</ele><time>2020-01-12T08:14:39Z</time></trkpt>
<trkpt lat="43.704757998" lon="11.307440009"><ele>106</ele><time>2020-01-12T08:14:40Z</time></trkpt>
<trkpt lat="43.704724973" lon="11.307457024"><ele>105</ele><time>2020-01-12T08:14:41Z</time></trkpt>
<trkpt lat="43.704691026" lon="11.307473034"><ele>105</ele><time>2020-01-12T08:14:42Z</time></trkpt>
<trkpt lat="43.704656996" lon="11.307488037"><ele>105</ele><time>2020-01-12T08:14:43Z</time></trkpt>
<trkpt lat="43.704622965" lon="11.307502035"><ele>105</ele><time>2020-01-12T08:14:44Z</time></trkpt>
<trkpt lat="43.704588013" lon="11.307514021"><ele>105</ele><time>2020-01-12T08:14:45Z</time></trkpt>
<trkpt lat="43.704553982" lon="11.307525001"><ele>105</ele><time>2020-01-12T08:14:46Z</time></trkpt>
<trkpt lat="43.70451903" lon="11.30753397"><ele>105</ele><time>2020-01-12T08:14:47Z</time></trkpt>
<trkpt lat="43.704484999" lon="11.307542017"><ele>105</ele><time>2020-01-12T08:14:48Z</time></trkpt>
<trkpt lat="43.704451974" lon="11.307548974"><ele>105</ele><time>2020-01-12T08:14:49Z</time></trkpt>
<trkpt lat="43.704418028" lon="11.307552997"><ele>105</ele><time>2020-01-12T08:14:50Z</time></trkpt>
<trkpt lat="43.704386009" lon="11.307556015"><ele>105</ele><time>2020-01-12T08:14:51Z</time></trkpt>
<trkpt lat="43.70435399" lon="11.30755702"><ele>105</ele><time>2020-01-12T08:14:52Z</time></trkpt>
<trkpt lat="43.704322977" lon="11.30755702"><ele>104</ele><time>2020-01-12T08:14:53Z</time></trkpt>
<trkpt lat="43.70429297" lon="11.307554003"><ele>104</ele><time>2020-01-12T08:14:54Z</time></trkpt>
<trkpt lat="43.704262041" lon="11.307550985"><ele>104</ele><time>2020-01-12T08:14:55Z</time></trkpt>
<trkpt lat="43.704232033" lon="11.307546962"><ele>104</ele><time>2020-01-12T08:14:56Z</time></trkpt>
<trkpt lat="43.70420102" lon="11.307542017"><ele>104</ele><time>2020-01-12T08:14:57Z</time></trkpt>
<trkpt lat="43.704170007" lon="11.307535982"><ele>104</ele><time>2020-01-12T08:14:58Z</time></trkpt>
<trkpt lat="43.704137988" lon="11.307530031"><ele>104</ele><time>2020-01-12T08:14:59Z</time></trkpt>
<trkpt lat="43.704104964" lon="11.307523996"><ele>104</ele><time>2020-01-12T08:15:00Z</time></trkpt>
<trkpt lat="43.704071017" lon="11.307517039"><ele>104</ele><time>2020-01-12T08:15:01Z</time></trkpt>
<trkpt lat="43.704035981" lon="11.307511004"><ele>104</ele><time>2020-01-12T08:15:02Z</time></trkpt>
<trkpt lat="43.704001028" lon="11.307504969"><ele>104</ele><time>2020-01-12T08:15:03Z</time></trkpt>
<trkpt lat="43.703964986" lon="11.307499018"><ele>104</ele><time>2020-01-12T08:15:04Z</time></trkpt>
<trkpt lat="43.703930033" lon="11.307491977"><ele>104</ele><time>2020-01-12T08:15:05Z</time></trkpt>
<trkpt lat="43.703893991" lon="11.307486026"><ele>104</ele><time>2020-01-12T08:15:06Z</time></trkpt>
<trkpt lat="43.703859039" lon="11.307478985"><ele>104</ele><time>2020-01-12T08:15:07Z</time></trkpt>
<trkpt lat="43.703825008" lon="11.307471022"><ele>104</ele><time>2020-01-12T08:15:08Z</time></trkpt>
<trkpt lat="43.703790978" lon="11.307463981"><ele>104</ele><time>2020-01-12T08:15:09Z</time></trkpt>
<trkpt lat="43.703758959" lon="11.307456018"><ele>104</ele><time>2020-01-12T08:15:10Z</time></trkpt>
<trkpt lat="43.70372803" lon="11.307446966"><ele>104</ele><time>2020-01-12T08:15:11Z</time></trkpt>
<trkpt lat="43.703699028" lon="11.307437997"><ele>104</ele><time>2020-01-12T08:15:12Z</time></trkpt>
<trkpt lat="43.703670027" lon="11.307429029"><ele>104</ele><time>2020-01-12T08:15:13Z</time></trkpt>
<trkpt lat="43.703641025" lon="11.307420982"><ele>104</ele><time>2020-01-12T08:15:14Z</time></trkpt>
<trkpt lat="43.703611018" lon="11.307414025"><ele>104</ele><time>2020-01-12T08:15:15Z</time></trkpt>
<trkpt lat="43.703580005" lon="11.307408996"><ele>104</ele><time>2020-01-12T08:15:16Z</time></trkpt>
<trkpt lat="43.703548992" lon="11.307403967"><ele>104</ele><time>2020-01-12T08:15:17Z</time></trkpt>
<trkpt lat="43.703516973" lon="11.307400027"><ele>104</ele><time>2020-01-12T08:15:18Z</time></trkpt>
<trkpt lat="43.703484032" lon="11.307396004"><ele>104</ele><time>2020-01-12T08:15:19Z</time></trkpt>
<trkpt lat="43.703451008" lon="11.307392986"><ele>104</ele><time>2020-01-12T08:15:20Z</time></trkpt>
<trkpt lat="43.703417983" lon="11.307389969"><ele>104</ele><time>2020-01-12T08:15:21Z</time></trkpt>
<trkpt lat="43.703384958" lon="11.307388041"><ele>104</ele><time>2020-01-12T08:15:22Z</time></trkpt>
<trkpt lat="43.703352017" lon="11.307385024"><ele>104</ele><time>2020-01-12T08:15:23Z</time></trkpt>
<trkpt lat="43.703318993" lon="11.307383012"><ele>104</ele><time>2020-01-12T08:15:24Z</time></trkpt>
<trkpt lat="43.703285968" lon="11.307381"><ele>104</ele><time>2020-01-12T08:15:25Z</time></trkpt>
<trkpt lat="43.703252021" lon="11.307378989"><ele>104</ele><time>2020-01-12T08:15:26Z</time></trkpt>
<trkpt lat="43.703218997" lon="11.307376977"><ele>104</ele><time>2020-01-12T08:15:27Z</time></trkpt>
<trkpt lat="43.703185972" lon="11.307375971"><ele>104</ele><time>2020-01-12T08:15:28Z</time></trkpt>
<trkpt lat="43.703154037" lon="11.307374965"><ele>104</ele><time>2020-01-12T08:15:29Z</time></trkpt>
<trkpt lat="43.703121012" lon="11.30737396"><ele>104</ele><time>2020-01-12T08:15:30Z</time></trkpt>
<trkpt lat="43.703088993" lon="11.307373038"><ele>104</ele><time>2020-01-12T08:15:31Z</time></trkpt>
<trkpt lat="43.703055969" lon="11.307373038"><ele>104</ele><time>2020-01-12T08:15:32Z</time></trkpt>
<trkpt lat="43.703025039" lon="11.307373038"><ele>104</ele><time>2020-01-12T08:15:33Z</time></trkpt>
<trkpt lat="43.70299302" lon="11.307373038"><ele>104</ele><time>2020-01-12T08:15:34Z</time></trkpt>
<trkpt lat="43.702962007" lon="11.30737396"><ele>104</ele><time>2020-01-12T08:15:35Z</time></trkpt>
<trkpt lat="43.702932" lon="11.307374965"><ele>104</ele><time>2020-01-12T08:15:36Z</time></trkpt>
<trkpt lat="43.702901993" lon="11.307375971"><ele>104</ele><time>2020-01-12T08:15:37Z</time></trkpt>
<trkpt lat="43.702872992" lon="11.307377983"><ele>104</ele><time>2020-01-12T08:15:38Z</time></trkpt>
<trkpt lat="43.70284399" lon="11.307378989"><ele>104</ele><time>2020-01-12T08:15:39Z</time></trkpt>
<trkpt lat="43.702814989" lon="11.307381"><ele>104</ele><time>2020-01-12T08:15:40Z</time></trkpt>
<trkpt lat="43.702786993" lon="11.307383012"><ele>104</ele><time>2020-01-12T08:15:41Z</time></trkpt>
<trkpt lat="43.702756986" lon="11.307384018"><ele>104</ele><time>2020-01-12T08:15:42Z</time></trkpt>
<trkpt lat="43.702727985" lon="11.307385024"><ele>104</ele><time>2020-01-12T08:15:43Z</time></trkpt>
<trkpt lat="43.702696972" lon="11.307384018"><ele>104</ele><time>2020-01-12T08:15:44Z</time></trkpt>
<trkpt lat="43.702665959" lon="11.307383012"><ele>104</ele><time>2020-01-12T08:15:45Z</time></trkpt>
<trkpt lat="43.702634024" lon="11.307382006"><ele>104</ele><time>2020-01-12T08:15:46Z</time></trkpt>
<trkpt lat="43.702602005" lon="11.307382006"><ele>104</ele><time>2020-01-12T08:15:47Z</time></trkpt>
<trkpt lat="43.702569986" lon="11.307382006"><ele>104</ele><time>2020-01-12T08:15:48Z</time></trkpt>
<trkpt lat="43.702537967" lon="11.307383012"><ele>104</ele><time>2020-01-12T08:15:49Z</time></trkpt>
<trkpt lat="43.702506032" lon="11.307385024"><ele>104</ele><time>2020-01-12T08:15:50Z</time></trkpt>
<trkpt lat="43.702475019" lon="11.307388963"><ele>104</ele><time>2020-01-12T08:15:51Z</time></trkpt>
<trkpt lat="43.702443" lon="11.307391981"><ele>104</ele><time>2020-01-12T08:15:52Z</time></trkpt>
<trkpt lat="43.702411987" lon="11.30739701"><ele>104</ele><time>2020-01-12T08:15:53Z</time></trkpt>
<trkpt lat="43.702379968" lon="11.307401033"><ele>104</ele><time>2020-01-12T08:15:54Z</time></trkpt>
<trkpt lat="43.702349039" lon="11.307404973"><ele>104</ele><time>2020-01-12T08:15:55Z</time></trkpt>
<trkpt lat="43.70231702" lon="11.307408996"><ele>104</ele><time>2020-01-12T08:15:56Z</time></trkpt>
<trkpt lat="43.702285001" lon="11.307412013"><ele>104</ele><time>2020-01-12T08:15:57Z</time></trkpt>
<trkpt lat="43.702252982" lon="11.307415031"><ele>104</ele><time>2020-01-12T08:15:58Z</time></trkpt>
<trkpt lat="43.702220963" lon="11.307416959"><ele>104</ele><time>2020-01-12T08:15:59Z</time></trkpt>
<trkpt lat="43.702189028" lon="11.307417965"><ele>104</ele><time>2020-01-12T08:16:00Z</time></trkpt>
<trkpt lat="43.702157009" lon="11.307420982"><ele>104</ele><time>2020-01-12T08:16:01Z</time></trkpt>
<trkpt lat="43.702124991" lon="11.307424"><ele>104</ele><time>2020-01-12T08:16:02Z</time></trkpt>
<trkpt lat="43.702093977" lon="11.307428023"><ele>104</ele><time>2020-01-12T08:16:03Z</time></trkpt>
<trkpt lat="43.70206397" lon="11.307432968"><ele>104</ele><time>2020-01-12T08:16:04Z</time></trkpt>
<trkpt lat="43.702033041" lon="11.307440009"><ele>104</ele><time>2020-01-12T08:16:05Z</time></trkpt>
<trkpt lat="43.70200404" lon="11.307449983"><ele>104</ele><time>2020-01-12T08:16:06Z</time></trkpt>
<trkpt lat="43.70197596" lon="11.30746197"><ele>104</ele><time>2020-01-12T08:16:07Z</time></trkpt>
<trkpt lat="43.701948971" lon="11.307476973"><ele>104</ele><time>2020-01-12T08:16:08Z</time></trkpt>
<trkpt lat="43.701921981" lon="11.307494994"><ele>104</ele><time>2020-01-12T08:16:09Z</time></trkpt>
<trkpt lat="43.701898009" lon="11.307515027"><ele>104</ele><time>2020-01-12T08:16:10Z</time></trkpt>
<trkpt lat="43.701874036" lon="11.307537993"><ele>104</ele><time>2020-01-12T08:16:11Z</time></trkpt>
<trkpt lat="43.701851992" lon="11.307563977"><ele>104</ele><time>2020-01-12T08:16:12Z</time></trkpt>
<trkpt lat="43.701793989" lon="11.307651987"><ele>105</ele><time>2020-01-12T08:16:15Z</time></trkpt>
<trkpt lat="43.70177798" lon="11.307686018"><ele>105</ele><time>2020-01-12T08:16:16Z</time></trkpt>
<trkpt lat="43.701762976" lon="11.30772097"><ele>105</ele><time>2020-01-12T08:16:17Z</time></trkpt>
<trkpt lat="43.701749984" lon="11.307757013"><ele>105</ele><time>2020-01-12T08:16:18Z</time></trkpt>
<trkpt lat="43.701735986" lon="11.307792971"><ele>105</ele><time>2020-01-12T08:16:19Z</time></trkpt>
<trkpt lat="43.701720983" lon="11.307829013"><ele>106</ele><time>2020-01-12T08:16:20Z</time></trkpt>
<trkpt lat="43.701704973" lon="11.30786296"><ele>106</ele><time>2020-01-12T08:16:21Z</time></trkpt>
<trkpt lat="43.701685024" lon="11.307895985"><ele>106</ele><time>2020-01-12T08:16:22Z</time></trkpt>
<trkpt lat="43.701663986" lon="11.307928003"><ele>106</ele><time>2020-01-12T08:16:23Z</time></trkpt>
<trkpt lat="43.701641019" lon="11.307958011"><ele>106</ele><time>2020-01-12T08:16:24Z</time></trkpt>
<trkpt lat="43.701616963" lon="11.307986006"><ele>106</ele><time>2020-01-12T08:16:25Z</time></trkpt>
<trkpt lat="43.701592991" lon="11.308012996"><ele>106</ele><time>2020-01-12T08:16:26Z</time></trkpt>
<trkpt lat="43.701569019" lon="11.30803898"><ele>106</ele><time>2020-01-12T08:16:27Z</time></trkpt>
<trkpt lat="43.701544963" lon="11.308064964"><ele>106</ele><time>2020-01-12T08:16:28Z</time></trkpt>
<trkpt lat="43.701520991" lon="11.308091031"><ele>106</ele><time>2020-01-12T08:16:29Z</time></trkpt>
<trkpt lat="43.701497018" lon="11.308119027"><ele>106</ele><time>2020-01-12T08:16:30Z</time></trkpt>
<trkpt lat="43.701423006" lon="11.308216006"><ele>106</ele><time>2020-01-12T08:16:33Z</time></trkpt>
<trkpt lat="43.701398028" lon="11.308250036"><ele>106</ele><time>2020-01-12T08:16:34Z</time></trkpt>
<trkpt lat="43.701372966" lon="11.308280965"><ele>106</ele><time>2020-01-12T08:16:35Z</time></trkpt>
<trkpt lat="43.70135" lon="11.308308039"><ele>106</ele><time>2020-01-12T08:16:36Z</time></trkpt>
<trkpt lat="43.701326028" lon="11.308331005"><ele>106</ele><time>2020-01-12T08:16:37Z</time></trkpt>
<trkpt lat="43.701303983" lon="11.30835196"><ele>106</ele><time>2020-01-12T08:16:38Z</time></trkpt>
<trkpt lat="43.701282023" lon="11.308370987"><ele>106</ele><time>2020-01-12T08:16:39Z</time></trkpt>
<trkpt lat="43.701259978" lon="11.308390014"><ele>106</ele><time>2020-01-12T08:16:40Z</time></trkpt>
<trkpt lat="43.701239023" lon="11.308408035"><ele>106</ele><time>2020-01-12T08:16:41Z</time></trkpt>
<trkpt lat="43.701217985" lon="11.308427984"><ele>107</ele><time>2020-01-12T08:16:42Z</time></trkpt>
<trkpt lat="43.701196024" lon="11.308448017"><ele>107</ele><time>2020-01-12T08:16:43Z</time></trkpt>
<trkpt lat="43.70117398" lon="11.308469977"><ele>107</ele><time>2020-01-12T08:16:44Z</time></trkpt>
<trkpt lat="43.701152019" lon="11.308493027"><ele>107</ele><time>2020-01-12T08:16:45Z</time></trkpt>
<trkpt lat="43.701128969" lon="11.308518006"><ele>107</ele><time>2020-01-12T08:16:46Z</time></trkpt>
<trkpt lat="43.701106003" lon="11.308544995"><ele>107</ele><time>2020-01-12T08:16:47Z</time></trkpt>
<trkpt lat="43.701038025" lon="11.308640968"><ele>107</ele><time>2020-01-12T08:16:50Z</time></trkpt>
<trkpt lat="43.701017993" lon="11.30867701"><ele>107</ele><time>2020-01-12T08:16:51Z</time></trkpt>
<trkpt lat="43.70099796" lon="11.30871498"><ele>107</ele><time>2020-01-12T08:16:52Z</time></trkpt>
<trkpt lat="43.700980023" lon="11.30875404"><ele>107</ele><time>2020-01-12T08:16:53Z</time></trkpt>
<trkpt lat="43.700963007" lon="11.308793016"><ele>108</ele><time>2020-01-12T08:16:54Z</time></trkpt>
<trkpt lat="43.700946998" lon="11.308831992"><ele>108</ele><time>2020-01-12T08:16:55Z</time></trkpt>
<trkpt lat="43.700931994" lon="11.308870967"><ele>108</ele><time>2020-01-12T08:16:56Z</time></trkpt>
<trkpt lat="43.700916991" lon="11.308908015"><ele>108</ele><time>2020-01-12T08:16:57Z</time></trkpt>
<trkpt lat="43.700903999" lon="11.308945986"><ele>108</ele><time>2020-01-12T08:16:58Z</time></trkpt>
<trkpt lat="43.700865023" lon="11.309054028"><ele>109</ele><time>2020-01-12T08:17:01Z</time></trkpt>
<trkpt lat="43.700852031" lon="11.309088981"><ele>109</ele><time>2020-01-12T08:17:02Z</time></trkpt>
<trkpt lat="43.700839039" lon="11.309123011"><ele>109</ele><time>2020-01-12T08:17:03Z</time></trkpt>
<trkpt lat="43.700825963" lon="11.309156036"><ele>109</ele><time>2020-01-12T08:17:04Z</time></trkpt>
<trkpt lat="43.700811965" lon="11.309187971"><ele>109</ele><time>2020-01-12T08:17:05Z</time></trkpt>
<trkpt lat="43.700797968" lon="11.30921999"><ele>109</ele><time>2020-01-12T08:17:06Z</time></trkpt>
<trkpt lat="43.700782964" lon="11.309252009"><ele>109</ele><time>2020-01-12T08:17:07Z</time></trkpt>
<trkpt lat="43.700766033" lon="11.309284028"><ele>110</ele><time>2020-01-12T08:17:08Z</time></trkpt>
<trkpt lat="43.700749017" lon="11.309315963"><ele>110</ele><time>2020-01-12T08:17:09Z</time></trkpt>
<trkpt lat="43.700728985" lon="11.309348987"><ele>110</ele><time>2020-01-12T08:17:10Z</time></trkpt>
<trkpt lat="43.700709036" lon="11.309382012"><ele>110</ele><time>2020-01-12T08:17:11Z</time></trkpt>
<trkpt lat="43.700689003" lon="11.309416965"><ele>110</ele><time>2020-01-12T08:17:12Z</time></trkpt>
<trkpt lat="43.700669976" lon="11.309452001"><ele>110</ele><time>2020-01-12T08:17:13Z</time></trkpt>
<trkpt lat="43.700652961" lon="11.309488965"><ele>110</ele><time>2020-01-12T08:17:14Z</time></trkpt>
<trkpt lat="43.700637035" lon="11.309527019"><ele>110</ele><time>2020-01-12T08:17:15Z</time></trkpt>
<trkpt lat="43.700623037" lon="11.309564989"><ele>111</ele><time>2020-01-12T08:17:16Z</time></trkpt>
<trkpt lat="43.700609962" lon="11.309604971"><ele>111</ele><time>2020-01-12T08:17:17Z</time></trkpt>
<trkpt lat="43.70059697" lon="11.309645036"><ele>111</ele><time>2020-01-12T08:17:18Z</time></trkpt>
<trkpt lat="43.700584983" lon="11.309685018"><ele>111</ele><time>2020-01-12T08:17:19Z</time></trkpt>
<trkpt lat="43.700572997" lon="11.309726005"><ele>111</ele><time>2020-01-12T08:17:20Z</time></trkpt>
<trkpt lat="43.700561011" lon="11.309765987"><ele>111</ele><time>2020-01-12T08:17:21Z</time></trkpt>
<trkpt lat="43.700548019" lon="11.309806975"><ele>111</ele><time>2020-01-12T08:17:22Z</time></trkpt>
<trkpt lat="43.700535027" lon="11.309847962"><ele>111</ele><time>2020-01-12T08:17:23Z</time></trkpt>
<trkpt lat="43.700520024" lon="11.309888028"><ele>111</ele><time>2020-01-12T08:17:24Z</time></trkpt>
<trkpt lat="43.70050502" lon="11.309928009"><ele>112</ele><time>2020-01-12T08:17:25Z</time></trkpt>
<trkpt lat="43.700489011" lon="11.309966985"><ele>112</ele><time>2020-01-12T08:17:26Z</time></trkpt>
<trkpt lat="43.700473001" lon="11.310006967"><ele>112</ele><time>2020-01-12T08:17:27Z</time></trkpt>
<trkpt lat="43.700456992" lon="11.310046026"><ele>112</ele><time>2020-01-12T08:17:28Z</time></trkpt>
<trkpt lat="43.700441988" lon="11.310086008"><ele>112</ele><time>2020-01-12T08:17:29Z</time></trkpt>
<trkpt lat="43.70042799" lon="11.310124984"><ele>112</ele><time>2020-01-12T08:17:30Z</time></trkpt>
<trkpt lat="43.700414998" lon="11.31016396"><ele>112</ele><time>2020-01-12T08:17:31Z</time></trkpt>
<trkpt lat="43.700404018" lon="11.310204025"><ele>112</ele><time>2020-01-12T08:17:32Z</time></trkpt>
<trkpt lat="43.70039396" lon="11.310243001"><ele>112</ele><time>2020-01-12T08:17:33Z</time></trkpt>
<trkpt lat="43.700385997" lon="11.310282983"><ele>112</ele><time>2020-01-12T08:17:34Z</time></trkpt>
<trkpt lat="43.700379962" lon="11.310322965"><ele>112</ele><time>2020-01-12T08:17:35Z</time></trkpt>
<trkpt lat="43.700375017" lon="11.310364036"><ele>112</ele><time>2020-01-12T08:17:36Z</time></trkpt>
<trkpt lat="43.700369988" lon="11.310405023"><ele>112</ele><time>2020-01-12T08:17:37Z</time></trkpt>
<trkpt lat="43.700365964" lon="11.310446011"><ele>112</ele><time>2020-01-12T08:17:38Z</time></trkpt>
<trkpt lat="43.700362025" lon="11.310486998"><ele>112</ele><time>2020-01-12T08:17:39Z</time></trkpt>
<trkpt lat="43.700359007" lon="11.310529998"><ele>112</ele><time>2020-01-12T08:17:40Z</time></trkpt>
<trkpt lat="43.700353978" lon="11.310571991"><ele>112</ele><time>2020-01-12T08:17:41Z</time></trkpt>
<trkpt lat="43.700349033" lon="11.31061499"><ele>112</ele><time>2020-01-12T08:17:42Z</time></trkpt>
<trkpt lat="43.700342998" lon="11.310658995"><ele>112</ele><time>2020-01-12T08:17:43Z</time></trkpt>
<trkpt lat="43.700336963" lon="11.310703"><ele>112</ele><time>2020-01-12T08:17:44Z</time></trkpt>
<trkpt lat="43.700330006" lon="11.310748011"><ele>112</ele><time>2020-01-12T08:17:45Z</time></trkpt>
<trkpt lat="43.700324977" lon="11.310794028"><ele>112</ele><time>2020-01-12T08:17:46Z</time></trkpt>
<trkpt lat="43.700320031" lon="11.31083996"><ele>112</ele><time>2020-01-12T08:17:47Z</time></trkpt>
<trkpt lat="43.700316008" lon="11.310885977"><ele>112</ele><time>2020-01-12T08:17:48Z</time></trkpt>
<trkpt lat="43.700313997" lon="11.310932999"><ele>112</ele><time>2020-01-12T08:17:49Z</time></trkpt>
<trkpt lat="43.700311985" lon="11.310979016"><ele>112</ele><time>2020-01-12T08:17:50Z</time></trkpt>
<trkpt lat="43.700310979" lon="11.311023021"><ele>112</ele><time>2020-01-12T08:17:51Z</time></trkpt>
<trkpt lat="43.700308967" lon="11.311067026"><ele>112</ele><time>2020-01-12T08:17:52Z</time></trkpt>
<trkpt lat="43.700306034" lon="11.311108014"><ele>112</ele><time>2020-01-12T08:17:53Z</time></trkpt>
<trkpt lat="43.700304022" lon="11.311149001"><ele>112</ele><time>2020-01-12T08:17:54Z</time></trkpt>
<trkpt lat="43.700301005" lon="11.311188983"><ele>112</ele><time>2020-01-12T08:17:55Z</time></trkpt>
<trkpt lat="43.700296981" lon="11.311228964"><ele>112</ele><time>2020-01-12T08:17:56Z</time></trkpt>
<trkpt lat="43.700293964" lon="11.311268024"><ele>112</ele><time>2020-01-12T08:17:57Z</time></trkpt>
<trkpt lat="43.700290024" lon="11.311308006"><ele>112</ele><time>2020-01-12T08:17:58Z</time></trkpt>
<trkpt lat="43.700286001" lon="11.311347988"><ele>112</ele><time>2020-01-12T08:17:59Z</time></trkpt>
<trkpt lat="43.700280972" lon="11.311388975"><ele>112</ele><time>2020-01-12T08:18:00Z</time></trkpt>
<trkpt lat="43.700277032" lon="11.311431974"><ele>112</ele><time>2020-01-12T08:18:01Z</time></trkpt>
<trkpt lat="43.700272003" lon="11.311475979"><ele>112</ele><time>2020-01-12T08:18:02Z</time></trkpt>
<trkpt lat="43.700266974" lon="11.311519984"><ele>112</ele><time>2020-01-12T08:18:03Z</time></trkpt>
<trkpt lat="43.700262029" lon="11.311566001"><ele>112</ele><time>2020-01-12T08:18:04Z</time></trkpt>
<trkpt lat="43.700255994" lon="11.311611012"><ele>112</ele><time>2020-01-12T08:18:05Z</time></trkpt>
<trkpt lat="43.700250965" lon="11.311655017"><ele>111</ele><time>2020-01-12T08:18:06Z</time></trkpt>
<trkpt lat="43.700244008" lon="11.311698016"><ele>111</ele><time>2020-01-12T08:18:07Z</time></trkpt>
<trkpt lat="43.700237973" lon="11.311740009"><ele>112</ele><time>2020-01-12T08:18:08Z</time></trkpt>
<trkpt lat="43.700231016" lon="11.311782002"><ele>112</ele><time>2020-01-12T08:18:09Z</time></trkpt>
<trkpt lat="43.700224981" lon="11.311825002"><ele>112</ele><time>2020-01-12T08:18:10Z</time></trkpt>
<trkpt lat="43.700220035" lon="11.311868001"><ele>112</ele><time>2020-01-12T08:18:11Z</time></trkpt>
<trkpt lat="43.700214" lon="11.311912006"><ele>112</ele><time>2020-01-12T08:18:12Z</time></trkpt>
<trkpt lat="43.700209977" lon="11.311956011"><ele>112</ele><time>2020-01-12T08:18:13Z</time></trkpt>
<trkpt lat="43.700205032" lon="11.312001022"><ele>112</ele><time>2020-01-12T08:18:14Z</time></trkpt>
<trkpt lat="43.700201008" lon="11.312046032"><ele>112</ele><time>2020-01-12T08:18:15Z</time></trkpt>
<trkpt lat="43.700195979" lon="11.312090037"><ele>112</ele><time>2020-01-12T08:18:16Z</time></trkpt>
<trkpt lat="43.700191034" lon="11.312134964"><ele>112</ele><time>2020-01-12T08:18:17Z</time></trkpt>
<trkpt lat="43.700187011" lon="11.312178969"><ele>112</ele><time>2020-01-12T08:18:18Z</time></trkpt>
<trkpt lat="43.700180976" lon="11.312221969"><ele>112</ele><time>2020-01-12T08:18:19Z</time></trkpt>
<trkpt lat="43.70017603" lon="11.312263962"><ele>113</ele><time>2020-01-12T08:18:20Z</time></trkpt>
<trkpt lat="43.70016899" lon="11.312305033"><ele>113</ele><time>2020-01-12T08:18:21Z</time></trkpt>
<trkpt lat="43.700163038" lon="11.312345015"><ele>113</ele><time>2020-01-12T08:18:22Z</time></trkpt>
<trkpt lat="43.700154992" lon="11.312384997"><ele>113</ele><time>2020-01-12T08:18:23Z</time></trkpt>
<trkpt lat="43.700148035" lon="11.312422967"><ele>113</ele><time>2020-01-12T08:18:24Z</time></trkpt>
<trkpt lat="43.700139988" lon="11.31246102"><ele>113</ele><time>2020-01-12T08:18:25Z</time></trkpt>
<trkpt lat="43.700132025" lon="11.31249899"><ele>113</ele><time>2020-01-12T08:18:26Z</time></trkpt>
<trkpt lat="43.700123979" lon="11.312536038"><ele>113</ele><time>2020-01-12T08:18:27Z</time></trkpt>
<trkpt lat="43.700116016" lon="11.312573003"><ele>113</ele><time>2020-01-12T08:18:28Z</time></trkpt>
<trkpt lat="43.700107969" lon="11.312609967"><ele>113</ele><time>2020-01-12T08:18:29Z</time></trkpt>
<trkpt lat="43.700100007" lon="11.312647015"><ele>113</ele><time>2020-01-12T08:18:30Z</time></trkpt>
<trkpt lat="43.700092966" lon="11.312684985"><ele>113</ele><time>2020-01-12T08:18:31Z</time></trkpt>
<trkpt lat="43.700085003" lon="11.312723039"><ele>113</ele><time>2020-01-12T08:18:32Z</time></trkpt>
<trkpt lat="43.700077962" lon="11.312761009"><ele>113</ele><time>2020-01-12T08:18:33Z</time></trkpt>
<trkpt lat="43.700069999" lon="11.31280099"><ele>113</ele><time>2020-01-12T08:18:34Z</time></trkpt>
<trkpt lat="43.700062959" lon="11.312841978"><ele>113</ele><time>2020-01-12T08:18:35Z</time></trkpt>
<trkpt lat="43.700054996" lon="11.312883971"><ele>113</ele><time>2020-01-12T08:18:36Z</time></trkpt>
<trkpt lat="43.700047033" lon="11.312925965"><ele>113</ele><time>2020-01-12T08:18:37Z</time></trkpt>
<trkpt lat="43.700036975" lon="11.312967036"><ele>113</ele><time>2020-01-12T08:18:38Z</time></trkpt>
<trkpt lat="43.700025994" lon="11.313008023"><ele>113</ele><time>2020-01-12T08:18:39Z</time></trkpt>
<trkpt lat="43.700014008" lon="11.313046999"><ele>113</ele><time>2020-01-12T08:18:40Z</time></trkpt>
<trkpt lat="43.70000001" lon="11.313084969"><ele>113</ele><time>2020-01-12T08:18:41Z</time></trkpt>
<trkpt lat="43.699985007" lon="11.313122017"><ele>114</ele><time>2020-01-12T08:18:42Z</time></trkpt>
<trkpt lat="43.699967992" lon="11.31315697"><ele>114</ele><time>2020-01-12T08:18:43Z</time></trkpt>
<trkpt lat="43.699950976" lon="11.313191"><ele>114</ele><time>2020-01-12T08:18:44Z</time></trkpt>
<trkpt lat="43.699933961" lon="11.313223019"><ele>115</ele><time>2020-01-12T08:18:45Z</time></trkpt>
<trkpt lat="43.699916024" lon="11.313254032"><ele>115</ele><time>2020-01-12T08:18:46Z</time></trkpt>
<trkpt lat="43.699898003" lon="11.313283034"><ele>115</ele><time>2020-01-12T08:18:47Z</time></trkpt>
<trkpt lat="43.699879982" lon="11.313311029"><ele>116</ele><time>2020-01-12T08:18:48Z</time></trkpt>
<trkpt lat="43.699862966" lon="11.313337013"><ele>116</ele><time>2020-01-12T08:18:49Z</time></trkpt>
<trkpt lat="43.699846035" lon="11.313362997"><ele>116</ele><time>2020-01-12T08:18:50Z</time></trkpt>
<trkpt lat="43.69982902" lon="11.313386969"><ele>116</ele><time>2020-01-12T08:18:51Z</time></trkpt>
<trkpt lat="43.699812004" lon="11.31341002"><ele>117</ele><time>2020-01-12T08:18:52Z</time></trkpt>
<trkpt lat="43.699795995" lon="11.313432986"><ele>117</ele><time>2020-01-12T08:18:53Z</time></trkpt>
<trkpt lat="43.699779985" lon="11.31345503"><ele>117</ele><time>2020-01-12T08:18:54Z</time></trkpt>
<trkpt lat="43.699763976" lon="11.313477997"><ele>117</ele><time>2020-01-12T08:18:55Z</time></trkpt>
<trkpt lat="43.699747967" lon="11.313500041"><ele>117</ele><time>2020-01-12T08:18:56Z</time></trkpt>
<trkpt lat="43.699732041" lon="11.313523008"><ele>118</ele><time>2020-01-12T08:18:57Z</time></trkpt>
<trkpt lat="43.699717037" lon="11.313545974"><ele>118</ele><time>2020-01-12T08:18:58Z</time></trkpt>
<trkpt lat="43.699701028" lon="11.31357003"><ele>118</ele><time>2020-01-12T08:18:59Z</time></trkpt>
<trkpt lat="43.699686024" lon="11.313594002"><ele>118</ele><time>2020-01-12T08:19:00Z</time></trkpt>
<trkpt lat="43.699670015" lon="11.31361898"><ele>118</ele><time>2020-01-12T08:19:01Z</time></trkpt>
<trkpt lat="43.699654005" lon="11.313643958"><ele>118</ele><time>2020-01-12T08:19:02Z</time></trkpt>
<trkpt lat="43.699639002" lon="11.31366902"><ele>119</ele><time>2020-01-12T08:19:03Z</time></trkpt>
<trkpt lat="43.699623998" lon="11.313693998"><ele>119</ele><time>2020-01-12T08:19:04Z</time></trkpt>
<trkpt lat="43.699607989" lon="11.313718976"><ele>119</ele><time>2020-01-12T08:19:05Z</time></trkpt>
<trkpt lat="43.699592985" lon="11.313744038"><ele>119</ele><time>2020-01-12T08:19:06Z</time></trkpt>
<trkpt lat="43.699577982" lon="11.313769016"><ele>119</ele><time>2020-01-12T08:19:07Z</time></trkpt>
<trkpt lat="43.699562978" lon="11.313792989"><ele>119</ele><time>2020-01-12T08:19:08Z</time></trkpt>
<trkpt lat="43.69954898" lon="11.313816961"><ele>119</ele><time>2020-01-12T08:19:09Z</time></trkpt>
<trkpt lat="43.699533977" lon="11.313840011"><ele>119</ele><time>2020-01-12T08:19:10Z</time></trkpt>
<trkpt lat="43.699518973" lon="11.313862978"><ele>120</ele><time>2020-01-12T08:19:11Z</time></trkpt>
<trkpt lat="43.699504975" lon="11.313885022"><ele>120</ele><time>2020-01-12T08:19:12Z</time></trkpt>
<trkpt lat="43.699489972" lon="11.313907988"><ele>120</ele><time>2020-01-12T08:19:13Z</time></trkpt>
<trkpt lat="43.699474968" lon="11.313929027"><ele>120</ele><time>2020-01-12T08:19:14Z</time></trkpt>
<trkpt lat="43.69946097" lon="11.313950988"><ele>120</ele><time>2020-01-12T08:19:15Z</time></trkpt>
<trkpt lat="43.699445967" lon="11.313972026"><ele>120</ele><time>2020-01-12T08:19:16Z</time></trkpt>
<trkpt lat="43.699430963" lon="11.313992981"><ele>120</ele><time>2020-01-12T08:19:17Z</time></trkpt>
<trkpt lat="43.699416965" lon="11.314013014"><ele>120</ele><time>2020-01-12T08:19:18Z</time></trkpt>
<trkpt lat="43.699401962" lon="11.314033968"><ele>120</ele><time>2020-01-12T08:19:19Z</time></trkpt>
<trkpt lat="43.699387042" lon="11.314054001"><ele>120</ele><time>2020-01-12T08:19:20Z</time></trkpt>
<trkpt lat="43.699372038" lon="11.314074034"><ele>121</ele><time>2020-01-12T08:19:21Z</time></trkpt>
<trkpt lat="43.699356029" lon="11.314092977"><ele>121</ele><time>2020-01-12T08:19:22Z</time></trkpt>
<trkpt lat="43.699341025" lon="11.31411301"><ele>121</ele><time>2020-01-12T08:19:23Z</time></trkpt>
<trkpt lat="43.699325016" lon="11.314132037"><ele>121</ele><time>2020-01-12T08:19:24Z</time></trkpt>
<trkpt lat="43.699309006" lon="11.314151986"><ele>121</ele><time>2020-01-12T08:19:25Z</time></trkpt>
<trkpt lat="43.699292997" lon="11.314171012"><ele>121</ele><time>2020-01-12T08:19:26Z</time></trkpt>
<trkpt lat="43.699276987" lon="11.314190039"><ele>121</ele><time>2020-01-12T08:19:27Z</time></trkpt>
<trkpt lat="43.699259972" lon="11.314208983"><ele>121</ele><time>2020-01-12T08:19:28Z</time></trkpt>
<trkpt lat="43.699243041" lon="11.314228009"><ele>122</ele><time>2020-01-12T08:19:29Z</time></trkpt>
<trkpt lat="43.699226025" lon="11.314247036"><ele>122</ele><time>2020-01-12T08:19:30Z</time></trkpt>
<trkpt lat="43.69920901" lon="11.314265979"><ele>122</ele><time>2020-01-12T08:19:31Z</time></trkpt>
<trkpt lat="43.699190989" lon="11.314285006"><ele>122</ele><time>2020-01-12T08:19:32Z</time></trkpt>
<trkpt lat="43.699173974" lon="11.314304033"><ele>122</ele><time>2020-01-12T08:19:33Z</time></trkpt>
<trkpt lat="43.699156037" lon="11.314322976"><ele>123</ele><time>2020-01-12T08:19:34Z</time></trkpt>
<trkpt lat="43.699138016" lon="11.314342003"><ele>123</ele><time>2020-01-12T08:19:35Z</time></trkpt>
<trkpt lat="43.699119994" lon="11.31436103"><ele>123</ele><time>2020-01-12T08:19:36Z</time></trkpt>
<trkpt lat="43.699101973" lon="11.314379973"><ele>124</ele><time>2020-01-12T08:19:37Z</time></trkpt>
<trkpt lat="43.699084036" lon="11.314399"><ele>124</ele><time>2020-01-12T08:19:38Z</time></trkpt>
<trkpt lat="43.699066015" lon="11.314419033"><ele>124</ele><time>2020-01-12T08:19:39Z</time></trkpt>
<trkpt lat="43.699046988" lon="11.314438982"><ele>125</ele><time>2020-01-12T08:19:40Z</time></trkpt>
<trkpt lat="43.699028967" lon="11.314458009"><ele>125</ele><time>2020-01-12T08:19:41Z</time></trkpt>
<trkpt lat="43.69901103" lon="11.314478042"><ele>125</ele><time>2020-01-12T08:19:42Z</time></trkpt>
<trkpt lat="43.698993009" lon="11.314498996"><ele>126</ele><time>2020-01-12T08:19:43Z</time></trkpt>
<trkpt lat="43.698974987" lon="11.314519029"><ele>126</ele><time>2020-01-12T08:19:44Z</time></trkpt>
<trkpt lat="43.698956966" lon="11.314539984"><ele>126</ele><time>2020-01-12T08:19:45Z</time></trkpt>
<trkpt lat="43.698939029" lon="11.314561022"><ele>127</ele><time>2020-01-12T08:19:46Z</time></trkpt>
<trkpt lat="43.698921008" lon="11.314581977"><ele>127</ele><time>2020-01-12T08:19:47Z</time></trkpt>
<trkpt lat="43.698902987" lon="11.314603016"><ele>127</ele><time>2020-01-12T08:19:48Z</time></trkpt>
<trkpt lat="43.698884966" lon="11.314624976"><ele>128</ele><time>2020-01-12T08:19:49Z</time></trkpt>
<trkpt lat="43.698868034" lon="11.314647021"><ele>128</ele><time>2020-01-12T08:19:50Z</time></trkpt>
<trkpt lat="43.698850013" lon="11.314668981"><ele>128</ele><time>2020-01-12T08:19:51Z</time></trkpt>
<trkpt lat="43.698832998" lon="11.314692032"><ele>128</ele><time>2020-01-12T08:19:52Z</time></trkpt>
<trkpt lat="43.698814977" lon="11.314713992"><ele>129</ele><time>2020-01-12T08:19:53Z</time></trkpt>
<trkpt lat="43.698797962" lon="11.314736959"><ele>129</ele><time>2020-01-12T08:19:54Z</time></trkpt>
<trkpt lat="43.69878103" lon="11.314760009"><ele>129</ele><time>2020-01-12T08:19:55Z</time></trkpt>
<trkpt lat="43.698764015" lon="11.314782975"><ele>130</ele><time>2020-01-12T08:19:56Z</time></trkpt>
<trkpt lat="43.698747" lon="11.314807031"><ele>130</ele><time>2020-01-12T08:19:57Z</time></trkpt>
<trkpt lat="43.698729984" lon="11.314829998"><ele>130</ele><time>2020-01-12T08:19:58Z</time></trkpt>
<trkpt lat="43.698712969" lon="11.31485397"><ele>131</ele><time>2020-01-12T08:19:59Z</time></trkpt>
<trkpt lat="43.698696038" lon="11.314878026"><ele>131</ele><time>2020-01-12T08:20:00Z</time></trkpt>
<trkpt lat="43.698680028" lon="11.314901998"><ele>131</ele><time>2020-01-12T08:20:01Z</time></trkpt>
<trkpt lat="43.698663013" lon="11.314925971"><ele>131</ele><time>2020-01-12T08:20:02Z</time></trkpt>
<trkpt lat="43.698647004" lon="11.314950027"><ele>132</ele><time>2020-01-12T08:20:03Z</time></trkpt>
<trkpt lat="43.698630994" lon="11.314975005"><ele>132</ele><time>2020-01-12T08:20:04Z</time></trkpt>
<trkpt lat="43.698613979" lon="11.314998977"><ele>132</ele><time>2020-01-12T08:20:05Z</time></trkpt>
<trkpt lat="43.698597969" lon="11.315024039"><ele>133</ele><time>2020-01-12T08:20:06Z</time></trkpt>
<trkpt lat="43.69858196" lon="11.315049017"><ele>133</ele><time>2020-01-12T08:20:07Z</time></trkpt>
<trkpt lat="43.69856704" lon="11.315072989"><ele>134</ele><time>2020-01-12T08:20:08Z</time></trkpt>
<trkpt lat="43.698551031" lon="11.315097967"><ele>134</ele><time>2020-01-12T08:20:09Z</time></trkpt>
<trkpt lat="43.698536027" lon="11.315122023"><ele>135</ele><time>2020-01-12T08:20:10Z</time></trkpt>
<trkpt lat="43.698521024" lon="11.315145995"><ele>135</ele><time>2020-01-12T08:20:11Z</time></trkpt>
<trkpt lat="43.69850602" lon="11.315169968"><ele>135</ele><time>2020-01-12T08:20:12Z</time></trkpt>
<trkpt lat="43.698492022" lon="11.315193018"><ele>136</ele><time>2020-01-12T08:20:13Z</time></trkpt>
<trkpt lat="43.698478024" lon="11.315215984"><ele>136</ele><time>2020-01-12T08:20:14Z</time></trkpt>
<trkpt lat="43.698464027" lon="11.315238029"><ele>137</ele><time>2020-01-12T08:20:15Z</time></trkpt>
<trkpt lat="43.698450029" lon="11.315259989"><ele>137</ele><time>2020-01-12T08:20:16Z</time></trkpt>
<trkpt lat="43.698437037" lon="11.315282034"><ele>138</ele><time>2020-01-12T08:20:17Z</time></trkpt>
<trkpt lat="43.698423961" lon="11.315302989"><ele>138</ele><time>2020-01-12T08:20:18Z</time></trkpt>
<trkpt lat="43.698410969" lon="11.315325033"><ele>139</ele><time>2020-01-12T08:20:19Z</time></trkpt>
<trkpt lat="43.698397977" lon="11.315345988"><ele>139</ele><time>2020-01-12T08:20:20Z</time></trkpt>
<trkpt lat="43.698384985" lon="11.315368032"><ele>140</ele><time>2020-01-12T08:20:21Z</time></trkpt>
<trkpt lat="43.698345004" lon="11.315435003"><ele>141</ele><time>2020-01-12T08:20:24Z</time></trkpt>
<trkpt lat="43.698331006" lon="11.31545797"><ele>142</ele><time>2020-01-12T08:20:25Z</time></trkpt>
<trkpt lat="43.698317008" lon="11.31548102"><ele>142</ele><time>2020-01-12T08:20:26Z</time></trkpt>
<trkpt lat="43.69830301" lon="11.315504992"><ele>143</ele><time>2020-01-12T08:20:27Z</time></trkpt>
<trkpt lat="43.698289013" lon="11.315527959"><ele>143</ele><time>2020-01-12T08:20:28Z</time></trkpt>
<trkpt lat="43.698276021" lon="11.315552015"><ele>143</ele><time>2020-01-12T08:20:29Z</time></trkpt>
<trkpt lat="43.698262023" lon="11.315575987"><ele>144</ele><time>2020-01-12T08:20:30Z</time></trkpt>
<trkpt lat="43.698250037" lon="11.315599037"><ele>144</ele><time>2020-01-12T08:20:31Z</time></trkpt>
<trkpt lat="43.698236961" lon="11.315622004"><ele>145</ele><time>2020-01-12T08:20:32Z</time></trkpt>
<trkpt lat="43.698224975" lon="11.31564497"><ele>145</ele><time>2020-01-12T08:20:33Z</time></trkpt>
<trkpt lat="43.698213995" lon="11.315667015"><ele>146</ele><time>2020-01-12T08:20:34Z</time></trkpt>
<trkpt lat="43.69820402" lon="11.315687969"><ele>146</ele><time>2020-01-12T08:20:35Z</time></trkpt>
<trkpt lat="43.698176024" lon="11.315752007"><ele>147</ele><time>2020-01-12T08:20:38Z</time></trkpt>
<trkpt lat="43.698166972" lon="11.315772962"><ele>147</ele><time>2020-01-12T08:20:39Z</time></trkpt>
<trkpt lat="43.698159009" lon="11.315795006"><ele>148</ele><time>2020-01-12T08:20:40Z</time></trkpt>
<trkpt lat="43.698150963" lon="11.315816967"><ele>148</ele><time>2020-01-12T08:20:41Z</time></trkpt>
<trkpt lat="43.698144006" lon="11.315839011"><ele>148</ele><time>2020-01-12T08:20:42Z</time></trkpt>
<trkpt lat="43.698135959" lon="11.315860972"><ele>148</ele><time>2020-01-12T08:20:43Z</time></trkpt>
<trkpt lat="43.698129002" lon="11.315885028"><ele>149</ele><time>2020-01-12T08:20:44Z</time></trkpt>
<trkpt lat="43.698121039" lon="11.315907994"><ele>149</ele><time>2020-01-12T08:20:45Z</time></trkpt>
<trkpt lat="43.698113998" lon="11.315931967"><ele>149</ele><time>2020-01-12T08:20:46Z</time></trkpt>
<trkpt lat="43.698107041" lon="11.315957028"><ele>149</ele><time>2020-01-12T08:20:47Z</time></trkpt>
<trkpt lat="43.698100001" lon="11.315982006"><ele>149</ele><time>2020-01-12T08:20:48Z</time></trkpt>
<trkpt lat="43.698092038" lon="11.316006985"><ele>149</ele><time>2020-01-12T08:20:49Z</time></trkpt>
<trkpt lat="43.698084997" lon="11.316031963"><ele>149</ele><time>2020-01-12T08:20:50Z</time></trkpt>
<trkpt lat="43.698077034" lon="11.31605803"><ele>149</ele><time>2020-01-12T08:20:51Z</time></trkpt>
<trkpt lat="43.698069993" lon="11.316084014"><ele>149</ele><time>2020-01-12T08:20:52Z</time></trkpt>
<trkpt lat="43.698062031" lon="11.316109998"><ele>149</ele><time>2020-01-12T08:20:53Z</time></trkpt>
<trkpt lat="43.698053984" lon="11.316135982"><ele>150</ele><time>2020-01-12T08:20:54Z</time></trkpt>
<trkpt lat="43.698045015" lon="11.316161966"><ele>150</ele><time>2020-01-12T08:20:55Z</time></trkpt>
<trkpt lat="43.698036969" lon="11.316189039"><ele>150</ele><time>2020-01-12T08:20:56Z</time></trkpt>
<trkpt lat="43.698028" lon="11.316215023"><ele>150</ele><time>2020-01-12T08:20:57Z</time></trkpt>
<trkpt lat="43.698019031" lon="11.316241007"><ele>150</ele><time>2020-01-12T08:20:58Z</time></trkpt>
<trkpt lat="43.698008973" lon="11.316267997"><ele>150</ele><time>2020-01-12T08:20:59Z</time></trkpt>
<trkpt lat="43.697998999" lon="11.316293981"><ele>150</ele><time>2020-01-12T08:21:00Z</time></trkpt>
<trkpt lat="43.697989024" lon="11.316319965"><ele>150</ele><time>2020-01-12T08:21:01Z</time></trkpt>
<trkpt lat="43.69797796" lon="11.316347038"><ele>151</ele><time>2020-01-12T08:21:02Z</time></trkpt>
<trkpt lat="43.697965974" lon="11.316373022"><ele>151</ele><time>2020-01-12T08:21:03Z</time></trkpt>
<trkpt lat="43.697954994" lon="11.316399006"><ele>151</ele><time>2020-01-12T08:21:04Z</time></trkpt>
<trkpt lat="43.697944013" lon="11.316427002"><ele>151</ele><time>2020-01-12T08:21:05Z</time></trkpt>
<trkpt lat="43.697932027" lon="11.316454997"><ele>151</ele><time>2020-01-12T08:21:06Z</time></trkpt>
<trkpt lat="43.697920963" lon="11.316485004"><ele>151</ele><time>2020-01-12T08:21:07Z</time></trkpt>
<trkpt lat="43.697909983" lon="11.316515012"><ele>152</ele><time>2020-01-12T08:21:08Z</time></trkpt>
<trkpt lat="43.697900008" lon="11.316545019"><ele>152</ele><time>2020-01-12T08:21:09Z</time></trkpt>
<trkpt lat="43.697889028" lon="11.31657402"><ele>152</ele><time>2020-01-12T08:21:10Z</time></trkpt>
<trkpt lat="43.69787897" lon="11.316602016"><ele>152</ele><time>2020-01-12T08:21:11Z</time></trkpt>
<trkpt lat="43.697868995" lon="11.316629006"><ele>152</ele><time>2020-01-12T08:21:12Z</time></trkpt>
<trkpt lat="43.697859021" lon="11.316653984"><ele>152</ele><time>2020-01-12T08:21:13Z</time></trkpt>
<trkpt lat="43.697848963" lon="11.31667804"><ele>152</ele><time>2020-01-12T08:21:14Z</time></trkpt>
<trkpt lat="43.697837982" lon="11.316701006"><ele>153</ele><time>2020-01-12T08:21:15Z</time></trkpt>
<trkpt lat="43.697825996" lon="11.316722967"><ele>153</ele><time>2020-01-12T08:21:16Z</time></trkpt>
<trkpt lat="43.69781401" lon="11.316745011"><ele>153</ele><time>2020-01-12T08:21:17Z</time></trkpt>
<trkpt lat="43.697801018" lon="11.316766972"><ele>153</ele><time>2020-01-12T08:21:18Z</time></trkpt>
<trkpt lat="43.697786015" lon="11.316789016"><ele>153</ele><time>2020-01-12T08:21:19Z</time></trkpt>
<trkpt lat="43.697770005" lon="11.316811983"><ele>153</ele><time>2020-01-12T08:21:20Z</time></trkpt>
<trkpt lat="43.697714014" lon="11.316887001"><ele>154</ele><time>2020-01-12T08:21:23Z</time></trkpt>
<trkpt lat="43.697692975" lon="11.31691399"><ele>154</ele><time>2020-01-12T08:21:24Z</time></trkpt>
<trkpt lat="43.697673026" lon="11.31694098"><ele>154</ele><time>2020-01-12T08:21:25Z</time></trkpt>
<trkpt lat="43.697652994" lon="11.316968976"><ele>155</ele><time>2020-01-12T08:21:26Z</time></trkpt>
<trkpt lat="43.697632961" lon="11.316997977"><ele>155</ele><time>2020-01-12T08:21:27Z</time></trkpt>
<trkpt lat="43.697614018" lon="11.317026978"><ele>155</ele><time>2020-01-12T08:21:28Z</time></trkpt>
<trkpt lat="43.697597003" lon="11.31705598"><ele>155</ele><time>2020-01-12T08:21:29Z</time></trkpt>
<trkpt lat="43.697580993" lon="11.317084981"><ele>155</ele><time>2020-01-12T08:21:30Z</time></trkpt>
<trkpt lat="43.697568001" lon="11.317113983"><ele>156</ele><time>2020-01-12T08:21:31Z</time></trkpt>
<trkpt lat="43.697556015" lon="11.31714399"><ele>156</ele><time>2020-01-12T08:21:32Z</time></trkpt>
<trkpt lat="43.697546963" lon="11.317173997"><ele>156</ele><time>2020-01-12T08:21:33Z</time></trkpt>
<trkpt lat="43.697537994" lon="11.317204004"><ele>156</ele><time>2020-01-12T08:21:34Z</time></trkpt>
<trkpt lat="43.697531959" lon="11.317235017"><ele>156</ele><time>2020-01-12T08:21:35Z</time></trkpt>
<trkpt lat="43.697526008" lon="11.317265024"><ele>156</ele><time>2020-01-12T08:21:36Z</time></trkpt>
<trkpt lat="43.697521985" lon="11.317296037"><ele>156</ele><time>2020-01-12T08:21:37Z</time></trkpt>
<trkpt lat="43.697517961" lon="11.317327973"><ele>156</ele><time>2020-01-12T08:21:38Z</time></trkpt>
<trkpt lat="43.697516033" lon="11.317359991"><ele>156</ele><time>2020-01-12T08:21:39Z</time></trkpt>
<trkpt lat="43.697514022" lon="11.31739201"><ele>156</ele><time>2020-01-12T08:21:40Z</time></trkpt>
<trkpt lat="43.69751201" lon="11.317425035"><ele>156</ele><time>2020-01-12T08:21:41Z</time></trkpt>
<trkpt lat="43.697511004" lon="11.317457976"><ele>156</ele><time>2020-01-12T08:21:42Z</time></trkpt>
<trkpt lat="43.697509998" lon="11.317491001"><ele>156</ele><time>2020-01-12T08:21:43Z</time></trkpt>
<trkpt lat="43.697508993" lon="11.317525031"><ele>156</ele><time>2020-01-12T08:21:44Z</time></trkpt>
<trkpt lat="43.697508993" lon="11.317557972"><ele>156</ele><time>2020-01-12T08:21:45Z</time></trkpt>
<trkpt lat="43.697507987" lon="11.317592002"><ele>156</ele><time>2020-01-12T08:21:46Z</time></trkpt>
<trkpt lat="43.697507987" lon="11.317626033"><ele>156</ele><time>2020-01-12T08:21:47Z</time></trkpt>
<trkpt lat="43.697506981" lon="11.31765998"><ele>156</ele><time>2020-01-12T08:21:48Z</time></trkpt>
<trkpt lat="43.697505975" lon="11.31769401"><ele>156</ele><time>2020-01-12T08:21:49Z</time></trkpt>
<trkpt lat="43.697503963" lon="11.317727035"><ele>156</ele><time>2020-01-12T08:21:50Z</time></trkpt>
<trkpt lat="43.697503041" lon="11.317760982"><ele>156</ele><time>2020-01-12T08:21:51Z</time></trkpt>
<trkpt lat="43.697500024" lon="11.317794006"><ele>156</ele><time>2020-01-12T08:21:52Z</time></trkpt>
<trkpt lat="43.697497007" lon="11.317827031"><ele>156</ele><time>2020-01-12T08:21:53Z</time></trkpt>
<trkpt lat="43.697484015" lon="11.317923004"><ele>156</ele><time>2020-01-12T08:21:56Z</time></trkpt>
<trkpt lat="43.697476974" lon="11.317954017"><ele>156</ele><time>2020-01-12T08:21:57Z</time></trkpt>
<trkpt lat="43.697470017" lon="11.31798503"><ele>157</ele><time>2020-01-12T08:21:58Z</time></trkpt>
<trkpt lat="43.697460964" lon="11.318014031"><ele>157</ele><time>2020-01-12T08:21:59Z</time></trkpt>
<trkpt lat="43.697451996" lon="11.318044038"><ele>157</ele><time>2020-01-12T08:22:00Z</time></trkpt>
<trkpt lat="43.697441015" lon="11.318072034"><ele>157</ele><time>2020-01-12T08:22:01Z</time></trkpt>
<trkpt lat="43.697430035" lon="11.31810003"><ele>157</ele><time>2020-01-12T08:22:02Z</time></trkpt>
<trkpt lat="43.697416959" lon="11.318128025"><ele>158</ele><time>2020-01-12T08:22:03Z</time></trkpt>
<trkpt lat="43.697403967" lon="11.318156021"><ele>158</ele><time>2020-01-12T08:22:04Z</time></trkpt>
<trkpt lat="43.697390975" lon="11.31818301"><ele>158</ele><time>2020-01-12T08:22:05Z</time></trkpt>
<trkpt lat="43.697376978" lon="11.318208994"><ele>158</ele><time>2020-01-12T08:22:06Z</time></trkpt>
<trkpt lat="43.69736298" lon="11.318235984"><ele>159</ele><time>2020-01-12T08:22:07Z</time></trkpt>
<trkpt lat="43.697347976" lon="11.318262974"><ele>159</ele><time>2020-01-12T08:22:08Z</time></trkpt>
<trkpt lat="43.697332973" lon="11.318289042"><ele>159</ele><time>2020-01-12T08:22:09Z</time></trkpt>
<trkpt lat="43.697317969" lon="11.318316031"><ele>160</ele><time>2020-01-12T08:22:10Z</time></trkpt>
<trkpt lat="43.697302965" lon="11.318342015"><ele>160</ele><time>2020-01-12T08:22:11Z</time></trkpt>
<trkpt lat="43.697288968" lon="11.318369005"><ele>160</ele><time>2020-01-12T08:22:12Z</time></trkpt>
<trkpt lat="43.697273964" lon="11.318394989"><ele>160</ele><time>2020-01-12T08:22:13Z</time></trkpt>
<trkpt lat="43.697259966" lon="11.318421979"><ele>161</ele><time>2020-01-12T08:22:14Z</time></trkpt>
<trkpt lat="43.697245969" lon="11.318449974"><ele>161</ele><time>2020-01-12T08:22:15Z</time></trkpt>
<trkpt lat="43.697232977" lon="11.318476964"><ele>161</ele><time>2020-01-12T08:22:16Z</time></trkpt>
<trkpt lat="43.697219985" lon="11.318505965"><ele>161</ele><time>2020-01-12T08:22:17Z</time></trkpt>
<trkpt lat="43.697207998" lon="11.318533961"><ele>161</ele><time>2020-01-12T08:22:18Z</time></trkpt>
<trkpt lat="43.697197018" lon="11.318562962"><ele>161</ele><time>2020-01-12T08:22:19Z</time></trkpt>
<trkpt lat="43.697186038" lon="11.318591963"><ele>162</ele><time>2020-01-12T08:22:20Z</time></trkpt>
<trkpt lat="43.69717598" lon="11.318620965"><ele>162</ele><time>2020-01-12T08:22:21Z</time></trkpt>
<trkpt lat="43.697167011" lon="11.318650972"><ele>162</ele><time>2020-01-12T08:22:22Z</time></trkpt>
<trkpt lat="43.697157959" lon="11.318679973"><ele>162</ele><time>2020-01-12T08:22:23Z</time></trkpt>
<trkpt lat="43.69714899" lon="11.318708975"><ele>162</ele><time>2020-01-12T08:22:24Z</time></trkpt>
<trkpt lat="43.697141027" lon="11.318737976"><ele>162</ele><time>2020-01-12T08:22:25Z</time></trkpt>
<trkpt lat="43.697118983" lon="11.318821041"><ele>163</ele><time>2020-01-12T08:22:28Z</time></trkpt>
<trkpt lat="43.697112026" lon="11.318847025"><ele>163</ele><time>2020-01-12T08:22:29Z</time></trkpt>
<trkpt lat="43.697104985" lon="11.318874015"><ele>163</ele><time>2020-01-12T08:22:30Z</time></trkpt>
<trkpt lat="43.697098028" lon="11.318899998"><ele>163</ele><time>2020-01-12T08:22:31Z</time></trkpt>
<trkpt lat="43.697091993" lon="11.318925982"><ele>163</ele><time>2020-01-12T08:22:32Z</time></trkpt>
<trkpt lat="43.697085036" lon="11.318951966"><ele>163</ele><time>2020-01-12T08:22:33Z</time></trkpt>
<trkpt lat="43.697079001" lon="11.318978034"><ele>163</ele><time>2020-01-12T08:22:34Z</time></trkpt>
<trkpt lat="43.69707196" lon="11.319005024"><ele>163</ele><time>2020-01-12T08:22:35Z</time></trkpt>
<trkpt lat="43.697065003" lon="11.319032013"><ele>163</ele><time>2020-01-12T08:22:36Z</time></trkpt>
<trkpt lat="43.697057962" lon="11.319060009"><ele>163</ele><time>2020-01-12T08:22:37Z</time></trkpt>
<trkpt lat="43.697051005" lon="11.31908901"><ele>163</ele><time>2020-01-12T08:22:38Z</time></trkpt>
<trkpt lat="43.697042959" lon="11.319118012"><ele>163</ele><time>2020-01-12T08:22:39Z</time></trkpt>
<trkpt lat="43.697034996" lon="11.319148019"><ele>163</ele><time>2020-01-12T08:22:40Z</time></trkpt>
<trkpt lat="43.697027033" lon="11.319178026"><ele>164</ele><time>2020-01-12T08:22:41Z</time></trkpt>
<trkpt lat="43.697018987" lon="11.319209039"><ele>164</ele><time>2020-01-12T08:22:42Z</time></trkpt>
<trkpt lat="43.697011024" lon="11.319238963"><ele>164</ele><time>2020-01-12T08:22:43Z</time></trkpt>
<trkpt lat="43.697001971" lon="11.319269976"><ele>164</ele><time>2020-01-12T08:22:44Z</time></trkpt>
<trkpt lat="43.696994008" lon="11.319299983"><ele>164</ele><time>2020-01-12T08:22:45Z</time></trkpt>
<trkpt lat="43.696985962" lon="11.31932999"><ele>165</ele><time>2020-01-12T08:22:46Z</time></trkpt>
<trkpt lat="43.696977999" lon="11.319359997"><ele>165</ele><time>2020-01-12T08:22:47Z</time></trkpt>
<trkpt lat="43.696970036" lon="11.319387993"><ele>165</ele><time>2020-01-12T08:22:48Z</time></trkpt>
<trkpt lat="43.69696199" lon="11.319416994"><ele>165</ele><time>2020-01-12T08:22:49Z</time></trkpt>
<trkpt lat="43.696955033" lon="11.31944499"><ele>165</ele><time>2020-01-12T08:22:50Z</time></trkpt>
<trkpt lat="43.696946986" lon="11.319472985"><ele>166</ele><time>2020-01-12T08:22:51Z</time></trkpt>
<trkpt lat="43.696939023" lon="11.319499975"><ele>166</ele><time>2020-01-12T08:22:52Z</time></trkpt>
<trkpt lat="43.696930977" lon="11.319526965"><ele>166</ele><time>2020-01-12T08:22:53Z</time></trkpt>
<trkpt lat="43.696922008" lon="11.319554038"><ele>166</ele><time>2020-01-12T08:22:54Z</time></trkpt>
<trkpt lat="43.696913961" lon="11.319582034"><ele>166</ele><time>2020-01-12T08:22:55Z</time></trkpt>
<trkpt lat="43.696904993" lon="11.319609024"><ele>167</ele><time>2020-01-12T08:22:56Z</time></trkpt>
<trkpt lat="43.696896024" lon="11.319637019"><ele>167</ele><time>2020-01-12T08:22:57Z</time></trkpt>
<trkpt lat="43.696885966" lon="11.319664009"><ele>167</ele><time>2020-01-12T08:22:58Z</time></trkpt>
<trkpt lat="43.696875991" lon="11.319692004"><ele>167</ele><time>2020-01-12T08:22:59Z</time></trkpt>
<trkpt lat="43.696865011" lon="11.31972"><ele>168</ele><time>2020-01-12T08:23:00Z</time></trkpt>
<trkpt lat="43.696855037" lon="11.319747996"><ele>168</ele><time>2020-01-12T08:23:01Z</time></trkpt>
<trkpt lat="43.696843972" lon="11.319775991"><ele>168</ele><time>2020-01-12T08:23:02Z</time></trkpt>
<trkpt lat="43.696832992" lon="11.319803987"><ele>168</ele><time>2020-01-12T08:23:03Z</time></trkpt>
<trkpt lat="43.696822012" lon="11.319832988"><ele>169</ele><time>2020-01-12T08:23:04Z</time></trkpt>
<trkpt lat="43.696810026" lon="11.319860984"><ele>169</ele><time>2020-01-12T08:23:05Z</time></trkpt>
<trkpt lat="43.696798962" lon="11.319888979"><ele>169</ele><time>2020-01-12T08:23:06Z</time></trkpt>
<trkpt lat="43.696786975" lon="11.319916975"><ele>170</ele><time>2020-01-12T08:23:07Z</time></trkpt>
<trkpt lat="43.696775995" lon="11.31994497"><ele>170</ele><time>2020-01-12T08:23:08Z</time></trkpt>
<trkpt lat="43.696764009" lon="11.319972966"><ele>170</ele><time>2020-01-12T08:23:09Z</time></trkpt>
<trkpt lat="43.696753029" lon="11.320000961"><ele>170</ele><time>2020-01-12T08:23:10Z</time></trkpt>
<trkpt lat="43.696741965" lon="11.320029041"><ele>171</ele><time>2020-01-12T08:23:11Z</time></trkpt>
<trkpt lat="43.696730984" lon="11.320057036"><ele>171</ele><time>2020-01-12T08:23:12Z</time></trkpt>
<trkpt lat="43.696720004" lon="11.320084026"><ele>171</ele><time>2020-01-12T08:23:13Z</time></trkpt>
<trkpt lat="43.696709024" lon="11.320111016"><ele>171</ele><time>2020-01-12T08:23:14Z</time></trkpt>
<trkpt lat="43.696698966" lon="11.320138006"><ele>171</ele><time>2020-01-12T08:23:15Z</time></trkpt>
<trkpt lat="43.696668958" lon="11.320216963"><ele>171</ele><time>2020-01-12T08:23:18Z</time></trkpt>
<trkpt lat="43.696658984" lon="11.320243031"><ele>172</ele><time>2020-01-12T08:23:19Z</time></trkpt>
<trkpt lat="43.696650015" lon="11.320269015"><ele>172</ele><time>2020-01-12T08:23:20Z</time></trkpt>
<trkpt lat="43.696640963" lon="11.320294999"><ele>172</ele><time>2020-01-12T08:23:21Z</time></trkpt>
<trkpt lat="43.696631994" lon="11.320319977"><ele>172</ele><time>2020-01-12T08:23:22Z</time></trkpt>
<trkpt lat="43.696624031" lon="11.320345961"><ele>172</ele><time>2020-01-12T08:23:23Z</time></trkpt>
<trkpt lat="43.696614979" lon="11.320371022"><ele>172</ele><time>2020-01-12T08:23:24Z</time></trkpt>
<trkpt lat="43.696607016" lon="11.320397006"><ele>172</ele><time>2020-01-12T08:23:25Z</time></trkpt>
<trkpt lat="43.696597964" lon="11.32042299"><ele>172</ele><time>2020-01-12T08:23:26Z</time></trkpt>
<trkpt lat="43.696590001" lon="11.320447968"><ele>172</ele><time>2020-01-12T08:23:27Z</time></trkpt>
<trkpt lat="43.696582038" lon="11.320474036"><ele>172</ele><time>2020-01-12T08:23:28Z</time></trkpt>
<trkpt lat="43.696572986" lon="11.32050002"><ele>172</ele><time>2020-01-12T08:23:29Z</time></trkpt>
<trkpt lat="43.696565023" lon="11.320526004"><ele>172</ele><time>2020-01-12T08:23:30Z</time></trkpt>
<trkpt lat="43.696556976" lon="11.320551988"><ele>172</ele><time>2020-01-12T08:23:31Z</time></trkpt>
<trkpt lat="43.696548007" lon="11.320577972"><ele>172</ele><time>2020-01-12T08:23:32Z</time></trkpt>
<trkpt lat="43.696539961" lon="11.320604961"><ele>172</ele><time>2020-01-12T08:23:33Z</time></trkpt>
<trkpt lat="43.696530992" lon="11.320631029"><ele>172</ele><time>2020-01-12T08:23:34Z</time></trkpt>
<trkpt lat="43.696523029" lon="11.320658019"><ele>172</ele><time>2020-01-12T08:23:35Z</time></trkpt>
<trkpt lat="43.696513977" lon="11.320686014"><ele>172</ele><time>2020-01-12T08:23:36Z</time></trkpt>
<trkpt lat="43.696505008" lon="11.320713004"><ele>173</ele><time>2020-01-12T08:23:37Z</time></trkpt>
<trkpt lat="43.69649604" lon="11.320739994"><ele>173</ele><time>2020-01-12T08:23:38Z</time></trkpt>
<trkpt lat="43.696487993" lon="11.320767989"><ele>173</ele><time>2020-01-12T08:23:39Z</time></trkpt>
<trkpt lat="43.696479024" lon="11.320794979"><ele>173</ele><time>2020-01-12T08:23:40Z</time></trkpt>
<trkpt lat="43.696470978" lon="11.320820963"><ele>173</ele><time>2020-01-12T08:23:41Z</time></trkpt>
<trkpt lat="43.696462009" lon="11.320847031"><ele>173</ele><time>2020-01-12T08:23:42Z</time></trkpt>
<trkpt lat="43.696453962" lon="11.320873015"><ele>173</ele><time>2020-01-12T08:23:43Z</time></trkpt>
<trkpt lat="43.696446" lon="11.320897993"><ele>173</ele><time>2020-01-12T08:23:44Z</time></trkpt>
<trkpt lat="43.696438959" lon="11.320921965"><ele>173</ele><time>2020-01-12T08:23:45Z</time></trkpt>
<trkpt lat="43.696432002" lon="11.320946021"><ele>173</ele><time>2020-01-12T08:23:46Z</time></trkpt>
<trkpt lat="43.696424961" lon="11.320969993"><ele>173</ele><time>2020-01-12T08:23:47Z</time></trkpt>
<trkpt lat="43.696418004" lon="11.320994971"><ele>174</ele><time>2020-01-12T08:23:48Z</time></trkpt>
<trkpt lat="43.696411969" lon="11.321020033"><ele>174</ele><time>2020-01-12T08:23:49Z</time></trkpt>
<trkpt lat="43.696405012" lon="11.321046017"><ele>174</ele><time>2020-01-12T08:23:50Z</time></trkpt>
<trkpt lat="43.696397971" lon="11.321072001"><ele>174</ele><time>2020-01-12T08:23:51Z</time></trkpt>
<trkpt lat="43.696390009" lon="11.321098991"><ele>174</ele><time>2020-01-12T08:23:52Z</time></trkpt>
<trkpt lat="43.69638104" lon="11.321124975"><ele>174</ele><time>2020-01-12T08:23:53Z</time></trkpt>
<trkpt lat="43.69636897" lon="11.321150037"><ele>174</ele><time>2020-01-12T08:23:54Z</time></trkpt>
<trkpt lat="43.696356984" lon="11.321174009"><ele>174</ele><time>2020-01-12T08:23:55Z</time></trkpt>
<trkpt lat="43.696343992" lon="11.321197981"><ele>175</ele><time>2020-01-12T08:23:56Z</time></trkpt>
<trkpt lat="43.696331" lon="11.321222959"><ele>175</ele><time>2020-01-12T08:23:57Z</time></trkpt>
<trkpt lat="43.696319014" lon="11.321248021"><ele>175</ele><time>2020-01-12T08:23:58Z</time></trkpt>
<trkpt lat="43.696309961" lon="11.321275011"><ele>175</ele><time>2020-01-12T08:23:59Z</time></trkpt>
<trkpt lat="43.696301999" lon="11.321304012"><ele>175</ele><time>2020-01-12T08:24:00Z</time></trkpt>
<trkpt lat="43.696295042" lon="11.321333013"><ele>176</ele><time>2020-01-12T08:24:01Z</time></trkpt>
<trkpt lat="43.696288001" lon="11.321362015"><ele>176</ele><time>2020-01-12T08:24:02Z</time></trkpt>
<trkpt lat="43.696281966" lon="11.321392022"><ele>176</ele><time>2020-01-12T08:24:03Z</time></trkpt>
<trkpt lat="43.696275009" lon="11.321421023"><ele>176</ele><time>2020-01-12T08:24:04Z</time></trkpt>
<trkpt lat="43.696266962" lon="11.321450025"><ele>176</ele><time>2020-01-12T08:24:05Z</time></trkpt>
<trkpt lat="43.696258999" lon="11.321479026"><ele>176</ele><time>2020-01-12T08:24:06Z</time></trkpt>
<trkpt lat="43.696250031" lon="11.321507022"><ele>176</ele><time>2020-01-12T08:24:07Z</time></trkpt>
<trkpt lat="43.696240978" lon="11.321536023"><ele>177</ele><time>2020-01-12T08:24:08Z</time></trkpt>
<trkpt lat="43.696231004" lon="11.321564019"><ele>177</ele><time>2020-01-12T08:24:09Z</time></trkpt>
<trkpt lat="43.696221029" lon="11.321592014"><ele>177</ele><time>2020-01-12T08:24:10Z</time></trkpt>
<trkpt lat="43.696210971" lon="11.32162001"><ele>177</ele><time>2020-01-12T08:24:11Z</time></trkpt>
<trkpt lat="43.696200997" lon="11.321648005"><ele>178</ele><time>2020-01-12T08:24:12Z</time></trkpt>
<trkpt lat="43.696191022" lon="11.321677007"><ele>178</ele><time>2020-01-12T08:24:13Z</time></trkpt>
<trkpt lat="43.696180042" lon="11.321705002"><ele>178</ele><time>2020-01-12T08:24:14Z</time></trkpt>
<trkpt lat="43.696169984" lon="11.321734004"><ele>178</ele><time>2020-01-12T08:24:15Z</time></trkpt>
<trkpt lat="43.696159003" lon="11.321761999"><ele>178</ele><time>2020-01-12T08:24:16Z</time></trkpt>
<trkpt lat="43.696149029" lon="11.321791001"><ele>179</ele><time>2020-01-12T08:24:17Z</time></trkpt>
<trkpt lat="43.696137965" lon="11.321818996"><ele>179</ele><time>2020-01-12T08:24:18Z</time></trkpt>
<trkpt lat="43.69612799" lon="11.321847998"><ele>179</ele><time>2020-01-12T08:24:19Z</time></trkpt>
<trkpt lat="43.69611701" lon="11.321876999"><ele>179</ele><time>2020-01-12T08:24:20Z</time></trkpt>
<trkpt lat="43.696107036" lon="11.321904995"><ele>179</ele><time>2020-01-12T08:24:21Z</time></trkpt>
<trkpt lat="43.696096977" lon="11.321933996"><ele>180</ele><time>2020-01-12T08:24:22Z</time></trkpt>
<trkpt lat="43.696087003" lon="11.321962997"><ele>180</ele><time>2020-01-12T08:24:23Z</time></trkpt>
<trkpt lat="43.696077028" lon="11.321991999"><ele>180</ele><time>2020-01-12T08:24:24Z</time></trkpt>
<trkpt lat="43.696067976" lon="11.322019994"><ele>180</ele><time>2020-01-12T08:24:25Z</time></trkpt>
<trkpt lat="43.696058001" lon="11.322048996"><ele>181</ele><time>2020-01-12T08:24:26Z</time></trkpt>
<trkpt lat="43.696049033" lon="11.322077997"><ele>181</ele><time>2020-01-12T08:24:27Z</time></trkpt>
<trkpt lat="43.696040986" lon="11.322105993"><ele>181</ele><time>2020-01-12T08:24:28Z</time></trkpt>
<trkpt lat="43.696032017" lon="11.322134994"><ele>181</ele><time>2020-01-12T08:24:29Z</time></trkpt>
<trkpt lat="43.696023971" lon="11.32216299"><ele>181</ele><time>2020-01-12T08:24:30Z</time></trkpt>
<trkpt lat="43.696016008" lon="11.322191991"><ele>182</ele><time>2020-01-12T08:24:31Z</time></trkpt>
<trkpt lat="43.696008967" lon="11.322219986"><ele>182</ele><time>2020-01-12T08:24:32Z</time></trkpt>
<trkpt lat="43.69600201" lon="11.322248988"><ele>182</ele><time>2020-01-12T08:24:33Z</time></trkpt>
<trkpt lat="43.695994969" lon="11.322276983"><ele>182</ele><time>2020-01-12T08:24:34Z</time></trkpt>
<trkpt lat="43.695989018" lon="11.322304979"><ele>182</ele><time>2020-01-12T08:24:35Z</time></trkpt>
<trkpt lat="43.695981978" lon="11.32233398"><ele>182</ele><time>2020-01-12T08:24:36Z</time></trkpt>
<trkpt lat="43.695975021" lon="11.322361976"><ele>183</ele><time>2020-01-12T08:24:37Z</time></trkpt>
<trkpt lat="43.695968986" lon="11.322390977"><ele>183</ele><time>2020-01-12T08:24:38Z</time></trkpt>
<trkpt lat="43.695961023" lon="11.322419979"><ele>183</ele><time>2020-01-12T08:24:39Z</time></trkpt>
<trkpt lat="43.695953982" lon="11.32244898"><ele>183</ele><time>2020-01-12T08:24:40Z</time></trkpt>
<trkpt lat="43.695946019" lon="11.322477981"><ele>183</ele><time>2020-01-12T08:24:41Z</time></trkpt>
<trkpt lat="43.695937973" lon="11.322507989"><ele>184</ele><time>2020-01-12T08:24:42Z</time></trkpt>
<trkpt lat="43.695929004" lon="11.322537996"><ele>184</ele><time>2020-01-12T08:24:43Z</time></trkpt>
<trkpt lat="43.695920035" lon="11.322566997"><ele>184</ele><time>2020-01-12T08:24:44Z</time></trkpt>
<trkpt lat="43.695910983" lon="11.322597004"><ele>184</ele><time>2020-01-12T08:24:45Z</time></trkpt>
<trkpt lat="43.695901008" lon="11.322626006"><ele>185</ele><time>2020-01-12T08:24:46Z</time></trkpt>
<trkpt lat="43.69589204" lon="11.322654001"><ele>185</ele><time>2020-01-12T08:24:47Z</time></trkpt>
<trkpt lat="43.695881981" lon="11.322683003"><ele>185</ele><time>2020-01-12T08:24:48Z</time></trkpt>
<trkpt lat="43.695872007" lon="11.322712004"><ele>185</ele><time>2020-01-12T08:24:49Z</time></trkpt>
<trkpt lat="43.695863038" lon="11.322741006"><ele>186</ele><time>2020-01-12T08:24:50Z</time></trkpt>
<trkpt lat="43.69585298" lon="11.322771013"><ele>186</ele><time>2020-01-12T08:24:51Z</time></trkpt>
<trkpt lat="43.695843006" lon="11.322802026"><ele>186</ele><time>2020-01-12T08:24:52Z</time></trkpt>
<trkpt lat="43.695833031" lon="11.322833961"><ele>186</ele><time>2020-01-12T08:24:53Z</time></trkpt>
<trkpt lat="43.695822973" lon="11.32286598"><ele>186</ele><time>2020-01-12T08:24:54Z</time></trkpt>
<trkpt lat="43.695811993" lon="11.322897999"><ele>186</ele><time>2020-01-12T08:24:55Z</time></trkpt>
<trkpt lat="43.695801012" lon="11.322930017"><ele>186</ele><time>2020-01-12T08:24:56Z</time></trkpt>
<trkpt lat="43.695790032" lon="11.322961031"><ele>186</ele><time>2020-01-12T08:24:57Z</time></trkpt>
<trkpt lat="43.695777962" lon="11.32299196"><ele>186</ele><time>2020-01-12T08:24:58Z</time></trkpt>
<trkpt lat="43.695765976" lon="11.323020961"><ele>186</ele><time>2020-01-12T08:24:59Z</time></trkpt>
<trkpt lat="43.695752984" lon="11.323049963"><ele>186</ele><time>2020-01-12T08:25:00Z</time></trkpt>
<trkpt lat="43.695738986" lon="11.32307603"><ele>186</ele><time>2020-01-12T08:25:01Z</time></trkpt>
<trkpt lat="43.695724988" lon="11.323102014"><ele>186</ele><time>2020-01-12T08:25:02Z</time></trkpt>
<trkpt lat="43.695710991" lon="11.323125986"><ele>186</ele><time>2020-01-12T08:25:03Z</time></trkpt>
<trkpt lat="43.695695987" lon="11.323149959"><ele>186</ele><time>2020-01-12T08:25:04Z</time></trkpt>
<trkpt lat="43.695679978" lon="11.323173009"><ele>186</ele><time>2020-01-12T08:25:05Z</time></trkpt>
<trkpt lat="43.695664974" lon="11.323195975"><ele>186</ele><time>2020-01-12T08:25:06Z</time></trkpt>
<trkpt lat="43.695648964" lon="11.32321802"><ele>186</ele><time>2020-01-12T08:25:07Z</time></trkpt>
<trkpt lat="43.695633961" lon="11.323240986"><ele>186</ele><time>2020-01-12T08:25:08Z</time></trkpt>
<trkpt lat="43.695618035" lon="11.323264036"><ele>186</ele><time>2020-01-12T08:25:09Z</time></trkpt>
<trkpt lat="43.695603032" lon="11.323288009"><ele>186</ele><time>2020-01-12T08:25:10Z</time></trkpt>
<trkpt lat="43.695588028" lon="11.323311981"><ele>186</ele><time>2020-01-12T08:25:11Z</time></trkpt>
<trkpt lat="43.695573024" lon="11.323336959"><ele>186</ele><time>2020-01-12T08:25:12Z</time></trkpt>
<trkpt lat="43.695558021" lon="11.323363027"><ele>186</ele><time>2020-01-12T08:25:13Z</time></trkpt>
<trkpt lat="43.695543017" lon="11.323390016"><ele>186</ele><time>2020-01-12T08:25:14Z</time></trkpt>
<trkpt lat="43.695528014" lon="11.323417006"><ele>186</ele><time>2020-01-12T08:25:15Z</time></trkpt>
<trkpt lat="43.695514016" lon="11.323445002"><ele>186</ele><time>2020-01-12T08:25:16Z</time></trkpt>
<trkpt lat="43.695499012" lon="11.323475009"><ele>186</ele><time>2020-01-12T08:25:17Z</time></trkpt>
<trkpt lat="43.695485014" lon="11.323505016"><ele>186</ele><time>2020-01-12T08:25:18Z</time></trkpt>
<trkpt lat="43.695471017" lon="11.323536029"><ele>186</ele><time>2020-01-12T08:25:19Z</time></trkpt>
<trkpt lat="43.695457019" lon="11.32356897"><ele>186</ele><time>2020-01-12T08:25:20Z</time></trkpt>
<trkpt lat="43.695443021" lon="11.323601995"><ele>186</ele><time>2020-01-12T08:25:21Z</time></trkpt>
<trkpt lat="43.695429023" lon="11.323637031"><ele>186</ele><time>2020-01-12T08:25:22Z</time></trkpt>
<trkpt lat="43.695415026" lon="11.323671984"><ele>186</ele><time>2020-01-12T08:25:23Z</time></trkpt>
<trkpt lat="43.695401028" lon="11.323708026"><ele>186</ele><time>2020-01-12T08:25:24Z</time></trkpt>
<trkpt lat="43.695388036" lon="11.32374499"><ele>186</ele><time>2020-01-12T08:25:25Z</time></trkpt>
<trkpt lat="43.695374038" lon="11.323782038"><ele>186</ele><time>2020-01-12T08:25:26Z</time></trkpt>
<trkpt lat="43.695332967" lon="11.323895026"><ele>186</ele><time>2020-01-12T08:25:29Z</time></trkpt>
<trkpt lat="43.695318969" lon="11.323932996"><ele>186</ele><time>2020-01-12T08:25:30Z</time></trkpt>
<trkpt lat="43.695304971" lon="11.323971972"><ele>186</ele><time>2020-01-12T08:25:31Z</time></trkpt>
<trkpt lat="43.695290973" lon="11.324010026"><ele>186</ele><time>2020-01-12T08:25:32Z</time></trkpt>
<trkpt lat="43.695276976" lon="11.324049002"><ele>186</ele><time>2020-01-12T08:25:33Z</time></trkpt>
<trkpt lat="43.695262978" lon="11.324087977"><ele>186</ele><time>2020-01-12T08:25:34Z</time></trkpt>
<trkpt lat="43.69524898" lon="11.324127037"><ele>186</ele><time>2020-01-12T08:25:35Z</time></trkpt>
<trkpt lat="43.695234982" lon="11.324166013"><ele>186</ele><time>2020-01-12T08:25:36Z</time></trkpt>
<trkpt lat="43.695220985" lon="11.324205995"><ele>186</ele><time>2020-01-12T08:25:37Z</time></trkpt>
<trkpt lat="43.695205981" lon="11.324245976"><ele>186</ele><time>2020-01-12T08:25:38Z</time></trkpt>
<trkpt lat="43.695191983" lon="11.324285036"><ele>186</ele><time>2020-01-12T08:25:39Z</time></trkpt>
<trkpt lat="43.69517698" lon="11.324325018"><ele>186</ele><time>2020-01-12T08:25:40Z</time></trkpt>
<trkpt lat="43.695162982" lon="11.324364999"><ele>186</ele><time>2020-01-12T08:25:41Z</time></trkpt>
<trkpt lat="43.695147978" lon="11.324405987"><ele>187</ele><time>2020-01-12T08:25:42Z</time></trkpt>
<trkpt lat="43.695132975" lon="11.324445968"><ele>187</ele><time>2020-01-12T08:25:43Z</time></trkpt>
<trkpt lat="43.695117971" lon="11.324486034"><ele>187</ele><time>2020-01-12T08:25:44Z</time></trkpt>
<trkpt lat="43.695101961" lon="11.324527021"><ele>187</ele><time>2020-01-12T08:25:45Z</time></trkpt>
<trkpt lat="43.695087042" lon="11.324568009"><ele>187</ele><time>2020-01-12T08:25:46Z</time></trkpt>
<trkpt lat="43.695071032" lon="11.324607991"><ele>187</ele><time>2020-01-12T08:25:47Z</time></trkpt>
<trkpt lat="43.695056029" lon="11.324648978"><ele>187</ele><time>2020-01-12T08:25:48Z</time></trkpt>
<trkpt lat="43.695040019" lon="11.324689966"><ele>187</ele><time>2020-01-12T08:25:49Z</time></trkpt>
<trkpt lat="43.69502401" lon="11.324731037"><ele>187</ele><time>2020-01-12T08:25:50Z</time></trkpt>
<trkpt lat="43.695008" lon="11.32477303"><ele>187</ele><time>2020-01-12T08:25:51Z</time></trkpt>
<trkpt lat="43.694992997" lon="11.324814018"><ele>188</ele><time>2020-01-12T08:25:52Z</time></trkpt>
<trkpt lat="43.694976987" lon="11.324856011"><ele>187</ele><time>2020-01-12T08:25:53Z</time></trkpt>
<trkpt lat="43.69496299" lon="11.324896999"><ele>187</ele><time>2020-01-12T08:25:54Z</time></trkpt>
<trkpt lat="43.694947986" lon="11.324938992"><ele>187</ele><time>2020-01-12T08:25:55Z</time></trkpt>
<trkpt lat="43.694933988" lon="11.324980985"><ele>187</ele><time>2020-01-12T08:25:56Z</time></trkpt>
<trkpt lat="43.694920996" lon="11.325022979"><ele>187</ele><time>2020-01-12T08:25:57Z</time></trkpt>
<trkpt lat="43.69490901" lon="11.325064972"><ele>187</ele><time>2020-01-12T08:25:58Z</time></trkpt>
<trkpt lat="43.694897024" lon="11.325106965"><ele>187</ele><time>2020-01-12T08:25:59Z</time></trkpt>
<trkpt lat="43.69488596" lon="11.325148959"><ele>187</ele><time>2020-01-12T08:26:00Z</time></trkpt>
<trkpt lat="43.69487498" lon="11.32519003"><ele>187</ele><time>2020-01-12T08:26:01Z</time></trkpt>
<trkpt lat="43.694863999" lon="11.325231018"><ele>187</ele><time>2020-01-12T08:26:02Z</time></trkpt>
<trkpt lat="43.694852013" lon="11.325270999"><ele>187</ele><time>2020-01-12T08:26:03Z</time></trkpt>
<trkpt lat="43.694841033" lon="11.325308969"><ele>187</ele><time>2020-01-12T08:26:04Z</time></trkpt>
<trkpt lat="43.694828963" lon="11.325347023"><ele>188</ele><time>2020-01-12T08:26:05Z</time></trkpt>
<trkpt lat="43.694815971" lon="11.325382981"><ele>188</ele><time>2020-01-12T08:26:06Z</time></trkpt>
<trkpt lat="43.694801973" lon="11.325417012"><ele>188</ele><time>2020-01-12T08:26:07Z</time></trkpt>
<trkpt lat="43.694787975" lon="11.325449031"><ele>188</ele><time>2020-01-12T08:26:08Z</time></trkpt>
<trkpt lat="43.694772972" lon="11.325480966"><ele>188</ele><time>2020-01-12T08:26:09Z</time></trkpt>
<trkpt lat="43.694757968" lon="11.325510973"><ele>188</ele><time>2020-01-12T08:26:10Z</time></trkpt>
<trkpt lat="43.694741959" lon="11.325539974"><ele>187</ele><time>2020-01-12T08:26:11Z</time></trkpt>
<trkpt lat="43.694726033" lon="11.32556797"><ele>187</ele><time>2020-01-12T08:26:12Z</time></trkpt>
<trkpt lat="43.694710024" lon="11.325595966"><ele>187</ele><time>2020-01-12T08:26:13Z</time></trkpt>
<trkpt lat="43.694693008" lon="11.325623039"><ele>187</ele><time>2020-01-12T08:26:14Z</time></trkpt>
<trkpt lat="43.694676999" lon="11.325651035"><ele>187</ele><time>2020-01-12T08:26:15Z</time></trkpt>
<trkpt lat="43.69466099" lon="11.325678024"><ele>187</ele><time>2020-01-12T08:26:16Z</time></trkpt>
<trkpt lat="43.694645986" lon="11.32570602"><ele>187</ele><time>2020-01-12T08:26:17Z</time></trkpt>
<trkpt lat="43.694629977" lon="11.32573301"><ele>187</ele><time>2020-01-12T08:26:18Z</time></trkpt>
<trkpt lat="43.694614973" lon="11.325761005"><ele>187</ele><time>2020-01-12T08:26:19Z</time></trkpt>
<trkpt lat="43.694599969" lon="11.325790007"><ele>187</ele><time>2020-01-12T08:26:20Z</time></trkpt>
<trkpt lat="43.694585972" lon="11.325818002"><ele>187</ele><time>2020-01-12T08:26:21Z</time></trkpt>
<trkpt lat="43.694571974" lon="11.325847004"><ele>188</ele><time>2020-01-12T08:26:22Z</time></trkpt>
<trkpt lat="43.694557976" lon="11.325876005"><ele>188</ele><time>2020-01-12T08:26:23Z</time></trkpt>
<trkpt lat="43.694544984" lon="11.325906012"><ele>188</ele><time>2020-01-12T08:26:24Z</time></trkpt>
<trkpt lat="43.694531992" lon="11.325936019"><ele>188</ele><time>2020-01-12T08:26:25Z</time></trkpt>
<trkpt lat="43.694519" lon="11.325966027"><ele>188</ele><time>2020-01-12T08:26:26Z</time></trkpt>
<trkpt lat="43.694510031" lon="11.325996034"><ele>188</ele><time>2020-01-12T08:26:27Z</time></trkpt>
<trkpt lat="43.694505002" lon="11.326025035"><ele>188</ele><time>2020-01-12T08:26:28Z</time></trkpt>
<trkpt lat="43.694507014" lon="11.326053031"><ele>188</ele><time>2020-01-12T08:26:29Z</time></trkpt>
<trkpt lat="43.694515983" lon="11.326077003"><ele>188</ele><time>2020-01-12T08:26:30Z</time></trkpt>
<trkpt lat="43.694530986" lon="11.326097036"><ele>188</ele><time>2020-01-12T08:26:31Z</time></trkpt>
<trkpt lat="43.694549007" lon="11.326113967"><ele>189</ele><time>2020-01-12T08:26:32Z</time></trkpt>
<trkpt lat="43.694568034" lon="11.326126959"><ele>189</ele><time>2020-01-12T08:26:33Z</time></trkpt>
<trkpt lat="43.694585972" lon="11.326140035"><ele>189</ele><time>2020-01-12T08:26:34Z</time></trkpt>
<trkpt lat="43.694603993" lon="11.326152021"><ele>189</ele><time>2020-01-12T08:26:35Z</time></trkpt>
<trkpt lat="43.69462302" lon="11.326166019"><ele>189</ele><time>2020-01-12T08:26:36Z</time></trkpt>
<trkpt lat="43.694643974" lon="11.326182028"><ele>190</ele><time>2020-01-12T08:26:37Z</time></trkpt>
<trkpt lat="43.694664007" lon="11.32619896"><ele>190</ele><time>2020-01-12T08:26:38Z</time></trkpt>
<trkpt lat="43.694684962" lon="11.326216981"><ele>190</ele><time>2020-01-12T08:26:39Z</time></trkpt>
<trkpt lat="43.694704995" lon="11.326237014"><ele>190</ele><time>2020-01-12T08:26:40Z</time></trkpt>
<trkpt lat="43.694724021" lon="11.326258974"><ele>190</ele><time>2020-01-12T08:26:41Z</time></trkpt>
<trkpt lat="43.694741037" lon="11.326281019"><ele>191</ele><time>2020-01-12T08:26:42Z</time></trkpt>
<trkpt lat="43.694756962" lon="11.326304991"><ele>191</ele><time>2020-01-12T08:26:43Z</time></trkpt>
<trkpt lat="43.694769032" lon="11.326330975"><ele>191</ele><time>2020-01-12T08:26:44Z</time></trkpt>
<trkpt lat="43.694779007" lon="11.326356959"><ele>191</ele><time>2020-01-12T08:26:45Z</time></trkpt>
<trkpt lat="43.694785964" lon="11.326384032"><ele>191</ele><time>2020-01-12T08:26:46Z</time></trkpt>
<trkpt lat="43.694790993" lon="11.326412028"><ele>191</ele><time>2020-01-12T08:26:47Z</time></trkpt>
<trkpt lat="43.694793005" lon="11.326441029"><ele>191</ele><time>2020-01-12T08:26:48Z</time></trkpt>
<trkpt lat="43.69479401" lon="11.32647003"><ele>192</ele><time>2020-01-12T08:26:49Z</time></trkpt>
<trkpt lat="43.694793005" lon="11.326500038"><ele>192</ele><time>2020-01-12T08:26:50Z</time></trkpt>
<trkpt lat="43.694790993" lon="11.326530967"><ele>192</ele><time>2020-01-12T08:26:51Z</time></trkpt>
<trkpt lat="43.69478697" lon="11.326560974"><ele>192</ele><time>2020-01-12T08:26:52Z</time></trkpt>
<trkpt lat="43.694773978" lon="11.326652002"><ele>192</ele><time>2020-01-12T08:26:55Z</time></trkpt>
<trkpt lat="43.694769032" lon="11.326682009"><ele>192</ele><time>2020-01-12T08:26:56Z</time></trkpt>
<trkpt lat="43.694764003" lon="11.326712016"><ele>193</ele><time>2020-01-12T08:26:57Z</time></trkpt>
<trkpt lat="43.69475998" lon="11.326742023"><ele>193</ele><time>2020-01-12T08:26:58Z</time></trkpt>
<trkpt lat="43.694755035" lon="11.326771025"><ele>193</ele><time>2020-01-12T08:26:59Z</time></trkpt>
<trkpt lat="43.694751011" lon="11.326800026"><ele>193</ele><time>2020-01-12T08:27:00Z</time></trkpt>
<trkpt lat="43.694745982" lon="11.326829027"><ele>193</ele><time>2020-01-12T08:27:01Z</time></trkpt>
<trkpt lat="43.694742965" lon="11.326857023"><ele>193</ele><time>2020-01-12T08:27:02Z</time></trkpt>
<trkpt lat="43.694739025" lon="11.326885018"><ele>194</ele><time>2020-01-12T08:27:03Z</time></trkpt>
<trkpt lat="43.694736008" lon="11.326913014"><ele>194</ele><time>2020-01-12T08:27:04Z</time></trkpt>
<trkpt lat="43.69473299" lon="11.32694101"><ele>194</ele><time>2020-01-12T08:27:05Z</time></trkpt>
<trkpt lat="43.694730978" lon="11.326967999"><ele>194</ele><time>2020-01-12T08:27:06Z</time></trkpt>
<trkpt lat="43.694727961" lon="11.326994989"><ele>194</ele><time>2020-01-12T08:27:07Z</time></trkpt>
<trkpt lat="43.694725027" lon="11.327021979"><ele>195</ele><time>2020-01-12T08:27:08Z</time></trkpt>
<trkpt lat="43.69472201" lon="11.327047963"><ele>195</ele><time>2020-01-12T08:27:09Z</time></trkpt>
<trkpt lat="43.694718992" lon="11.327075036"><ele>195</ele><time>2020-01-12T08:27:10Z</time></trkpt>
<trkpt lat="43.694706" lon="11.327155"><ele>196</ele><time>2020-01-12T08:27:13Z</time></trkpt>
<trkpt lat="43.694699965" lon="11.327181989"><ele>196</ele><time>2020-01-12T08:27:14Z</time></trkpt>
<trkpt lat="43.694693008" lon="11.327208979"><ele>196</ele><time>2020-01-12T08:27:15Z</time></trkpt>
<trkpt lat="43.694684962" lon="11.327235969"><ele>196</ele><time>2020-01-12T08:27:16Z</time></trkpt>
<trkpt lat="43.694676999" lon="11.327262959"><ele>196</ele><time>2020-01-12T08:27:17Z</time></trkpt>
<trkpt lat="43.694669036" lon="11.327290032"><ele>196</ele><time>2020-01-12T08:27:18Z</time></trkpt>
<trkpt lat="43.694659984" lon="11.327317022"><ele>197</ele><time>2020-01-12T08:27:19Z</time></trkpt>
<trkpt lat="43.694651015" lon="11.327343006"><ele>197</ele><time>2020-01-12T08:27:20Z</time></trkpt>
<trkpt lat="43.694641963" lon="11.32736899"><ele>197</ele><time>2020-01-12T08:27:21Z</time></trkpt>
<trkpt lat="43.694632994" lon="11.327393968"><ele>197</ele><time>2020-01-12T08:27:22Z</time></trkpt>
<trkpt lat="43.694625031" lon="11.32741903"><ele>197</ele><time>2020-01-12T08:27:23Z</time></trkpt>
<trkpt lat="43.694615979" lon="11.327443002"><ele>198</ele><time>2020-01-12T08:27:24Z</time></trkpt>
<trkpt lat="43.694608016" lon="11.327466974"><ele>198</ele><time>2020-01-12T08:27:25Z</time></trkpt>
<trkpt lat="43.694599969" lon="11.32749103"><ele>198</ele><time>2020-01-12T08:27:26Z</time></trkpt>
<trkpt lat="43.694592007" lon="11.327513997"><ele>198</ele><time>2020-01-12T08:27:27Z</time></trkpt>
<trkpt lat="43.694584966" lon="11.327536963"><ele>198</ele><time>2020-01-12T08:27:28Z</time></trkpt>
<trkpt lat="43.694578009" lon="11.327560013"><ele>199</ele><time>2020-01-12T08:27:29Z</time></trkpt>
<trkpt lat="43.694570968" lon="11.327581974"><ele>199</ele><time>2020-01-12T08:27:30Z</time></trkpt>
<trkpt lat="43.694565017" lon="11.327605024"><ele>199</ele><time>2020-01-12T08:27:31Z</time></trkpt>
<trkpt lat="43.694558982" lon="11.327626985"><ele>199</ele><time>2020-01-12T08:27:32Z</time></trkpt>
<trkpt lat="43.694553031" lon="11.327650035"><ele>199</ele><time>2020-01-12T08:27:33Z</time></trkpt>
<trkpt lat="43.694548002" lon="11.327671995"><ele>200</ele><time>2020-01-12T08:27:34Z</time></trkpt>
<trkpt lat="43.694543978" lon="11.327694962"><ele>200</ele><time>2020-01-12T08:27:35Z</time></trkpt>
<trkpt lat="43.694539033" lon="11.327717006"><ele>200</ele><time>2020-01-12T08:27:36Z</time></trkpt>
<trkpt lat="43.694536015" lon="11.327739973"><ele>200</ele><time>2020-01-12T08:27:37Z</time></trkpt>
<trkpt lat="43.694531992" lon="11.327764029"><ele>200</ele><time>2020-01-12T08:27:38Z</time></trkpt>
<trkpt lat="43.69452998" lon="11.327786995"><ele>201</ele><time>2020-01-12T08:27:39Z</time></trkpt>
<trkpt lat="43.694527969" lon="11.327810967"><ele>201</ele><time>2020-01-12T08:27:40Z</time></trkpt>
<trkpt lat="43.694526041" lon="11.327836029"><ele>201</ele><time>2020-01-12T08:27:41Z</time></trkpt>
<trkpt lat="43.694525035" lon="11.327861007"><ele>201</ele><time>2020-01-12T08:27:42Z</time></trkpt>
<trkpt lat="43.694525035" lon="11.327885985"><ele>201</ele><time>2020-01-12T08:27:43Z</time></trkpt>
<trkpt lat="43.694525035" lon="11.327911969"><ele>202</ele><time>2020-01-12T08:27:44Z</time></trkpt>
<trkpt lat="43.694525035" lon="11.327938037"><ele>202</ele><time>2020-01-12T08:27:45Z</time></trkpt>
<trkpt lat="43.694525035" lon="11.327965027"><ele>202</ele><time>2020-01-12T08:27:46Z</time></trkpt>
<trkpt lat="43.694526041" lon="11.327992016"><ele>202</ele><time>2020-01-12T08:27:47Z</time></trkpt>
<trkpt lat="43.694526963" lon="11.328020012"><ele>203</ele><time>2020-01-12T08:27:48Z</time></trkpt>
<trkpt lat="43.694526963" lon="11.328048008"><ele>203</ele><time>2020-01-12T08:27:49Z</time></trkpt>
<trkpt lat="43.694526963" lon="11.328076003"><ele>203</ele><time>2020-01-12T08:27:50Z</time></trkpt>
<trkpt lat="43.694526963" lon="11.328105005"><ele>203</ele><time>2020-01-12T08:27:51Z</time></trkpt>
<trkpt lat="43.694526963" lon="11.328134006"><ele>203</ele><time>2020-01-12T08:27:52Z</time></trkpt>
<trkpt lat="43.694526963" lon="11.328164013"><ele>204</ele><time>2020-01-12T08:27:53Z</time></trkpt>
<trkpt lat="43.694526963" lon="11.328193014"><ele>204</ele><time>2020-01-12T08:27:54Z</time></trkpt>
<trkpt lat="43.694527969" lon="11.32822101"><ele>204</ele><time>2020-01-12T08:27:55Z</time></trkpt>
<trkpt lat="43.69452998" lon="11.328249006"><ele>204</ele><time>2020-01-12T08:27:56Z</time></trkpt>
<trkpt lat="43.694532998" lon="11.328277001"><ele>205</ele><time>2020-01-12T08:27:57Z</time></trkpt>
<trkpt lat="43.694537021" lon="11.328302985"><ele>205</ele><time>2020-01-12T08:27:58Z</time></trkpt>
<trkpt lat="43.694541967" lon="11.328329975"><ele>205</ele><time>2020-01-12T08:27:59Z</time></trkpt>
<trkpt lat="43.694548002" lon="11.328356965"><ele>205</ele><time>2020-01-12T08:28:00Z</time></trkpt>
<trkpt lat="43.694554958" lon="11.328384038"><ele>206</ele><time>2020-01-12T08:28:01Z</time></trkpt>
<trkpt lat="43.694561999" lon="11.328411028"><ele>206</ele><time>2020-01-12T08:28:02Z</time></trkpt>
<trkpt lat="43.694569962" lon="11.328439023"><ele>206</ele><time>2020-01-12T08:28:03Z</time></trkpt>
<trkpt lat="43.694578009" lon="11.328466013"><ele>206</ele><time>2020-01-12T08:28:04Z</time></trkpt>
<trkpt lat="43.694586977" lon="11.328494009"><ele>207</ele><time>2020-01-12T08:28:05Z</time></trkpt>
<trkpt lat="43.694595024" lon="11.328520998"><ele>207</ele><time>2020-01-12T08:28:06Z</time></trkpt>
<trkpt lat="43.694603993" lon="11.328547988"><ele>207</ele><time>2020-01-12T08:28:07Z</time></trkpt>
<trkpt lat="43.694612961" lon="11.328573972"><ele>207</ele><time>2020-01-12T08:28:08Z</time></trkpt>
<trkpt lat="43.694621008" lon="11.328599034"><ele>208</ele><time>2020-01-12T08:28:09Z</time></trkpt>
<trkpt lat="43.694628971" lon="11.328623006"><ele>208</ele><time>2020-01-12T08:28:10Z</time></trkpt>
<trkpt lat="43.694637017" lon="11.328646978"><ele>208</ele><time>2020-01-12T08:28:11Z</time></trkpt>
<trkpt lat="43.69464498" lon="11.328669023"><ele>208</ele><time>2020-01-12T08:28:12Z</time></trkpt>
<trkpt lat="43.694652021" lon="11.328690983"><ele>209</ele><time>2020-01-12T08:28:13Z</time></trkpt>
<trkpt lat="43.694658978" lon="11.328712022"><ele>209</ele><time>2020-01-12T08:28:14Z</time></trkpt>
<trkpt lat="43.694666019" lon="11.328732977"><ele>209</ele><time>2020-01-12T08:28:15Z</time></trkpt>
<trkpt lat="43.694672976" lon="11.328754015"><ele>209</ele><time>2020-01-12T08:28:16Z</time></trkpt>
<trkpt lat="43.694680016" lon="11.32877497"><ele>210</ele><time>2020-01-12T08:28:17Z</time></trkpt>
<trkpt lat="43.694686973" lon="11.328795003"><ele>210</ele><time>2020-01-12T08:28:18Z</time></trkpt>
<trkpt lat="43.694694014" lon="11.328816041"><ele>210</ele><time>2020-01-12T08:28:19Z</time></trkpt>
<trkpt lat="43.694701977" lon="11.328838002"><ele>210</ele><time>2020-01-12T08:28:20Z</time></trkpt>
<trkpt lat="43.694710024" lon="11.328859963"><ele>210</ele><time>2020-01-12T08:28:21Z</time></trkpt>
<trkpt lat="43.694716981" lon="11.328882007"><ele>211</ele><time>2020-01-12T08:28:22Z</time></trkpt>
<trkpt lat="43.694725027" lon="11.328904973"><ele>211</ele><time>2020-01-12T08:28:23Z</time></trkpt>
<trkpt lat="43.694733996" lon="11.328927018"><ele>211</ele><time>2020-01-12T08:28:24Z</time></trkpt>
<trkpt lat="43.694741959" lon="11.328949984"><ele>211</ele><time>2020-01-12T08:28:25Z</time></trkpt>
<trkpt lat="43.694750005" lon="11.328973034"><ele>212</ele><time>2020-01-12T08:28:26Z</time></trkpt>
<trkpt lat="43.694758974" lon="11.328996001"><ele>212</ele><time>2020-01-12T08:28:27Z</time></trkpt>
<trkpt lat="43.694767021" lon="11.329019973"><ele>212</ele><time>2020-01-12T08:28:28Z</time></trkpt>
<trkpt lat="43.694774983" lon="11.329043023"><ele>212</ele><time>2020-01-12T08:28:29Z</time></trkpt>
<trkpt lat="43.694784036" lon="11.329064984"><ele>213</ele><time>2020-01-12T08:28:30Z</time></trkpt>
<trkpt lat="43.694791999" lon="11.329088034"><ele>213</ele><time>2020-01-12T08:28:31Z</time></trkpt>
<trkpt lat="43.694799962" lon="11.329109995"><ele>213</ele><time>2020-01-12T08:28:32Z</time></trkpt>
<trkpt lat="43.694808008" lon="11.329132039"><ele>213</ele><time>2020-01-12T08:28:33Z</time></trkpt>
<trkpt lat="43.694815971" lon="11.329154"><ele>214</ele><time>2020-01-12T08:28:34Z</time></trkpt>
<trkpt lat="43.694824018" lon="11.329175038"><ele>214</ele><time>2020-01-12T08:28:35Z</time></trkpt>
<trkpt lat="43.69483198" lon="11.329195993"><ele>214</ele><time>2020-01-12T08:28:36Z</time></trkpt>
<trkpt lat="43.694839021" lon="11.329216026"><ele>214</ele><time>2020-01-12T08:28:37Z</time></trkpt>
<trkpt lat="43.694845978" lon="11.329235975"><ele>215</ele><time>2020-01-12T08:28:38Z</time></trkpt>
<trkpt lat="43.694853019" lon="11.329255002"><ele>215</ele><time>2020-01-12T08:28:39Z</time></trkpt>
<trkpt lat="43.694859976" lon="11.329273023"><ele>215</ele><time>2020-01-12T08:28:40Z</time></trkpt>
<trkpt lat="43.694866011" lon="11.32929096"><ele>215</ele><time>2020-01-12T08:28:41Z</time></trkpt>
<trkpt lat="43.694871962" lon="11.329308981"><ele>215</ele><time>2020-01-12T08:28:42Z</time></trkpt>
<trkpt lat="43.694879003" lon="11.329327002"><ele>215</ele><time>2020-01-12T08:28:43Z</time></trkpt>
<trkpt lat="43.694885038" lon="11.329344017"><ele>216</ele><time>2020-01-12T08:28:44Z</time></trkpt>
<trkpt lat="43.694891995" lon="11.329362039"><ele>216</ele><time>2020-01-12T08:28:45Z</time></trkpt>
<trkpt lat="43.694899036" lon="11.329380982"><ele>216</ele><time>2020-01-12T08:28:46Z</time></trkpt>
<trkpt lat="43.694904987" lon="11.329400009"><ele>216</ele><time>2020-01-12T08:28:47Z</time></trkpt>
<trkpt lat="43.694913033" lon="11.329419035"><ele>216</ele><time>2020-01-12T08:28:48Z</time></trkpt>
<trkpt lat="43.69491999" lon="11.329438984"><ele>217</ele><time>2020-01-12T08:28:49Z</time></trkpt>
<trkpt lat="43.694928037" lon="11.329460023"><ele>217</ele><time>2020-01-12T08:28:50Z</time></trkpt>
<trkpt lat="43.694937006" lon="11.329481984"><ele>217</ele><time>2020-01-12T08:28:51Z</time></trkpt>
<trkpt lat="43.694944968" lon="11.329505034"><ele>217</ele><time>2020-01-12T08:28:52Z</time></trkpt>
<trkpt lat="43.694955027" lon="11.329528"><ele>217</ele><time>2020-01-12T08:28:53Z</time></trkpt>
<trkpt lat="43.694965001" lon="11.329552978"><ele>218</ele><time>2020-01-12T08:28:54Z</time></trkpt>
<trkpt lat="43.694974976" lon="11.32957804"><ele>218</ele><time>2020-01-12T08:28:55Z</time></trkpt>
<trkpt lat="43.69498604" lon="11.329604024"><ele>218</ele><time>2020-01-12T08:28:56Z</time></trkpt>
<trkpt lat="43.694998026" lon="11.329631014"><ele>219</ele><time>2020-01-12T08:28:57Z</time></trkpt>
<trkpt lat="43.695010012" lon="11.329658004"><ele>219</ele><time>2020-01-12T08:28:58Z</time></trkpt>
<trkpt lat="43.695023004" lon="11.329685999"><ele>219</ele><time>2020-01-12T08:28:59Z</time></trkpt>
<trkpt lat="43.695035996" lon="11.329716006"><ele>219</ele><time>2020-01-12T08:29:00Z</time></trkpt>
<trkpt lat="43.695047982" lon="11.329746014"><ele>219</ele><time>2020-01-12T08:29:01Z</time></trkpt>
<trkpt lat="43.695059968" lon="11.329776021"><ele>219</ele><time>2020-01-12T08:29:02Z</time></trkpt>
<trkpt lat="43.695071032" lon="11.32980804"><ele>219</ele><time>2020-01-12T08:29:03Z</time></trkpt>
<trkpt lat="43.695081007" lon="11.32984098"><ele>219</ele><time>2020-01-12T08:29:04Z</time></trkpt>
<trkpt lat="43.69508897" lon="11.329874005"><ele>219</ele><time>2020-01-12T08:29:05Z</time></trkpt>
<trkpt lat="43.695095005" lon="11.329908036"><ele>219</ele><time>2020-01-12T08:29:06Z</time></trkpt>
<trkpt lat="43.695099028" lon="11.329942988"><ele>220</ele><time>2020-01-12T08:29:07Z</time></trkpt>
<trkpt lat="43.695101039" lon="11.32997903"><ele>220</ele><time>2020-01-12T08:29:08Z</time></trkpt>
<trkpt lat="43.695101039" lon="11.330014989"><ele>220</ele><time>2020-01-12T08:29:09Z</time></trkpt>
<trkpt lat="43.695098022" lon="11.330052037"><ele>220</ele><time>2020-01-12T08:29:10Z</time></trkpt>
<trkpt lat="43.695093999" lon="11.330090007"><ele>220</ele><time>2020-01-12T08:29:11Z</time></trkpt>
<trkpt lat="43.69508897" lon="11.330127977"><ele>220</ele><time>2020-01-12T08:29:12Z</time></trkpt>
<trkpt lat="43.695082013" lon="11.330167037"><ele>220</ele><time>2020-01-12T08:29:13Z</time></trkpt>
<trkpt lat="43.695073966" lon="11.330206012"><ele>220</ele><time>2020-01-12T08:29:14Z</time></trkpt>
<trkpt lat="43.695066003" lon="11.330244988"><ele>220</ele><time>2020-01-12T08:29:15Z</time></trkpt>
<trkpt lat="43.69505804" lon="11.330283964"><ele>220</ele><time>2020-01-12T08:29:16Z</time></trkpt>
<trkpt lat="43.695048988" lon="11.33032403"><ele>220</ele><time>2020-01-12T08:29:17Z</time></trkpt>
<trkpt lat="43.695041025" lon="11.330363005"><ele>220</ele><time>2020-01-12T08:29:18Z</time></trkpt>
<trkpt lat="43.695031973" lon="11.330401981"><ele>220</ele><time>2020-01-12T08:29:19Z</time></trkpt>
<trkpt lat="43.695023004" lon="11.330441041"><ele>221</ele><time>2020-01-12T08:29:20Z</time></trkpt>
<trkpt lat="43.69501303" lon="11.330480017"><ele>221</ele><time>2020-01-12T08:29:21Z</time></trkpt>
<trkpt lat="43.695002971" lon="11.330517987"><ele>221</ele><time>2020-01-12T08:29:22Z</time></trkpt>
<trkpt lat="43.694991991" lon="11.330556041"><ele>221</ele><time>2020-01-12T08:29:23Z</time></trkpt>
<trkpt lat="43.694981011" lon="11.330594011"><ele>221</ele><time>2020-01-12T08:29:24Z</time></trkpt>
<trkpt lat="43.694968019" lon="11.330629969"><ele>221</ele><time>2020-01-12T08:29:25Z</time></trkpt>
<trkpt lat="43.694955027" lon="11.330666011"><ele>221</ele><time>2020-01-12T08:29:26Z</time></trkpt>
<trkpt lat="43.694940023" lon="11.33070197"><ele>221</ele><time>2020-01-12T08:29:27Z</time></trkpt>
<trkpt lat="43.694924014" lon="11.330736"><ele>221</ele><time>2020-01-12T08:29:28Z</time></trkpt>
<trkpt lat="43.694908004" lon="11.330770031"><ele>221</ele><time>2020-01-12T08:29:29Z</time></trkpt>
<trkpt lat="43.694891995" lon="11.330802971"><ele>221</ele><time>2020-01-12T08:29:30Z</time></trkpt>
<trkpt lat="43.694875985" lon="11.330835996"><ele>221</ele><time>2020-01-12T08:29:31Z</time></trkpt>
<trkpt lat="43.69485897" lon="11.330869021"><ele>221</ele><time>2020-01-12T08:29:32Z</time></trkpt>
<trkpt lat="43.694842961" lon="11.33090104"><ele>221</ele><time>2020-01-12T08:29:33Z</time></trkpt>
<trkpt lat="43.694828041" lon="11.330932975"><ele>221</ele><time>2020-01-12T08:29:34Z</time></trkpt>
<trkpt lat="43.694813959" lon="11.330964994"><ele>221</ele><time>2020-01-12T08:29:35Z</time></trkpt>
<trkpt lat="43.694778001" lon="11.331061972"><ele>221</ele><time>2020-01-12T08:29:38Z</time></trkpt>
<trkpt lat="43.694768026" lon="11.331093991"><ele>221</ele><time>2020-01-12T08:29:39Z</time></trkpt>
<trkpt lat="43.694756962" lon="11.331127016"><ele>221</ele><time>2020-01-12T08:29:40Z</time></trkpt>
<trkpt lat="43.694746988" lon="11.331160963"><ele>221</ele><time>2020-01-12T08:29:41Z</time></trkpt>
<trkpt lat="43.694738019" lon="11.331194993"><ele>221</ele><time>2020-01-12T08:29:42Z</time></trkpt>
<trkpt lat="43.694727961" lon="11.331228018"><ele>221</ele><time>2020-01-12T08:29:43Z</time></trkpt>
<trkpt lat="43.694719998" lon="11.331261965"><ele>221</ele><time>2020-01-12T08:29:44Z</time></trkpt>
<trkpt lat="43.694713041" lon="11.331294989"><ele>221</ele><time>2020-01-12T08:29:45Z</time></trkpt>
<trkpt lat="43.694706" lon="11.331328014"><ele>221</ele><time>2020-01-12T08:29:46Z</time></trkpt>
<trkpt lat="43.694700971" lon="11.331360033"><ele>221</ele><time>2020-01-12T08:29:47Z</time></trkpt>
<trkpt lat="43.694697032" lon="11.331390962"><ele>221</ele><time>2020-01-12T08:29:48Z</time></trkpt>
<trkpt lat="43.694694014" lon="11.331421975"><ele>221</ele><time>2020-01-12T08:29:49Z</time></trkpt>
<trkpt lat="43.694690997" lon="11.331452988"><ele>221</ele><time>2020-01-12T08:29:50Z</time></trkpt>
<trkpt lat="43.694687979" lon="11.331484001"><ele>221</ele><time>2020-01-12T08:29:51Z</time></trkpt>
<trkpt lat="43.694684962" lon="11.331514008"><ele>221</ele><time>2020-01-12T08:29:52Z</time></trkpt>
<trkpt lat="43.694682028" lon="11.331544016"><ele>221</ele><time>2020-01-12T08:29:53Z</time></trkpt>
<trkpt lat="43.694678005" lon="11.331575029"><ele>221</ele><time>2020-01-12T08:29:54Z</time></trkpt>
<trkpt lat="43.694673982" lon="11.331605036"><ele>221</ele><time>2020-01-12T08:29:55Z</time></trkpt>
<trkpt lat="43.694669036" lon="11.331635965"><ele>220</ele><time>2020-01-12T08:29:56Z</time></trkpt>
<trkpt lat="43.694664007" lon="11.331665972"><ele>220</ele><time>2020-01-12T08:29:57Z</time></trkpt>
<trkpt lat="43.694656966" lon="11.331696985"><ele>220</ele><time>2020-01-12T08:29:58Z</time></trkpt>
<trkpt lat="43.694650009" lon="11.331727998"><ele>220</ele><time>2020-01-12T08:29:59Z</time></trkpt>
<trkpt lat="43.694641963" lon="11.331758006"><ele>220</ele><time>2020-01-12T08:30:00Z</time></trkpt>
<trkpt lat="43.694632994" lon="11.331789019"><ele>220</ele><time>2020-01-12T08:30:01Z</time></trkpt>
<trkpt lat="43.694624025" lon="11.331820032"><ele>220</ele><time>2020-01-12T08:30:02Z</time></trkpt>
<trkpt lat="43.694612961" lon="11.331850039"><ele>220</ele><time>2020-01-12T08:30:03Z</time></trkpt>
<trkpt lat="43.694601981" lon="11.331880968"><ele>220</ele><time>2020-01-12T08:30:04Z</time></trkpt>
<trkpt lat="43.694589995" lon="11.331910975"><ele>220</ele><time>2020-01-12T08:30:05Z</time></trkpt>
<trkpt lat="43.694575997" lon="11.331940982"><ele>220</ele><time>2020-01-12T08:30:06Z</time></trkpt>
<trkpt lat="43.694561999" lon="11.33197099"><ele>220</ele><time>2020-01-12T08:30:07Z</time></trkpt>
<trkpt lat="43.694548002" lon="11.331998985"><ele>220</ele><time>2020-01-12T08:30:08Z</time></trkpt>
<trkpt lat="43.694531992" lon="11.332025975"><ele>220</ele><time>2020-01-12T08:30:09Z</time></trkpt>
<trkpt lat="43.694514977" lon="11.332051037"><ele>220</ele><time>2020-01-12T08:30:10Z</time></trkpt>
<trkpt lat="43.694497962" lon="11.332074003"><ele>220</ele><time>2020-01-12T08:30:11Z</time></trkpt>
<trkpt lat="43.69448103" lon="11.332095042"><ele>221</ele><time>2020-01-12T08:30:12Z</time></trkpt>
<trkpt lat="43.694462003" lon="11.332112979"><ele>221</ele><time>2020-01-12T08:30:13Z</time></trkpt>
<trkpt lat="43.694442976" lon="11.332127983"><ele>221</ele><time>2020-01-12T08:30:14Z</time></trkpt>
<trkpt lat="43.694424033" lon="11.332140975"><ele>221</ele><time>2020-01-12T08:30:15Z</time></trkpt>
<trkpt lat="43.694402995" lon="11.332151033"><ele>222</ele><time>2020-01-12T08:30:16Z</time></trkpt>
<trkpt lat="43.69438204" lon="11.332160002"><ele>222</ele><time>2020-01-12T08:30:17Z</time></trkpt>
<trkpt lat="43.694361001" lon="11.332167964"><ele>222</ele><time>2020-01-12T08:30:18Z</time></trkpt>
<trkpt lat="43.694339041" lon="11.332176011"><ele>223</ele><time>2020-01-12T08:30:19Z</time></trkpt>
<trkpt lat="43.69431599" lon="11.332182968"><ele>223</ele><time>2020-01-12T08:30:20Z</time></trkpt>
<trkpt lat="43.694292018" lon="11.332190009"><ele>223</ele><time>2020-01-12T08:30:21Z</time></trkpt>
<trkpt lat="43.694267962" lon="11.332198977"><ele>224</ele><time>2020-01-12T08:30:22Z</time></trkpt>
<trkpt lat="43.694241978" lon="11.332209036"><ele>224</ele><time>2020-01-12T08:30:23Z</time></trkpt>
<trkpt lat="43.694217" lon="11.332220016"><ele>225</ele><time>2020-01-12T08:30:24Z</time></trkpt>
<trkpt lat="43.69419001" lon="11.332234014"><ele>225</ele><time>2020-01-12T08:30:25Z</time></trkpt>
<trkpt lat="43.694164027" lon="11.332249017"><ele>226</ele><time>2020-01-12T08:30:26Z</time></trkpt>
<trkpt lat="43.694137037" lon="11.332267039"><ele>225</ele><time>2020-01-12T08:30:27Z</time></trkpt>
<trkpt lat="43.694110969" lon="11.332286987"><ele>225</ele><time>2020-01-12T08:30:28Z</time></trkpt>
<trkpt lat="43.694085991" lon="11.332309032"><ele>225</ele><time>2020-01-12T08:30:29Z</time></trkpt>
<trkpt lat="43.694061013" lon="11.33233401"><ele>225</ele><time>2020-01-12T08:30:30Z</time></trkpt>
<trkpt lat="43.694037963" lon="11.332361"><ele>225</ele><time>2020-01-12T08:30:31Z</time></trkpt>
<trkpt lat="43.694016002" lon="11.332392013"><ele>225</ele><time>2020-01-12T08:30:32Z</time></trkpt>
<trkpt lat="43.693960011" lon="11.332497038"><ele>224</ele><time>2020-01-12T08:30:35Z</time></trkpt>
<trkpt lat="43.693944002" lon="11.332536014"><ele>224</ele><time>2020-01-12T08:30:36Z</time></trkpt>
<trkpt lat="43.693927992" lon="11.332575995"><ele>224</ele><time>2020-01-12T08:30:37Z</time></trkpt>
<trkpt lat="43.693911983" lon="11.332615977"><ele>223</ele><time>2020-01-12T08:30:38Z</time></trkpt>
<trkpt lat="43.693896979" lon="11.332656965"><ele>223</ele><time>2020-01-12T08:30:39Z</time></trkpt>
<trkpt lat="43.69388097" lon="11.332698036"><ele>223</ele><time>2020-01-12T08:30:40Z</time></trkpt>
<trkpt lat="43.69386496" lon="11.332737012"><ele>223</ele><time>2020-01-12T08:30:41Z</time></trkpt>
<trkpt lat="43.693848029" lon="11.332775988"><ele>222</ele><time>2020-01-12T08:30:42Z</time></trkpt>
<trkpt lat="43.693830008" lon="11.332813036"><ele>222</ele><time>2020-01-12T08:30:43Z</time></trkpt>
<trkpt lat="43.693810981" lon="11.332848994"><ele>222</ele><time>2020-01-12T08:30:44Z</time></trkpt>
<trkpt lat="43.693792038" lon="11.33288403"><ele>222</ele><time>2020-01-12T08:30:45Z</time></trkpt>
<trkpt lat="43.693772005" lon="11.332917977"><ele>222</ele><time>2020-01-12T08:30:46Z</time></trkpt>
<trkpt lat="43.693752978" lon="11.332949996"><ele>222</ele><time>2020-01-12T08:30:47Z</time></trkpt>
<trkpt lat="43.693734035" lon="11.332982015"><ele>222</ele><time>2020-01-12T08:30:48Z</time></trkpt>
<trkpt lat="43.693715008" lon="11.333013028"><ele>222</ele><time>2020-01-12T08:30:49Z</time></trkpt>
<trkpt lat="43.693696987" lon="11.333044041"><ele>222</ele><time>2020-01-12T08:30:50Z</time></trkpt>
<trkpt lat="43.693680977" lon="11.333073964"><ele>222</ele><time>2020-01-12T08:30:51Z</time></trkpt>
<trkpt lat="43.693665974" lon="11.333104977"><ele>222</ele><time>2020-01-12T08:30:52Z</time></trkpt>
<trkpt lat="43.693651976" lon="11.333134985"><ele>222</ele><time>2020-01-12T08:30:53Z</time></trkpt>
<trkpt lat="43.693637978" lon="11.333165998"><ele>222</ele><time>2020-01-12T08:30:54Z</time></trkpt>
<trkpt lat="43.693623981" lon="11.333198017"><ele>222</ele><time>2020-01-12T08:30:55Z</time></trkpt>
<trkpt lat="43.693609983" lon="11.333231041"><ele>222</ele><time>2020-01-12T08:30:56Z</time></trkpt>
<trkpt lat="43.693595985" lon="11.333265994"><ele>222</ele><time>2020-01-12T08:30:57Z</time></trkpt>
<trkpt lat="43.693580981" lon="11.333300024"><ele>222</ele><time>2020-01-12T08:30:58Z</time></trkpt>
<trkpt lat="43.693565978" lon="11.333333971"><ele>222</ele><time>2020-01-12T08:30:59Z</time></trkpt>
<trkpt lat="43.693550974" lon="11.333363978"><ele>222</ele><time>2020-01-12T08:31:00Z</time></trkpt>
<trkpt lat="43.693537982" lon="11.333390968"><ele>222</ele><time>2020-01-12T08:31:01Z</time></trkpt>
<trkpt lat="43.693527002" lon="11.333413012"><ele>222</ele><time>2020-01-12T08:31:02Z</time></trkpt>
<trkpt lat="43.693517027" lon="11.333431033"><ele>222</ele><time>2020-01-12T08:31:03Z</time></trkpt>
<trkpt lat="43.693506969" lon="11.333446959"><ele>223</ele><time>2020-01-12T08:31:04Z</time></trkpt>
<trkpt lat="43.693498001" lon="11.333463974"><ele>223</ele><time>2020-01-12T08:31:05Z</time></trkpt>
<trkpt lat="43.693489032" lon="11.333483001"><ele>223</ele><time>2020-01-12T08:31:06Z</time></trkpt>
<trkpt lat="43.693477968" lon="11.333505968"><ele>223</ele><time>2020-01-12T08:31:07Z</time></trkpt>
<trkpt lat="43.693467993" lon="11.33353103"><ele>223</ele><time>2020-01-12T08:31:08Z</time></trkpt>
<trkpt lat="43.693457013" lon="11.333559025"><ele>224</ele><time>2020-01-12T08:31:09Z</time></trkpt>
<trkpt lat="43.693447039" lon="11.333589032"><ele>224</ele><time>2020-01-12T08:31:10Z</time></trkpt>
<trkpt lat="43.69343698" lon="11.33361904"><ele>224</ele><time>2020-01-12T08:31:11Z</time></trkpt>
<trkpt lat="43.693427006" lon="11.333648963"><ele>224</ele><time>2020-01-12T08:31:12Z</time></trkpt>
<trkpt lat="43.693418959" lon="11.33367897"><ele>224</ele><time>2020-01-12T08:31:13Z</time></trkpt>
<trkpt lat="43.693410996" lon="11.333709983"><ele>225</ele><time>2020-01-12T08:31:14Z</time></trkpt>
<trkpt lat="43.693403034" lon="11.333740996"><ele>225</ele><time>2020-01-12T08:31:15Z</time></trkpt>
<trkpt lat="43.693394987" lon="11.333773015"><ele>225</ele><time>2020-01-12T08:31:16Z</time></trkpt>
<trkpt lat="43.69338803" lon="11.333804028"><ele>225</ele><time>2020-01-12T08:31:17Z</time></trkpt>
<trkpt lat="43.693380989" lon="11.333835041"><ele>226</ele><time>2020-01-12T08:31:18Z</time></trkpt>
<trkpt lat="43.693375038" lon="11.333866976"><ele>226</ele><time>2020-01-12T08:31:19Z</time></trkpt>
<trkpt lat="43.693367997" lon="11.333897989"><ele>226</ele><time>2020-01-12T08:31:20Z</time></trkpt>
<trkpt lat="43.693361962" lon="11.333929002"><ele>226</ele><time>2020-01-12T08:31:21Z</time></trkpt>
<trkpt lat="43.693355005" lon="11.333960015"><ele>227</ele><time>2020-01-12T08:31:22Z</time></trkpt>
<trkpt lat="43.693347964" lon="11.333991028"><ele>227</ele><time>2020-01-12T08:31:23Z</time></trkpt>
<trkpt lat="43.693342013" lon="11.334021036"><ele>227</ele><time>2020-01-12T08:31:24Z</time></trkpt>
<trkpt lat="43.693334972" lon="11.334050959"><ele>227</ele><time>2020-01-12T08:31:25Z</time></trkpt>
<trkpt lat="43.69332701" lon="11.33407996"><ele>228</ele><time>2020-01-12T08:31:26Z</time></trkpt>
<trkpt lat="43.693319969" lon="11.334108962"><ele>228</ele><time>2020-01-12T08:31:27Z</time></trkpt>
<trkpt lat="43.693312006" lon="11.334137963"><ele>228</ele><time>2020-01-12T08:31:28Z</time></trkpt>
<trkpt lat="43.693303037" lon="11.334165959"><ele>228</ele><time>2020-01-12T08:31:29Z</time></trkpt>
<trkpt lat="43.693293985" lon="11.334193032"><ele>228</ele><time>2020-01-12T08:31:30Z</time></trkpt>
<trkpt lat="43.693285016" lon="11.334220022"><ele>228</ele><time>2020-01-12T08:31:31Z</time></trkpt>
<trkpt lat="43.693275042" lon="11.334246006"><ele>228</ele><time>2020-01-12T08:31:32Z</time></trkpt>
<trkpt lat="43.693264984" lon="11.33427199"><ele>228</ele><time>2020-01-12T08:31:33Z</time></trkpt>
<trkpt lat="43.693254003" lon="11.334296968"><ele>228</ele><time>2020-01-12T08:31:34Z</time></trkpt>
<trkpt lat="43.693243023" lon="11.33432203"><ele>228</ele><time>2020-01-12T08:31:35Z</time></trkpt>
<trkpt lat="43.693231959" lon="11.334346002"><ele>229</ele><time>2020-01-12T08:31:36Z</time></trkpt>
<trkpt lat="43.693220979" lon="11.33437098"><ele>229</ele><time>2020-01-12T08:31:37Z</time></trkpt>
<trkpt lat="43.693208992" lon="11.334395036"><ele>229</ele><time>2020-01-12T08:31:38Z</time></trkpt>
<trkpt lat="43.693198012" lon="11.334419008"><ele>229</ele><time>2020-01-12T08:31:39Z</time></trkpt>
<trkpt lat="43.693186026" lon="11.334442981"><ele>229</ele><time>2020-01-12T08:31:40Z</time></trkpt>
<trkpt lat="43.69317404" lon="11.334467037"><ele>229</ele><time>2020-01-12T08:31:41Z</time></trkpt>
<trkpt lat="43.693162976" lon="11.334491009"><ele>229</ele><time>2020-01-12T08:31:42Z</time></trkpt>
<trkpt lat="43.69315099" lon="11.334513975"><ele>229</ele><time>2020-01-12T08:31:43Z</time></trkpt>
<trkpt lat="43.693140009" lon="11.334538031"><ele>229</ele><time>2020-01-12T08:31:44Z</time></trkpt>
<trkpt lat="43.693129029" lon="11.334560998"><ele>230</ele><time>2020-01-12T08:31:45Z</time></trkpt>
<trkpt lat="43.693117965" lon="11.334583964"><ele>230</ele><time>2020-01-12T08:31:46Z</time></trkpt>
<trkpt lat="43.693107991" lon="11.33460802"><ele>230</ele><time>2020-01-12T08:31:47Z</time></trkpt>
<trkpt lat="43.693099022" lon="11.334629981"><ele>230</ele><time>2020-01-12T08:31:48Z</time></trkpt>
<trkpt lat="43.693089969" lon="11.334653031"><ele>230</ele><time>2020-01-12T08:31:49Z</time></trkpt>
<trkpt lat="43.693081001" lon="11.334674992"><ele>230</ele><time>2020-01-12T08:31:50Z</time></trkpt>
<trkpt lat="43.693073038" lon="11.334698042"><ele>230</ele><time>2020-01-12T08:31:51Z</time></trkpt>
<trkpt lat="43.693064991" lon="11.334720002"><ele>230</ele><time>2020-01-12T08:31:52Z</time></trkpt>
<trkpt lat="43.693057029" lon="11.334741041"><ele>230</ele><time>2020-01-12T08:31:53Z</time></trkpt>
<trkpt lat="43.693049988" lon="11.334763002"><ele>231</ele><time>2020-01-12T08:31:54Z</time></trkpt>
<trkpt lat="43.693042025" lon="11.334784962"><ele>231</ele><time>2020-01-12T08:31:55Z</time></trkpt>
<trkpt lat="43.693033978" lon="11.334806001"><ele>231</ele><time>2020-01-12T08:31:56Z</time></trkpt>
<trkpt lat="43.693026016" lon="11.334827039"><ele>231</ele><time>2020-01-12T08:31:57Z</time></trkpt>
<trkpt lat="43.693016963" lon="11.334847994"><ele>231</ele><time>2020-01-12T08:31:58Z</time></trkpt>
<trkpt lat="43.693007994" lon="11.334869033"><ele>231</ele><time>2020-01-12T08:31:59Z</time></trkpt>
<trkpt lat="43.69299802" lon="11.334889987"><ele>232</ele><time>2020-01-12T08:32:00Z</time></trkpt>
<trkpt lat="43.692987962" lon="11.334911026"><ele>232</ele><time>2020-01-12T08:32:01Z</time></trkpt>
<trkpt lat="43.692977987" lon="11.334931981"><ele>232</ele><time>2020-01-12T08:32:02Z</time></trkpt>
<trkpt lat="43.692967007" lon="11.334953019"><ele>232</ele><time>2020-01-12T08:32:03Z</time></trkpt>
<trkpt lat="43.692956027" lon="11.33497498"><ele>232</ele><time>2020-01-12T08:32:04Z</time></trkpt>
<trkpt lat="43.692944963" lon="11.334997024"><ele>233</ele><time>2020-01-12T08:32:05Z</time></trkpt>
<trkpt lat="43.692933982" lon="11.335019991"><ele>233</ele><time>2020-01-12T08:32:06Z</time></trkpt>
<trkpt lat="43.692923002" lon="11.335043041"><ele>233</ele><time>2020-01-12T08:32:07Z</time></trkpt>
<trkpt lat="43.692912022" lon="11.335067013"><ele>233</ele><time>2020-01-12T08:32:08Z</time></trkpt>
<trkpt lat="43.692901041" lon="11.335091991"><ele>233</ele><time>2020-01-12T08:32:09Z</time></trkpt>
<trkpt lat="43.692889977" lon="11.335116969"><ele>233</ele><time>2020-01-12T08:32:10Z</time></trkpt>
<trkpt lat="43.692877991" lon="11.335143037"><ele>233</ele><time>2020-01-12T08:32:11Z</time></trkpt>
<trkpt lat="43.692867011" lon="11.335169021"><ele>233</ele><time>2020-01-12T08:32:12Z</time></trkpt>
<trkpt lat="43.692855025" lon="11.335193999"><ele>233</ele><time>2020-01-12T08:32:13Z</time></trkpt>
<trkpt lat="43.692843039" lon="11.335219983"><ele>233</ele><time>2020-01-12T08:32:14Z</time></trkpt>
<trkpt lat="43.692829963" lon="11.335245967"><ele>234</ele><time>2020-01-12T08:32:15Z</time></trkpt>
<trkpt lat="43.692816971" lon="11.335271029"><ele>234</ele><time>2020-01-12T08:32:16Z</time></trkpt>
<trkpt lat="43.692802973" lon="11.335295001"><ele>234</ele><time>2020-01-12T08:32:17Z</time></trkpt>
<trkpt lat="43.692788975" lon="11.335318973"><ele>234</ele><time>2020-01-12T08:32:18Z</time></trkpt>
<trkpt lat="43.692773972" lon="11.335343029"><ele>234</ele><time>2020-01-12T08:32:19Z</time></trkpt>
<trkpt lat="43.692759974" lon="11.335365996"><ele>235</ele><time>2020-01-12T08:32:20Z</time></trkpt>
<trkpt lat="43.69274497" lon="11.335389968"><ele>235</ele><time>2020-01-12T08:32:21Z</time></trkpt>
<trkpt lat="43.692729967" lon="11.33541503"><ele>235</ele><time>2020-01-12T08:32:22Z</time></trkpt>
<trkpt lat="43.692715969" lon="11.335440008"><ele>235</ele><time>2020-01-12T08:32:23Z</time></trkpt>
<trkpt lat="43.692702977" lon="11.335466998"><ele>235</ele><time>2020-01-12T08:32:24Z</time></trkpt>
<trkpt lat="43.692690991" lon="11.335495999"><ele>236</ele><time>2020-01-12T08:32:25Z</time></trkpt>
<trkpt lat="43.692679005" lon="11.335527012"><ele>236</ele><time>2020-01-12T08:32:26Z</time></trkpt>
<trkpt lat="43.692670036" lon="11.335560037"><ele>236</ele><time>2020-01-12T08:32:27Z</time></trkpt>
<trkpt lat="43.692660984" lon="11.335594989"><ele>236</ele><time>2020-01-12T08:32:28Z</time></trkpt>
<trkpt lat="43.692653021" lon="11.335632959"><ele>236</ele><time>2020-01-12T08:32:29Z</time></trkpt>
<trkpt lat="43.69264598" lon="11.335671013"><ele>236</ele><time>2020-01-12T08:32:30Z</time></trkpt>
<trkpt lat="43.692640029" lon="11.335710995"><ele>236</ele><time>2020-01-12T08:32:31Z</time></trkpt>
<trkpt lat="43.692632988" lon="11.335752988"><ele>236</ele><time>2020-01-12T08:32:32Z</time></trkpt>
<trkpt lat="43.692627037" lon="11.335794982"><ele>236</ele><time>2020-01-12T08:32:33Z</time></trkpt>
<trkpt lat="43.692621002" lon="11.335836975"><ele>236</ele><time>2020-01-12T08:32:34Z</time></trkpt>
<trkpt lat="43.692613961" lon="11.335879974"><ele>236</ele><time>2020-01-12T08:32:35Z</time></trkpt>
<trkpt lat="43.692605998" lon="11.335921967"><ele>236</ele><time>2020-01-12T08:32:36Z</time></trkpt>
<trkpt lat="43.69259703" lon="11.335964967"><ele>236</ele><time>2020-01-12T08:32:37Z</time></trkpt>
<trkpt lat="43.692588983" lon="11.33600696"><ele>236</ele><time>2020-01-12T08:32:38Z</time></trkpt>
<trkpt lat="43.692580014" lon="11.336048031"><ele>236</ele><time>2020-01-12T08:32:39Z</time></trkpt>
<trkpt lat="43.692570962" lon="11.336090025"><ele>236</ele><time>2020-01-12T08:32:40Z</time></trkpt>
<trkpt lat="43.692564005" lon="11.336131012"><ele>236</ele><time>2020-01-12T08:32:41Z</time></trkpt>
<trkpt lat="43.692556964" lon="11.336172"><ele>236</ele><time>2020-01-12T08:32:42Z</time></trkpt>
<trkpt lat="43.692551013" lon="11.336211981"><ele>236</ele><time>2020-01-12T08:32:43Z</time></trkpt>
<trkpt lat="43.692545984" lon="11.336251041"><ele>236</ele><time>2020-01-12T08:32:44Z</time></trkpt>
<trkpt lat="43.692540033" lon="11.336290017"><ele>236</ele><time>2020-01-12T08:32:45Z</time></trkpt>
<trkpt lat="43.692532992" lon="11.336326981"><ele>236</ele><time>2020-01-12T08:32:46Z</time></trkpt>
<trkpt lat="43.692525029" lon="11.336363023"><ele>236</ele><time>2020-01-12T08:32:47Z</time></trkpt>
<trkpt lat="43.692516983" lon="11.336398982"><ele>237</ele><time>2020-01-12T08:32:48Z</time></trkpt>
<trkpt lat="43.692508014" lon="11.336434018"><ele>237</ele><time>2020-01-12T08:32:49Z</time></trkpt>
<trkpt lat="43.692498961" lon="11.336467965"><ele>237</ele><time>2020-01-12T08:32:50Z</time></trkpt>
<trkpt lat="43.692488987" lon="11.336503001"><ele>237</ele><time>2020-01-12T08:32:51Z</time></trkpt>
<trkpt lat="43.692480018" lon="11.336537031"><ele>237</ele><time>2020-01-12T08:32:52Z</time></trkpt>
<trkpt lat="43.692470966" lon="11.336571984"><ele>237</ele><time>2020-01-12T08:32:53Z</time></trkpt>
<trkpt lat="43.692461997" lon="11.33660702"><ele>237</ele><time>2020-01-12T08:32:54Z</time></trkpt>
<trkpt lat="43.69245504" lon="11.336642979"><ele>237</ele><time>2020-01-12T08:32:55Z</time></trkpt>
<trkpt lat="43.692447999" lon="11.336680027"><ele>236</ele><time>2020-01-12T08:32:56Z</time></trkpt>
<trkpt lat="43.692440959" lon="11.336716991"><ele>236</ele><time>2020-01-12T08:32:57Z</time></trkpt>
<trkpt lat="43.692436013" lon="11.336754961"><ele>236</ele><time>2020-01-12T08:32:58Z</time></trkpt>
<trkpt lat="43.692429978" lon="11.336794021"><ele>236</ele><time>2020-01-12T08:32:59Z</time></trkpt>
<trkpt lat="43.692425033" lon="11.336831991"><ele>236</ele><time>2020-01-12T08:33:00Z</time></trkpt>
<trkpt lat="43.692420004" lon="11.336869961"><ele>236</ele><time>2020-01-12T08:33:01Z</time></trkpt>
<trkpt lat="43.692413969" lon="11.336908014"><ele>236</ele><time>2020-01-12T08:33:02Z</time></trkpt>
<trkpt lat="43.692408018" lon="11.336944979"><ele>236</ele><time>2020-01-12T08:33:03Z</time></trkpt>
<trkpt lat="43.692400977" lon="11.336981021"><ele>235</ele><time>2020-01-12T08:33:04Z</time></trkpt>
<trkpt lat="43.69239402" lon="11.337015973"><ele>235</ele><time>2020-01-12T08:33:05Z</time></trkpt>
<trkpt lat="43.692384968" lon="11.337050004"><ele>235</ele><time>2020-01-12T08:33:06Z</time></trkpt>
<trkpt lat="43.692375999" lon="11.337083029"><ele>235</ele><time>2020-01-12T08:33:07Z</time></trkpt>
<trkpt lat="43.692366024" lon="11.33711597"><ele>235</ele><time>2020-01-12T08:33:08Z</time></trkpt>
<trkpt lat="43.692355966" lon="11.337146983"><ele>235</ele><time>2020-01-12T08:33:09Z</time></trkpt>
<trkpt lat="43.692344986" lon="11.337177996"><ele>235</ele><time>2020-01-12T08:33:10Z</time></trkpt>
<trkpt lat="43.692333" lon="11.337209009"><ele>235</ele><time>2020-01-12T08:33:11Z</time></trkpt>
<trkpt lat="43.692320008" lon="11.33723801"><ele>235</ele><time>2020-01-12T08:33:12Z</time></trkpt>
<trkpt lat="43.692307016" lon="11.337268017"><ele>235</ele><time>2020-01-12T08:33:13Z</time></trkpt>
<trkpt lat="43.692293018" lon="11.337296013"><ele>236</ele><time>2020-01-12T08:33:14Z</time></trkpt>
<trkpt lat="43.69227902" lon="11.337325014"><ele>236</ele><time>2020-01-12T08:33:15Z</time></trkpt>
<trkpt lat="43.692264017" lon="11.33735301"><ele>236</ele><time>2020-01-12T08:33:16Z</time></trkpt>
<trkpt lat="43.692249013" lon="11.337381005"><ele>236</ele><time>2020-01-12T08:33:17Z</time></trkpt>
<trkpt lat="43.692233004" lon="11.337409001"><ele>236</ele><time>2020-01-12T08:33:18Z</time></trkpt>
<trkpt lat="43.692216994" lon="11.337436996"><ele>236</ele><time>2020-01-12T08:33:19Z</time></trkpt>
<trkpt lat="43.692200985" lon="11.337463986"><ele>237</ele><time>2020-01-12T08:33:20Z</time></trkpt>
<trkpt lat="43.69218397" lon="11.337491982"><ele>237</ele><time>2020-01-12T08:33:21Z</time></trkpt>
<trkpt lat="43.692167038" lon="11.337519977"><ele>237</ele><time>2020-01-12T08:33:22Z</time></trkpt>
<trkpt lat="43.692149017" lon="11.337547973"><ele>237</ele><time>2020-01-12T08:33:23Z</time></trkpt>
<trkpt lat="43.692130996" lon="11.337576974"><ele>238</ele><time>2020-01-12T08:33:24Z</time></trkpt>
<trkpt lat="43.692112975" lon="11.33760497"><ele>238</ele><time>2020-01-12T08:33:25Z</time></trkpt>
<trkpt lat="43.692056984" lon="11.337691974"><ele>239</ele><time>2020-01-12T08:33:28Z</time></trkpt>
<trkpt lat="43.692038041" lon="11.337720975"><ele>239</ele><time>2020-01-12T08:33:29Z</time></trkpt>
<trkpt lat="43.692019014" lon="11.337749977"><ele>239</ele><time>2020-01-12T08:33:30Z</time></trkpt>
<trkpt lat="43.691999987" lon="11.337778978"><ele>239</ele><time>2020-01-12T08:33:31Z</time></trkpt>
<trkpt lat="43.691980038" lon="11.337807979"><ele>240</ele><time>2020-01-12T08:33:32Z</time></trkpt>
<trkpt lat="43.691960005" lon="11.337836981"><ele>240</ele><time>2020-01-12T08:33:33Z</time></trkpt>
<trkpt lat="43.691899991" lon="11.337921973"><ele>241</ele><time>2020-01-12T08:33:36Z</time></trkpt>
<trkpt lat="43.691880042" lon="11.337949969"><ele>241</ele><time>2020-01-12T08:33:37Z</time></trkpt>
<trkpt lat="43.691860009" lon="11.337976959"><ele>241</ele><time>2020-01-12T08:33:38Z</time></trkpt>
<trkpt lat="43.691839976" lon="11.338005038"><ele>241</ele><time>2020-01-12T08:33:39Z</time></trkpt>
<trkpt lat="43.691821033" lon="11.338033034"><ele>242</ele><time>2020-01-12T08:33:40Z</time></trkpt>
<trkpt lat="43.691801" lon="11.338061029"><ele>242</ele><time>2020-01-12T08:33:41Z</time></trkpt>
<trkpt lat="43.691780968" lon="11.338088019"><ele>242</ele><time>2020-01-12T08:33:42Z</time></trkpt>
<trkpt lat="43.691762025" lon="11.338116014"><ele>242</ele><time>2020-01-12T08:33:43Z</time></trkpt>
<trkpt lat="43.691742998" lon="11.33814401"><ele>242</ele><time>2020-01-12T08:33:44Z</time></trkpt>
<trkpt lat="43.691724977" lon="11.338172005"><ele>243</ele><time>2020-01-12T08:33:45Z</time></trkpt>
<trkpt lat="43.691707039" lon="11.338200001"><ele>243</ele><time>2020-01-12T08:33:46Z</time></trkpt>
<trkpt lat="43.691690024" lon="11.338229002"><ele>243</ele><time>2020-01-12T08:33:47Z</time></trkpt>
<trkpt lat="43.691674015" lon="11.338258004"><ele>243</ele><time>2020-01-12T08:33:48Z</time></trkpt>
<trkpt lat="43.691658005" lon="11.338288011"><ele>243</ele><time>2020-01-12T08:33:49Z</time></trkpt>
<trkpt lat="43.691644007" lon="11.338318018"><ele>244</ele><time>2020-01-12T08:33:50Z</time></trkpt>
<trkpt lat="43.691631015" lon="11.338348025"><ele>244</ele><time>2020-01-12T08:33:51Z</time></trkpt>
<trkpt lat="43.691619029" lon="11.338379961"><ele>244</ele><time>2020-01-12T08:33:52Z</time></trkpt>
<trkpt lat="43.691607965" lon="11.338411979"><ele>244</ele><time>2020-01-12T08:33:53Z</time></trkpt>
<trkpt lat="43.691598997" lon="11.338443998"><ele>245</ele><time>2020-01-12T08:33:54Z</time></trkpt>
<trkpt lat="43.691590028" lon="11.338478029"><ele>245</ele><time>2020-01-12T08:33:55Z</time></trkpt>
<trkpt lat="43.691581981" lon="11.33851097"><ele>245</ele><time>2020-01-12T08:33:56Z</time></trkpt>
<trkpt lat="43.691574018" lon="11.338545"><ele>245</ele><time>2020-01-12T08:33:57Z</time></trkpt>
<trkpt lat="43.691566978" lon="11.338578025"><ele>246</ele><time>2020-01-12T08:33:58Z</time></trkpt>
<trkpt lat="43.691559015" lon="11.338611972"><ele>246</ele><time>2020-01-12T08:33:59Z</time></trkpt>
<trkpt lat="43.691549962" lon="11.338644996"><ele>246</ele><time>2020-01-12T08:34:00Z</time></trkpt>
<trkpt lat="43.691540994" lon="11.338678021"><ele>246</ele><time>2020-01-12T08:34:01Z</time></trkpt>
<trkpt lat="43.691531019" lon="11.33871004"><ele>247</ele><time>2020-01-12T08:34:02Z</time></trkpt>
<trkpt lat="43.691519033" lon="11.338741975"><ele>247</ele><time>2020-01-12T08:34:03Z</time></trkpt>
<trkpt lat="43.691506963" lon="11.338772988"><ele>247</ele><time>2020-01-12T08:34:04Z</time></trkpt>
<trkpt lat="43.691493971" lon="11.338804001"><ele>248</ele><time>2020-01-12T08:34:05Z</time></trkpt>
<trkpt lat="43.691479973" lon="11.338833002"><ele>248</ele><time>2020-01-12T08:34:06Z</time></trkpt>
<trkpt lat="43.691465976" lon="11.33886301"><ele>249</ele><time>2020-01-12T08:34:07Z</time></trkpt>
<trkpt lat="43.691450972" lon="11.338891005"><ele>249</ele><time>2020-01-12T08:34:08Z</time></trkpt>
<trkpt lat="43.691434963" lon="11.338919001"><ele>250</ele><time>2020-01-12T08:34:09Z</time></trkpt>
<trkpt lat="43.691418031" lon="11.33894599"><ele>250</ele><time>2020-01-12T08:34:10Z</time></trkpt>
<trkpt lat="43.691401016" lon="11.338971974"><ele>251</ele><time>2020-01-12T08:34:11Z</time></trkpt>
<trkpt lat="43.691384001" lon="11.338997036"><ele>251</ele><time>2020-01-12T08:34:12Z</time></trkpt>
<trkpt lat="43.69136598" lon="11.339022014"><ele>252</ele><time>2020-01-12T08:34:13Z</time></trkpt>
<trkpt lat="43.691347959" lon="11.339044981"><ele>252</ele><time>2020-01-12T08:34:14Z</time></trkpt>
<trkpt lat="43.691330021" lon="11.339067025"><ele>253</ele><time>2020-01-12T08:34:15Z</time></trkpt>
<trkpt lat="43.691310994" lon="11.339088986"><ele>254</ele><time>2020-01-12T08:34:16Z</time></trkpt>
<trkpt lat="43.691292973" lon="11.339109018"><ele>254</ele><time>2020-01-12T08:34:17Z</time></trkpt>
<trkpt lat="43.691275036" lon="11.33912704"><ele>255</ele><time>2020-01-12T08:34:18Z</time></trkpt>
<trkpt lat="43.691257015" lon="11.339144977"><ele>255</ele><time>2020-01-12T08:34:19Z</time></trkpt>
<trkpt lat="43.691238994" lon="11.339160986"><ele>256</ele><time>2020-01-12T08:34:20Z</time></trkpt>
<trkpt lat="43.691220973" lon="11.339174984"><ele>256</ele><time>2020-01-12T08:34:21Z</time></trkpt>
<trkpt lat="43.691204041" lon="11.339187976"><ele>257</ele><time>2020-01-12T08:34:22Z</time></trkpt>
<trkpt lat="43.691188032" lon="11.339199962"><ele>258</ele><time>2020-01-12T08:34:23Z</time></trkpt>
<trkpt lat="43.691172022" lon="11.339212032"><ele>258</ele><time>2020-01-12T08:34:24Z</time></trkpt>
<trkpt lat="43.691157019" lon="11.339224018"><ele>259</ele><time>2020-01-12T08:34:25Z</time></trkpt>
<trkpt lat="43.691143021" lon="11.339236004"><ele>259</ele><time>2020-01-12T08:34:26Z</time></trkpt>
<trkpt lat="43.691130029" lon="11.339248996"><ele>260</ele><time>2020-01-12T08:34:27Z</time></trkpt>
<trkpt lat="43.691117037" lon="11.339262994"><ele>260</ele><time>2020-01-12T08:34:28Z</time></trkpt>
<trkpt lat="43.691105973" lon="11.339277998"><ele>261</ele><time>2020-01-12T08:34:29Z</time></trkpt>
<trkpt lat="43.691095999" lon="11.339295013"><ele>261</ele><time>2020-01-12T08:34:30Z</time></trkpt>
<trkpt lat="43.691088036" lon="11.33931404"><ele>262</ele><time>2020-01-12T08:34:31Z</time></trkpt>
<trkpt lat="43.691079989" lon="11.339334995"><ele>262</ele><time>2020-01-12T08:34:32Z</time></trkpt>
<trkpt lat="43.691074038" lon="11.339356033"><ele>262</ele><time>2020-01-12T08:34:33Z</time></trkpt>
<trkpt lat="43.691069009" lon="11.339379"><ele>263</ele><time>2020-01-12T08:34:34Z</time></trkpt>
<trkpt lat="43.691064985" lon="11.339401966"><ele>263</ele><time>2020-01-12T08:34:35Z</time></trkpt>
<trkpt lat="43.691061968" lon="11.339425016"><ele>263</ele><time>2020-01-12T08:34:36Z</time></trkpt>
<trkpt lat="43.691059034" lon="11.339447983"><ele>264</ele><time>2020-01-12T08:34:37Z</time></trkpt>
<trkpt lat="43.691057023" lon="11.339470027"><ele>264</ele><time>2020-01-12T08:34:38Z</time></trkpt>
<trkpt lat="43.691052999" lon="11.339492993"><ele>264</ele><time>2020-01-12T08:34:39Z</time></trkpt>
<trkpt lat="43.691048976" lon="11.33951596"><ele>265</ele><time>2020-01-12T08:34:40Z</time></trkpt>
<trkpt lat="43.691045037" lon="11.339540016"><ele>265</ele><time>2020-01-12T08:34:41Z</time></trkpt>
<trkpt lat="43.691039002" lon="11.339562982"><ele>265</ele><time>2020-01-12T08:34:42Z</time></trkpt>
<trkpt lat="43.691033972" lon="11.339587038"><ele>266</ele><time>2020-01-12T08:34:43Z</time></trkpt>
<trkpt lat="43.691030033" lon="11.339611011"><ele>266</ele><time>2020-01-12T08:34:44Z</time></trkpt>
<trkpt lat="43.69102601" lon="11.339634983"><ele>266</ele><time>2020-01-12T08:34:45Z</time></trkpt>
<trkpt lat="43.691021986" lon="11.339659039"><ele>267</ele><time>2020-01-12T08:34:46Z</time></trkpt>
<trkpt lat="43.691018969" lon="11.339682005"><ele>267</ele><time>2020-01-12T08:34:47Z</time></trkpt>
<trkpt lat="43.691015029" lon="11.339705978"><ele>267</ele><time>2020-01-12T08:34:48Z</time></trkpt>
<trkpt lat="43.690998014" lon="11.339771021"><ele>268</ele><time>2020-01-12T08:34:51Z</time></trkpt>
<trkpt lat="43.690991979" lon="11.33979097"><ele>269</ele><time>2020-01-12T08:34:52Z</time></trkpt>
<trkpt lat="43.69098804" lon="11.339811003"><ele>269</ele><time>2020-01-12T08:34:53Z</time></trkpt>
<trkpt lat="43.690987034" lon="11.339829024"><ele>269</ele><time>2020-01-12T08:34:54Z</time></trkpt>
<trkpt lat="43.690989967" lon="11.339846961"><ele>269</ele><time>2020-01-12T08:34:55Z</time></trkpt>
<trkpt lat="43.690993991" lon="11.339863976"><ele>269</ele><time>2020-01-12T08:34:56Z</time></trkpt>
<trkpt lat="43.691001032" lon="11.33987898"><ele>269</ele><time>2020-01-12T08:34:57Z</time></trkpt>
<trkpt lat="43.691007989" lon="11.339891972"><ele>269</ele><time>2020-01-12T08:34:58Z</time></trkpt>
<trkpt lat="43.691016035" lon="11.339903036"><ele>269</ele><time>2020-01-12T08:34:59Z</time></trkpt>
<trkpt lat="43.691023998" lon="11.339910999"><ele>269</ele><time>2020-01-12T08:35:00Z</time></trkpt>
<trkpt lat="43.691033972" lon="11.339918962"><ele>269</ele><time>2020-01-12T08:35:01Z</time></trkpt>
<trkpt lat="43.691046964" lon="11.339927008"><ele>269</ele><time>2020-01-12T08:35:02Z</time></trkpt>
<trkpt lat="43.691062974" lon="11.339936983"><ele>268</ele><time>2020-01-12T08:35:03Z</time></trkpt>
<trkpt lat="43.691084012" lon="11.339947963"><ele>268</ele><time>2020-01-12T08:35:04Z</time></trkpt>
<trkpt lat="43.691106979" lon="11.339960033"><ele>268</ele><time>2020-01-12T08:35:05Z</time></trkpt>
<trkpt lat="43.691132963" lon="11.339973025"><ele>267</ele><time>2020-01-12T08:35:06Z</time></trkpt>
<trkpt lat="43.691160958" lon="11.339987023"><ele>267</ele><time>2020-01-12T08:35:07Z</time></trkpt>
<trkpt lat="43.691189038" lon="11.340001021"><ele>266</ele><time>2020-01-12T08:35:08Z</time></trkpt>
<trkpt lat="43.691216027" lon="11.340014013"><ele>266</ele><time>2020-01-12T08:35:09Z</time></trkpt>
<trkpt lat="43.691243017" lon="11.340027004"><ele>266</ele><time>2020-01-12T08:35:10Z</time></trkpt>
<trkpt lat="43.691267995" lon="11.340039996"><ele>265</ele><time>2020-01-12T08:35:11Z</time></trkpt>
<trkpt lat="43.691292973" lon="11.340051983"><ele>265</ele><time>2020-01-12T08:35:12Z</time></trkpt>
<trkpt lat="43.691317029" lon="11.340064975"><ele>265</ele><time>2020-01-12T08:35:13Z</time></trkpt>
<trkpt lat="43.691339996" lon="11.340076961"><ele>265</ele><time>2020-01-12T08:35:14Z</time></trkpt>
<trkpt lat="43.691361034" lon="11.340090958"><ele>265</ele><time>2020-01-12T08:35:15Z</time></trkpt>
<trkpt lat="43.691380983" lon="11.34010504"><ele>264</ele><time>2020-01-12T08:35:16Z</time></trkpt>
<trkpt lat="43.69140001" lon="11.34011996"><ele>264</ele><time>2020-01-12T08:35:17Z</time></trkpt>
<trkpt lat="43.691418031" lon="11.340135969"><ele>264</ele><time>2020-01-12T08:35:18Z</time></trkpt>
<trkpt lat="43.691434041" lon="11.34015399"><ele>264</ele><time>2020-01-12T08:35:19Z</time></trkpt>
<trkpt lat="43.69144896" lon="11.340172011"><ele>264</ele><time>2020-01-12T08:35:20Z</time></trkpt>
<trkpt lat="43.691462036" lon="11.340191038"><ele>264</ele><time>2020-01-12T08:35:21Z</time></trkpt>
<trkpt lat="43.691475028" lon="11.340210987"><ele>264</ele><time>2020-01-12T08:35:22Z</time></trkpt>
<trkpt lat="43.691487014" lon="11.34023102"><ele>265</ele><time>2020-01-12T08:35:23Z</time></trkpt>
<trkpt lat="43.691499" lon="11.340251975"><ele>265</ele><time>2020-01-12T08:35:24Z</time></trkpt>
<trkpt lat="43.691529008" lon="11.340316013"><ele>265</ele><time>2020-01-12T08:35:27Z</time></trkpt>
<trkpt lat="43.691538982" lon="11.340337973"><ele>266</ele><time>2020-01-12T08:35:28Z</time></trkpt>
<trkpt lat="43.69154904" lon="11.340360017"><ele>266</ele><time>2020-01-12T08:35:29Z</time></trkpt>
<trkpt lat="43.691558009" lon="11.340380972"><ele>266</ele><time>2020-01-12T08:35:30Z</time></trkpt>
<trkpt lat="43.691566978" lon="11.340403017"><ele>266</ele><time>2020-01-12T08:35:31Z</time></trkpt>
<trkpt lat="43.69157603" lon="11.340424977"><ele>267</ele><time>2020-01-12T08:35:32Z</time></trkpt>
<trkpt lat="43.691583993" lon="11.340448027"><ele>267</ele><time>2020-01-12T08:35:33Z</time></trkpt>
<trkpt lat="43.691592962" lon="11.340469988"><ele>267</ele><time>2020-01-12T08:35:34Z</time></trkpt>
<trkpt lat="43.691601008" lon="11.340492032"><ele>268</ele><time>2020-01-12T08:35:35Z</time></trkpt>
<trkpt lat="43.691607965" lon="11.340514999"><ele>268</ele><time>2020-01-12T08:35:36Z</time></trkpt>
<trkpt lat="43.691615006" lon="11.340537965"><ele>268</ele><time>2020-01-12T08:35:37Z</time></trkpt>
<trkpt lat="43.691622969" lon="11.340561016"><ele>268</ele><time>2020-01-12T08:35:38Z</time></trkpt>
<trkpt lat="43.691629004" lon="11.340583982"><ele>269</ele><time>2020-01-12T08:35:39Z</time></trkpt>
<trkpt lat="43.691635961" lon="11.340607032"><ele>269</ele><time>2020-01-12T08:35:40Z</time></trkpt>
<trkpt lat="43.691643002" lon="11.340631004"><ele>269</ele><time>2020-01-12T08:35:41Z</time></trkpt>
<trkpt lat="43.691650964" lon="11.340654977"><ele>270</ele><time>2020-01-12T08:35:42Z</time></trkpt>
<trkpt lat="43.691658005" lon="11.340680039"><ele>270</ele><time>2020-01-12T08:35:43Z</time></trkpt>
<trkpt lat="43.691683989" lon="11.340755979"><ele>271</ele><time>2020-01-12T08:35:46Z</time></trkpt>
<trkpt lat="43.691693963" lon="11.340782968"><ele>272</ele><time>2020-01-12T08:35:47Z</time></trkpt>
<trkpt lat="43.691706033" lon="11.340809036"><ele>272</ele><time>2020-01-12T08:35:48Z</time></trkpt>
<trkpt lat="43.691720031" lon="11.340836026"><ele>272</ele><time>2020-01-12T08:35:49Z</time></trkpt>
<trkpt lat="43.691737968" lon="11.340861004"><ele>272</ele><time>2020-01-12T08:35:50Z</time></trkpt>
<trkpt lat="43.691761019" lon="11.34088397"><ele>272</ele><time>2020-01-12T08:35:51Z</time></trkpt>
<trkpt lat="43.691789014" lon="11.340906015"><ele>272</ele><time>2020-01-12T08:35:52Z</time></trkpt>
<trkpt lat="43.691821033" lon="11.340926969"><ele>272</ele><time>2020-01-12T08:35:53Z</time></trkpt>
<trkpt lat="43.691853974" lon="11.340945996"><ele>272</ele><time>2020-01-12T08:35:54Z</time></trkpt>
<trkpt lat="43.691886999" lon="11.340964017"><ele>272</ele><time>2020-01-12T08:35:55Z</time></trkpt>
<trkpt lat="43.691917006" lon="11.340982039"><ele>272</ele><time>2020-01-12T08:35:56Z</time></trkpt>
<trkpt lat="43.691945001" lon="11.34099897"><ele>272</ele><time>2020-01-12T08:35:57Z</time></trkpt>
<trkpt lat="43.692019014" lon="11.341050016"><ele>271</ele><time>2020-01-12T08:36:00Z</time></trkpt>
<trkpt lat="43.692040974" lon="11.341066025"><ele>271</ele><time>2020-01-12T08:36:01Z</time></trkpt>
<trkpt lat="43.692062013" lon="11.341081029"><ele>271</ele><time>2020-01-12T08:36:02Z</time></trkpt>
<trkpt lat="43.692081962" lon="11.341097038"><ele>271</ele><time>2020-01-12T08:36:03Z</time></trkpt>
<trkpt lat="43.692103" lon="11.341112042"><ele>271</ele><time>2020-01-12T08:36:04Z</time></trkpt>
<trkpt lat="43.692124039" lon="11.341126962"><ele>271</ele><time>2020-01-12T08:36:05Z</time></trkpt>
<trkpt lat="43.692144994" lon="11.341141965"><ele>271</ele><time>2020-01-12T08:36:06Z</time></trkpt>
<trkpt lat="43.692166032" lon="11.341156969"><ele>271</ele><time>2020-01-12T08:36:07Z</time></trkpt>
<trkpt lat="43.692186987" lon="11.341171972"><ele>270</ele><time>2020-01-12T08:36:08Z</time></trkpt>
<trkpt lat="43.692208026" lon="11.341186976"><ele>270</ele><time>2020-01-12T08:36:09Z</time></trkpt>
<trkpt lat="43.692227975" lon="11.34120198"><ele>270</ele><time>2020-01-12T08:36:10Z</time></trkpt>
<trkpt lat="43.692248007" lon="11.341218995"><ele>270</ele><time>2020-01-12T08:36:11Z</time></trkpt>
<trkpt lat="43.692299975" lon="11.34127398"><ele>270</ele><time>2020-01-12T08:36:14Z</time></trkpt>
<trkpt lat="43.692314979" lon="11.341295019"><ele>270</ele><time>2020-01-12T08:36:15Z</time></trkpt>
<trkpt lat="43.692327971" lon="11.341316979"><ele>270</ele><time>2020-01-12T08:36:16Z</time></trkpt>
<trkpt lat="43.692339035" lon="11.34134003"><ele>271</ele><time>2020-01-12T08:36:17Z</time></trkpt>
<trkpt lat="43.692349009" lon="11.341365008"><ele>271</ele><time>2020-01-12T08:36:18Z</time></trkpt>
<trkpt lat="43.692357978" lon="11.341389986"><ele>271</ele><time>2020-01-12T08:36:19Z</time></trkpt>
<trkpt lat="43.692365019" lon="11.34141597"><ele>271</ele><time>2020-01-12T08:36:20Z</time></trkpt>
<trkpt lat="43.69237097" lon="11.341442959"><ele>272</ele><time>2020-01-12T08:36:21Z</time></trkpt>
<trkpt lat="43.692377005" lon="11.341470033"><ele>272</ele><time>2020-01-12T08:36:22Z</time></trkpt>
<trkpt lat="43.692382034" lon="11.341498028"><ele>273</ele><time>2020-01-12T08:36:23Z</time></trkpt>
<trkpt lat="43.692385973" lon="11.341526024"><ele>273</ele><time>2020-01-12T08:36:24Z</time></trkpt>
<trkpt lat="43.692388991" lon="11.34155402"><ele>273</ele><time>2020-01-12T08:36:25Z</time></trkpt>
<trkpt lat="43.692391003" lon="11.341582015"><ele>274</ele><time>2020-01-12T08:36:26Z</time></trkpt>
<trkpt lat="43.69239402" lon="11.341610011"><ele>274</ele><time>2020-01-12T08:36:27Z</time></trkpt>
<trkpt lat="43.692396032" lon="11.341637"><ele>275</ele><time>2020-01-12T08:36:28Z</time></trkpt>
<trkpt lat="43.69239796" lon="11.341664996"><ele>275</ele><time>2020-01-12T08:36:29Z</time></trkpt>
<trkpt lat="43.692399971" lon="11.341691986"><ele>276</ele><time>2020-01-12T08:36:30Z</time></trkpt>
<trkpt lat="43.692401983" lon="11.341718975"><ele>276</ele><time>2020-01-12T08:36:31Z</time></trkpt>
<trkpt lat="43.692403995" lon="11.341745965"><ele>276</ele><time>2020-01-12T08:36:32Z</time></trkpt>
<trkpt lat="43.692407012" lon="11.341772033"><ele>277</ele><time>2020-01-12T08:36:33Z</time></trkpt>
<trkpt lat="43.692410029" lon="11.341797011"><ele>277</ele><time>2020-01-12T08:36:34Z</time></trkpt>
<trkpt lat="43.692412963" lon="11.341821989"><ele>278</ele><time>2020-01-12T08:36:35Z</time></trkpt>
<trkpt lat="43.692417992" lon="11.341845961"><ele>278</ele><time>2020-01-12T08:36:36Z</time></trkpt>
<trkpt lat="43.692424027" lon="11.341869012"><ele>278</ele><time>2020-01-12T08:36:37Z</time></trkpt>
<trkpt lat="43.692430984" lon="11.341889966"><ele>279</ele><time>2020-01-12T08:36:38Z</time></trkpt>
<trkpt lat="43.692440037" lon="11.341911005"><ele>279</ele><time>2020-01-12T08:36:39Z</time></trkpt>
<trkpt lat="43.692450011" lon="11.341929026"><ele>279</ele><time>2020-01-12T08:36:40Z</time></trkpt>
<trkpt lat="43.692463003" lon="11.341946963"><ele>279</ele><time>2020-01-12T08:36:41Z</time></trkpt>
<trkpt lat="43.692512959" lon="11.341988035"><ele>279</ele><time>2020-01-12T08:36:44Z</time></trkpt>
<trkpt lat="43.692535004" lon="11.341999015"><ele>278</ele><time>2020-01-12T08:36:45Z</time></trkpt>
<trkpt lat="43.69255797" lon="11.342007983"><ele>278</ele><time>2020-01-12T08:36:46Z</time></trkpt>
<trkpt lat="43.692631982" lon="11.342033967"><ele>277</ele><time>2020-01-12T08:36:49Z</time></trkpt>
<trkpt lat="43.692657966" lon="11.342044026"><ele>277</ele><time>2020-01-12T08:36:50Z</time></trkpt>
<trkpt lat="43.692682022" lon="11.342056012"><ele>277</ele><time>2020-01-12T08:36:51Z</time></trkpt>
<trkpt lat="43.692705994" lon="11.342069004"><ele>276</ele><time>2020-01-12T08:36:52Z</time></trkpt>
<trkpt lat="43.692728039" lon="11.342084007"><ele>276</ele><time>2020-01-12T08:36:53Z</time></trkpt>
<trkpt lat="43.692748994" lon="11.342101023"><ele>276</ele><time>2020-01-12T08:36:54Z</time></trkpt>
<trkpt lat="43.692769026" lon="11.342120972"><ele>276</ele><time>2020-01-12T08:36:55Z</time></trkpt>
<trkpt lat="43.692786964" lon="11.34214201"><ele>276</ele><time>2020-01-12T08:36:56Z</time></trkpt>
<trkpt lat="43.692803979" lon="11.342165982"><ele>276</ele><time>2020-01-12T08:36:57Z</time></trkpt>
<trkpt lat="43.692819988" lon="11.342191966"><ele>277</ele><time>2020-01-12T08:36:58Z</time></trkpt>
<trkpt lat="43.692834992" lon="11.34221904"><ele>277</ele><time>2020-01-12T08:36:59Z</time></trkpt>
<trkpt lat="43.69284899" lon="11.342248963"><ele>277</ele><time>2020-01-12T08:37:00Z</time></trkpt>
<trkpt lat="43.692861982" lon="11.342280982"><ele>278</ele><time>2020-01-12T08:37:01Z</time></trkpt>
<trkpt lat="43.692874974" lon="11.342314007"><ele>278</ele><time>2020-01-12T08:37:02Z</time></trkpt>
<trkpt lat="43.692907998" lon="11.342422972"><ele>280</ele><time>2020-01-12T08:37:05Z</time></trkpt>
<trkpt lat="43.692918979" lon="11.34246002"><ele>280</ele><time>2020-01-12T08:37:06Z</time></trkpt>
<trkpt lat="43.692929959" lon="11.342495978"><ele>281</ele><time>2020-01-12T08:37:07Z</time></trkpt>
<trkpt lat="43.692941023" lon="11.342531014"><ele>281</ele><time>2020-01-12T08:37:08Z</time></trkpt>
<trkpt lat="43.692953009" lon="11.342564961"><ele>281</ele><time>2020-01-12T08:37:09Z</time></trkpt>
<trkpt lat="43.692966001" lon="11.34259698"><ele>282</ele><time>2020-01-12T08:37:10Z</time></trkpt>
<trkpt lat="43.692981005" lon="11.342626987"><ele>282</ele><time>2020-01-12T08:37:11Z</time></trkpt>
<trkpt lat="43.692997014" lon="11.342653977"><ele>282</ele><time>2020-01-12T08:37:12Z</time></trkpt>
<trkpt lat="43.693015035" lon="11.342679039"><ele>282</ele><time>2020-01-12T08:37:13Z</time></trkpt>
<trkpt lat="43.693033978" lon="11.342703011"><ele>282</ele><time>2020-01-12T08:37:14Z</time></trkpt>
<trkpt lat="43.693054011" lon="11.342724971"><ele>282</ele><time>2020-01-12T08:37:15Z</time></trkpt>
<trkpt lat="43.693074966" lon="11.342747016"><ele>282</ele><time>2020-01-12T08:37:16Z</time></trkpt>
<trkpt lat="43.69309701" lon="11.342766965"><ele>282</ele><time>2020-01-12T08:37:17Z</time></trkpt>
<trkpt lat="43.693118971" lon="11.342786998"><ele>282</ele><time>2020-01-12T08:37:18Z</time></trkpt>
<trkpt lat="43.693141015" lon="11.34280703"><ele>281</ele><time>2020-01-12T08:37:19Z</time></trkpt>
<trkpt lat="43.693163982" lon="11.342826979"><ele>281</ele><time>2020-01-12T08:37:20Z</time></trkpt>
<trkpt lat="43.69318502" lon="11.342848018"><ele>281</ele><time>2020-01-12T08:37:21Z</time></trkpt>
<trkpt lat="43.693206981" lon="11.342869978"><ele>281</ele><time>2020-01-12T08:37:22Z</time></trkpt>
<trkpt lat="43.693228019" lon="11.342892023"><ele>281</ele><time>2020-01-12T08:37:23Z</time></trkpt>
<trkpt lat="43.693247968" lon="11.342914989"><ele>281</ele><time>2020-01-12T08:37:24Z</time></trkpt>
<trkpt lat="43.693268001" lon="11.342938961"><ele>281</ele><time>2020-01-12T08:37:25Z</time></trkpt>
<trkpt lat="43.693287028" lon="11.342964023"><ele>281</ele><time>2020-01-12T08:37:26Z</time></trkpt>
<trkpt lat="43.693304965" lon="11.342989001"><ele>281</ele><time>2020-01-12T08:37:27Z</time></trkpt>
<trkpt lat="43.693323992" lon="11.343013979"><ele>281</ele><time>2020-01-12T08:37:28Z</time></trkpt>
<trkpt lat="43.693341007" lon="11.343039963"><ele>281</ele><time>2020-01-12T08:37:29Z</time></trkpt>
<trkpt lat="43.693358023" lon="11.343066031"><ele>281</ele><time>2020-01-12T08:37:30Z</time></trkpt>
<trkpt lat="43.693375038" lon="11.343092015"><ele>281</ele><time>2020-01-12T08:37:31Z</time></trkpt>
<trkpt lat="43.693390964" lon="11.343117999"><ele>282</ele><time>2020-01-12T08:37:32Z</time></trkpt>
<trkpt lat="43.693406973" lon="11.343143983"><ele>282</ele><time>2020-01-12T08:37:33Z</time></trkpt>
<trkpt lat="43.693421977" lon="11.343169967"><ele>282</ele><time>2020-01-12T08:37:34Z</time></trkpt>
<trkpt lat="43.69343698" lon="11.34319704"><ele>282</ele><time>2020-01-12T08:37:35Z</time></trkpt>
<trkpt lat="43.693450978" lon="11.343223024"><ele>282</ele><time>2020-01-12T08:37:36Z</time></trkpt>
<trkpt lat="43.693464976" lon="11.343250014"><ele>283</ele><time>2020-01-12T08:37:37Z</time></trkpt>
<trkpt lat="43.693477968" lon="11.343275998"><ele>283</ele><time>2020-01-12T08:37:38Z</time></trkpt>
<trkpt lat="43.693491966" lon="11.343302988"><ele>283</ele><time>2020-01-12T08:37:39Z</time></trkpt>
<trkpt lat="43.693505041" lon="11.343329977"><ele>283</ele><time>2020-01-12T08:37:40Z</time></trkpt>
<trkpt lat="43.693517027" lon="11.343356967"><ele>283</ele><time>2020-01-12T08:37:41Z</time></trkpt>
<trkpt lat="43.693530019" lon="11.343384041"><ele>283</ele><time>2020-01-12T08:37:42Z</time></trkpt>
<trkpt lat="43.693542005" lon="11.34341103"><ele>284</ele><time>2020-01-12T08:37:43Z</time></trkpt>
<trkpt lat="43.693552986" lon="11.34343802"><ele>284</ele><time>2020-01-12T08:37:44Z</time></trkpt>
<trkpt lat="43.693564972" lon="11.343466016"><ele>284</ele><time>2020-01-12T08:37:45Z</time></trkpt>
<trkpt lat="43.693576036" lon="11.343493005"><ele>284</ele><time>2020-01-12T08:37:46Z</time></trkpt>
<trkpt lat="43.693587016" lon="11.343521001"><ele>284</ele><time>2020-01-12T08:37:47Z</time></trkpt>
<trkpt lat="43.693596991" lon="11.343548996"><ele>284</ele><time>2020-01-12T08:37:48Z</time></trkpt>
<trkpt lat="43.693607971" lon="11.343576992"><ele>285</ele><time>2020-01-12T08:37:49Z</time></trkpt>
<trkpt lat="43.693618029" lon="11.343605993"><ele>285</ele><time>2020-01-12T08:37:50Z</time></trkpt>
<trkpt lat="43.693628004" lon="11.343634995"><ele>285</ele><time>2020-01-12T08:37:51Z</time></trkpt>
<trkpt lat="43.693636972" lon="11.343663996"><ele>285</ele><time>2020-01-12T08:37:52Z</time></trkpt>
<trkpt lat="43.693646025" lon="11.343694003"><ele>285</ele><time>2020-01-12T08:37:53Z</time></trkpt>
<trkpt lat="43.693653988" lon="11.343724011"><ele>286</ele><time>2020-01-12T08:37:54Z</time></trkpt>
<trkpt lat="43.693661029" lon="11.343755024"><ele>286</ele><time>2020-01-12T08:37:55Z</time></trkpt>
<trkpt lat="43.69366698" lon="11.343785031"><ele>286</ele><time>2020-01-12T08:37:56Z</time></trkpt>
<trkpt lat="43.693672009" lon="11.343816966"><ele>287</ele><time>2020-01-12T08:37:57Z</time></trkpt>
<trkpt lat="43.693676032" lon="11.343847979"><ele>287</ele><time>2020-01-12T08:37:58Z</time></trkpt>
<trkpt lat="43.693678966" lon="11.343879998"><ele>287</ele><time>2020-01-12T08:37:59Z</time></trkpt>
<trkpt lat="43.693680977" lon="11.343913022"><ele>287</ele><time>2020-01-12T08:38:00Z</time></trkpt>
<trkpt lat="43.693680977" lon="11.343945963"><ele>288</ele><time>2020-01-12T08:38:01Z</time></trkpt>
<trkpt lat="43.693679972" lon="11.343978988"><ele>288</ele><time>2020-01-12T08:38:02Z</time></trkpt>
<trkpt lat="43.693678966" lon="11.344012013"><ele>289</ele><time>2020-01-12T08:38:03Z</time></trkpt>
<trkpt lat="43.693677038" lon="11.344045037"><ele>289</ele><time>2020-01-12T08:38:04Z</time></trkpt>
<trkpt lat="43.693675026" lon="11.344077978"><ele>289</ele><time>2020-01-12T08:38:05Z</time></trkpt>
<trkpt lat="43.693673015" lon="11.344111003"><ele>290</ele><time>2020-01-12T08:38:06Z</time></trkpt>
<trkpt lat="43.693672009" lon="11.344143022"><ele>290</ele><time>2020-01-12T08:38:07Z</time></trkpt>
<trkpt lat="43.693671003" lon="11.344174035"><ele>290</ele><time>2020-01-12T08:38:08Z</time></trkpt>
<trkpt lat="43.693669997" lon="11.344204964"><ele>291</ele><time>2020-01-12T08:38:09Z</time></trkpt>
<trkpt lat="43.693671003" lon="11.344234971"><ele>291</ele><time>2020-01-12T08:38:10Z</time></trkpt>
<trkpt lat="43.693672009" lon="11.344263973"><ele>291</ele><time>2020-01-12T08:38:11Z</time></trkpt>
<trkpt lat="43.69367402" lon="11.344292974"><ele>291</ele><time>2020-01-12T08:38:12Z</time></trkpt>
<trkpt lat="43.693677038" lon="11.344321975"><ele>292</ele><time>2020-01-12T08:38:13Z</time></trkpt>
<trkpt lat="43.693679972" lon="11.344349971"><ele>292</ele><time>2020-01-12T08:38:14Z</time></trkpt>
<trkpt lat="43.693683995" lon="11.344378972"><ele>292</ele><time>2020-01-12T08:38:15Z</time></trkpt>
<trkpt lat="43.69369003" lon="11.344406968"><ele>292</ele><time>2020-01-12T08:38:16Z</time></trkpt>
<trkpt lat="43.693695981" lon="11.344435969"><ele>293</ele><time>2020-01-12T08:38:17Z</time></trkpt>
<trkpt lat="43.693702016" lon="11.344464971"><ele>293</ele><time>2020-01-12T08:38:18Z</time></trkpt>
<trkpt lat="43.693709979" lon="11.344493972"><ele>293</ele><time>2020-01-12T08:38:19Z</time></trkpt>
<trkpt lat="43.693718025" lon="11.344523979"><ele>293</ele><time>2020-01-12T08:38:20Z</time></trkpt>
<trkpt lat="43.693726994" lon="11.344554992"><ele>293</ele><time>2020-01-12T08:38:21Z</time></trkpt>
<trkpt lat="43.693735041" lon="11.344585"><ele>294</ele><time>2020-01-12T08:38:22Z</time></trkpt>
<trkpt lat="43.693744009" lon="11.344617018"><ele>294</ele><time>2020-01-12T08:38:23Z</time></trkpt>
<trkpt lat="43.693751972" lon="11.344648032"><ele>294</ele><time>2020-01-12T08:38:24Z</time></trkpt>
<trkpt lat="43.693760019" lon="11.344680972"><ele>294</ele><time>2020-01-12T08:38:25Z</time></trkpt>
<trkpt lat="43.69376597" lon="11.344713997"><ele>295</ele><time>2020-01-12T08:38:26Z</time></trkpt>
<trkpt lat="43.693772005" lon="11.344748028"><ele>295</ele><time>2020-01-12T08:38:27Z</time></trkpt>
<trkpt lat="43.693776028" lon="11.344781974"><ele>295</ele><time>2020-01-12T08:38:28Z</time></trkpt>
<trkpt lat="43.693779968" lon="11.344817011"><ele>296</ele><time>2020-01-12T08:38:29Z</time></trkpt>
<trkpt lat="43.693781979" lon="11.344851963"><ele>296</ele><time>2020-01-12T08:38:30Z</time></trkpt>
<trkpt lat="43.693783991" lon="11.344888005"><ele>296</ele><time>2020-01-12T08:38:31Z</time></trkpt>
<trkpt lat="43.693784997" lon="11.344923964"><ele>297</ele><time>2020-01-12T08:38:32Z</time></trkpt>
<trkpt lat="43.693786003" lon="11.344960006"><ele>297</ele><time>2020-01-12T08:38:33Z</time></trkpt>
<trkpt lat="43.693787009" lon="11.344995964"><ele>297</ele><time>2020-01-12T08:38:34Z</time></trkpt>
<trkpt lat="43.693788014" lon="11.345033012"><ele>297</ele><time>2020-01-12T08:38:35Z</time></trkpt>
<trkpt lat="43.69378902" lon="11.345068971"><ele>298</ele><time>2020-01-12T08:38:36Z</time></trkpt>
<trkpt lat="43.693791032" lon="11.345104007"><ele>298</ele><time>2020-01-12T08:38:37Z</time></trkpt>
<trkpt lat="43.69379296" lon="11.345139965"><ele>298</ele><time>2020-01-12T08:38:38Z</time></trkpt>
<trkpt lat="43.693795977" lon="11.345175002"><ele>298</ele><time>2020-01-12T08:38:39Z</time></trkpt>
<trkpt lat="43.693797989" lon="11.34521096"><ele>298</ele><time>2020-01-12T08:38:40Z</time></trkpt>
<trkpt lat="43.693798995" lon="11.345247002"><ele>298</ele><time>2020-01-12T08:38:41Z</time></trkpt>
<trkpt lat="43.693797989" lon="11.345283967"><ele>298</ele><time>2020-01-12T08:38:42Z</time></trkpt>
<trkpt lat="43.693794971" lon="11.34532202"><ele>299</ele><time>2020-01-12T08:38:43Z</time></trkpt>
<trkpt lat="43.693790026" lon="11.345358985"><ele>299</ele><time>2020-01-12T08:38:44Z</time></trkpt>
<trkpt lat="43.693784997" lon="11.345396033"><ele>299</ele><time>2020-01-12T08:38:45Z</time></trkpt>
<trkpt lat="43.693779968" lon="11.345430985"><ele>299</ele><time>2020-01-12T08:38:46Z</time></trkpt>
<trkpt lat="43.693776028" lon="11.345463004"><ele>299</ele><time>2020-01-12T08:38:47Z</time></trkpt>
<trkpt lat="43.693773011" lon="11.345493011"><ele>299</ele><time>2020-01-12T08:38:48Z</time></trkpt>
<trkpt lat="43.693770999" lon="11.345521007"><ele>299</ele><time>2020-01-12T08:38:49Z</time></trkpt>
<trkpt lat="43.693768987" lon="11.345547996"><ele>299</ele><time>2020-01-12T08:38:50Z</time></trkpt>
<trkpt lat="43.693768987" lon="11.34557398"><ele>300</ele><time>2020-01-12T08:38:51Z</time></trkpt>
<trkpt lat="43.693768987" lon="11.34560097"><ele>300</ele><time>2020-01-12T08:38:52Z</time></trkpt>
<trkpt lat="43.693772005" lon="11.345679006"><ele>300</ele><time>2020-01-12T08:38:55Z</time></trkpt>
<trkpt lat="43.693774017" lon="11.345701972"><ele>300</ele><time>2020-01-12T08:38:56Z</time></trkpt>
<trkpt lat="43.693777034" lon="11.345723011"><ele>300</ele><time>2020-01-12T08:38:57Z</time></trkpt>
<trkpt lat="43.693780974" lon="11.34574296"><ele>300</ele><time>2020-01-12T08:38:58Z</time></trkpt>
<trkpt lat="43.693784997" lon="11.345761986"><ele>300</ele><time>2020-01-12T08:38:59Z</time></trkpt>
<trkpt lat="43.693790026" lon="11.345782019"><ele>300</ele><time>2020-01-12T08:39:00Z</time></trkpt>
<trkpt lat="43.693794971" lon="11.34580398"><ele>300</ele><time>2020-01-12T08:39:01Z</time></trkpt>
<trkpt lat="43.693801006" lon="11.34582703"><ele>300</ele><time>2020-01-12T08:39:02Z</time></trkpt>
<trkpt lat="43.693806035" lon="11.345852008"><ele>301</ele><time>2020-01-12T08:39:03Z</time></trkpt>
<trkpt lat="43.693810981" lon="11.345877992"><ele>301</ele><time>2020-01-12T08:39:04Z</time></trkpt>
<trkpt lat="43.69381601" lon="11.34590297"><ele>301</ele><time>2020-01-12T08:39:05Z</time></trkpt>
<trkpt lat="43.693819027" lon="11.34592602"><ele>301</ele><time>2020-01-12T08:39:06Z</time></trkpt>
<trkpt lat="43.693821039" lon="11.345947981"><ele>301</ele><time>2020-01-12T08:39:07Z</time></trkpt>
<trkpt lat="43.693823973" lon="11.345969019"><ele>302</ele><time>2020-01-12T08:39:08Z</time></trkpt>
<trkpt lat="43.693825984" lon="11.345987041"><ele>302</ele><time>2020-01-12T08:39:09Z</time></trkpt>
<trkpt lat="43.693830008" lon="11.346003972"><ele>302</ele><time>2020-01-12T08:39:10Z</time></trkpt>
<trkpt lat="43.693834031" lon="11.346019981"><ele>302</ele><time>2020-01-12T08:39:11Z</time></trkpt>
<trkpt lat="43.693839982" lon="11.346033979"><ele>302</ele><time>2020-01-12T08:39:12Z</time></trkpt>
<trkpt lat="43.693848029" lon="11.346047977"><ele>302</ele><time>2020-01-12T08:39:13Z</time></trkpt>
<trkpt lat="43.693856997" lon="11.346061975"><ele>302</ele><time>2020-01-12T08:39:14Z</time></trkpt>
<trkpt lat="43.693866972" lon="11.346075973"><ele>302</ele><time>2020-01-12T08:39:15Z</time></trkpt>
<trkpt lat="43.693879964" lon="11.346091982"><ele>302</ele><time>2020-01-12T08:39:16Z</time></trkpt>
<trkpt lat="43.693892034" lon="11.346108997"><ele>303</ele><time>2020-01-12T08:39:17Z</time></trkpt>
<trkpt lat="43.693905026" lon="11.346127018"><ele>303</ele><time>2020-01-12T08:39:18Z</time></trkpt>
<trkpt lat="43.693916006" lon="11.346146967"><ele>303</ele><time>2020-01-12T08:39:19Z</time></trkpt>
<trkpt lat="43.693923969" lon="11.346169012"><ele>303</ele><time>2020-01-12T08:39:20Z</time></trkpt>
<trkpt lat="43.693928998" lon="11.346192984"><ele>303</ele><time>2020-01-12T08:39:21Z</time></trkpt>
<trkpt lat="43.69393101" lon="11.346218968"><ele>303</ele><time>2020-01-12T08:39:22Z</time></trkpt>
<trkpt lat="43.693930004" lon="11.34624403"><ele>304</ele><time>2020-01-12T08:39:23Z</time></trkpt>
<trkpt lat="43.693927992" lon="11.346268002"><ele>304</ele><time>2020-01-12T08:39:24Z</time></trkpt>
<trkpt lat="43.693923969" lon="11.346290968"><ele>304</ele><time>2020-01-12T08:39:25Z</time></trkpt>
<trkpt lat="43.693919023" lon="11.346312007"><ele>304</ele><time>2020-01-12T08:39:26Z</time></trkpt>
<trkpt lat="43.693912989" lon="11.346331034"><ele>304</ele><time>2020-01-12T08:39:27Z</time></trkpt>
<trkpt lat="43.693907037" lon="11.346348971"><ele>305</ele><time>2020-01-12T08:39:28Z</time></trkpt>
<trkpt lat="43.693898991" lon="11.346366992"><ele>305</ele><time>2020-01-12T08:39:29Z</time></trkpt>
<trkpt lat="43.693890022" lon="11.346384007"><ele>305</ele><time>2020-01-12T08:39:30Z</time></trkpt>
<trkpt lat="43.69388097" lon="11.346400017"><ele>305</ele><time>2020-01-12T08:39:31Z</time></trkpt>
<trkpt lat="43.693870995" lon="11.346416026"><ele>305</ele><time>2020-01-12T08:39:32Z</time></trkpt>
<trkpt lat="43.693861021" lon="11.346432036"><ele>305</ele><time>2020-01-12T08:39:33Z</time></trkpt>
<trkpt lat="43.69385004" lon="11.346448967"><ele>305</ele><time>2020-01-12T08:39:34Z</time></trkpt>
<trkpt lat="43.69383797" lon="11.346465982"><ele>305</ele><time>2020-01-12T08:39:35Z</time></trkpt>
<trkpt lat="43.69382699" lon="11.346484004"><ele>306</ele><time>2020-01-12T08:39:36Z</time></trkpt>
<trkpt lat="43.693815004" lon="11.346502025"><ele>306</ele><time>2020-01-12T08:39:37Z</time></trkpt>
<trkpt lat="43.693804024" lon="11.346520968"><ele>306</ele><time>2020-01-12T08:39:38Z</time></trkpt>
<trkpt lat="43.693793966" lon="11.346539995"><ele>306</ele><time>2020-01-12T08:39:39Z</time></trkpt>
<trkpt lat="43.693784997" lon="11.346559022"><ele>306</ele><time>2020-01-12T08:39:40Z</time></trkpt>
<trkpt lat="43.693777034" lon="11.346577965"><ele>306</ele><time>2020-01-12T08:39:41Z</time></trkpt>
<trkpt lat="43.693770999" lon="11.346596992"><ele>307</ele><time>2020-01-12T08:39:42Z</time></trkpt>
<trkpt lat="43.69376597" lon="11.346617024"><ele>307</ele><time>2020-01-12T08:39:43Z</time></trkpt>
<trkpt lat="43.693763958" lon="11.346635967"><ele>307</ele><time>2020-01-12T08:39:44Z</time></trkpt>
<trkpt lat="43.693763958" lon="11.346653989"><ele>307</ele><time>2020-01-12T08:39:45Z</time></trkpt>
<trkpt lat="43.69376597" lon="11.34667201"><ele>307</ele><time>2020-01-12T08:39:46Z</time></trkpt>
<trkpt lat="43.693769993" lon="11.346688019"><ele>307</ele><time>2020-01-12T08:39:47Z</time></trkpt>
<trkpt lat="43.693791032" lon="11.346723977"><ele>308</ele><time>2020-01-12T08:39:50Z</time></trkpt>
<trkpt lat="43.693801006" lon="11.346731018"><ele>308</ele><time>2020-01-12T08:39:51Z</time></trkpt>
<trkpt lat="43.693812992" lon="11.346734036"><ele>308</ele><time>2020-01-12T08:39:52Z</time></trkpt>
<trkpt lat="43.693825984" lon="11.346734036"><ele>308</ele><time>2020-01-12T08:39:53Z</time></trkpt>
<trkpt lat="43.693838976" lon="11.346729007"><ele>308</ele><time>2020-01-12T08:39:54Z</time></trkpt>
<trkpt lat="43.69385398" lon="11.346721966"><ele>308</ele><time>2020-01-12T08:39:55Z</time></trkpt>
<trkpt lat="43.693868984" lon="11.346714003"><ele>308</ele><time>2020-01-12T08:39:56Z</time></trkpt>
<trkpt lat="43.693883987" lon="11.346705034"><ele>307</ele><time>2020-01-12T08:39:57Z</time></trkpt>
<trkpt lat="43.693899997" lon="11.346698999"><ele>307</ele><time>2020-01-12T08:39:58Z</time></trkpt>
<trkpt lat="43.693915" lon="11.346694976"><ele>307</ele><time>2020-01-12T08:39:59Z</time></trkpt>
<trkpt lat="43.693930004" lon="11.346692964"><ele>307</ele><time>2020-01-12T08:40:00Z</time></trkpt>
<trkpt lat="43.693946013" lon="11.346691959"><ele>307</ele><time>2020-01-12T08:40:01Z</time></trkpt>
<trkpt lat="43.693963028" lon="11.346691037"><ele>307</ele><time>2020-01-12T08:40:02Z</time></trkpt>
<trkpt lat="43.693980966" lon="11.346688019"><ele>307</ele><time>2020-01-12T08:40:03Z</time></trkpt>
<trkpt lat="43.693998987" lon="11.346685002"><ele>307</ele><time>2020-01-12T08:40:04Z</time></trkpt>
<trkpt lat="43.694018014" lon="11.346680978"><ele>307</ele><time>2020-01-12T08:40:05Z</time></trkpt>
<trkpt lat="43.694037041" lon="11.346677039"><ele>307</ele><time>2020-01-12T08:40:06Z</time></trkpt>
<trkpt lat="43.69405699" lon="11.34667201"><ele>307</ele><time>2020-01-12T08:40:07Z</time></trkpt>
<trkpt lat="43.694076017" lon="11.346666981"><ele>307</ele><time>2020-01-12T08:40:08Z</time></trkpt>
<trkpt lat="43.69409496" lon="11.346662035"><ele>307</ele><time>2020-01-12T08:40:09Z</time></trkpt>
<trkpt lat="43.694113987" lon="11.346657006"><ele>307</ele><time>2020-01-12T08:40:10Z</time></trkpt>
<trkpt lat="43.694133013" lon="11.346652983"><ele>307</ele><time>2020-01-12T08:40:11Z</time></trkpt>
<trkpt lat="43.694150029" lon="11.346649965"><ele>307</ele><time>2020-01-12T08:40:12Z</time></trkpt>
<trkpt lat="43.69416696" lon="11.346647032"><ele>307</ele><time>2020-01-12T08:40:13Z</time></trkpt>
<trkpt lat="43.69418297" lon="11.34664502"><ele>307</ele><time>2020-01-12T08:40:14Z</time></trkpt>
<trkpt lat="43.694198979" lon="11.346643008"><ele>307</ele><time>2020-01-12T08:40:15Z</time></trkpt>
<trkpt lat="43.694214988" lon="11.346639991"><ele>307</ele><time>2020-01-12T08:40:16Z</time></trkpt>
<trkpt lat="43.694232004" lon="11.346636973"><ele>307</ele><time>2020-01-12T08:40:17Z</time></trkpt>
<trkpt lat="43.694249019" lon="11.346632028"><ele>307</ele><time>2020-01-12T08:40:18Z</time></trkpt>
<trkpt lat="43.694267962" lon="11.346624987"><ele>307</ele><time>2020-01-12T08:40:19Z</time></trkpt>
<trkpt lat="43.694289001" lon="11.346617024"><ele>306</ele><time>2020-01-12T08:40:20Z</time></trkpt>
<trkpt lat="43.694310961" lon="11.346605038"><ele>306</ele><time>2020-01-12T08:40:21Z</time></trkpt>
<trkpt lat="43.694336023" lon="11.34659104"><ele>306</ele><time>2020-01-12T08:40:22Z</time></trkpt>
<trkpt lat="43.694363013" lon="11.346575031"><ele>306</ele><time>2020-01-12T08:40:23Z</time></trkpt>
<trkpt lat="43.694390003" lon="11.346561033"><ele>306</ele><time>2020-01-12T08:40:24Z</time></trkpt>
<trkpt lat="43.694419004" lon="11.346548963"><ele>306</ele><time>2020-01-12T08:40:25Z</time></trkpt>
<trkpt lat="43.694447" lon="11.346543012"><ele>306</ele><time>2020-01-12T08:40:26Z</time></trkpt>
<trkpt lat="43.694474995" lon="11.346543012"><ele>306</ele><time>2020-01-12T08:40:27Z</time></trkpt>
<trkpt lat="43.694525035" lon="11.346563967"><ele>306</ele><time>2020-01-12T08:40:29Z</time></trkpt>
<trkpt lat="43.69454599" lon="11.346582994"><ele>306</ele><time>2020-01-12T08:40:30Z</time></trkpt>
<trkpt lat="43.694564011" lon="11.346606966"><ele>306</ele><time>2020-01-12T08:40:31Z</time></trkpt>
<trkpt lat="43.694577003" lon="11.346634962"><ele>306</ele><time>2020-01-12T08:40:32Z</time></trkpt>
<trkpt lat="43.694586977" lon="11.346667986"><ele>306</ele><time>2020-01-12T08:40:33Z</time></trkpt>
<trkpt lat="43.694595024" lon="11.346703023"><ele>306</ele><time>2020-01-12T08:40:34Z</time></trkpt>
<trkpt lat="43.694601981" lon="11.346741999"><ele>306</ele><time>2020-01-12T08:40:35Z</time></trkpt>
<trkpt lat="43.694609022" lon="11.34678198"><ele>306</ele><time>2020-01-12T08:40:36Z</time></trkpt>
<trkpt lat="43.694616985" lon="11.346823974"><ele>306</ele><time>2020-01-12T08:40:37Z</time></trkpt>
<trkpt lat="43.694626037" lon="11.346866973"><ele>306</ele><time>2020-01-12T08:40:38Z</time></trkpt>
<trkpt lat="43.694637017" lon="11.346909972"><ele>306</ele><time>2020-01-12T08:40:39Z</time></trkpt>
<trkpt lat="43.694646992" lon="11.346952971"><ele>306</ele><time>2020-01-12T08:40:40Z</time></trkpt>
<trkpt lat="43.694657972" lon="11.346996976"><ele>306</ele><time>2020-01-12T08:40:41Z</time></trkpt>
<trkpt lat="43.694669036" lon="11.347039975"><ele>306</ele><time>2020-01-12T08:40:42Z</time></trkpt>
<trkpt lat="43.694680016" lon="11.347082974"><ele>306</ele><time>2020-01-12T08:40:43Z</time></trkpt>
<trkpt lat="43.694690997" lon="11.347124968"><ele>306</ele><time>2020-01-12T08:40:44Z</time></trkpt>
<trkpt lat="43.694701977" lon="11.347167967"><ele>305</ele><time>2020-01-12T08:40:45Z</time></trkpt>
<trkpt lat="43.694713041" lon="11.347210966"><ele>305</ele><time>2020-01-12T08:40:46Z</time></trkpt>
<trkpt lat="43.694724021" lon="11.347252959"><ele>305</ele><time>2020-01-12T08:40:47Z</time></trkpt>
<trkpt lat="43.694735002" lon="11.347295037"><ele>305</ele><time>2020-01-12T08:40:48Z</time></trkpt>
<trkpt lat="43.694745982" lon="11.347338036"><ele>305</ele><time>2020-01-12T08:40:49Z</time></trkpt>
<trkpt lat="43.694756962" lon="11.347380029"><ele>304</ele><time>2020-01-12T08:40:50Z</time></trkpt>
<trkpt lat="43.694767021" lon="11.347422022"><ele>304</ele><time>2020-01-12T08:40:51Z</time></trkpt>
<trkpt lat="43.694778001" lon="11.347465022"><ele>304</ele><time>2020-01-12T08:40:52Z</time></trkpt>
<trkpt lat="43.694787975" lon="11.347507015"><ele>303</ele><time>2020-01-12T08:40:53Z</time></trkpt>
<trkpt lat="43.694798034" lon="11.347549008"><ele>303</ele><time>2020-01-12T08:40:54Z</time></trkpt>
<trkpt lat="43.694808008" lon="11.347592007"><ele>303</ele><time>2020-01-12T08:40:55Z</time></trkpt>
<trkpt lat="43.694817983" lon="11.347634001"><ele>303</ele><time>2020-01-12T08:40:56Z</time></trkpt>
<trkpt lat="43.694827035" lon="11.347677"><ele>303</ele><time>2020-01-12T08:40:57Z</time></trkpt>
<trkpt lat="43.694836004" lon="11.347718993"><ele>302</ele><time>2020-01-12T08:40:58Z</time></trkpt>
<trkpt lat="43.694844972" lon="11.347761992"><ele>302</ele><time>2020-01-12T08:40:59Z</time></trkpt>
<trkpt lat="43.694853019" lon="11.347804992"><ele>302</ele><time>2020-01-12T08:41:00Z</time></trkpt>
<trkpt lat="43.694860982" lon="11.347847991"><ele>302</ele><time>2020-01-12T08:41:01Z</time></trkpt>
<trkpt lat="43.694868023" lon="11.34789099"><ele>302</ele><time>2020-01-12T08:41:02Z</time></trkpt>
<trkpt lat="43.69487498" lon="11.347933989"><ele>302</ele><time>2020-01-12T08:41:03Z</time></trkpt>
<trkpt lat="43.694881015" lon="11.347976988"><ele>301</ele><time>2020-01-12T08:41:04Z</time></trkpt>
<trkpt lat="43.69488596" lon="11.348019987"><ele>301</ele><time>2020-01-12T08:41:05Z</time></trkpt>
<trkpt lat="43.694894006" lon="11.348146973"><ele>301</ele><time>2020-01-12T08:41:08Z</time></trkpt>
<trkpt lat="43.694895012" lon="11.348187961"><ele>301</ele><time>2020-01-12T08:41:09Z</time></trkpt>
<trkpt lat="43.694894006" lon="11.348229032"><ele>301</ele><time>2020-01-12T08:41:10Z</time></trkpt>
<trkpt lat="43.694891995" lon="11.34827002"><ele>301</ele><time>2020-01-12T08:41:11Z</time></trkpt>
<trkpt lat="43.694890989" lon="11.348308995"><ele>301</ele><time>2020-01-12T08:41:12Z</time></trkpt>
<trkpt lat="43.694889983" lon="11.348347971"><ele>301</ele><time>2020-01-12T08:41:13Z</time></trkpt>
<trkpt lat="43.694890989" lon="11.348386025"><ele>301</ele><time>2020-01-12T08:41:14Z</time></trkpt>
<trkpt lat="43.694895012" lon="11.348422989"><ele>301</ele><time>2020-01-12T08:41:15Z</time></trkpt>
<trkpt lat="43.694901969" lon="11.348458026"><ele>301</ele><time>2020-01-12T08:41:16Z</time></trkpt>
<trkpt lat="43.694912028" lon="11.348491972"><ele>301</ele><time>2020-01-12T08:41:17Z</time></trkpt>
<trkpt lat="43.694928037" lon="11.348524997"><ele>301</ele><time>2020-01-12T08:41:18Z</time></trkpt>
<trkpt lat="43.694948992" lon="11.34855601"><ele>300</ele><time>2020-01-12T08:41:19Z</time></trkpt>
<trkpt lat="43.695028033" lon="11.348650977"><ele>299</ele><time>2020-01-12T08:41:22Z</time></trkpt>
<trkpt lat="43.695053011" lon="11.348686013"><ele>299</ele><time>2020-01-12T08:41:23Z</time></trkpt>
<trkpt lat="43.695074972" lon="11.348724989"><ele>299</ele><time>2020-01-12T08:41:24Z</time></trkpt>
<trkpt lat="43.695093999" lon="11.348764971"><ele>299</ele><time>2020-01-12T08:41:25Z</time></trkpt>
<trkpt lat="43.695106991" lon="11.34880797"><ele>299</ele><time>2020-01-12T08:41:26Z</time></trkpt>
<trkpt lat="43.695115037" lon="11.348849963"><ele>299</ele><time>2020-01-12T08:41:27Z</time></trkpt>
<trkpt lat="43.695116965" lon="11.348891035"><ele>299</ele><time>2020-01-12T08:41:28Z</time></trkpt>
<trkpt lat="43.695113026" lon="11.348930011"><ele>299</ele><time>2020-01-12T08:41:29Z</time></trkpt>
<trkpt lat="43.695104979" lon="11.348967981"><ele>299</ele><time>2020-01-12T08:41:30Z</time></trkpt>
<trkpt lat="43.695097016" lon="11.349005029"><ele>299</ele><time>2020-01-12T08:41:31Z</time></trkpt>
<trkpt lat="43.695089975" lon="11.349041993"><ele>300</ele><time>2020-01-12T08:41:32Z</time></trkpt>
<trkpt lat="43.695087964" lon="11.349079041"><ele>300</ele><time>2020-01-12T08:41:33Z</time></trkpt>
<trkpt lat="43.695091987" lon="11.349116005"><ele>300</ele><time>2020-01-12T08:41:34Z</time></trkpt>
<trkpt lat="43.695103973" lon="11.349151963"><ele>300</ele><time>2020-01-12T08:41:35Z</time></trkpt>
<trkpt lat="43.695120988" lon="11.349182976"><ele>300</ele><time>2020-01-12T08:41:36Z</time></trkpt>
<trkpt lat="43.695142027" lon="11.349207032"><ele>300</ele><time>2020-01-12T08:41:37Z</time></trkpt>
<trkpt lat="43.695167005" lon="11.34922103"><ele>300</ele><time>2020-01-12T08:41:38Z</time></trkpt>
<trkpt lat="43.695193995" lon="11.349228993"><ele>300</ele><time>2020-01-12T08:41:39Z</time></trkpt>
<trkpt lat="43.695224002" lon="11.349229999"><ele>300</ele><time>2020-01-12T08:41:40Z</time></trkpt>
<trkpt lat="43.695255015" lon="11.349227987"><ele>300</ele><time>2020-01-12T08:41:41Z</time></trkpt>
<trkpt lat="43.695287034" lon="11.349223964"><ele>300</ele><time>2020-01-12T08:41:42Z</time></trkpt>
<trkpt lat="43.695318969" lon="11.34922103"><ele>299</ele><time>2020-01-12T08:41:43Z</time></trkpt>
<trkpt lat="43.695350988" lon="11.349218013"><ele>299</ele><time>2020-01-12T08:41:44Z</time></trkpt>
<trkpt lat="43.695384013" lon="11.349217007"><ele>299</ele><time>2020-01-12T08:41:45Z</time></trkpt>
<trkpt lat="43.695416031" lon="11.349218013"><ele>299</ele><time>2020-01-12T08:41:46Z</time></trkpt>
<trkpt lat="43.695447966" lon="11.34922103"><ele>299</ele><time>2020-01-12T08:41:47Z</time></trkpt>
<trkpt lat="43.695478979" lon="11.349226981"><ele>299</ele><time>2020-01-12T08:41:48Z</time></trkpt>
<trkpt lat="43.695508987" lon="11.349233016"><ele>299</ele><time>2020-01-12T08:41:49Z</time></trkpt>
<trkpt lat="43.695538994" lon="11.34923704"><ele>299</ele><time>2020-01-12T08:41:50Z</time></trkpt>
<trkpt lat="43.695591968" lon="11.349228993"><ele>299</ele><time>2020-01-12T08:41:52Z</time></trkpt>
<trkpt lat="43.695616024" lon="11.349211978"><ele>298</ele><time>2020-01-12T08:41:53Z</time></trkpt>
<trkpt lat="43.695636978" lon="11.349189011"><ele>298</ele><time>2020-01-12T08:41:54Z</time></trkpt>
<trkpt lat="43.695657011" lon="11.34916001"><ele>298</ele><time>2020-01-12T08:41:55Z</time></trkpt>
<trkpt lat="43.695676038" lon="11.349128997"><ele>297</ele><time>2020-01-12T08:41:56Z</time></trkpt>
<trkpt lat="43.695693975" lon="11.349097984"><ele>297</ele><time>2020-01-12T08:41:57Z</time></trkpt>
<trkpt lat="43.695710991" lon="11.349066971"><ele>297</ele><time>2020-01-12T08:41:58Z</time></trkpt>
<trkpt lat="43.695727" lon="11.349036042"><ele>297</ele><time>2020-01-12T08:41:59Z</time></trkpt>
<trkpt lat="43.695742004" lon="11.349006034"><ele>297</ele><time>2020-01-12T08:42:00Z</time></trkpt>
<trkpt lat="43.695758013" lon="11.348977033"><ele>296</ele><time>2020-01-12T08:42:01Z</time></trkpt>
<trkpt lat="43.695773017" lon="11.34894996"><ele>296</ele><time>2020-01-12T08:42:02Z</time></trkpt>
<trkpt lat="43.69578802" lon="11.348923976"><ele>296</ele><time>2020-01-12T08:42:03Z</time></trkpt>
<trkpt lat="43.695803024" lon="11.348900003"><ele>296</ele><time>2020-01-12T08:42:04Z</time></trkpt>
<trkpt lat="43.695819033" lon="11.348878965"><ele>296</ele><time>2020-01-12T08:42:05Z</time></trkpt>
<trkpt lat="43.695834959" lon="11.348860022"><ele>296</ele><time>2020-01-12T08:42:06Z</time></trkpt>
<trkpt lat="43.695851974" lon="11.348844012"><ele>296</ele><time>2020-01-12T08:42:07Z</time></trkpt>
<trkpt lat="43.695869995" lon="11.348830014"><ele>296</ele><time>2020-01-12T08:42:08Z</time></trkpt>
<trkpt lat="43.695888016" lon="11.348819034"><ele>296</ele><time>2020-01-12T08:42:09Z</time></trkpt>
<trkpt lat="43.695906037" lon="11.348809982"><ele>296</ele><time>2020-01-12T08:42:10Z</time></trkpt>
<trkpt lat="43.695924981" lon="11.348802019"><ele>296</ele><time>2020-01-12T08:42:11Z</time></trkpt>
<trkpt lat="43.695944007" lon="11.348795984"><ele>297</ele><time>2020-01-12T08:42:12Z</time></trkpt>
<trkpt lat="43.695962029" lon="11.348791039"><ele>297</ele><time>2020-01-12T08:42:13Z</time></trkpt>
<trkpt lat="43.695979966" lon="11.348787015"><ele>297</ele><time>2020-01-12T08:42:14Z</time></trkpt>
<trkpt lat="43.695997987" lon="11.348783998"><ele>297</ele><time>2020-01-12T08:42:15Z</time></trkpt>
<trkpt lat="43.696016008" lon="11.34878098"><ele>298</ele><time>2020-01-12T08:42:16Z</time></trkpt>
<trkpt lat="43.696033023" lon="11.348777963"><ele>298</ele><time>2020-01-12T08:42:17Z</time></trkpt>
<trkpt lat="43.696049033" lon="11.348775029"><ele>298</ele><time>2020-01-12T08:42:18Z</time></trkpt>
<trkpt lat="43.696064958" lon="11.348773018"><ele>298</ele><time>2020-01-12T08:42:19Z</time></trkpt>
<trkpt lat="43.696081974" lon="11.34877"><ele>298</ele><time>2020-01-12T08:42:20Z</time></trkpt>
<trkpt lat="43.696096977" lon="11.348766983"><ele>298</ele><time>2020-01-12T08:42:21Z</time></trkpt>
<trkpt lat="43.696112987" lon="11.348763965"><ele>299</ele><time>2020-01-12T08:42:22Z</time></trkpt>
<trkpt lat="43.696128996" lon="11.348761031"><ele>299</ele><time>2020-01-12T08:42:23Z</time></trkpt>
<trkpt lat="43.696145006" lon="11.348757008"><ele>299</ele><time>2020-01-12T08:42:24Z</time></trkpt>
<trkpt lat="43.696161015" lon="11.348751979"><ele>299</ele><time>2020-01-12T08:42:25Z</time></trkpt>
<trkpt lat="43.696177024" lon="11.348747034"><ele>299</ele><time>2020-01-12T08:42:26Z</time></trkpt>
<trkpt lat="43.69619404" lon="11.348740999"><ele>300</ele><time>2020-01-12T08:42:27Z</time></trkpt>
<trkpt lat="43.696209965" lon="11.348734964"><ele>300</ele><time>2020-01-12T08:42:28Z</time></trkpt>
<trkpt lat="43.696226981" lon="11.348729013"><ele>300</ele><time>2020-01-12T08:42:29Z</time></trkpt>
<trkpt lat="43.696243996" lon="11.348721972"><ele>300</ele><time>2020-01-12T08:42:30Z</time></trkpt>
<trkpt lat="43.696261011" lon="11.348715015"><ele>300</ele><time>2020-01-12T08:42:31Z</time></trkpt>
<trkpt lat="43.696311973" lon="11.348693976"><ele>301</ele><time>2020-01-12T08:42:34Z</time></trkpt>
<trkpt lat="43.696328988" lon="11.348687019"><ele>301</ele><time>2020-01-12T08:42:35Z</time></trkpt>
<trkpt lat="43.696346004" lon="11.348679978"><ele>301</ele><time>2020-01-12T08:42:36Z</time></trkpt>
<trkpt lat="43.696364025" lon="11.348674027"><ele>301</ele><time>2020-01-12T08:42:37Z</time></trkpt>
<trkpt lat="43.69638104" lon="11.348667992"><ele>301</ele><time>2020-01-12T08:42:38Z</time></trkpt>
<trkpt lat="43.696397971" lon="11.348662041"><ele>302</ele><time>2020-01-12T08:42:39Z</time></trkpt>
<trkpt lat="43.696414987" lon="11.348656006"><ele>302</ele><time>2020-01-12T08:42:40Z</time></trkpt>
<trkpt lat="43.696432002" lon="11.348649971"><ele>302</ele><time>2020-01-12T08:42:41Z</time></trkpt>
<trkpt lat="43.696450023" lon="11.34864402"><ele>302</ele><time>2020-01-12T08:42:42Z</time></trkpt>
<trkpt lat="43.696467038" lon="11.348638991"><ele>302</ele><time>2020-01-12T08:42:43Z</time></trkpt>
<trkpt lat="43.69648397" lon="11.34863304"><ele>302</ele><time>2020-01-12T08:42:44Z</time></trkpt>
<trkpt lat="43.696536021" lon="11.348618036"><ele>303</ele><time>2020-01-12T08:42:47Z</time></trkpt>
<trkpt lat="43.696553037" lon="11.348613007"><ele>303</ele><time>2020-01-12T08:42:48Z</time></trkpt>
<trkpt lat="43.696568962" lon="11.348607978"><ele>303</ele><time>2020-01-12T08:42:49Z</time></trkpt>
<trkpt lat="43.696585977" lon="11.348603033"><ele>303</ele><time>2020-01-12T08:42:50Z</time></trkpt>
<trkpt lat="43.696601987" lon="11.348598003"><ele>304</ele><time>2020-01-12T08:42:51Z</time></trkpt>
<trkpt lat="43.696619002" lon="11.348592974"><ele>304</ele><time>2020-01-12T08:42:52Z</time></trkpt>
<trkpt lat="43.696634006" lon="11.348589035"><ele>304</ele><time>2020-01-12T08:42:53Z</time></trkpt>
<trkpt lat="43.696650015" lon="11.348584006"><ele>304</ele><time>2020-01-12T08:42:54Z</time></trkpt>
<trkpt lat="43.696665019" lon="11.348578976"><ele>304</ele><time>2020-01-12T08:42:55Z</time></trkpt>
<trkpt lat="43.696679017" lon="11.348575037"><ele>304</ele><time>2020-01-12T08:42:56Z</time></trkpt>
<trkpt lat="43.69669402" lon="11.348570008"><ele>304</ele><time>2020-01-12T08:42:57Z</time></trkpt>
<trkpt lat="43.69671003" lon="11.348564979"><ele>304</ele><time>2020-01-12T08:42:58Z</time></trkpt>
<trkpt lat="43.696726039" lon="11.348561039"><ele>304</ele><time>2020-01-12T08:42:59Z</time></trkpt>
<trkpt lat="43.696741965" lon="11.34855601"><ele>304</ele><time>2020-01-12T08:43:00Z</time></trkpt>
<trkpt lat="43.69675898" lon="11.348552993"><ele>304</ele><time>2020-01-12T08:43:01Z</time></trkpt>
<trkpt lat="43.696775995" lon="11.348550981"><ele>304</ele><time>2020-01-12T08:43:02Z</time></trkpt>
<trkpt lat="43.69679301" lon="11.348552993"><ele>304</ele><time>2020-01-12T08:43:03Z</time></trkpt>
<trkpt lat="43.696808014" lon="11.348560033"><ele>304</ele><time>2020-01-12T08:43:04Z</time></trkpt>
<trkpt lat="43.696821006" lon="11.348572019"><ele>304</ele><time>2020-01-12T08:43:05Z</time></trkpt>
<trkpt lat="43.696833998" lon="11.348588029"><ele>304</ele><time>2020-01-12T08:43:06Z</time></trkpt>
<trkpt lat="43.696843972" lon="11.348607978"><ele>304</ele><time>2020-01-12T08:43:07Z</time></trkpt>
<trkpt lat="43.696854031" lon="11.348632034"><ele>304</ele><time>2020-01-12T08:43:08Z</time></trkpt>
<trkpt lat="43.696861994" lon="11.348658018"><ele>304</ele><time>2020-01-12T08:43:09Z</time></trkpt>
<trkpt lat="43.696868028" lon="11.348685008"><ele>305</ele><time>2020-01-12T08:43:10Z</time></trkpt>
<trkpt lat="43.69687398" lon="11.348713003"><ele>305</ele><time>2020-01-12T08:43:11Z</time></trkpt>
<trkpt lat="43.696879009" lon="11.348742004"><ele>305</ele><time>2020-01-12T08:43:12Z</time></trkpt>
<trkpt lat="43.696882026" lon="11.348768994"><ele>305</ele><time>2020-01-12T08:43:13Z</time></trkpt>
<trkpt lat="43.69688496" lon="11.348794978"><ele>306</ele><time>2020-01-12T08:43:14Z</time></trkpt>
<trkpt lat="43.696886972" lon="11.34882004"><ele>306</ele><time>2020-01-12T08:43:15Z</time></trkpt>
<trkpt lat="43.696888983" lon="11.348844012"><ele>306</ele><time>2020-01-12T08:43:16Z</time></trkpt>
<trkpt lat="43.696889989" lon="11.348866979"><ele>306</ele><time>2020-01-12T08:43:17Z</time></trkpt>
<trkpt lat="43.696889989" lon="11.348889023"><ele>306</ele><time>2020-01-12T08:43:18Z</time></trkpt>
<trkpt lat="43.696890995" lon="11.348910984"><ele>307</ele><time>2020-01-12T08:43:19Z</time></trkpt>
<trkpt lat="43.696890995" lon="11.348933028"><ele>307</ele><time>2020-01-12T08:43:20Z</time></trkpt>
<trkpt lat="43.696892001" lon="11.348955994"><ele>307</ele><time>2020-01-12T08:43:21Z</time></trkpt>
<trkpt lat="43.696893007" lon="11.348978961"><ele>307</ele><time>2020-01-12T08:43:22Z</time></trkpt>
<trkpt lat="43.696894012" lon="11.349003017"><ele>308</ele><time>2020-01-12T08:43:23Z</time></trkpt>
<trkpt lat="43.696896024" lon="11.349026989"><ele>308</ele><time>2020-01-12T08:43:24Z</time></trkpt>
<trkpt lat="43.696898036" lon="11.349052973"><ele>308</ele><time>2020-01-12T08:43:25Z</time></trkpt>
<trkpt lat="43.696899964" lon="11.349079963"><ele>308</ele><time>2020-01-12T08:43:26Z</time></trkpt>
<trkpt lat="43.696902981" lon="11.349107036"><ele>308</ele><time>2020-01-12T08:43:27Z</time></trkpt>
<trkpt lat="43.696905999" lon="11.349134026"><ele>309</ele><time>2020-01-12T08:43:28Z</time></trkpt>
<trkpt lat="43.696909016" lon="11.349163027"><ele>309</ele><time>2020-01-12T08:43:29Z</time></trkpt>
<trkpt lat="43.696911028" lon="11.349191023"><ele>309</ele><time>2020-01-12T08:43:30Z</time></trkpt>
<trkpt lat="43.696913961" lon="11.349219019"><ele>310</ele><time>2020-01-12T08:43:31Z</time></trkpt>
<trkpt lat="43.696915973" lon="11.34924802"><ele>310</ele><time>2020-01-12T08:43:32Z</time></trkpt>
<trkpt lat="43.696917985" lon="11.349276016"><ele>310</ele><time>2020-01-12T08:43:33Z</time></trkpt>
<trkpt lat="43.696919996" lon="11.349304011"><ele>311</ele><time>2020-01-12T08:43:34Z</time></trkpt>
<trkpt lat="43.696921002" lon="11.349332007"><ele>311</ele><time>2020-01-12T08:43:35Z</time></trkpt>
<trkpt lat="43.696922008" lon="11.349360002"><ele>311</ele><time>2020-01-12T08:43:36Z</time></trkpt>
<trkpt lat="43.696923014" lon="11.349387998"><ele>311</ele><time>2020-01-12T08:43:37Z</time></trkpt>
<trkpt lat="43.696923014" lon="11.349414987"><ele>312</ele><time>2020-01-12T08:43:38Z</time></trkpt>
<trkpt lat="43.69692402" lon="11.349441977"><ele>312</ele><time>2020-01-12T08:43:39Z</time></trkpt>
<trkpt lat="43.69692402" lon="11.349521019"><ele>313</ele><time>2020-01-12T08:43:42Z</time></trkpt>
<trkpt lat="43.69692402" lon="11.349545997"><ele>313</ele><time>2020-01-12T08:43:43Z</time></trkpt>
<trkpt lat="43.69692402" lon="11.349570975"><ele>313</ele><time>2020-01-12T08:43:44Z</time></trkpt>
<trkpt lat="43.696925025" lon="11.349595031"><ele>314</ele><time>2020-01-12T08:43:45Z</time></trkpt>
<trkpt lat="43.696925025" lon="11.349619003"><ele>314</ele><time>2020-01-12T08:43:46Z</time></trkpt>
<trkpt lat="43.696925025" lon="11.349642975"><ele>314</ele><time>2020-01-12T08:43:47Z</time></trkpt>
<trkpt lat="43.696926031" lon="11.349667031"><ele>314</ele><time>2020-01-12T08:43:48Z</time></trkpt>
<trkpt lat="43.696927037" lon="11.349689998"><ele>315</ele><time>2020-01-12T08:43:49Z</time></trkpt>
<trkpt lat="43.696927959" lon="11.349712964"><ele>315</ele><time>2020-01-12T08:43:50Z</time></trkpt>
<trkpt lat="43.696928965" lon="11.349735009"><ele>315</ele><time>2020-01-12T08:43:51Z</time></trkpt>
<trkpt lat="43.696929971" lon="11.349757975"><ele>315</ele><time>2020-01-12T08:43:52Z</time></trkpt>
<trkpt lat="43.696931982" lon="11.349780019"><ele>316</ele><time>2020-01-12T08:43:53Z</time></trkpt>
<trkpt lat="43.696933994" lon="11.34980198"><ele>316</ele><time>2020-01-12T08:43:54Z</time></trkpt>
<trkpt lat="43.696936006" lon="11.349824024"><ele>316</ele><time>2020-01-12T08:43:55Z</time></trkpt>
<trkpt lat="43.696938017" lon="11.349845985"><ele>316</ele><time>2020-01-12T08:43:56Z</time></trkpt>
<trkpt lat="43.696941035" lon="11.349868029"><ele>317</ele><time>2020-01-12T08:43:57Z</time></trkpt>
<trkpt lat="43.696942963" lon="11.34988999"><ele>317</ele><time>2020-01-12T08:43:58Z</time></trkpt>
<trkpt lat="43.69694598" lon="11.349911029"><ele>317</ele><time>2020-01-12T08:43:59Z</time></trkpt>
<trkpt lat="43.696947992" lon="11.349932989"><ele>317</ele><time>2020-01-12T08:44:00Z</time></trkpt>
<trkpt lat="43.696951009" lon="11.349955034"><ele>318</ele><time>2020-01-12T08:44:01Z</time></trkpt>
<trkpt lat="43.696954027" lon="11.349976994"><ele>318</ele><time>2020-01-12T08:44:02Z</time></trkpt>
<trkpt lat="43.696956038" lon="11.349999039"><ele>318</ele><time>2020-01-12T08:44:03Z</time></trkpt>
<trkpt lat="43.696958972" lon="11.350022005"><ele>318</ele><time>2020-01-12T08:44:04Z</time></trkpt>
<trkpt lat="43.69696199" lon="11.350043966"><ele>318</ele><time>2020-01-12T08:44:05Z</time></trkpt>
<trkpt lat="43.696964001" lon="11.350067016"><ele>319</ele><time>2020-01-12T08:44:06Z</time></trkpt>
<trkpt lat="43.696967019" lon="11.350089982"><ele>319</ele><time>2020-01-12T08:44:07Z</time></trkpt>
<trkpt lat="43.69696903" lon="11.350113032"><ele>319</ele><time>2020-01-12T08:44:08Z</time></trkpt>
<trkpt lat="43.696970958" lon="11.350137005"><ele>319</ele><time>2020-01-12T08:44:09Z</time></trkpt>
<trkpt lat="43.69697297" lon="11.350160977"><ele>319</ele><time>2020-01-12T08:44:10Z</time></trkpt>
<trkpt lat="43.696974982" lon="11.350185033"><ele>320</ele><time>2020-01-12T08:44:11Z</time></trkpt>
<trkpt lat="43.696976993" lon="11.350210011"><ele>320</ele><time>2020-01-12T08:44:12Z</time></trkpt>
<trkpt lat="43.696979005" lon="11.350233983"><ele>320</ele><time>2020-01-12T08:44:13Z</time></trkpt>
<trkpt lat="43.696981017" lon="11.350258961"><ele>320</ele><time>2020-01-12T08:44:14Z</time></trkpt>
<trkpt lat="43.696983028" lon="11.350283017"><ele>320</ele><time>2020-01-12T08:44:15Z</time></trkpt>
<trkpt lat="43.696985962" lon="11.350305984"><ele>320</ele><time>2020-01-12T08:44:16Z</time></trkpt>
<trkpt lat="43.696989985" lon="11.350329034"><ele>321</ele><time>2020-01-12T08:44:17Z</time></trkpt>
<trkpt lat="43.696993003" lon="11.350352"><ele>321</ele><time>2020-01-12T08:44:18Z</time></trkpt>
<trkpt lat="43.696997026" lon="11.350373961"><ele>321</ele><time>2020-01-12T08:44:19Z</time></trkpt>
<trkpt lat="43.69699996" lon="11.350396005"><ele>321</ele><time>2020-01-12T08:44:20Z</time></trkpt>
<trkpt lat="43.697002977" lon="11.350417966"><ele>321</ele><time>2020-01-12T08:44:21Z</time></trkpt>
<trkpt lat="43.697005995" lon="11.35044001"><ele>322</ele><time>2020-01-12T08:44:22Z</time></trkpt>
<trkpt lat="43.697008006" lon="11.350460965"><ele>322</ele><time>2020-01-12T08:44:23Z</time></trkpt>
<trkpt lat="43.697010018" lon="11.35048301"><ele>322</ele><time>2020-01-12T08:44:24Z</time></trkpt>
<trkpt lat="43.69701203" lon="11.350503964"><ele>322</ele><time>2020-01-12T08:44:25Z</time></trkpt>
<trkpt lat="43.697014963" lon="11.350525003"><ele>322</ele><time>2020-01-12T08:44:26Z</time></trkpt>
<trkpt lat="43.697016975" lon="11.350546042"><ele>322</ele><time>2020-01-12T08:44:27Z</time></trkpt>
<trkpt lat="43.697018987" lon="11.350566996"><ele>323</ele><time>2020-01-12T08:44:28Z</time></trkpt>
<trkpt lat="43.697022004" lon="11.350588035"><ele>323</ele><time>2020-01-12T08:44:29Z</time></trkpt>
<trkpt lat="43.697024016" lon="11.35060899"><ele>323</ele><time>2020-01-12T08:44:30Z</time></trkpt>
<trkpt lat="43.697028039" lon="11.350629022"><ele>323</ele><time>2020-01-12T08:44:31Z</time></trkpt>
<trkpt lat="43.697031979" lon="11.350648971"><ele>323</ele><time>2020-01-12T08:44:32Z</time></trkpt>
<trkpt lat="43.697037008" lon="11.350669004"><ele>323</ele><time>2020-01-12T08:44:33Z</time></trkpt>
<trkpt lat="43.697042037" lon="11.350688031"><ele>324</ele><time>2020-01-12T08:44:34Z</time></trkpt>
<trkpt lat="43.697048994" lon="11.350706974"><ele>324</ele><time>2020-01-12T08:44:35Z</time></trkpt>
<trkpt lat="43.697057962" lon="11.350724995"><ele>324</ele><time>2020-01-12T08:44:36Z</time></trkpt>
<trkpt lat="43.697067015" lon="11.350741005"><ele>324</ele><time>2020-01-12T08:44:37Z</time></trkpt>
<trkpt lat="43.697079001" lon="11.350757014"><ele>324</ele><time>2020-01-12T08:44:38Z</time></trkpt>
<trkpt lat="43.697091993" lon="11.350772018"><ele>325</ele><time>2020-01-12T08:44:39Z</time></trkpt>
<trkpt lat="43.697108002" lon="11.350786015"><ele>325</ele><time>2020-01-12T08:44:40Z</time></trkpt>
<trkpt lat="43.697125018" lon="11.350798002"><ele>325</ele><time>2020-01-12T08:44:41Z</time></trkpt>
<trkpt lat="43.697143039" lon="11.350809988"><ele>325</ele><time>2020-01-12T08:44:42Z</time></trkpt>
<trkpt lat="43.697162988" lon="11.350821974"><ele>326</ele><time>2020-01-12T08:44:43Z</time></trkpt>
<trkpt lat="43.69718302" lon="11.350833038"><ele>326</ele><time>2020-01-12T08:44:44Z</time></trkpt>
<trkpt lat="43.697203975" lon="11.350845024"><ele>326</ele><time>2020-01-12T08:44:45Z</time></trkpt>
<trkpt lat="43.697224008" lon="11.350858016"><ele>327</ele><time>2020-01-12T08:44:46Z</time></trkpt>
<trkpt lat="43.697244963" lon="11.350871008"><ele>327</ele><time>2020-01-12T08:44:47Z</time></trkpt>
<trkpt lat="43.697264995" lon="11.350885006"><ele>327</ele><time>2020-01-12T08:44:48Z</time></trkpt>
<trkpt lat="43.697284022" lon="11.350901015"><ele>327</ele><time>2020-01-12T08:44:49Z</time></trkpt>
<trkpt lat="43.69730196" lon="11.350916019"><ele>327</ele><time>2020-01-12T08:44:50Z</time></trkpt>
<trkpt lat="43.697318975" lon="11.350929011"><ele>328</ele><time>2020-01-12T08:44:51Z</time></trkpt>
<trkpt lat="43.697334984" lon="11.350939991"><ele>328</ele><time>2020-01-12T08:44:52Z</time></trkpt>
<trkpt lat="43.697349988" lon="11.35094502"><ele>328</ele><time>2020-01-12T08:44:53Z</time></trkpt>
<trkpt lat="43.697364992" lon="11.350944014"><ele>328</ele><time>2020-01-12T08:44:54Z</time></trkpt>
<trkpt lat="43.697377983" lon="11.350935968"><ele>328</ele><time>2020-01-12T08:44:55Z</time></trkpt>
<trkpt lat="43.697390975" lon="11.35092197"><ele>328</ele><time>2020-01-12T08:44:56Z</time></trkpt>
<trkpt lat="43.69740204" lon="11.350903027"><ele>328</ele><time>2020-01-12T08:44:57Z</time></trkpt>
<trkpt lat="43.697420983" lon="11.350847036"><ele>328</ele><time>2020-01-12T08:44:59Z</time></trkpt>
<trkpt lat="43.697430035" lon="11.350813005"><ele>328</ele><time>2020-01-12T08:45:00Z</time></trkpt>
<trkpt lat="43.69744001" lon="11.350776041"><ele>328</ele><time>2020-01-12T08:45:01Z</time></trkpt>
<trkpt lat="43.69745099" lon="11.350736981"><ele>328</ele><time>2020-01-12T08:45:02Z</time></trkpt>
<trkpt lat="43.697464988" lon="11.350697"><ele>328</ele><time>2020-01-12T08:45:03Z</time></trkpt>
<trkpt lat="43.697482003" lon="11.35065903"><ele>327</ele><time>2020-01-12T08:45:04Z</time></trkpt>
<trkpt lat="43.697502036" lon="11.35061997"><ele>327</ele><time>2020-01-12T08:45:05Z</time></trkpt>
<trkpt lat="43.697523996" lon="11.350582"><ele>327</ele><time>2020-01-12T08:45:06Z</time></trkpt>
<trkpt lat="43.697546963" lon="11.35054403"><ele>326</ele><time>2020-01-12T08:45:07Z</time></trkpt>
<trkpt lat="43.697571019" lon="11.35050497"><ele>326</ele><time>2020-01-12T08:45:08Z</time></trkpt>
<trkpt lat="43.697593985" lon="11.350464988"><ele>325</ele><time>2020-01-12T08:45:09Z</time></trkpt>
<trkpt lat="43.697617035" lon="11.350425007"><ele>325</ele><time>2020-01-12T08:45:10Z</time></trkpt>
<trkpt lat="43.697641008" lon="11.350384019"><ele>324</ele><time>2020-01-12T08:45:11Z</time></trkpt>
<trkpt lat="43.69766498" lon="11.350344038"><ele>323</ele><time>2020-01-12T08:45:12Z</time></trkpt>
<trkpt lat="43.697689036" lon="11.350303972"><ele>323</ele><time>2020-01-12T08:45:13Z</time></trkpt>
<trkpt lat="43.697713008" lon="11.35026399"><ele>322</ele><time>2020-01-12T08:45:14Z</time></trkpt>
<trkpt lat="43.697737986" lon="11.350225015"><ele>322</ele><time>2020-01-12T08:45:15Z</time></trkpt>
<trkpt lat="43.697762964" lon="11.350186039"><ele>321</ele><time>2020-01-12T08:45:16Z</time></trkpt>
<trkpt lat="43.697788026" lon="11.350148991"><ele>321</ele><time>2020-01-12T08:45:17Z</time></trkpt>
<trkpt lat="43.69781401" lon="11.350113032"><ele>320</ele><time>2020-01-12T08:45:18Z</time></trkpt>
<trkpt lat="43.697839994" lon="11.35007699"><ele>319</ele><time>2020-01-12T08:45:19Z</time></trkpt>
<trkpt lat="43.697865978" lon="11.35004296"><ele>319</ele><time>2020-01-12T08:45:20Z</time></trkpt>
<trkpt lat="43.697892968" lon="11.350009013"><ele>318</ele><time>2020-01-12T08:45:21Z</time></trkpt>
<trkpt lat="43.697920041" lon="11.349975988"><ele>318</ele><time>2020-01-12T08:45:22Z</time></trkpt>
<trkpt lat="43.697947031" lon="11.349943969"><ele>317</ele><time>2020-01-12T08:45:23Z</time></trkpt>
<trkpt lat="43.697975026" lon="11.349912034"><ele>317</ele><time>2020-01-12T08:45:24Z</time></trkpt>
<trkpt lat="43.698002016" lon="11.349880015"><ele>316</ele><time>2020-01-12T08:45:25Z</time></trkpt>
<trkpt lat="43.698030012" lon="11.349846991"><ele>316</ele><time>2020-01-12T08:45:26Z</time></trkpt>
<trkpt lat="43.698057001" lon="11.349814972"><ele>315</ele><time>2020-01-12T08:45:27Z</time></trkpt>
<trkpt lat="43.698084997" lon="11.349783037"><ele>315</ele><time>2020-01-12T08:45:28Z</time></trkpt>
<trkpt lat="43.698111987" lon="11.349751018"><ele>314</ele><time>2020-01-12T08:45:29Z</time></trkpt>
<trkpt lat="43.698138976" lon="11.349717993"><ele>314</ele><time>2020-01-12T08:45:30Z</time></trkpt>
<trkpt lat="43.698165966" lon="11.349684969"><ele>313</ele><time>2020-01-12T08:45:31Z</time></trkpt>
<trkpt lat="43.69819304" lon="11.349652028"><ele>313</ele><time>2020-01-12T08:45:32Z</time></trkpt>
<trkpt lat="43.698219024" lon="11.349619003"><ele>312</ele><time>2020-01-12T08:45:33Z</time></trkpt>
<trkpt lat="43.698245008" lon="11.349585978"><ele>312</ele><time>2020-01-12T08:45:34Z</time></trkpt>
<trkpt lat="43.698270991" lon="11.349553037"><ele>312</ele><time>2020-01-12T08:45:35Z</time></trkpt>
<trkpt lat="43.69829597" lon="11.349519007"><ele>311</ele><time>2020-01-12T08:45:36Z</time></trkpt>
<trkpt lat="43.698320026" lon="11.349484976"><ele>311</ele><time>2020-01-12T08:45:37Z</time></trkpt>
<trkpt lat="43.69839102" lon="11.349381963"><ele>309</ele><time>2020-01-12T08:45:40Z</time></trkpt>
<trkpt lat="43.698412981" lon="11.34934701"><ele>309</ele><time>2020-01-12T08:45:41Z</time></trkpt>
<trkpt lat="43.698435025" lon="11.349310968"><ele>308</ele><time>2020-01-12T08:45:42Z</time></trkpt>
<trkpt lat="43.698456986" lon="11.349274004"><ele>308</ele><time>2020-01-12T08:45:43Z</time></trkpt>
<trkpt lat="43.69847903" lon="11.34923704"><ele>307</ele><time>2020-01-12T08:45:44Z</time></trkpt>
<trkpt lat="43.698499985" lon="11.349199992"><ele>307</ele><time>2020-01-12T08:45:45Z</time></trkpt>
<trkpt lat="43.698521024" lon="11.349161016"><ele>306</ele><time>2020-01-12T08:45:46Z</time></trkpt>
<trkpt lat="43.698540973" lon="11.34912204"><ele>306</ele><time>2020-01-12T08:45:47Z</time></trkpt>
<trkpt lat="43.698562011" lon="11.34908298"><ele>305</ele><time>2020-01-12T08:45:48Z</time></trkpt>
<trkpt lat="43.69858196" lon="11.349042999"><ele>305</ele><time>2020-01-12T08:45:49Z</time></trkpt>
<trkpt lat="43.698602999" lon="11.349003017"><ele>304</ele><time>2020-01-12T08:45:50Z</time></trkpt>
<trkpt lat="43.698624037" lon="11.348963035"><ele>304</ele><time>2020-01-12T08:45:51Z</time></trkpt>
<trkpt lat="43.698644992" lon="11.34892297"><ele>303</ele><time>2020-01-12T08:45:52Z</time></trkpt>
<trkpt lat="43.698667036" lon="11.348882988"><ele>303</ele><time>2020-01-12T08:45:53Z</time></trkpt>
<trkpt lat="43.698688997" lon="11.348844012"><ele>303</ele><time>2020-01-12T08:45:54Z</time></trkpt>
<trkpt lat="43.698711041" lon="11.348805036"><ele>302</ele><time>2020-01-12T08:45:55Z</time></trkpt>
<trkpt lat="43.698734008" lon="11.348767988"><ele>302</ele><time>2020-01-12T08:45:56Z</time></trkpt>
<trkpt lat="43.69875798" lon="11.348730018"><ele>301</ele><time>2020-01-12T08:45:57Z</time></trkpt>
<trkpt lat="43.69878103" lon="11.348693976"><ele>301</ele><time>2020-01-12T08:45:58Z</time></trkpt>
<trkpt lat="43.698805002" lon="11.348657012"><ele>301</ele><time>2020-01-12T08:45:59Z</time></trkpt>
<trkpt lat="43.698827969" lon="11.34862097"><ele>301</ele><time>2020-01-12T08:46:00Z</time></trkpt>
<trkpt lat="43.698850013" lon="11.348585011"><ele>300</ele><time>2020-01-12T08:46:01Z</time></trkpt>
<trkpt lat="43.698871974" lon="11.348547963"><ele>300</ele><time>2020-01-12T08:46:02Z</time></trkpt>
<trkpt lat="43.698893012" lon="11.348510999"><ele>300</ele><time>2020-01-12T08:46:03Z</time></trkpt>
<trkpt lat="43.698912961" lon="11.348474035"><ele>300</ele><time>2020-01-12T08:46:04Z</time></trkpt>
<trkpt lat="43.698932994" lon="11.348435981"><ele>299</ele><time>2020-01-12T08:46:05Z</time></trkpt>
<trkpt lat="43.698952021" lon="11.348397005"><ele>299</ele><time>2020-01-12T08:46:06Z</time></trkpt>
<trkpt lat="43.698970964" lon="11.348358029"><ele>299</ele><time>2020-01-12T08:46:07Z</time></trkpt>
<trkpt lat="43.698988985" lon="11.348317964"><ele>299</ele><time>2020-01-12T08:46:08Z</time></trkpt>
<trkpt lat="43.699008012" lon="11.348277982"><ele>299</ele><time>2020-01-12T08:46:09Z</time></trkpt>
<trkpt lat="43.699027039" lon="11.348238001"><ele>299</ele><time>2020-01-12T08:46:10Z</time></trkpt>
<trkpt lat="43.699045982" lon="11.348198019"><ele>299</ele><time>2020-01-12T08:46:11Z</time></trkpt>
<trkpt lat="43.699066015" lon="11.348158959"><ele>298</ele><time>2020-01-12T08:46:12Z</time></trkpt>
<trkpt lat="43.699085964" lon="11.348118978"><ele>298</ele><time>2020-01-12T08:46:13Z</time></trkpt>
<trkpt lat="43.699108008" lon="11.348080002"><ele>298</ele><time>2020-01-12T08:46:14Z</time></trkpt>
<trkpt lat="43.699129969" lon="11.348041026"><ele>298</ele><time>2020-01-12T08:46:15Z</time></trkpt>
<trkpt lat="43.699154025" lon="11.348002972"><ele>298</ele><time>2020-01-12T08:46:16Z</time></trkpt>
<trkpt lat="43.699177997" lon="11.347966008"><ele>298</ele><time>2020-01-12T08:46:17Z</time></trkpt>
<trkpt lat="43.699202975" lon="11.34792896"><ele>298</ele><time>2020-01-12T08:46:18Z</time></trkpt>
<trkpt lat="43.699228959" lon="11.347894007"><ele>297</ele><time>2020-01-12T08:46:19Z</time></trkpt>
<trkpt lat="43.699255027" lon="11.347859977"><ele>297</ele><time>2020-01-12T08:46:20Z</time></trkpt>
<trkpt lat="43.699282017" lon="11.347827036"><ele>297</ele><time>2020-01-12T08:46:21Z</time></trkpt>
<trkpt lat="43.699310012" lon="11.347795017"><ele>297</ele><time>2020-01-12T08:46:22Z</time></trkpt>
<trkpt lat="43.699338008" lon="11.347766016"><ele>296</ele><time>2020-01-12T08:46:23Z</time></trkpt>
<trkpt lat="43.699366003" lon="11.34773802"><ele>296</ele><time>2020-01-12T08:46:24Z</time></trkpt>
<trkpt lat="43.699393999" lon="11.34771103"><ele>296</ele><time>2020-01-12T08:46:25Z</time></trkpt>
<trkpt lat="43.699423" lon="11.347684963"><ele>296</ele><time>2020-01-12T08:46:26Z</time></trkpt>
<trkpt lat="43.699452002" lon="11.34766099"><ele>295</ele><time>2020-01-12T08:46:27Z</time></trkpt>
<trkpt lat="43.699482009" lon="11.347637018"><ele>295</ele><time>2020-01-12T08:46:28Z</time></trkpt>
<trkpt lat="43.699512016" lon="11.347612962"><ele>295</ele><time>2020-01-12T08:46:29Z</time></trkpt>
<trkpt lat="43.699542023" lon="11.34758899"><ele>295</ele><time>2020-01-12T08:46:30Z</time></trkpt>
<trkpt lat="43.69957203" lon="11.347565018"><ele>294</ele><time>2020-01-12T08:46:31Z</time></trkpt>
<trkpt lat="43.69960296" lon="11.34754004"><ele>294</ele><time>2020-01-12T08:46:32Z</time></trkpt>
<trkpt lat="43.699633973" lon="11.347514978"><ele>294</ele><time>2020-01-12T08:46:33Z</time></trkpt>
<trkpt lat="43.699665992" lon="11.347487988"><ele>294</ele><time>2020-01-12T08:46:34Z</time></trkpt>
<trkpt lat="43.699697005" lon="11.347460998"><ele>293</ele><time>2020-01-12T08:46:35Z</time></trkpt>
<trkpt lat="43.699730029" lon="11.347431997"><ele>293</ele><time>2020-01-12T08:46:36Z</time></trkpt>
<trkpt lat="43.699761964" lon="11.347402995"><ele>292</ele><time>2020-01-12T08:46:37Z</time></trkpt>
<trkpt lat="43.699793983" lon="11.347373994"><ele>292</ele><time>2020-01-12T08:46:38Z</time></trkpt>
<trkpt lat="43.699827008" lon="11.347344993"><ele>292</ele><time>2020-01-12T08:46:39Z</time></trkpt>
<trkpt lat="43.699859027" lon="11.347316997"><ele>291</ele><time>2020-01-12T08:46:40Z</time></trkpt>
<trkpt lat="43.699891968" lon="11.347287996"><ele>291</ele><time>2020-01-12T08:46:41Z</time></trkpt>
<trkpt lat="43.699923987" lon="11.347261006"><ele>290</ele><time>2020-01-12T08:46:42Z</time></trkpt>
<trkpt lat="43.699957011" lon="11.347234016"><ele>290</ele><time>2020-01-12T08:46:43Z</time></trkpt>
<trkpt lat="43.69998903" lon="11.347208032"><ele>290</ele><time>2020-01-12T08:46:44Z</time></trkpt>
<trkpt lat="43.700020965" lon="11.34718297"><ele>289</ele><time>2020-01-12T08:46:45Z</time></trkpt>
<trkpt lat="43.700052984" lon="11.347158998"><ele>289</ele><time>2020-01-12T08:46:46Z</time></trkpt>
<trkpt lat="43.700085003" lon="11.347135026"><ele>289</ele><time>2020-01-12T08:46:47Z</time></trkpt>
<trkpt lat="43.700117022" lon="11.347111976"><ele>289</ele><time>2020-01-12T08:46:48Z</time></trkpt>
<trkpt lat="43.700149041" lon="11.347090015"><ele>288</ele><time>2020-01-12T08:46:49Z</time></trkpt>
<trkpt lat="43.70017997" lon="11.347068977"><ele>288</ele><time>2020-01-12T08:46:50Z</time></trkpt>
<trkpt lat="43.700211989" lon="11.347048022"><ele>288</ele><time>2020-01-12T08:46:51Z</time></trkpt>
<trkpt lat="43.700243002" lon="11.347026983"><ele>288</ele><time>2020-01-12T08:46:52Z</time></trkpt>
<trkpt lat="43.700275021" lon="11.347007034"><ele>287</ele><time>2020-01-12T08:46:53Z</time></trkpt>
<trkpt lat="43.700306034" lon="11.346987002"><ele>287</ele><time>2020-01-12T08:46:54Z</time></trkpt>
<trkpt lat="43.700336963" lon="11.346967975"><ele>287</ele><time>2020-01-12T08:46:55Z</time></trkpt>
<trkpt lat="43.700367976" lon="11.346949032"><ele>287</ele><time>2020-01-12T08:46:56Z</time></trkpt>
<trkpt lat="43.700399995" lon="11.346930005"><ele>287</ele><time>2020-01-12T08:46:57Z</time></trkpt>
<trkpt lat="43.700431008" lon="11.346910978"><ele>287</ele><time>2020-01-12T08:46:58Z</time></trkpt>
<trkpt lat="43.700462021" lon="11.34689304"><ele>287</ele><time>2020-01-12T08:46:59Z</time></trkpt>
<trkpt lat="43.700492028" lon="11.346874014"><ele>286</ele><time>2020-01-12T08:47:00Z</time></trkpt>
<trkpt lat="43.700523041" lon="11.346855992"><ele>286</ele><time>2020-01-12T08:47:01Z</time></trkpt>
<trkpt lat="43.70055397" lon="11.346837971"><ele>286</ele><time>2020-01-12T08:47:02Z</time></trkpt>
<trkpt lat="43.700584983" lon="11.346819028"><ele>286</ele><time>2020-01-12T08:47:03Z</time></trkpt>
<trkpt lat="43.700615996" lon="11.346801007"><ele>286</ele><time>2020-01-12T08:47:04Z</time></trkpt>
<trkpt lat="43.700646004" lon="11.346782986"><ele>286</ele><time>2020-01-12T08:47:05Z</time></trkpt>
<trkpt lat="43.700676011" lon="11.346764965"><ele>286</ele><time>2020-01-12T08:47:06Z</time></trkpt>
<trkpt lat="43.700707024" lon="11.346746022"><ele>286</ele><time>2020-01-12T08:47:07Z</time></trkpt>
<trkpt lat="43.700737031" lon="11.346728001"><ele>286</ele><time>2020-01-12T08:47:08Z</time></trkpt>
<trkpt lat="43.700766033" lon="11.34670998"><ele>286</ele><time>2020-01-12T08:47:09Z</time></trkpt>
<trkpt lat="43.70079604" lon="11.346691959"><ele>286</ele><time>2020-01-12T08:47:10Z</time></trkpt>
<trkpt lat="43.700825041" lon="11.346674021"><ele>286</ele><time>2020-01-12T08:47:11Z</time></trkpt>
<trkpt lat="43.700853959" lon="11.346656"><ele>286</ele><time>2020-01-12T08:47:12Z</time></trkpt>
<trkpt lat="43.70088296" lon="11.346638985"><ele>286</ele><time>2020-01-12T08:47:13Z</time></trkpt>
<trkpt lat="43.700911039" lon="11.346620964"><ele>286</ele><time>2020-01-12T08:47:14Z</time></trkpt>
<trkpt lat="43.700939035" lon="11.346603027"><ele>286</ele><time>2020-01-12T08:47:15Z</time></trkpt>
<trkpt lat="43.700966025" lon="11.346586011"><ele>286</ele><time>2020-01-12T08:47:16Z</time></trkpt>
<trkpt lat="43.700993014" lon="11.34656799"><ele>286</ele><time>2020-01-12T08:47:17Z</time></trkpt>
<trkpt lat="43.701020004" lon="11.346550975"><ele>286</ele><time>2020-01-12T08:47:18Z</time></trkpt>
<trkpt lat="43.701045988" lon="11.34653396"><ele>286</ele><time>2020-01-12T08:47:19Z</time></trkpt>
<trkpt lat="43.701071972" lon="11.346517028"><ele>286</ele><time>2020-01-12T08:47:20Z</time></trkpt>
<trkpt lat="43.701097034" lon="11.346500013"><ele>286</ele><time>2020-01-12T08:47:21Z</time></trkpt>
<trkpt lat="43.701121006" lon="11.346484004"><ele>286</ele><time>2020-01-12T08:47:22Z</time></trkpt>
<trkpt lat="43.701145984" lon="11.346466988"><ele>286</ele><time>2020-01-12T08:47:23Z</time></trkpt>
<trkpt lat="43.70117004" lon="11.346449973"><ele>286</ele><time>2020-01-12T08:47:24Z</time></trkpt>
<trkpt lat="43.701193007" lon="11.346433042"><ele>286</ele><time>2020-01-12T08:47:25Z</time></trkpt>
<trkpt lat="43.701216979" lon="11.346416026"><ele>286</ele><time>2020-01-12T08:47:26Z</time></trkpt>
<trkpt lat="43.701240029" lon="11.346399011"><ele>287</ele><time>2020-01-12T08:47:27Z</time></trkpt>
<trkpt lat="43.701262996" lon="11.346381996"><ele>287</ele><time>2020-01-12T08:47:28Z</time></trkpt>
<trkpt lat="43.701286968" lon="11.346363975"><ele>287</ele><time>2020-01-12T08:47:29Z</time></trkpt>
<trkpt lat="43.701310018" lon="11.346346037"><ele>287</ele><time>2020-01-12T08:47:30Z</time></trkpt>
<trkpt lat="43.70133399" lon="11.346327011"><ele>287</ele><time>2020-01-12T08:47:31Z</time></trkpt>
<trkpt lat="43.701357963" lon="11.346307984"><ele>287</ele><time>2020-01-12T08:47:32Z</time></trkpt>
<trkpt lat="43.701381013" lon="11.346288035"><ele>287</ele><time>2020-01-12T08:47:33Z</time></trkpt>
<trkpt lat="43.701404985" lon="11.346266996"><ele>287</ele><time>2020-01-12T08:47:34Z</time></trkpt>
<trkpt lat="43.701428035" lon="11.346245036"><ele>287</ele><time>2020-01-12T08:47:35Z</time></trkpt>
<trkpt lat="43.701451002" lon="11.346221985"><ele>287</ele><time>2020-01-12T08:47:36Z</time></trkpt>
<trkpt lat="43.701472962" lon="11.346198013"><ele>287</ele><time>2020-01-12T08:47:37Z</time></trkpt>
<trkpt lat="43.701495007" lon="11.346172029"><ele>287</ele><time>2020-01-12T08:47:38Z</time></trkpt>
<trkpt lat="43.701516967" lon="11.346144034"><ele>288</ele><time>2020-01-12T08:47:39Z</time></trkpt>
<trkpt lat="43.701537" lon="11.346114026"><ele>288</ele><time>2020-01-12T08:47:40Z</time></trkpt>
<trkpt lat="43.701557033" lon="11.346083013"><ele>288</ele><time>2020-01-12T08:47:41Z</time></trkpt>
<trkpt lat="43.701573964" lon="11.346048983"><ele>288</ele><time>2020-01-12T08:47:42Z</time></trkpt>
<trkpt lat="43.701589974" lon="11.346012019"><ele>288</ele><time>2020-01-12T08:47:43Z</time></trkpt>
<trkpt lat="43.701603971" lon="11.345972959"><ele>288</ele><time>2020-01-12T08:47:44Z</time></trkpt>
<trkpt lat="43.70161403" lon="11.345930966"><ele>288</ele><time>2020-01-12T08:47:45Z</time></trkpt>
<trkpt lat="43.701622998" lon="11.345886039"><ele>288</ele><time>2020-01-12T08:47:46Z</time></trkpt>
<trkpt lat="43.701629033" lon="11.345841028"><ele>288</ele><time>2020-01-12T08:47:47Z</time></trkpt>
<trkpt lat="43.701634984" lon="11.345795011"><ele>287</ele><time>2020-01-12T08:47:48Z</time></trkpt>
<trkpt lat="43.701641019" lon="11.345748994"><ele>287</ele><time>2020-01-12T08:47:49Z</time></trkpt>
<trkpt lat="43.701646971" lon="11.34570499"><ele>287</ele><time>2020-01-12T08:47:50Z</time></trkpt>
<trkpt lat="43.701654011" lon="11.345662996"><ele>286</ele><time>2020-01-12T08:47:51Z</time></trkpt>
<trkpt lat="43.701660968" lon="11.345621003"><ele>286</ele><time>2020-01-12T08:47:52Z</time></trkpt>
<trkpt lat="43.701669015" lon="11.345580015"><ele>286</ele><time>2020-01-12T08:47:53Z</time></trkpt>
<trkpt lat="43.701675972" lon="11.345540034"><ele>286</ele><time>2020-01-12T08:47:54Z</time></trkpt>
<trkpt lat="43.701684019" lon="11.345500974"><ele>285</ele><time>2020-01-12T08:47:55Z</time></trkpt>
<trkpt lat="43.701691981" lon="11.345460992"><ele>285</ele><time>2020-01-12T08:47:56Z</time></trkpt>
<trkpt lat="43.701700028" lon="11.345421011"><ele>284</ele><time>2020-01-12T08:47:57Z</time></trkpt>
<trkpt lat="43.701707991" lon="11.345381029"><ele>284</ele><time>2020-01-12T08:47:58Z</time></trkpt>
<trkpt lat="43.701716037" lon="11.345340963"><ele>284</ele><time>2020-01-12T08:47:59Z</time></trkpt>
<trkpt lat="43.701724" lon="11.345299976"><ele>283</ele><time>2020-01-12T08:48:00Z</time></trkpt>
<trkpt lat="43.701731963" lon="11.345257983"><ele>283</ele><time>2020-01-12T08:48:01Z</time></trkpt>
<trkpt lat="43.70174001" lon="11.345215989"><ele>283</ele><time>2020-01-12T08:48:02Z</time></trkpt>
<trkpt lat="43.701765994" lon="11.345085986"><ele>282</ele><time>2020-01-12T08:48:05Z</time></trkpt>
<trkpt lat="43.701774962" lon="11.345041981"><ele>281</ele><time>2020-01-12T08:48:06Z</time></trkpt>
<trkpt lat="43.701785021" lon="11.34499697"><ele>281</ele><time>2020-01-12T08:48:07Z</time></trkpt>
<trkpt lat="43.701796001" lon="11.344951037"><ele>280</ele><time>2020-01-12T08:48:08Z</time></trkpt>
<trkpt lat="43.701806981" lon="11.344905021"><ele>279</ele><time>2020-01-12T08:48:09Z</time></trkpt>
<trkpt lat="43.701818967" lon="11.344859004"><ele>279</ele><time>2020-01-12T08:48:10Z</time></trkpt>
<trkpt lat="43.701831037" lon="11.344813993"><ele>278</ele><time>2020-01-12T08:48:11Z</time></trkpt>
<trkpt lat="43.701845035" lon="11.344767977"><ele>278</ele><time>2020-01-12T08:48:12Z</time></trkpt>
<trkpt lat="43.701860039" lon="11.344723972"><ele>277</ele><time>2020-01-12T08:48:13Z</time></trkpt>
<trkpt lat="43.70187697" lon="11.344680972"><ele>277</ele><time>2020-01-12T08:48:14Z</time></trkpt>
<trkpt lat="43.701893985" lon="11.344638979"><ele>276</ele><time>2020-01-12T08:48:15Z</time></trkpt>
<trkpt lat="43.701913012" lon="11.344600003"><ele>276</ele><time>2020-01-12T08:48:16Z</time></trkpt>
<trkpt lat="43.701933967" lon="11.344562033"><ele>275</ele><time>2020-01-12T08:48:17Z</time></trkpt>
<trkpt lat="43.701957017" lon="11.344526997"><ele>275</ele><time>2020-01-12T08:48:18Z</time></trkpt>
<trkpt lat="43.701979984" lon="11.344494978"><ele>275</ele><time>2020-01-12T08:48:19Z</time></trkpt>
<trkpt lat="43.702004962" lon="11.344463965"><ele>274</ele><time>2020-01-12T08:48:20Z</time></trkpt>
<trkpt lat="43.702031029" lon="11.344434042"><ele>274</ele><time>2020-01-12T08:48:21Z</time></trkpt>
<trkpt lat="43.702057013" lon="11.344405962"><ele>274</ele><time>2020-01-12T08:48:22Z</time></trkpt>
<trkpt lat="43.702082997" lon="11.344377967"><ele>274</ele><time>2020-01-12T08:48:23Z</time></trkpt>
<trkpt lat="43.702108981" lon="11.344349971"><ele>274</ele><time>2020-01-12T08:48:24Z</time></trkpt>
<trkpt lat="43.702133959" lon="11.344321975"><ele>274</ele><time>2020-01-12T08:48:25Z</time></trkpt>
<trkpt lat="43.702159021" lon="11.344292974"><ele>274</ele><time>2020-01-12T08:48:26Z</time></trkpt>
<trkpt lat="43.702181987" lon="11.344261961"><ele>274</ele><time>2020-01-12T08:48:27Z</time></trkpt>
<trkpt lat="43.702204032" lon="11.344231032"><ele>274</ele><time>2020-01-12T08:48:28Z</time></trkpt>
<trkpt lat="43.702224987" lon="11.344199013"><ele>274</ele><time>2020-01-12T08:48:29Z</time></trkpt>
<trkpt lat="43.702245019" lon="11.344166994"><ele>274</ele><time>2020-01-12T08:48:30Z</time></trkpt>
<trkpt lat="43.70226698" lon="11.344135981"><ele>273</ele><time>2020-01-12T08:48:31Z</time></trkpt>
<trkpt lat="43.70229003" lon="11.344105974"><ele>273</ele><time>2020-01-12T08:48:32Z</time></trkpt>
<trkpt lat="43.702315008" lon="11.344078984"><ele>273</ele><time>2020-01-12T08:48:33Z</time></trkpt>
<trkpt lat="43.702340992" lon="11.344053"><ele>273</ele><time>2020-01-12T08:48:34Z</time></trkpt>
<trkpt lat="43.702366976" lon="11.344027016"><ele>273</ele><time>2020-01-12T08:48:35Z</time></trkpt>
<trkpt lat="43.702391032" lon="11.344000027"><ele>273</ele><time>2020-01-12T08:48:36Z</time></trkpt>
<trkpt lat="43.702412993" lon="11.343971025"><ele>273</ele><time>2020-01-12T08:48:37Z</time></trkpt>
<trkpt lat="43.702434031" lon="11.343939006"><ele>272</ele><time>2020-01-12T08:48:38Z</time></trkpt>
<trkpt lat="43.702451969" lon="11.343904976"><ele>272</ele><time>2020-01-12T08:48:39Z</time></trkpt>
<trkpt lat="43.702468984" lon="11.343870023"><ele>272</ele><time>2020-01-12T08:48:40Z</time></trkpt>
<trkpt lat="43.702484993" lon="11.343833981"><ele>272</ele><time>2020-01-12T08:48:41Z</time></trkpt>
<trkpt lat="43.702498991" lon="11.343797017"><ele>271</ele><time>2020-01-12T08:48:42Z</time></trkpt>
<trkpt lat="43.702511983" lon="11.343759969"><ele>270</ele><time>2020-01-12T08:48:43Z</time></trkpt>
<trkpt lat="43.702521035" lon="11.343724011"><ele>270</ele><time>2020-01-12T08:48:44Z</time></trkpt>
<trkpt lat="43.702525981" lon="11.343688974"><ele>269</ele><time>2020-01-12T08:48:45Z</time></trkpt>
<trkpt lat="43.702523969" lon="11.343657039"><ele>269</ele><time>2020-01-12T08:48:46Z</time></trkpt>
<trkpt lat="43.702516006" lon="11.343627032"><ele>269</ele><time>2020-01-12T08:48:47Z</time></trkpt>
<trkpt lat="43.702501003" lon="11.343600964"><ele>269</ele><time>2020-01-12T08:48:48Z</time></trkpt>
<trkpt lat="43.702481976" lon="11.343580009"><ele>268</ele><time>2020-01-12T08:48:49Z</time></trkpt>
<trkpt lat="43.702459009" lon="11.343562994"><ele>268</ele><time>2020-01-12T08:48:50Z</time></trkpt>
<trkpt lat="43.702433025" lon="11.343552014"><ele>267</ele><time>2020-01-12T08:48:51Z</time></trkpt>
<trkpt lat="43.702406036" lon="11.343545979"><ele>267</ele><time>2020-01-12T08:48:52Z</time></trkpt>
<trkpt lat="43.70237804" lon="11.343545979"><ele>267</ele><time>2020-01-12T08:48:53Z</time></trkpt>
<trkpt lat="43.702349961" lon="11.343547991"><ele>266</ele><time>2020-01-12T08:48:54Z</time></trkpt>
<trkpt lat="43.702320959" lon="11.343552014"><ele>266</ele><time>2020-01-12T08:48:55Z</time></trkpt>
<trkpt lat="43.702292042" lon="11.343556959"><ele>266</ele><time>2020-01-12T08:48:56Z</time></trkpt>
<trkpt lat="43.70226304" lon="11.343559977"><ele>266</ele><time>2020-01-12T08:48:57Z</time></trkpt>
<trkpt lat="43.702233033" lon="11.343562994"><ele>265</ele><time>2020-01-12T08:48:58Z</time></trkpt>
<trkpt lat="43.702203026" lon="11.343565006"><ele>265</ele><time>2020-01-12T08:48:59Z</time></trkpt>
<trkpt lat="43.702171007" lon="11.343565006"><ele>265</ele><time>2020-01-12T08:49:00Z</time></trkpt>
<trkpt lat="43.702138988" lon="11.343562994"><ele>264</ele><time>2020-01-12T08:49:01Z</time></trkpt>
<trkpt lat="43.702105042" lon="11.343556959"><ele>264</ele><time>2020-01-12T08:49:02Z</time></trkpt>
<trkpt lat="43.702073023" lon="11.343546985"><ele>263</ele><time>2020-01-12T08:49:03Z</time></trkpt>
<trkpt lat="43.70204201" lon="11.343530975"><ele>263</ele><time>2020-01-12T08:49:04Z</time></trkpt>
<trkpt lat="43.702013008" lon="11.343508009"><ele>262</ele><time>2020-01-12T08:49:05Z</time></trkpt>
<trkpt lat="43.701987024" lon="11.34347599"><ele>261</ele><time>2020-01-12T08:49:06Z</time></trkpt>
<trkpt lat="43.701963974" lon="11.34343802"><ele>261</ele><time>2020-01-12T08:49:07Z</time></trkpt>
<trkpt lat="43.701946037" lon="11.343395021"><ele>260</ele><time>2020-01-12T08:49:08Z</time></trkpt>
<trkpt lat="43.701932961" lon="11.343347998"><ele>259</ele><time>2020-01-12T08:49:09Z</time></trkpt>
<trkpt lat="43.701923992" lon="11.343298964"><ele>258</ele><time>2020-01-12T08:49:10Z</time></trkpt>
<trkpt lat="43.701918041" lon="11.343250014"><ele>258</ele><time>2020-01-12T08:49:11Z</time></trkpt>
<trkpt lat="43.701912006" lon="11.343198968"><ele>257</ele><time>2020-01-12T08:49:12Z</time></trkpt>
<trkpt lat="43.70188904" lon="11.343036024"><ele>254</ele><time>2020-01-12T08:49:15Z</time></trkpt>
<trkpt lat="43.701888034" lon="11.342981039"><ele>254</ele><time>2020-01-12T08:49:16Z</time></trkpt>
<trkpt lat="43.701890968" lon="11.342926975"><ele>253</ele><time>2020-01-12T08:49:17Z</time></trkpt>
<trkpt lat="43.701898009" lon="11.342872996"><ele>252</ele><time>2020-01-12T08:49:18Z</time></trkpt>
<trkpt lat="43.701908989" lon="11.342821028"><ele>252</ele><time>2020-01-12T08:49:19Z</time></trkpt>
<trkpt lat="43.701922987" lon="11.342769982"><ele>251</ele><time>2020-01-12T08:49:20Z</time></trkpt>
<trkpt lat="43.701940002" lon="11.342721032"><ele>250</ele><time>2020-01-12T08:49:21Z</time></trkpt>
<trkpt lat="43.701960035" lon="11.34267401"><ele>250</ele><time>2020-01-12T08:49:22Z</time></trkpt>
<trkpt lat="43.701981995" lon="11.342628999"><ele>249</ele><time>2020-01-12T08:49:23Z</time></trkpt>
<trkpt lat="43.702006973" lon="11.342588011"><ele>249</ele><time>2020-01-12T08:49:24Z</time></trkpt>
<trkpt lat="43.702034969" lon="11.342549035"><ele>249</ele><time>2020-01-12T08:49:25Z</time></trkpt>
<trkpt lat="43.70206397" lon="11.342512993"><ele>248</ele><time>2020-01-12T08:49:26Z</time></trkpt>
<trkpt lat="43.702094983" lon="11.342478963"><ele>248</ele><time>2020-01-12T08:49:27Z</time></trkpt>
<trkpt lat="43.702125996" lon="11.342447028"><ele>248</ele><time>2020-01-12T08:49:28Z</time></trkpt>
<trkpt lat="43.702158015" lon="11.342415009"><ele>247</ele><time>2020-01-12T08:49:29Z</time></trkpt>
<trkpt lat="43.702190034" lon="11.342383996"><ele>247</ele><time>2020-01-12T08:49:30Z</time></trkpt>
<trkpt lat="43.702221969" lon="11.342353988"><ele>247</ele><time>2020-01-12T08:49:31Z</time></trkpt>
<trkpt lat="43.702251976" lon="11.342322975"><ele>247</ele><time>2020-01-12T08:49:32Z</time></trkpt>
<trkpt lat="43.702280978" lon="11.34229104"><ele>247</ele><time>2020-01-12T08:49:33Z</time></trkpt>
<trkpt lat="43.702308973" lon="11.34225701"><ele>247</ele><time>2020-01-12T08:49:34Z</time></trkpt>
<trkpt lat="43.702334035" lon="11.342222979"><ele>246</ele><time>2020-01-12T08:49:35Z</time></trkpt>
<trkpt lat="43.702358007" lon="11.342186015"><ele>246</ele><time>2020-01-12T08:49:36Z</time></trkpt>
<trkpt lat="43.702380974" lon="11.342148967"><ele>246</ele><time>2020-01-12T08:49:37Z</time></trkpt>
<trkpt lat="43.702401007" lon="11.342109991"><ele>246</ele><time>2020-01-12T08:49:38Z</time></trkpt>
<trkpt lat="43.702421039" lon="11.342069004"><ele>245</ele><time>2020-01-12T08:49:39Z</time></trkpt>
<trkpt lat="43.702438977" lon="11.34202701"><ele>245</ele><time>2020-01-12T08:49:40Z</time></trkpt>
<trkpt lat="43.702455992" lon="11.341984011"><ele>245</ele><time>2020-01-12T08:49:41Z</time></trkpt>
<trkpt lat="43.702472001" lon="11.341939"><ele>244</ele><time>2020-01-12T08:49:42Z</time></trkpt>
<trkpt lat="43.702485999" lon="11.341892984"><ele>244</ele><time>2020-01-12T08:49:43Z</time></trkpt>
<trkpt lat="43.702499997" lon="11.341845039"><ele>244</ele><time>2020-01-12T08:49:44Z</time></trkpt>
<trkpt lat="43.702535033" lon="11.341695003"><ele>242</ele><time>2020-01-12T08:49:47Z</time></trkpt>
<trkpt lat="43.702546014" lon="11.341644041"><ele>241</ele><time>2020-01-12T08:49:48Z</time></trkpt>
<trkpt lat="43.702555988" lon="11.34159199"><ele>241</ele><time>2020-01-12T08:49:49Z</time></trkpt>
<trkpt lat="43.702565962" lon="11.341540022"><ele>241</ele><time>2020-01-12T08:49:50Z</time></trkpt>
<trkpt lat="43.702575015" lon="11.341488976"><ele>240</ele><time>2020-01-12T08:49:51Z</time></trkpt>
<trkpt lat="43.702583984" lon="11.341437008"><ele>240</ele><time>2020-01-12T08:49:52Z</time></trkpt>
<trkpt lat="43.70259203" lon="11.341385962"><ele>239</ele><time>2020-01-12T08:49:53Z</time></trkpt>
<trkpt lat="43.702600999" lon="11.341335"><ele>239</ele><time>2020-01-12T08:49:54Z</time></trkpt>
<trkpt lat="43.702609967" lon="11.341284961"><ele>239</ele><time>2020-01-12T08:49:55Z</time></trkpt>
<trkpt lat="43.70261902" lon="11.34123601"><ele>238</ele><time>2020-01-12T08:49:56Z</time></trkpt>
<trkpt lat="43.702628994" lon="11.341186976"><ele>238</ele><time>2020-01-12T08:49:57Z</time></trkpt>
<trkpt lat="43.702638969" lon="11.341139032"><ele>238</ele><time>2020-01-12T08:49:58Z</time></trkpt>
<trkpt lat="43.702650033" lon="11.341091003"><ele>237</ele><time>2020-01-12T08:49:59Z</time></trkpt>
<trkpt lat="43.702662019" lon="11.341043981"><ele>237</ele><time>2020-01-12T08:50:00Z</time></trkpt>
<trkpt lat="43.702675011" lon="11.340997964"><ele>236</ele><time>2020-01-12T08:50:01Z</time></trkpt>
<trkpt lat="43.702690015" lon="11.340953037"><ele>236</ele><time>2020-01-12T08:50:02Z</time></trkpt>
<trkpt lat="43.702705018" lon="11.340908026"><ele>236</ele><time>2020-01-12T08:50:03Z</time></trkpt>
<trkpt lat="43.702722033" lon="11.340864021"><ele>235</ele><time>2020-01-12T08:50:04Z</time></trkpt>
<trkpt lat="43.702739971" lon="11.340820016"><ele>235</ele><time>2020-01-12T08:50:05Z</time></trkpt>
<trkpt lat="43.702756986" lon="11.340777017"><ele>235</ele><time>2020-01-12T08:50:06Z</time></trkpt>
<trkpt lat="43.702775007" lon="11.340734018"><ele>234</ele><time>2020-01-12T08:50:07Z</time></trkpt>
<trkpt lat="43.702792022" lon="11.340690013"><ele>234</ele><time>2020-01-12T08:50:08Z</time></trkpt>
<trkpt lat="43.702808032" lon="11.340647014"><ele>234</ele><time>2020-01-12T08:50:09Z</time></trkpt>
<trkpt lat="43.702823035" lon="11.340602003"><ele>234</ele><time>2020-01-12T08:50:10Z</time></trkpt>
<trkpt lat="43.702837033" lon="11.340557998"><ele>233</ele><time>2020-01-12T08:50:11Z</time></trkpt>
<trkpt lat="43.702848013" lon="11.340511981"><ele>233</ele><time>2020-01-12T08:50:12Z</time></trkpt>
<trkpt lat="43.702857988" lon="11.340465965"><ele>233</ele><time>2020-01-12T08:50:13Z</time></trkpt>
<trkpt lat="43.70286704" lon="11.340419026"><ele>233</ele><time>2020-01-12T08:50:14Z</time></trkpt>
<trkpt lat="43.702875003" lon="11.340372004"><ele>233</ele><time>2020-01-12T08:50:15Z</time></trkpt>
<trkpt lat="43.702882966" lon="11.340324981"><ele>232</ele><time>2020-01-12T08:50:16Z</time></trkpt>
<trkpt lat="43.702890007" lon="11.340277037"><ele>232</ele><time>2020-01-12T08:50:17Z</time></trkpt>
<trkpt lat="43.702898975" lon="11.340230014"><ele>232</ele><time>2020-01-12T08:50:18Z</time></trkpt>
<trkpt lat="43.702908028" lon="11.340181986"><ele>232</ele><time>2020-01-12T08:50:19Z</time></trkpt>
<trkpt lat="43.702919008" lon="11.340135969"><ele>231</ele><time>2020-01-12T08:50:20Z</time></trkpt>
<trkpt lat="43.702930994" lon="11.340089031"><ele>231</ele><time>2020-01-12T08:50:21Z</time></trkpt>
<trkpt lat="43.702944992" lon="11.340043014"><ele>231</ele><time>2020-01-12T08:50:22Z</time></trkpt>
<trkpt lat="43.702961002" lon="11.339998003"><ele>231</ele><time>2020-01-12T08:50:23Z</time></trkpt>
<trkpt lat="43.702977011" lon="11.339952992"><ele>230</ele><time>2020-01-12T08:50:24Z</time></trkpt>
<trkpt lat="43.702994026" lon="11.339907981"><ele>230</ele><time>2020-01-12T08:50:25Z</time></trkpt>
<trkpt lat="43.70300903" lon="11.339862971"><ele>229</ele><time>2020-01-12T08:50:26Z</time></trkpt>
<trkpt lat="43.703023028" lon="11.33981796"><ele>229</ele><time>2020-01-12T08:50:27Z</time></trkpt>
<trkpt lat="43.703035014" lon="11.339773033"><ele>229</ele><time>2020-01-12T08:50:28Z</time></trkpt>
<trkpt lat="43.703042977" lon="11.339727016"><ele>228</ele><time>2020-01-12T08:50:29Z</time></trkpt>
<trkpt lat="43.703048006" lon="11.339681"><ele>228</ele><time>2020-01-12T08:50:30Z</time></trkpt>
<trkpt lat="43.703048006" lon="11.339633977"><ele>228</ele><time>2020-01-12T08:50:31Z</time></trkpt>
<trkpt lat="43.703045994" lon="11.339587038"><ele>227</ele><time>2020-01-12T08:50:32Z</time></trkpt>
<trkpt lat="43.703041971" lon="11.33953901"><ele>227</ele><time>2020-01-12T08:50:33Z</time></trkpt>
<trkpt lat="43.703037025" lon="11.339491988"><ele>227</ele><time>2020-01-12T08:50:34Z</time></trkpt>
<trkpt lat="43.703035014" lon="11.339443959"><ele>227</ele><time>2020-01-12T08:50:35Z</time></trkpt>
<trkpt lat="43.703034008" lon="11.339397021"><ele>226</ele><time>2020-01-12T08:50:36Z</time></trkpt>
<trkpt lat="43.70303602" lon="11.339349998"><ele>226</ele><time>2020-01-12T08:50:37Z</time></trkpt>
<trkpt lat="43.703039959" lon="11.33930197"><ele>226</ele><time>2020-01-12T08:50:38Z</time></trkpt>
<trkpt lat="43.703044988" lon="11.33925302"><ele>225</ele><time>2020-01-12T08:50:39Z</time></trkpt>
<trkpt lat="43.703051023" lon="11.339201974"><ele>225</ele><time>2020-01-12T08:50:40Z</time></trkpt>
<trkpt lat="43.703055969" lon="11.339149"><ele>225</ele><time>2020-01-12T08:50:41Z</time></trkpt>
<trkpt lat="43.703062003" lon="11.339095021"><ele>224</ele><time>2020-01-12T08:50:42Z</time></trkpt>
<trkpt lat="43.70306896" lon="11.33903903"><ele>224</ele><time>2020-01-12T08:50:43Z</time></trkpt>
<trkpt lat="43.703076001" lon="11.338983038"><ele>224</ele><time>2020-01-12T08:50:44Z</time></trkpt>
<trkpt lat="43.70308497" lon="11.338927969"><ele>223</ele><time>2020-01-12T08:50:45Z</time></trkpt>
<trkpt lat="43.703096034" lon="11.338874996"><ele>223</ele><time>2020-01-12T08:50:46Z</time></trkpt>
<trkpt lat="43.703109026" lon="11.338824034"><ele>223</ele><time>2020-01-12T08:50:47Z</time></trkpt>
<trkpt lat="43.70312403" lon="11.338775"><ele>222</ele><time>2020-01-12T08:50:48Z</time></trkpt>
<trkpt lat="43.703142973" lon="11.338730995"><ele>222</ele><time>2020-01-12T08:50:49Z</time></trkpt>
<trkpt lat="43.703164011" lon="11.338690007"><ele>222</ele><time>2020-01-12T08:50:50Z</time></trkpt>
<trkpt lat="43.703188989" lon="11.338653965"><ele>222</ele><time>2020-01-12T08:50:51Z</time></trkpt>
<trkpt lat="43.703214973" lon="11.33862203"><ele>222</ele><time>2020-01-12T08:50:52Z</time></trkpt>
<trkpt lat="43.703243975" lon="11.338592023"><ele>221</ele><time>2020-01-12T08:50:53Z</time></trkpt>
<trkpt lat="43.703273982" lon="11.338565033"><ele>221</ele><time>2020-01-12T08:50:54Z</time></trkpt>
<trkpt lat="43.703304995" lon="11.338539971"><ele>221</ele><time>2020-01-12T08:50:55Z</time></trkpt>
<trkpt lat="43.703337014" lon="11.338517005"><ele>221</ele><time>2020-01-12T08:50:56Z</time></trkpt>
<trkpt lat="43.703370038" lon="11.338494038"><ele>221</ele><time>2020-01-12T08:50:57Z</time></trkpt>
<trkpt lat="43.703401973" lon="11.338473"><ele>220</ele><time>2020-01-12T08:50:58Z</time></trkpt>
<trkpt lat="43.703433992" lon="11.338451039"><ele>220</ele><time>2020-01-12T08:50:59Z</time></trkpt>
<trkpt lat="43.703464" lon="11.338428995"><ele>219</ele><time>2020-01-12T08:51:00Z</time></trkpt>
<trkpt lat="43.703494007" lon="11.338407034"><ele>219</ele><time>2020-01-12T08:51:01Z</time></trkpt>
<trkpt lat="43.703524014" lon="11.338383984"><ele>218</ele><time>2020-01-12T08:51:02Z</time></trkpt>
<trkpt lat="43.703553015" lon="11.338360012"><ele>218</ele><time>2020-01-12T08:51:03Z</time></trkpt>
<trkpt lat="43.703581011" lon="11.338336961"><ele>217</ele><time>2020-01-12T08:51:04Z</time></trkpt>
<trkpt lat="43.703610012" lon="11.338312989"><ele>217</ele><time>2020-01-12T08:51:05Z</time></trkpt>
<trkpt lat="43.703639014" lon="11.338288011"><ele>217</ele><time>2020-01-12T08:51:06Z</time></trkpt>
<trkpt lat="43.703668015" lon="11.338263033"><ele>216</ele><time>2020-01-12T08:51:07Z</time></trkpt>
<trkpt lat="43.703698022" lon="11.338236965"><ele>216</ele><time>2020-01-12T08:51:08Z</time></trkpt>
<trkpt lat="43.703729035" lon="11.338210981"><ele>216</ele><time>2020-01-12T08:51:09Z</time></trkpt>
<trkpt lat="43.703759965" lon="11.338183992"><ele>215</ele><time>2020-01-12T08:51:10Z</time></trkpt>
<trkpt lat="43.703791983" lon="11.338157002"><ele>215</ele><time>2020-01-12T08:51:11Z</time></trkpt>
<trkpt lat="43.703824002" lon="11.338129006"><ele>214</ele><time>2020-01-12T08:51:12Z</time></trkpt>
<trkpt lat="43.703921987" lon="11.338044014"><ele>213</ele><time>2020-01-12T08:51:15Z</time></trkpt>
<trkpt lat="43.703954006" lon="11.338014007"><ele>213</ele><time>2020-01-12T08:51:16Z</time></trkpt>
<trkpt lat="43.703986024" lon="11.337985005"><ele>213</ele><time>2020-01-12T08:51:17Z</time></trkpt>
<trkpt lat="43.70401796" lon="11.337953992"><ele>212</ele><time>2020-01-12T08:51:18Z</time></trkpt>
<trkpt lat="43.704048973" lon="11.337923985"><ele>212</ele><time>2020-01-12T08:51:19Z</time></trkpt>
<trkpt lat="43.704079986" lon="11.337892972"><ele>212</ele><time>2020-01-12T08:51:20Z</time></trkpt>
<trkpt lat="43.704110999" lon="11.337861037"><ele>211</ele><time>2020-01-12T08:51:21Z</time></trkpt>
<trkpt lat="43.704141006" lon="11.337829018"><ele>211</ele><time>2020-01-12T08:51:22Z</time></trkpt>
<trkpt lat="43.704171013" lon="11.337796999"><ele>211</ele><time>2020-01-12T08:51:23Z</time></trkpt>
<trkpt lat="43.704260029" lon="11.337698009"><ele>210</ele><time>2020-01-12T08:51:26Z</time></trkpt>
<trkpt lat="43.70428903" lon="11.337663978"><ele>210</ele><time>2020-01-12T08:51:27Z</time></trkpt>
<trkpt lat="43.704318032" lon="11.337630032"><ele>209</ele><time>2020-01-12T08:51:28Z</time></trkpt>
<trkpt lat="43.704348039" lon="11.337597007"><ele>209</ele><time>2020-01-12T08:51:29Z</time></trkpt>
<trkpt lat="43.70437704" lon="11.337564988"><ele>209</ele><time>2020-01-12T08:51:30Z</time></trkpt>
<trkpt lat="43.704406964" lon="11.337534981"><ele>208</ele><time>2020-01-12T08:51:31Z</time></trkpt>
<trkpt lat="43.704436971" lon="11.337507991"><ele>208</ele><time>2020-01-12T08:51:32Z</time></trkpt>
<trkpt lat="43.704467984" lon="11.337484019"><ele>208</ele><time>2020-01-12T08:51:33Z</time></trkpt>
<trkpt lat="43.704498997" lon="11.337463986"><ele>207</ele><time>2020-01-12T08:51:34Z</time></trkpt>
<trkpt lat="43.70453001" lon="11.337444037"><ele>207</ele><time>2020-01-12T08:51:35Z</time></trkpt>
<trkpt lat="43.704561023" lon="11.337422999"><ele>207</ele><time>2020-01-12T08:51:36Z</time></trkpt>
<trkpt lat="43.704590024" lon="11.337401038"><ele>206</ele><time>2020-01-12T08:51:37Z</time></trkpt>
<trkpt lat="43.704619026" lon="11.33737497"><ele>206</ele><time>2020-01-12T08:51:38Z</time></trkpt>
<trkpt lat="43.704646016" lon="11.337345969"><ele>205</ele><time>2020-01-12T08:51:39Z</time></trkpt>
<trkpt lat="43.704671999" lon="11.337315962"><ele>205</ele><time>2020-01-12T08:51:40Z</time></trkpt>
<trkpt lat="43.704697983" lon="11.337286038"><ele>205</ele><time>2020-01-12T08:51:41Z</time></trkpt>
<trkpt lat="43.704722039" lon="11.337256031"><ele>204</ele><time>2020-01-12T08:51:42Z</time></trkpt>
<trkpt lat="43.704747017" lon="11.337229041"><ele>204</ele><time>2020-01-12T08:51:43Z</time></trkpt>
<trkpt lat="43.704771996" lon="11.337202974"><ele>204</ele><time>2020-01-12T08:51:44Z</time></trkpt>
<trkpt lat="43.704795968" lon="11.337179001"><ele>203</ele><time>2020-01-12T08:51:45Z</time></trkpt>
<trkpt lat="43.70482103" lon="11.337157041"><ele>203</ele><time>2020-01-12T08:51:46Z</time></trkpt>
<trkpt lat="43.704846008" lon="11.337134996"><ele>203</ele><time>2020-01-12T08:51:47Z</time></trkpt>
<trkpt lat="43.704871992" lon="11.337114042"><ele>202</ele><time>2020-01-12T08:51:48Z</time></trkpt>
<trkpt lat="43.704898981" lon="11.337091997"><ele>202</ele><time>2020-01-12T08:51:49Z</time></trkpt>
<trkpt lat="43.704926977" lon="11.337068025"><ele>202</ele><time>2020-01-12T08:51:50Z</time></trkpt>
<trkpt lat="43.705024039" lon="11.336981021"><ele>201</ele><time>2020-01-12T08:51:53Z</time></trkpt>
<trkpt lat="43.705055974" lon="11.336944979"><ele>201</ele><time>2020-01-12T08:51:54Z</time></trkpt>
<trkpt lat="43.705085982" lon="11.336907009"><ele>201</ele><time>2020-01-12T08:51:55Z</time></trkpt>
<trkpt lat="43.705112971" lon="11.336868033"><ele>201</ele><time>2020-01-12T08:51:56Z</time></trkpt>
<trkpt lat="43.705136022" lon="11.336828973"><ele>201</ele><time>2020-01-12T08:51:57Z</time></trkpt>
<trkpt lat="43.705156976" lon="11.336789997"><ele>201</ele><time>2020-01-12T08:51:58Z</time></trkpt>
<trkpt lat="43.705174997" lon="11.336752027"><ele>201</ele><time>2020-01-12T08:51:59Z</time></trkpt>
<trkpt lat="43.705192013" lon="11.336713973"><ele>201</ele><time>2020-01-12T08:52:00Z</time></trkpt>
<trkpt lat="43.705210034" lon="11.336678015"><ele>201</ele><time>2020-01-12T08:52:01Z</time></trkpt>
<trkpt lat="43.705229983" lon="11.336641973"><ele>200</ele><time>2020-01-12T08:52:02Z</time></trkpt>
<trkpt lat="43.705250015" lon="11.336608026"><ele>200</ele><time>2020-01-12T08:52:03Z</time></trkpt>
<trkpt lat="43.705271976" lon="11.33657299"><ele>200</ele><time>2020-01-12T08:52:04Z</time></trkpt>
<trkpt lat="43.70529402" lon="11.336537031"><ele>200</ele><time>2020-01-12T08:52:05Z</time></trkpt>
<trkpt lat="43.705316987" lon="11.336500989"><ele>200</ele><time>2020-01-12T08:52:06Z</time></trkpt>
<trkpt lat="43.705340037" lon="11.336463019"><ele>199</ele><time>2020-01-12T08:52:07Z</time></trkpt>
<trkpt lat="43.705364009" lon="11.33642396"><ele>199</ele><time>2020-01-12T08:52:08Z</time></trkpt>
<trkpt lat="43.705386976" lon="11.336384984"><ele>199</ele><time>2020-01-12T08:52:09Z</time></trkpt>
<trkpt lat="43.705411032" lon="11.336345002"><ele>198</ele><time>2020-01-12T08:52:10Z</time></trkpt>
<trkpt lat="43.705435004" lon="11.33630502"><ele>198</ele><time>2020-01-12T08:52:11Z</time></trkpt>
<trkpt lat="43.705458976" lon="11.336265039"><ele>198</ele><time>2020-01-12T08:52:12Z</time></trkpt>
<trkpt lat="43.705483032" lon="11.336224973"><ele>197</ele><time>2020-01-12T08:52:13Z</time></trkpt>
<trkpt lat="43.705505999" lon="11.336185997"><ele>197</ele><time>2020-01-12T08:52:14Z</time></trkpt>
<trkpt lat="43.705528965" lon="11.336147022"><ele>197</ele><time>2020-01-12T08:52:15Z</time></trkpt>
<trkpt lat="43.70555101" lon="11.336109973"><ele>196</ele><time>2020-01-12T08:52:16Z</time></trkpt>
<trkpt lat="43.70557297" lon="11.336073009"><ele>196</ele><time>2020-01-12T08:52:17Z</time></trkpt>
<trkpt lat="43.705595015" lon="11.336036967"><ele>195</ele><time>2020-01-12T08:52:18Z</time></trkpt>
<trkpt lat="43.705615969" lon="11.336001009"><ele>195</ele><time>2020-01-12T08:52:19Z</time></trkpt>
<trkpt lat="43.705638014" lon="11.335965972"><ele>195</ele><time>2020-01-12T08:52:20Z</time></trkpt>
<trkpt lat="43.705658969" lon="11.335932026"><ele>194</ele><time>2020-01-12T08:52:21Z</time></trkpt>
<trkpt lat="43.705681013" lon="11.335897995"><ele>194</ele><time>2020-01-12T08:52:22Z</time></trkpt>
<trkpt lat="43.705702974" lon="11.335863965"><ele>193</ele><time>2020-01-12T08:52:23Z</time></trkpt>
<trkpt lat="43.705725018" lon="11.335831024"><ele>193</ele><time>2020-01-12T08:52:24Z</time></trkpt>
<trkpt lat="43.705746979" lon="11.335796993"><ele>193</ele><time>2020-01-12T08:52:25Z</time></trkpt>
<trkpt lat="43.705770029" lon="11.335763969"><ele>192</ele><time>2020-01-12T08:52:26Z</time></trkpt>
<trkpt lat="43.705794001" lon="11.335730022"><ele>192</ele><time>2020-01-12T08:52:27Z</time></trkpt>
<trkpt lat="43.705816967" lon="11.335695991"><ele>191</ele><time>2020-01-12T08:52:28Z</time></trkpt>
<trkpt lat="43.705840018" lon="11.335661039"><ele>191</ele><time>2020-01-12T08:52:29Z</time></trkpt>
<trkpt lat="43.705862984" lon="11.335624997"><ele>191</ele><time>2020-01-12T08:52:30Z</time></trkpt>
<trkpt lat="43.705885028" lon="11.335588032"><ele>191</ele><time>2020-01-12T08:52:31Z</time></trkpt>
<trkpt lat="43.705906989" lon="11.335549979"><ele>191</ele><time>2020-01-12T08:52:32Z</time></trkpt>
<trkpt lat="43.705928028" lon="11.335509997"><ele>191</ele><time>2020-01-12T08:52:33Z</time></trkpt>
<trkpt lat="43.705947977" lon="11.335469009"><ele>191</ele><time>2020-01-12T08:52:34Z</time></trkpt>
<trkpt lat="43.705967003" lon="11.33542601"><ele>191</ele><time>2020-01-12T08:52:35Z</time></trkpt>
<trkpt lat="43.70598603" lon="11.335383011"><ele>191</ele><time>2020-01-12T08:52:36Z</time></trkpt>
<trkpt lat="43.706047973" lon="11.335266"><ele>190</ele><time>2020-01-12T08:52:39Z</time></trkpt>
<trkpt lat="43.706072029" lon="11.335235992"><ele>190</ele><time>2020-01-12T08:52:40Z</time></trkpt>
<trkpt lat="43.706098013" lon="11.335209003"><ele>190</ele><time>2020-01-12T08:52:41Z</time></trkpt>
<trkpt lat="43.706123997" lon="11.335183019"><ele>190</ele><time>2020-01-12T08:52:42Z</time></trkpt>
<trkpt lat="43.70614998" lon="11.335156029"><ele>190</ele><time>2020-01-12T08:52:43Z</time></trkpt>
<trkpt lat="43.706174958" lon="11.335126022"><ele>190</ele><time>2020-01-12T08:52:44Z</time></trkpt>
<trkpt lat="43.70620002" lon="11.335094003"><ele>190</ele><time>2020-01-12T08:52:45Z</time></trkpt>
<trkpt lat="43.706222987" lon="11.335058967"><ele>190</ele><time>2020-01-12T08:52:46Z</time></trkpt>
<trkpt lat="43.706245031" lon="11.335022002"><ele>189</ele><time>2020-01-12T08:52:47Z</time></trkpt>
<trkpt lat="43.706265986" lon="11.334984032"><ele>189</ele><time>2020-01-12T08:52:48Z</time></trkpt>
<trkpt lat="43.706287025" lon="11.334945979"><ele>189</ele><time>2020-01-12T08:52:49Z</time></trkpt>
<trkpt lat="43.706306973" lon="11.334907003"><ele>189</ele><time>2020-01-12T08:52:50Z</time></trkpt>
<trkpt lat="43.706326" lon="11.334869033"><ele>189</ele><time>2020-01-12T08:52:51Z</time></trkpt>
<trkpt lat="43.706344021" lon="11.334830979"><ele>189</ele><time>2020-01-12T08:52:52Z</time></trkpt>
<trkpt lat="43.706361959" lon="11.334794015"><ele>188</ele><time>2020-01-12T08:52:53Z</time></trkpt>
<trkpt lat="43.706378974" lon="11.334759984"><ele>188</ele><time>2020-01-12T08:52:54Z</time></trkpt>
<trkpt lat="43.706394983" lon="11.334726037"><ele>188</ele><time>2020-01-12T08:52:55Z</time></trkpt>
<trkpt lat="43.706409987" lon="11.334694019"><ele>188</ele><time>2020-01-12T08:52:56Z</time></trkpt>
<trkpt lat="43.706448041" lon="11.334601985"><ele>188</ele><time>2020-01-12T08:52:59Z</time></trkpt>
<trkpt lat="43.70645701" lon="11.334570972"><ele>187</ele><time>2020-01-12T08:53:00Z</time></trkpt>
<trkpt lat="43.706462961" lon="11.334539959"><ele>187</ele><time>2020-01-12T08:53:01Z</time></trkpt>
<trkpt lat="43.706466984" lon="11.334508024"><ele>187</ele><time>2020-01-12T08:53:02Z</time></trkpt>
<trkpt lat="43.706468996" lon="11.334473994"><ele>187</ele><time>2020-01-12T08:53:03Z</time></trkpt>
<trkpt lat="43.706468996" lon="11.334439963"><ele>186</ele><time>2020-01-12T08:53:04Z</time></trkpt>
<trkpt lat="43.706466984" lon="11.334405011"><ele>186</ele><time>2020-01-12T08:53:05Z</time></trkpt>
<trkpt lat="43.706464972" lon="11.334368968"><ele>186</ele><time>2020-01-12T08:53:06Z</time></trkpt>
<trkpt lat="43.706463967" lon="11.334332004"><ele>186</ele><time>2020-01-12T08:53:07Z</time></trkpt>
<trkpt lat="43.706463967" lon="11.334294034"><ele>185</ele><time>2020-01-12T08:53:08Z</time></trkpt>
<trkpt lat="43.706465978" lon="11.334256986"><ele>185</ele><time>2020-01-12T08:53:09Z</time></trkpt>
<trkpt lat="43.70646799" lon="11.334219016"><ele>185</ele><time>2020-01-12T08:53:10Z</time></trkpt>
<trkpt lat="43.706472013" lon="11.334182974"><ele>184</ele><time>2020-01-12T08:53:11Z</time></trkpt>
<trkpt lat="43.706476036" lon="11.334148021"><ele>184</ele><time>2020-01-12T08:53:12Z</time></trkpt>
<trkpt lat="43.706480982" lon="11.334113991"><ele>184</ele><time>2020-01-12T08:53:13Z</time></trkpt>
<trkpt lat="43.706486011" lon="11.334081972"><ele>184</ele><time>2020-01-12T08:53:14Z</time></trkpt>
<trkpt lat="43.706491962" lon="11.334050959"><ele>184</ele><time>2020-01-12T08:53:15Z</time></trkpt>
<trkpt lat="43.706499003" lon="11.33402003"><ele>184</ele><time>2020-01-12T08:53:16Z</time></trkpt>
<trkpt lat="43.70650596" lon="11.333990023"><ele>184</ele><time>2020-01-12T08:53:17Z</time></trkpt>
<trkpt lat="43.706513001" lon="11.333960015"><ele>184</ele><time>2020-01-12T08:53:18Z</time></trkpt>
<trkpt lat="43.706520963" lon="11.333930008"><ele>184</ele><time>2020-01-12T08:53:19Z</time></trkpt>
<trkpt lat="43.70652901" lon="11.333898995"><ele>184</ele><time>2020-01-12T08:53:20Z</time></trkpt>
<trkpt lat="43.706536973" lon="11.333866976"><ele>184</ele><time>2020-01-12T08:53:21Z</time></trkpt>
<trkpt lat="43.706546025" lon="11.333833029"><ele>183</ele><time>2020-01-12T08:53:22Z</time></trkpt>
<trkpt lat="43.706554994" lon="11.333798999"><ele>183</ele><time>2020-01-12T08:53:23Z</time></trkpt>
<trkpt lat="43.706563963" lon="11.333763963"><ele>183</ele><time>2020-01-12T08:53:24Z</time></trkpt>
<trkpt lat="43.706573015" lon="11.33372901"><ele>183</ele><time>2020-01-12T08:53:25Z</time></trkpt>
<trkpt lat="43.706581984" lon="11.333693974"><ele>183</ele><time>2020-01-12T08:53:26Z</time></trkpt>
<trkpt lat="43.706591958" lon="11.333658015"><ele>183</ele><time>2020-01-12T08:53:27Z</time></trkpt>
<trkpt lat="43.706602016" lon="11.333623985"><ele>183</ele><time>2020-01-12T08:53:28Z</time></trkpt>
<trkpt lat="43.706610985" lon="11.333590038"><ele>183</ele><time>2020-01-12T08:53:29Z</time></trkpt>
<trkpt lat="43.70662096" lon="11.333558019"><ele>183</ele><time>2020-01-12T08:53:30Z</time></trkpt>
<trkpt lat="43.706631018" lon="11.333527006"><ele>183</ele><time>2020-01-12T08:53:31Z</time></trkpt>
<trkpt lat="43.706641998" lon="11.333498005"><ele>183</ele><time>2020-01-12T08:53:32Z</time></trkpt>
<trkpt lat="43.706651973" lon="11.333470009"><ele>182</ele><time>2020-01-12T08:53:33Z</time></trkpt>
<trkpt lat="43.706662031" lon="11.333444025"><ele>182</ele><time>2020-01-12T08:53:34Z</time></trkpt>
<trkpt lat="43.706672005" lon="11.333417036"><ele>182</ele><time>2020-01-12T08:53:35Z</time></trkpt>
<trkpt lat="43.70668198" lon="11.333390968"><ele>183</ele><time>2020-01-12T08:53:36Z</time></trkpt>
<trkpt lat="43.706692038" lon="11.333364984"><ele>183</ele><time>2020-01-12T08:53:37Z</time></trkpt>
<trkpt lat="43.706702013" lon="11.333337994"><ele>183</ele><time>2020-01-12T08:53:38Z</time></trkpt>
<trkpt lat="43.706710981" lon="11.333308993"><ele>183</ele><time>2020-01-12T08:53:39Z</time></trkpt>
<trkpt lat="43.706720034" lon="11.333278986"><ele>183</ele><time>2020-01-12T08:53:40Z</time></trkpt>
<trkpt lat="43.706729002" lon="11.333245961"><ele>183</ele><time>2020-01-12T08:53:41Z</time></trkpt>
<trkpt lat="43.706736965" lon="11.33321302"><ele>184</ele><time>2020-01-12T08:53:42Z</time></trkpt>
<trkpt lat="43.706746018" lon="11.33317899"><ele>184</ele><time>2020-01-12T08:53:43Z</time></trkpt>
<trkpt lat="43.706754986" lon="11.333145965"><ele>184</ele><time>2020-01-12T08:53:44Z</time></trkpt>
<trkpt lat="43.706764039" lon="11.33311403"><ele>184</ele><time>2020-01-12T08:53:45Z</time></trkpt>
<trkpt lat="43.706775019" lon="11.333085028"><ele>184</ele><time>2020-01-12T08:53:46Z</time></trkpt>
<trkpt lat="43.706784993" lon="11.333058039"><ele>185</ele><time>2020-01-12T08:53:47Z</time></trkpt>
<trkpt lat="43.70679698" lon="11.333031971"><ele>185</ele><time>2020-01-12T08:53:48Z</time></trkpt>
<trkpt lat="43.706808966" lon="11.333007999"><ele>185</ele><time>2020-01-12T08:53:49Z</time></trkpt>
<trkpt lat="43.706821036" lon="11.332985032"><ele>185</ele><time>2020-01-12T08:53:50Z</time></trkpt>
<trkpt lat="43.706834028" lon="11.332961982"><ele>186</ele><time>2020-01-12T08:53:51Z</time></trkpt>
<trkpt lat="43.706847019" lon="11.332940022"><ele>186</ele><time>2020-01-12T08:53:52Z</time></trkpt>
<trkpt lat="43.706860011" lon="11.332917977"><ele>186</ele><time>2020-01-12T08:53:53Z</time></trkpt>
<trkpt lat="43.706873003" lon="11.332896017"><ele>187</ele><time>2020-01-12T08:53:54Z</time></trkpt>
<trkpt lat="43.706887001" lon="11.332874978"><ele>187</ele><time>2020-01-12T08:53:55Z</time></trkpt>
<trkpt lat="43.706900999" lon="11.332855029"><ele>187</ele><time>2020-01-12T08:53:56Z</time></trkpt>
<trkpt lat="43.706913991" lon="11.33283399"><ele>188</ele><time>2020-01-12T08:53:57Z</time></trkpt>
<trkpt lat="43.706927989" lon="11.332814964"><ele>188</ele><time>2020-01-12T08:53:58Z</time></trkpt>
<trkpt lat="43.706941986" lon="11.33279602"><ele>188</ele><time>2020-01-12T08:53:59Z</time></trkpt>
<trkpt lat="43.706954978" lon="11.332776994"><ele>189</ele><time>2020-01-12T08:54:00Z</time></trkpt>
<trkpt lat="43.70696797" lon="11.332757967"><ele>189</ele><time>2020-01-12T08:54:01Z</time></trkpt>
<trkpt lat="43.706980962" lon="11.332740029"><ele>189</ele><time>2020-01-12T08:54:02Z</time></trkpt>
<trkpt lat="43.706994038" lon="11.332723014"><ele>190</ele><time>2020-01-12T08:54:03Z</time></trkpt>
<trkpt lat="43.707006024" lon="11.332704993"><ele>190</ele><time>2020-01-12T08:54:04Z</time></trkpt>
<trkpt lat="43.70701801" lon="11.332687978"><ele>190</ele><time>2020-01-12T08:54:05Z</time></trkpt>
<trkpt lat="43.707029996" lon="11.332670962"><ele>191</ele><time>2020-01-12T08:54:06Z</time></trkpt>
<trkpt lat="43.707040977" lon="11.332654031"><ele>191</ele><time>2020-01-12T08:54:07Z</time></trkpt>
<trkpt lat="43.707052041" lon="11.332637016"><ele>191</ele><time>2020-01-12T08:54:08Z</time></trkpt>
<trkpt lat="43.707063021" lon="11.332621006"><ele>192</ele><time>2020-01-12T08:54:09Z</time></trkpt>
<trkpt lat="43.707072996" lon="11.332603991"><ele>192</ele><time>2020-01-12T08:54:10Z</time></trkpt>
<trkpt lat="43.707081964" lon="11.332586976"><ele>192</ele><time>2020-01-12T08:54:11Z</time></trkpt>
<trkpt lat="43.707091017" lon="11.332569961"><ele>192</ele><time>2020-01-12T08:54:12Z</time></trkpt>
<trkpt lat="43.707099985" lon="11.332552023"><ele>193</ele><time>2020-01-12T08:54:13Z</time></trkpt>
<trkpt lat="43.707108032" lon="11.332535008"><ele>193</ele><time>2020-01-12T08:54:14Z</time></trkpt>
<trkpt lat="43.707114989" lon="11.332516987"><ele>193</ele><time>2020-01-12T08:54:15Z</time></trkpt>
<trkpt lat="43.70712203" lon="11.33249796"><ele>193</ele><time>2020-01-12T08:54:16Z</time></trkpt>
<trkpt lat="43.707127981" lon="11.332480023"><ele>193</ele><time>2020-01-12T08:54:17Z</time></trkpt>
<trkpt lat="43.707134016" lon="11.332460996"><ele>194</ele><time>2020-01-12T08:54:18Z</time></trkpt>
<trkpt lat="43.707138961" lon="11.332440963"><ele>194</ele><time>2020-01-12T08:54:19Z</time></trkpt>
<trkpt lat="43.707142984" lon="11.332421014"><ele>194</ele><time>2020-01-12T08:54:20Z</time></trkpt>
<trkpt lat="43.707147008" lon="11.332399976"><ele>194</ele><time>2020-01-12T08:54:21Z</time></trkpt>
<trkpt lat="43.707150025" lon="11.332379021"><ele>194</ele><time>2020-01-12T08:54:22Z</time></trkpt>
<trkpt lat="43.707152959" lon="11.332357982"><ele>194</ele><time>2020-01-12T08:54:23Z</time></trkpt>
<trkpt lat="43.707155976" lon="11.332336022"><ele>195</ele><time>2020-01-12T08:54:24Z</time></trkpt>
<trkpt lat="43.707158994" lon="11.332313977"><ele>195</ele><time>2020-01-12T08:54:25Z</time></trkpt>
<trkpt lat="43.707163017" lon="11.332291011"><ele>195</ele><time>2020-01-12T08:54:26Z</time></trkpt>
<trkpt lat="43.707166035" lon="11.332267961"><ele>195</ele><time>2020-01-12T08:54:27Z</time></trkpt>
<trkpt lat="43.707169974" lon="11.332244994"><ele>195</ele><time>2020-01-12T08:54:28Z</time></trkpt>
<trkpt lat="43.707173998" lon="11.332222028"><ele>196</ele><time>2020-01-12T08:54:29Z</time></trkpt>
<trkpt lat="43.707179027" lon="11.332197972"><ele>196</ele><time>2020-01-12T08:54:30Z</time></trkpt>
<trkpt lat="43.707183972" lon="11.332173999"><ele>196</ele><time>2020-01-12T08:54:31Z</time></trkpt>
<trkpt lat="43.707189001" lon="11.332151033"><ele>196</ele><time>2020-01-12T08:54:32Z</time></trkpt>
<trkpt lat="43.70719403" lon="11.332126977"><ele>196</ele><time>2020-01-12T08:54:33Z</time></trkpt>
<trkpt lat="43.707198976" lon="11.332103005"><ele>197</ele><time>2020-01-12T08:54:34Z</time></trkpt>
<trkpt lat="43.707204005" lon="11.332079032"><ele>197</ele><time>2020-01-12T08:54:35Z</time></trkpt>
<trkpt lat="43.707209034" lon="11.332054976"><ele>197</ele><time>2020-01-12T08:54:36Z</time></trkpt>
<trkpt lat="43.707212973" lon="11.332031004"><ele>197</ele><time>2020-01-12T08:54:37Z</time></trkpt>
<trkpt lat="43.707218003" lon="11.332008038"><ele>197</ele><time>2020-01-12T08:54:38Z</time></trkpt>
<trkpt lat="43.707222026" lon="11.331983982"><ele>198</ele><time>2020-01-12T08:54:39Z</time></trkpt>
<trkpt lat="43.70722496" lon="11.331961015"><ele>198</ele><time>2020-01-12T08:54:40Z</time></trkpt>
<trkpt lat="43.707227977" lon="11.331937965"><ele>198</ele><time>2020-01-12T08:54:41Z</time></trkpt>
<trkpt lat="43.707230994" lon="11.331914999"><ele>198</ele><time>2020-01-12T08:54:42Z</time></trkpt>
<trkpt lat="43.707234012" lon="11.331892032"><ele>198</ele><time>2020-01-12T08:54:43Z</time></trkpt>
<trkpt lat="43.707237029" lon="11.331868982"><ele>199</ele><time>2020-01-12T08:54:44Z</time></trkpt>
<trkpt lat="43.707239041" lon="11.331846016"><ele>199</ele><time>2020-01-12T08:54:45Z</time></trkpt>
<trkpt lat="43.707240969" lon="11.331822965"><ele>199</ele><time>2020-01-12T08:54:46Z</time></trkpt>
<trkpt lat="43.707242981" lon="11.331799999"><ele>199</ele><time>2020-01-12T08:54:47Z</time></trkpt>
<trkpt lat="43.707244992" lon="11.331777032"><ele>199</ele><time>2020-01-12T08:54:48Z</time></trkpt>
<trkpt lat="43.707247004" lon="11.331753982"><ele>199</ele><time>2020-01-12T08:54:49Z</time></trkpt>
<trkpt lat="43.707249016" lon="11.331731016"><ele>199</ele><time>2020-01-12T08:54:50Z</time></trkpt>
<trkpt lat="43.707251027" lon="11.331707966"><ele>199</ele><time>2020-01-12T08:54:51Z</time></trkpt>
<trkpt lat="43.707252033" lon="11.331683993"><ele>200</ele><time>2020-01-12T08:54:52Z</time></trkpt>
<trkpt lat="43.707253961" lon="11.331661027"><ele>200</ele><time>2020-01-12T08:54:53Z</time></trkpt>
<trkpt lat="43.707255973" lon="11.331636971"><ele>200</ele><time>2020-01-12T08:54:54Z</time></trkpt>
<trkpt lat="43.707257984" lon="11.331612999"><ele>200</ele><time>2020-01-12T08:54:55Z</time></trkpt>
<trkpt lat="43.707259996" lon="11.331589026"><ele>200</ele><time>2020-01-12T08:54:56Z</time></trkpt>
<trkpt lat="43.707262008" lon="11.33156497"><ele>200</ele><time>2020-01-12T08:54:57Z</time></trkpt>
<trkpt lat="43.707264019" lon="11.331540998"><ele>200</ele><time>2020-01-12T08:54:58Z</time></trkpt>
<trkpt lat="43.707267037" lon="11.331517026"><ele>200</ele><time>2020-01-12T08:54:59Z</time></trkpt>
<trkpt lat="43.707268964" lon="11.33149297"><ele>200</ele><time>2020-01-12T08:55:00Z</time></trkpt>
<trkpt lat="43.707272988" lon="11.331470003"><ele>200</ele><time>2020-01-12T08:55:01Z</time></trkpt>
<trkpt lat="43.707277011" lon="11.331447959"><ele>201</ele><time>2020-01-12T08:55:02Z</time></trkpt>
<trkpt lat="43.707281034" lon="11.33142801"><ele>201</ele><time>2020-01-12T08:55:03Z</time></trkpt>
<trkpt lat="43.707286986" lon="11.331407977"><ele>201</ele><time>2020-01-12T08:55:04Z</time></trkpt>
<trkpt lat="43.707294026" lon="11.331389034"><ele>201</ele><time>2020-01-12T08:55:05Z</time></trkpt>
<trkpt lat="43.707301989" lon="11.331371013"><ele>201</ele><time>2020-01-12T08:55:06Z</time></trkpt>
<trkpt lat="43.707311964" lon="11.331355004"><ele>202</ele><time>2020-01-12T08:55:07Z</time></trkpt>
<trkpt lat="43.707323028" lon="11.331338994"><ele>202</ele><time>2020-01-12T08:55:08Z</time></trkpt>
<trkpt lat="43.707335014" lon="11.331322985"><ele>202</ele><time>2020-01-12T08:55:09Z</time></trkpt>
<trkpt lat="43.707347" lon="11.331307981"><ele>203</ele><time>2020-01-12T08:55:10Z</time></trkpt>
<trkpt lat="43.70735798" lon="11.331290966"><ele>203</ele><time>2020-01-12T08:55:11Z</time></trkpt>
<trkpt lat="43.707367033" lon="11.331274034"><ele>203</ele><time>2020-01-12T08:55:12Z</time></trkpt>
<trkpt lat="43.707377007" lon="11.331256013"><ele>204</ele><time>2020-01-12T08:55:13Z</time></trkpt>
<trkpt lat="43.70738497" lon="11.331236986"><ele>204</ele><time>2020-01-12T08:55:14Z</time></trkpt>
<trkpt lat="43.707394022" lon="11.331217038"><ele>204</ele><time>2020-01-12T08:55:15Z</time></trkpt>
<trkpt lat="43.707403997" lon="11.331197005"><ele>204</ele><time>2020-01-12T08:55:16Z</time></trkpt>
<trkpt lat="43.707413971" lon="11.331175966"><ele>205</ele><time>2020-01-12T08:55:17Z</time></trkpt>
<trkpt lat="43.707426041" lon="11.331155011"><ele>205</ele><time>2020-01-12T08:55:18Z</time></trkpt>
<trkpt lat="43.707437022" lon="11.331133973"><ele>205</ele><time>2020-01-12T08:55:19Z</time></trkpt>
<trkpt lat="43.707450014" lon="11.331113018"><ele>206</ele><time>2020-01-12T08:55:20Z</time></trkpt>
<trkpt lat="43.707462" lon="11.33109198"><ele>206</ele><time>2020-01-12T08:55:21Z</time></trkpt>
<trkpt lat="43.707475998" lon="11.331073036"><ele>206</ele><time>2020-01-12T08:55:22Z</time></trkpt>
<trkpt lat="43.707488989" lon="11.331054009"><ele>207</ele><time>2020-01-12T08:55:23Z</time></trkpt>
<trkpt lat="43.707502987" lon="11.331035988"><ele>207</ele><time>2020-01-12T08:55:24Z</time></trkpt>
<trkpt lat="43.707516985" lon="11.331018973"><ele>207</ele><time>2020-01-12T08:55:25Z</time></trkpt>
<trkpt lat="43.707531989" lon="11.33100397"><ele>208</ele><time>2020-01-12T08:55:26Z</time></trkpt>
<trkpt lat="43.707545986" lon="11.330990978"><ele>208</ele><time>2020-01-12T08:55:27Z</time></trkpt>
<trkpt lat="43.70756099" lon="11.330977986"><ele>208</ele><time>2020-01-12T08:55:28Z</time></trkpt>
<trkpt lat="43.707575994" lon="11.330966"><ele>208</ele><time>2020-01-12T08:55:29Z</time></trkpt>
<trkpt lat="43.707590997" lon="11.330956025"><ele>209</ele><time>2020-01-12T08:55:30Z</time></trkpt>
<trkpt lat="43.707606001" lon="11.330945967"><ele>209</ele><time>2020-01-12T08:55:31Z</time></trkpt>
<trkpt lat="43.707621004" lon="11.330935992"><ele>209</ele><time>2020-01-12T08:55:32Z</time></trkpt>
<trkpt lat="43.707636008" lon="11.330926018"><ele>209</ele><time>2020-01-12T08:55:33Z</time></trkpt>
<trkpt lat="43.707652017" lon="11.330916965"><ele>210</ele><time>2020-01-12T08:55:34Z</time></trkpt>
<trkpt lat="43.707667021" lon="11.330907997"><ele>210</ele><time>2020-01-12T08:55:35Z</time></trkpt>
<trkpt lat="43.707683031" lon="11.330898022"><ele>210</ele><time>2020-01-12T08:55:36Z</time></trkpt>
<trkpt lat="43.707698034" lon="11.33088897"><ele>210</ele><time>2020-01-12T08:55:37Z</time></trkpt>
<trkpt lat="43.70771396" lon="11.330878995"><ele>211</ele><time>2020-01-12T08:55:38Z</time></trkpt>
<trkpt lat="43.707728963" lon="11.330870027"><ele>211</ele><time>2020-01-12T08:55:39Z</time></trkpt>
<trkpt lat="43.707744973" lon="11.330859968"><ele>211</ele><time>2020-01-12T08:55:40Z</time></trkpt>
<trkpt lat="43.707760982" lon="11.330849994"><ele>211</ele><time>2020-01-12T08:55:41Z</time></trkpt>
<trkpt lat="43.707775986" lon="11.33084002"><ele>212</ele><time>2020-01-12T08:55:42Z</time></trkpt>
<trkpt lat="43.707791995" lon="11.330829961"><ele>212</ele><time>2020-01-12T08:55:43Z</time></trkpt>
<trkpt lat="43.707808005" lon="11.330820993"><ele>212</ele><time>2020-01-12T08:55:44Z</time></trkpt>
<trkpt lat="43.707824014" lon="11.330811018"><ele>212</ele><time>2020-01-12T08:55:45Z</time></trkpt>
<trkpt lat="43.707839018" lon="11.33080096"><ele>213</ele><time>2020-01-12T08:55:46Z</time></trkpt>
<trkpt lat="43.707855027" lon="11.330790985"><ele>213</ele><time>2020-01-12T08:55:47Z</time></trkpt>
<trkpt lat="43.707870031" lon="11.330781011"><ele>213</ele><time>2020-01-12T08:55:48Z</time></trkpt>
<trkpt lat="43.70788604" lon="11.330771036"><ele>213</ele><time>2020-01-12T08:55:49Z</time></trkpt>
<trkpt lat="43.70790096" lon="11.330760978"><ele>214</ele><time>2020-01-12T08:55:50Z</time></trkpt>
<trkpt lat="43.707915964" lon="11.330751004"><ele>214</ele><time>2020-01-12T08:55:51Z</time></trkpt>
<trkpt lat="43.707931973" lon="11.330741029"><ele>214</ele><time>2020-01-12T08:55:52Z</time></trkpt>
<trkpt lat="43.707946977" lon="11.330730971"><ele>214</ele><time>2020-01-12T08:55:53Z</time></trkpt>
<trkpt lat="43.70796198" lon="11.330720996"><ele>214</ele><time>2020-01-12T08:55:54Z</time></trkpt>
<trkpt lat="43.707975978" lon="11.330711022"><ele>215</ele><time>2020-01-12T08:55:55Z</time></trkpt>
<trkpt lat="43.707990982" lon="11.330700964"><ele>215</ele><time>2020-01-12T08:55:56Z</time></trkpt>
<trkpt lat="43.708005985" lon="11.330690989"><ele>215</ele><time>2020-01-12T08:55:57Z</time></trkpt>
<trkpt lat="43.708020989" lon="11.330681015"><ele>215</ele><time>2020-01-12T08:55:58Z</time></trkpt>
<trkpt lat="43.708034987" lon="11.33067104"><ele>216</ele><time>2020-01-12T08:55:59Z</time></trkpt>
<trkpt lat="43.70804999" lon="11.330660982"><ele>216</ele><time>2020-01-12T08:56:00Z</time></trkpt>
<trkpt lat="43.708064994" lon="11.330652013"><ele>216</ele><time>2020-01-12T08:56:01Z</time></trkpt>
<trkpt lat="43.708079997" lon="11.330642039"><ele>216</ele><time>2020-01-12T08:56:02Z</time></trkpt>
<trkpt lat="43.708093995" lon="11.330631981"><ele>216</ele><time>2020-01-12T08:56:03Z</time></trkpt>
<trkpt lat="43.708108999" lon="11.330622006"><ele>217</ele><time>2020-01-12T08:56:04Z</time></trkpt>
<trkpt lat="43.708125008" lon="11.330613038"><ele>217</ele><time>2020-01-12T08:56:05Z</time></trkpt>
<trkpt lat="43.708140012" lon="11.330602979"><ele>217</ele><time>2020-01-12T08:56:06Z</time></trkpt>
<trkpt lat="43.708155015" lon="11.330594011"><ele>217</ele><time>2020-01-12T08:56:07Z</time></trkpt>
<trkpt lat="43.708171025" lon="11.330584036"><ele>218</ele><time>2020-01-12T08:56:08Z</time></trkpt>
<trkpt lat="43.708187034" lon="11.330574984"><ele>218</ele><time>2020-01-12T08:56:09Z</time></trkpt>
<trkpt lat="43.70820296" lon="11.330566015"><ele>218</ele><time>2020-01-12T08:56:10Z</time></trkpt>
<trkpt lat="43.708219975" lon="11.330556041"><ele>218</ele><time>2020-01-12T08:56:11Z</time></trkpt>
<trkpt lat="43.708235985" lon="11.330546988"><ele>219</ele><time>2020-01-12T08:56:12Z</time></trkpt>
<trkpt lat="43.708253" lon="11.33053802"><ele>219</ele><time>2020-01-12T08:56:13Z</time></trkpt>
<trkpt lat="43.708271021" lon="11.330528967"><ele>219</ele><time>2020-01-12T08:56:14Z</time></trkpt>
<trkpt lat="43.708288036" lon="11.330519998"><ele>220</ele><time>2020-01-12T08:56:15Z</time></trkpt>
<trkpt lat="43.708305974" lon="11.33051103"><ele>220</ele><time>2020-01-12T08:56:16Z</time></trkpt>
<trkpt lat="43.708323995" lon="11.330500972"><ele>220</ele><time>2020-01-12T08:56:17Z</time></trkpt>
<trkpt lat="43.708343022" lon="11.330492003"><ele>220</ele><time>2020-01-12T08:56:18Z</time></trkpt>
<trkpt lat="43.708360959" lon="11.330482028"><ele>220</ele><time>2020-01-12T08:56:19Z</time></trkpt>
<trkpt lat="43.708379986" lon="11.33047197"><ele>220</ele><time>2020-01-12T08:56:20Z</time></trkpt>
<trkpt lat="43.708398007" lon="11.33046099"><ele>220</ele><time>2020-01-12T08:56:21Z</time></trkpt>
<trkpt lat="43.708417034" lon="11.33045001"><ele>220</ele><time>2020-01-12T08:56:22Z</time></trkpt>
<trkpt lat="43.708435977" lon="11.330438023"><ele>220</ele><time>2020-01-12T08:56:23Z</time></trkpt>
<trkpt lat="43.708455004" lon="11.330425031"><ele>220</ele><time>2020-01-12T08:56:24Z</time></trkpt>
<trkpt lat="43.708474031" lon="11.33041204"><ele>220</ele><time>2020-01-12T08:56:25Z</time></trkpt>
<trkpt lat="43.708492974" lon="11.330398042"><ele>220</ele><time>2020-01-12T08:56:26Z</time></trkpt>
<trkpt lat="43.708512001" lon="11.33038396"><ele>220</ele><time>2020-01-12T08:56:27Z</time></trkpt>
<trkpt lat="43.708531028" lon="11.330368035"><ele>219</ele><time>2020-01-12T08:56:28Z</time></trkpt>
<trkpt lat="43.708549971" lon="11.330351019"><ele>219</ele><time>2020-01-12T08:56:29Z</time></trkpt>
<trkpt lat="43.708567992" lon="11.330334004"><ele>219</ele><time>2020-01-12T08:56:30Z</time></trkpt>
<trkpt lat="43.708587019" lon="11.330314977"><ele>219</ele><time>2020-01-12T08:56:31Z</time></trkpt>
<trkpt lat="43.70860504" lon="11.330296034"><ele>219</ele><time>2020-01-12T08:56:32Z</time></trkpt>
<trkpt lat="43.708622977" lon="11.330276001"><ele>219</ele><time>2020-01-12T08:56:33Z</time></trkpt>
<trkpt lat="43.708638987" lon="11.330255968"><ele>219</ele><time>2020-01-12T08:56:34Z</time></trkpt>
<trkpt lat="43.70865399" lon="11.330238031"><ele>219</ele><time>2020-01-12T08:56:35Z</time></trkpt>
<trkpt lat="43.708665976" lon="11.330223028"><ele>219</ele><time>2020-01-12T08:56:36Z</time></trkpt>
<trkpt lat="43.708676035" lon="11.330210036"><ele>219</ele><time>2020-01-12T08:56:37Z</time></trkpt>
<trkpt lat="43.708682992" lon="11.330197966"><ele>219</ele><time>2020-01-12T08:56:38Z</time></trkpt>
<trkpt lat="43.708690032" lon="11.330187991"><ele>219</ele><time>2020-01-12T08:56:39Z</time></trkpt>
<trkpt lat="43.708695984" lon="11.330177011"><ele>219</ele><time>2020-01-12T08:56:40Z</time></trkpt>
<trkpt lat="43.708709981" lon="11.330150021"><ele>219</ele><time>2020-01-12T08:56:42Z</time></trkpt>
<trkpt lat="43.708718028" lon="11.330134012"><ele>219</ele><time>2020-01-12T08:56:43Z</time></trkpt>
<trkpt lat="43.708724985" lon="11.330120014"><ele>219</ele><time>2020-01-12T08:56:44Z</time></trkpt>
<trkpt lat="43.70873102" lon="11.330107022"><ele>219</ele><time>2020-01-12T08:56:45Z</time></trkpt>
<trkpt lat="43.708751975" lon="11.330075003"><ele>219</ele><time>2020-01-12T08:56:47Z</time></trkpt>
<trkpt lat="43.708769996" lon="11.330052959"><ele>219</ele><time>2020-01-12T08:56:48Z</time></trkpt>
<trkpt lat="43.708843002" lon="11.329985987"><ele>218</ele><time>2020-01-12T08:56:51Z</time></trkpt>
<trkpt lat="43.708870998" lon="11.32996696"><ele>218</ele><time>2020-01-12T08:56:52Z</time></trkpt>
<trkpt lat="43.708899999" lon="11.329948017"><ele>219</ele><time>2020-01-12T08:56:53Z</time></trkpt>
<trkpt lat="43.708930006" lon="11.329931002"><ele>219</ele><time>2020-01-12T08:56:54Z</time></trkpt>
<trkpt lat="43.708961019" lon="11.329913987"><ele>219</ele><time>2020-01-12T08:56:55Z</time></trkpt>
<trkpt lat="43.708993038" lon="11.329896972"><ele>219</ele><time>2020-01-12T08:56:56Z</time></trkpt>
<trkpt lat="43.709024973" lon="11.329879034"><ele>219</ele><time>2020-01-12T08:56:57Z</time></trkpt>
<trkpt lat="43.709056992" lon="11.329861013"><ele>219</ele><time>2020-01-12T08:56:58Z</time></trkpt>
<trkpt lat="43.709089011" lon="11.329841986"><ele>219</ele><time>2020-01-12T08:56:59Z</time></trkpt>
<trkpt lat="43.709122036" lon="11.329821032"><ele>219</ele><time>2020-01-12T08:57:00Z</time></trkpt>
<trkpt lat="43.709152965" lon="11.329798987"><ele>219</ele><time>2020-01-12T08:57:01Z</time></trkpt>
<trkpt lat="43.709184984" lon="11.329776021"><ele>219</ele><time>2020-01-12T08:57:02Z</time></trkpt>
<trkpt lat="43.709215997" lon="11.329750037"><ele>218</ele><time>2020-01-12T08:57:03Z</time></trkpt>
<trkpt lat="43.709246004" lon="11.329723969"><ele>218</ele><time>2020-01-12T08:57:04Z</time></trkpt>
<trkpt lat="43.709276011" lon="11.329696979"><ele>218</ele><time>2020-01-12T08:57:05Z</time></trkpt>
<trkpt lat="43.709305013" lon="11.329667978"><ele>218</ele><time>2020-01-12T08:57:06Z</time></trkpt>
<trkpt lat="43.709333008" lon="11.329639982"><ele>217</ele><time>2020-01-12T08:57:07Z</time></trkpt>
<trkpt lat="43.709359998" lon="11.329609975"><ele>217</ele><time>2020-01-12T08:57:08Z</time></trkpt>
<trkpt lat="43.709386988" lon="11.329580974"><ele>217</ele><time>2020-01-12T08:57:09Z</time></trkpt>
<trkpt lat="43.709412972" lon="11.329550967"><ele>217</ele><time>2020-01-12T08:57:10Z</time></trkpt>
<trkpt lat="43.709437028" lon="11.329521965"><ele>217</ele><time>2020-01-12T08:57:11Z</time></trkpt>
<trkpt lat="43.709462006" lon="11.329492042"><ele>216</ele><time>2020-01-12T08:57:12Z</time></trkpt>
<trkpt lat="43.709484972" lon="11.329462035"><ele>216</ele><time>2020-01-12T08:57:13Z</time></trkpt>
<trkpt lat="43.709508022" lon="11.329433033"><ele>216</ele><time>2020-01-12T08:57:14Z</time></trkpt>
<trkpt lat="43.709530989" lon="11.329403026"><ele>216</ele><time>2020-01-12T08:57:15Z</time></trkpt>
<trkpt lat="43.709554039" lon="11.329374025"><ele>216</ele><time>2020-01-12T08:57:16Z</time></trkpt>
<trkpt lat="43.709576" lon="11.329344017"><ele>215</ele><time>2020-01-12T08:57:17Z</time></trkpt>
<trkpt lat="43.709598966" lon="11.329315016"><ele>215</ele><time>2020-01-12T08:57:18Z</time></trkpt>
<trkpt lat="43.709622016" lon="11.329286015"><ele>215</ele><time>2020-01-12T08:57:19Z</time></trkpt>
<trkpt lat="43.709644983" lon="11.329257013"><ele>215</ele><time>2020-01-12T08:57:20Z</time></trkpt>
<trkpt lat="43.709668033" lon="11.329228012"><ele>215</ele><time>2020-01-12T08:57:21Z</time></trkpt>
<trkpt lat="43.709692005" lon="11.329199011"><ele>215</ele><time>2020-01-12T08:57:22Z</time></trkpt>
<trkpt lat="43.709716983" lon="11.329170009"><ele>214</ele><time>2020-01-12T08:57:23Z</time></trkpt>
<trkpt lat="43.709741039" lon="11.329142014"><ele>214</ele><time>2020-01-12T08:57:24Z</time></trkpt>
<trkpt lat="43.709766017" lon="11.329113012"><ele>214</ele><time>2020-01-12T08:57:25Z</time></trkpt>
<trkpt lat="43.709792001" lon="11.329084011"><ele>214</ele><time>2020-01-12T08:57:26Z</time></trkpt>
<trkpt lat="43.709817985" lon="11.329056015"><ele>214</ele><time>2020-01-12T08:57:27Z</time></trkpt>
<trkpt lat="43.709844975" lon="11.32902802"><ele>214</ele><time>2020-01-12T08:57:28Z</time></trkpt>
<trkpt lat="43.709871965" lon="11.328999018"><ele>213</ele><time>2020-01-12T08:57:29Z</time></trkpt>
<trkpt lat="43.70989996" lon="11.328971023"><ele>213</ele><time>2020-01-12T08:57:30Z</time></trkpt>
<trkpt lat="43.709928039" lon="11.328944033"><ele>213</ele><time>2020-01-12T08:57:31Z</time></trkpt>
<trkpt lat="43.709957041" lon="11.328918971"><ele>213</ele><time>2020-01-12T08:57:32Z</time></trkpt>
<trkpt lat="43.709985958" lon="11.328894999"><ele>213</ele><time>2020-01-12T08:57:33Z</time></trkpt>
<trkpt lat="43.710015966" lon="11.32887396"><ele>213</ele><time>2020-01-12T08:57:34Z</time></trkpt>
<trkpt lat="43.710046979" lon="11.328855017"><ele>213</ele><time>2020-01-12T08:57:35Z</time></trkpt>
<trkpt lat="43.710077992" lon="11.328840014"><ele>212</ele><time>2020-01-12T08:57:36Z</time></trkpt>
<trkpt lat="43.710110011" lon="11.328828027"><ele>212</ele><time>2020-01-12T08:57:37Z</time></trkpt>
<trkpt lat="43.710142029" lon="11.328820987"><ele>212</ele><time>2020-01-12T08:57:38Z</time></trkpt>
<trkpt lat="43.71017497" lon="11.328817969"><ele>212</ele><time>2020-01-12T08:57:39Z</time></trkpt>
<trkpt lat="43.710207995" lon="11.328818975"><ele>212</ele><time>2020-01-12T08:57:40Z</time></trkpt>
<trkpt lat="43.710242026" lon="11.328822998"><ele>211</ele><time>2020-01-12T08:57:41Z</time></trkpt>
<trkpt lat="43.710275972" lon="11.328830039"><ele>211</ele><time>2020-01-12T08:57:42Z</time></trkpt>
<trkpt lat="43.710310003" lon="11.328839008"><ele>211</ele><time>2020-01-12T08:57:43Z</time></trkpt>
<trkpt lat="43.710344033" lon="11.328848982"><ele>210</ele><time>2020-01-12T08:57:44Z</time></trkpt>
<trkpt lat="43.71037798" lon="11.328859963"><ele>210</ele><time>2020-01-12T08:57:45Z</time></trkpt>
<trkpt lat="43.710412011" lon="11.328871027"><ele>210</ele><time>2020-01-12T08:57:46Z</time></trkpt>
<trkpt lat="43.710445035" lon="11.328881001"><ele>210</ele><time>2020-01-12T08:57:47Z</time></trkpt>
<trkpt lat="43.710478982" lon="11.32888997"><ele>209</ele><time>2020-01-12T08:57:48Z</time></trkpt>
<trkpt lat="43.710511001" lon="11.328898016"><ele>209</ele><time>2020-01-12T08:57:49Z</time></trkpt>
<trkpt lat="43.710544026" lon="11.328904973"><ele>209</ele><time>2020-01-12T08:57:50Z</time></trkpt>
<trkpt lat="43.710575961" lon="11.328910002"><ele>208</ele><time>2020-01-12T08:57:51Z</time></trkpt>
<trkpt lat="43.710607979" lon="11.328915032"><ele>208</ele><time>2020-01-12T08:57:52Z</time></trkpt>
<trkpt lat="43.710639998" lon="11.328918971"><ele>208</ele><time>2020-01-12T08:57:53Z</time></trkpt>
<trkpt lat="43.710672017" lon="11.328921989"><ele>208</ele><time>2020-01-12T08:57:54Z</time></trkpt>
<trkpt lat="43.71070303" lon="11.328924"><ele>208</ele><time>2020-01-12T08:57:55Z</time></trkpt>
<trkpt lat="43.710734965" lon="11.328926012"><ele>207</ele><time>2020-01-12T08:57:56Z</time></trkpt>
<trkpt lat="43.710765978" lon="11.328928024"><ele>207</ele><time>2020-01-12T08:57:57Z</time></trkpt>
<trkpt lat="43.710796991" lon="11.328930035"><ele>207</ele><time>2020-01-12T08:57:58Z</time></trkpt>
<trkpt lat="43.710828004" lon="11.328931041"><ele>207</ele><time>2020-01-12T08:57:59Z</time></trkpt>
<trkpt lat="43.710860023" lon="11.328931963"><ele>206</ele><time>2020-01-12T08:58:00Z</time></trkpt>
<trkpt lat="43.710891036" lon="11.328933975"><ele>206</ele><time>2020-01-12T08:58:01Z</time></trkpt>
<trkpt lat="43.710922971" lon="11.328934981"><ele>206</ele><time>2020-01-12T08:58:02Z</time></trkpt>
<trkpt lat="43.710953984" lon="11.328936992"><ele>205</ele><time>2020-01-12T08:58:03Z</time></trkpt>
<trkpt lat="43.710986003" lon="11.328939004"><ele>205</ele><time>2020-01-12T08:58:04Z</time></trkpt>
<trkpt lat="43.711018022" lon="11.328942021"><ele>204</ele><time>2020-01-12T08:58:05Z</time></trkpt>
<trkpt lat="43.711050041" lon="11.328945961"><ele>204</ele><time>2020-01-12T08:58:06Z</time></trkpt>
<trkpt lat="43.711081976" lon="11.328949984"><ele>204</ele><time>2020-01-12T08:58:07Z</time></trkpt>
<trkpt lat="43.711115001" lon="11.328955013"><ele>203</ele><time>2020-01-12T08:58:08Z</time></trkpt>
<trkpt lat="43.711148025" lon="11.328959959"><ele>203</ele><time>2020-01-12T08:58:09Z</time></trkpt>
<trkpt lat="43.711180966" lon="11.328964988"><ele>202</ele><time>2020-01-12T08:58:10Z</time></trkpt>
<trkpt lat="43.711213991" lon="11.328971023"><ele>202</ele><time>2020-01-12T08:58:11Z</time></trkpt>
<trkpt lat="43.711248022" lon="11.328975968"><ele>202</ele><time>2020-01-12T08:58:12Z</time></trkpt>
<trkpt lat="43.711280962" lon="11.328980997"><ele>201</ele><time>2020-01-12T08:58:13Z</time></trkpt>
<trkpt lat="43.711314993" lon="11.328985021"><ele>201</ele><time>2020-01-12T08:58:14Z</time></trkpt>
<trkpt lat="43.711349024" lon="11.32898896"><ele>201</ele><time>2020-01-12T08:58:15Z</time></trkpt>
<trkpt lat="43.71138297" lon="11.328991977"><ele>200</ele><time>2020-01-12T08:58:16Z</time></trkpt>
<trkpt lat="43.711451031" lon="11.328996001"><ele>199</ele><time>2020-01-12T08:58:18Z</time></trkpt>
<trkpt lat="43.711485984" lon="11.328997007"><ele>199</ele><time>2020-01-12T08:58:19Z</time></trkpt>
<trkpt lat="43.71152102" lon="11.329000024"><ele>199</ele><time>2020-01-12T08:58:20Z</time></trkpt>
<trkpt lat="43.711555973" lon="11.329003042"><ele>198</ele><time>2020-01-12T08:58:21Z</time></trkpt>
<trkpt lat="43.711592015" lon="11.329007987"><ele>198</ele><time>2020-01-12T08:58:22Z</time></trkpt>
<trkpt lat="43.711627973" lon="11.329013016"><ele>197</ele><time>2020-01-12T08:58:23Z</time></trkpt>
<trkpt lat="43.711664015" lon="11.329017039"><ele>197</ele><time>2020-01-12T08:58:24Z</time></trkpt>
<trkpt lat="43.711697962" lon="11.329017039"><ele>197</ele><time>2020-01-12T08:58:25Z</time></trkpt>
<trkpt lat="43.711729981" lon="11.32901201"><ele>197</ele><time>2020-01-12T08:58:26Z</time></trkpt>
<trkpt lat="43.711787984" lon="11.328985021"><ele>197</ele><time>2020-01-12T08:58:28Z</time></trkpt>
<trkpt lat="43.711813968" lon="11.32896197"><ele>197</ele><time>2020-01-12T08:58:29Z</time></trkpt>
<trkpt lat="43.711838024" lon="11.328933975"><ele>197</ele><time>2020-01-12T08:58:30Z</time></trkpt>
<trkpt lat="43.711858978" lon="11.328899022"><ele>197</ele><time>2020-01-12T08:58:31Z</time></trkpt>
<trkpt lat="43.711879011" lon="11.328859041"><ele>197</ele><time>2020-01-12T08:58:32Z</time></trkpt>
<trkpt lat="43.711897032" lon="11.328816041"><ele>197</ele><time>2020-01-12T08:58:33Z</time></trkpt>
<trkpt lat="43.711915975" lon="11.328772036"><ele>197</ele><time>2020-01-12T08:58:34Z</time></trkpt>
<trkpt lat="43.711935002" lon="11.328727026"><ele>197</ele><time>2020-01-12T08:58:35Z</time></trkpt>
<trkpt lat="43.711956041" lon="11.328684026"><ele>197</ele><time>2020-01-12T08:58:36Z</time></trkpt>
<trkpt lat="43.711976996" lon="11.328643039"><ele>196</ele><time>2020-01-12T08:58:37Z</time></trkpt>
<trkpt lat="43.71199904" lon="11.328603979"><ele>196</ele><time>2020-01-12T08:58:38Z</time></trkpt>
<trkpt lat="43.712022007" lon="11.328565003"><ele>196</ele><time>2020-01-12T08:58:39Z</time></trkpt>
<trkpt lat="43.712044973" lon="11.328528039"><ele>196</ele><time>2020-01-12T08:58:40Z</time></trkpt>
<trkpt lat="43.712069029" lon="11.328493003"><ele>196</ele><time>2020-01-12T08:58:41Z</time></trkpt>
<trkpt lat="43.712093001" lon="11.328457966"><ele>196</ele><time>2020-01-12T08:58:42Z</time></trkpt>
<trkpt lat="43.712116973" lon="11.32842402"><ele>195</ele><time>2020-01-12T08:58:43Z</time></trkpt>
<trkpt lat="43.712142035" lon="11.328390995"><ele>195</ele><time>2020-01-12T08:58:44Z</time></trkpt>
<trkpt lat="43.712165002" lon="11.328358976"><ele>195</ele><time>2020-01-12T08:58:45Z</time></trkpt>
<trkpt lat="43.712188974" lon="11.328327041"><ele>195</ele><time>2020-01-12T08:58:46Z</time></trkpt>
<trkpt lat="43.712212024" lon="11.328296028"><ele>195</ele><time>2020-01-12T08:58:47Z</time></trkpt>
<trkpt lat="43.712235996" lon="11.328265015"><ele>195</ele><time>2020-01-12T08:58:48Z</time></trkpt>
<trkpt lat="43.712258963" lon="11.328234002"><ele>195</ele><time>2020-01-12T08:58:49Z</time></trkpt>
<trkpt lat="43.712282013" lon="11.328202989"><ele>195</ele><time>2020-01-12T08:58:50Z</time></trkpt>
<trkpt lat="43.71230498" lon="11.328172982"><ele>194</ele><time>2020-01-12T08:58:51Z</time></trkpt>
<trkpt lat="43.712327024" lon="11.328141969"><ele>194</ele><time>2020-01-12T08:58:52Z</time></trkpt>
<trkpt lat="43.71234999" lon="11.328111039"><ele>194</ele><time>2020-01-12T08:58:53Z</time></trkpt>
<trkpt lat="43.712373041" lon="11.328079021"><ele>194</ele><time>2020-01-12T08:58:54Z</time></trkpt>
<trkpt lat="43.712395001" lon="11.328047002"><ele>194</ele><time>2020-01-12T08:58:55Z</time></trkpt>
<trkpt lat="43.712417968" lon="11.328014983"><ele>194</ele><time>2020-01-12T08:58:56Z</time></trkpt>
<trkpt lat="43.712441018" lon="11.327982964"><ele>194</ele><time>2020-01-12T08:58:57Z</time></trkpt>
<trkpt lat="43.712463984" lon="11.327950023"><ele>193</ele><time>2020-01-12T08:58:58Z</time></trkpt>
<trkpt lat="43.712487034" lon="11.327918004"><ele>193</ele><time>2020-01-12T08:58:59Z</time></trkpt>
<trkpt lat="43.712511007" lon="11.327885985"><ele>193</ele><time>2020-01-12T08:59:00Z</time></trkpt>
<trkpt lat="43.712533973" lon="11.327854972"><ele>193</ele><time>2020-01-12T08:59:01Z</time></trkpt>
<trkpt lat="43.712559035" lon="11.327823959"><ele>193</ele><time>2020-01-12T08:59:02Z</time></trkpt>
<trkpt lat="43.712583007" lon="11.327794036"><ele>193</ele><time>2020-01-12T08:59:03Z</time></trkpt>
<trkpt lat="43.712607985" lon="11.327765035"><ele>193</ele><time>2020-01-12T08:59:04Z</time></trkpt>
<trkpt lat="43.712633969" lon="11.327736033"><ele>193</ele><time>2020-01-12T08:59:05Z</time></trkpt>
<trkpt lat="43.712660037" lon="11.32770896"><ele>193</ele><time>2020-01-12T08:59:06Z</time></trkpt>
<trkpt lat="43.712686021" lon="11.32768197"><ele>193</ele><time>2020-01-12T08:59:07Z</time></trkpt>
<trkpt lat="43.712763973" lon="11.327603012"><ele>193</ele><time>2020-01-12T08:59:10Z</time></trkpt>
<trkpt lat="43.71279004" lon="11.327577028"><ele>192</ele><time>2020-01-12T08:59:11Z</time></trkpt>
<trkpt lat="43.712816024" lon="11.327550961"><ele>192</ele><time>2020-01-12T08:59:12Z</time></trkpt>
<trkpt lat="43.712842008" lon="11.327524977"><ele>192</ele><time>2020-01-12T08:59:13Z</time></trkpt>
<trkpt lat="43.712866986" lon="11.327497987"><ele>192</ele><time>2020-01-12T08:59:14Z</time></trkpt>
<trkpt lat="43.712891964" lon="11.327470997"><ele>192</ele><time>2020-01-12T08:59:15Z</time></trkpt>
<trkpt lat="43.712917026" lon="11.327444008"><ele>192</ele><time>2020-01-12T08:59:16Z</time></trkpt>
<trkpt lat="43.712940998" lon="11.327416012"><ele>192</ele><time>2020-01-12T08:59:17Z</time></trkpt>
<trkpt lat="43.712965976" lon="11.327388017"><ele>192</ele><time>2020-01-12T08:59:18Z</time></trkpt>
<trkpt lat="43.712991038" lon="11.327360021"><ele>192</ele><time>2020-01-12T08:59:19Z</time></trkpt>
<trkpt lat="43.713016016" lon="11.327330014"><ele>192</ele><time>2020-01-12T08:59:20Z</time></trkpt>
<trkpt lat="43.713040994" lon="11.327301012"><ele>192</ele><time>2020-01-12T08:59:21Z</time></trkpt>
<trkpt lat="43.713066978" lon="11.327269999"><ele>192</ele><time>2020-01-12T08:59:22Z</time></trkpt>
<trkpt lat="43.713093968" lon="11.327238986"><ele>192</ele><time>2020-01-12T08:59:23Z</time></trkpt>
<trkpt lat="43.713121042" lon="11.327207973"><ele>192</ele><time>2020-01-12T08:59:24Z</time></trkpt>
<trkpt lat="43.713148031" lon="11.327177966"><ele>192</ele><time>2020-01-12T08:59:25Z</time></trkpt>
<trkpt lat="43.713176027" lon="11.32714997"><ele>192</ele><time>2020-01-12T08:59:26Z</time></trkpt>
<trkpt lat="43.713204022" lon="11.327122981"><ele>192</ele><time>2020-01-12T08:59:27Z</time></trkpt>
<trkpt lat="43.713232018" lon="11.327100014"><ele>191</ele><time>2020-01-12T08:59:28Z</time></trkpt>
<trkpt lat="43.713260014" lon="11.32707797"><ele>191</ele><time>2020-01-12T08:59:29Z</time></trkpt>
<trkpt lat="43.713288009" lon="11.327057015"><ele>191</ele><time>2020-01-12T08:59:30Z</time></trkpt>
<trkpt lat="43.713317011" lon="11.327036982"><ele>191</ele><time>2020-01-12T08:59:31Z</time></trkpt>
<trkpt lat="43.713345006" lon="11.327015022"><ele>191</ele><time>2020-01-12T08:59:32Z</time></trkpt>
<trkpt lat="43.713374007" lon="11.326990966"><ele>191</ele><time>2020-01-12T08:59:33Z</time></trkpt>
<trkpt lat="43.713404015" lon="11.326964982"><ele>191</ele><time>2020-01-12T08:59:34Z</time></trkpt>
<trkpt lat="43.713433016" lon="11.326936986"><ele>191</ele><time>2020-01-12T08:59:35Z</time></trkpt>
<trkpt lat="43.713463023" lon="11.326908991"><ele>191</ele><time>2020-01-12T08:59:36Z</time></trkpt>
<trkpt lat="43.713493031" lon="11.326879989"><ele>190</ele><time>2020-01-12T08:59:37Z</time></trkpt>
<trkpt lat="43.71352396" lon="11.326850988"><ele>190</ele><time>2020-01-12T08:59:38Z</time></trkpt>
<trkpt lat="43.713553967" lon="11.326821987"><ele>190</ele><time>2020-01-12T08:59:39Z</time></trkpt>
<trkpt lat="43.71358498" lon="11.326792985"><ele>190</ele><time>2020-01-12T08:59:40Z</time></trkpt>
<trkpt lat="43.713614987" lon="11.326765995"><ele>190</ele><time>2020-01-12T08:59:41Z</time></trkpt>
<trkpt lat="43.713646" lon="11.326740012"><ele>190</ele><time>2020-01-12T08:59:42Z</time></trkpt>
<trkpt lat="43.713677013" lon="11.326715034"><ele>189</ele><time>2020-01-12T08:59:43Z</time></trkpt>
<trkpt lat="43.713707021" lon="11.326689972"><ele>189</ele><time>2020-01-12T08:59:44Z</time></trkpt>
<trkpt lat="43.713738034" lon="11.326667005"><ele>189</ele><time>2020-01-12T08:59:45Z</time></trkpt>
<trkpt lat="43.713768041" lon="11.326644961"><ele>189</ele><time>2020-01-12T08:59:46Z</time></trkpt>
<trkpt lat="43.713797964" lon="11.326623"><ele>189</ele><time>2020-01-12T08:59:47Z</time></trkpt>
<trkpt lat="43.713827971" lon="11.326601962"><ele>189</ele><time>2020-01-12T08:59:48Z</time></trkpt>
<trkpt lat="43.713856973" lon="11.326581007"><ele>189</ele><time>2020-01-12T08:59:49Z</time></trkpt>
<trkpt lat="43.713885974" lon="11.326559968"><ele>189</ele><time>2020-01-12T08:59:50Z</time></trkpt>
<trkpt lat="43.71391397" lon="11.326539014"><ele>188</ele><time>2020-01-12T08:59:51Z</time></trkpt>
<trkpt lat="43.713941965" lon="11.326518981"><ele>188</ele><time>2020-01-12T08:59:52Z</time></trkpt>
<trkpt lat="43.713969039" lon="11.326498026"><ele>188</ele><time>2020-01-12T08:59:53Z</time></trkpt>
<trkpt lat="43.713996029" lon="11.326476987"><ele>188</ele><time>2020-01-12T08:59:54Z</time></trkpt>
<trkpt lat="43.714023018" lon="11.326456033"><ele>188</ele><time>2020-01-12T08:59:55Z</time></trkpt>
<trkpt lat="43.714050008" lon="11.326434994"><ele>187</ele><time>2020-01-12T08:59:56Z</time></trkpt>
<trkpt lat="43.714076998" lon="11.326414961"><ele>187</ele><time>2020-01-12T08:59:57Z</time></trkpt>
<trkpt lat="43.714104993" lon="11.326394007"><ele>187</ele><time>2020-01-12T08:59:58Z</time></trkpt>
<trkpt lat="43.714132989" lon="11.326373974"><ele>187</ele><time>2020-01-12T08:59:59Z</time></trkpt>
<trkpt lat="43.714160984" lon="11.326354025"><ele>186</ele><time>2020-01-12T09:00:00Z</time></trkpt>
<trkpt lat="43.714190992" lon="11.326333992"><ele>186</ele><time>2020-01-12T09:00:01Z</time></trkpt>
<trkpt lat="43.714219993" lon="11.326313959"><ele>186</ele><time>2020-01-12T09:00:02Z</time></trkpt>
<trkpt lat="43.71425" lon="11.326295016"><ele>186</ele><time>2020-01-12T09:00:03Z</time></trkpt>
<trkpt lat="43.714280007" lon="11.326274984"><ele>186</ele><time>2020-01-12T09:00:04Z</time></trkpt>
<trkpt lat="43.714310015" lon="11.326254029"><ele>186</ele><time>2020-01-12T09:00:05Z</time></trkpt>
<trkpt lat="43.71433801" lon="11.32623299"><ele>186</ele><time>2020-01-12T09:00:06Z</time></trkpt>
<trkpt lat="43.714366006" lon="11.326212035"><ele>185</ele><time>2020-01-12T09:00:07Z</time></trkpt>
<trkpt lat="43.714392995" lon="11.326189991"><ele>185</ele><time>2020-01-12T09:00:08Z</time></trkpt>
<trkpt lat="43.714419985" lon="11.326167025"><ele>185</ele><time>2020-01-12T09:00:09Z</time></trkpt>
<trkpt lat="43.714446975" lon="11.326142969"><ele>185</ele><time>2020-01-12T09:00:10Z</time></trkpt>
<trkpt lat="43.71447497" lon="11.326117991"><ele>185</ele><time>2020-01-12T09:00:11Z</time></trkpt>
<trkpt lat="43.71450196" lon="11.326093012"><ele>185</ele><time>2020-01-12T09:00:12Z</time></trkpt>
<trkpt lat="43.714529034" lon="11.326067029"><ele>184</ele><time>2020-01-12T09:00:13Z</time></trkpt>
<trkpt lat="43.714608997" lon="11.325985976"><ele>184</ele><time>2020-01-12T09:00:16Z</time></trkpt>
<trkpt lat="43.714633975" lon="11.32595798"><ele>183</ele><time>2020-01-12T09:00:17Z</time></trkpt>
<trkpt lat="43.714659959" lon="11.325929984"><ele>183</ele><time>2020-01-12T09:00:18Z</time></trkpt>
<trkpt lat="43.714684015" lon="11.325902995"><ele>183</ele><time>2020-01-12T09:00:19Z</time></trkpt>
<trkpt lat="43.714707987" lon="11.325874999"><ele>183</ele><time>2020-01-12T09:00:20Z</time></trkpt>
<trkpt lat="43.714731038" lon="11.325847004"><ele>182</ele><time>2020-01-12T09:00:21Z</time></trkpt>
<trkpt lat="43.714754004" lon="11.325819008"><ele>182</ele><time>2020-01-12T09:00:22Z</time></trkpt>
<trkpt lat="43.71477697" lon="11.325791012"><ele>182</ele><time>2020-01-12T09:00:23Z</time></trkpt>
<trkpt lat="43.714799015" lon="11.325763017"><ele>182</ele><time>2020-01-12T09:00:24Z</time></trkpt>
<trkpt lat="43.714820975" lon="11.325734016"><ele>182</ele><time>2020-01-12T09:00:25Z</time></trkpt>
<trkpt lat="43.714844026" lon="11.325705014"><ele>182</ele><time>2020-01-12T09:00:26Z</time></trkpt>
<trkpt lat="43.714866992" lon="11.325675007"><ele>182</ele><time>2020-01-12T09:00:27Z</time></trkpt>
<trkpt lat="43.714889959" lon="11.325643994"><ele>182</ele><time>2020-01-12T09:00:28Z</time></trkpt>
<trkpt lat="43.714914015" lon="11.325611975"><ele>182</ele><time>2020-01-12T09:00:29Z</time></trkpt>
<trkpt lat="43.714937987" lon="11.325579034"><ele>182</ele><time>2020-01-12T09:00:30Z</time></trkpt>
<trkpt lat="43.714962965" lon="11.325545004"><ele>181</ele><time>2020-01-12T09:00:31Z</time></trkpt>
<trkpt lat="43.714988027" lon="11.325509967"><ele>181</ele><time>2020-01-12T09:00:32Z</time></trkpt>
<trkpt lat="43.715014011" lon="11.325475015"><ele>181</ele><time>2020-01-12T09:00:33Z</time></trkpt>
<trkpt lat="43.715038989" lon="11.325437967"><ele>181</ele><time>2020-01-12T09:00:34Z</time></trkpt>
<trkpt lat="43.715062961" lon="11.325402008"><ele>181</ele><time>2020-01-12T09:00:35Z</time></trkpt>
<trkpt lat="43.715088023" lon="11.32536496"><ele>181</ele><time>2020-01-12T09:00:36Z</time></trkpt>
<trkpt lat="43.715110989" lon="11.32532699"><ele>182</ele><time>2020-01-12T09:00:37Z</time></trkpt>
<trkpt lat="43.715133034" lon="11.32528902"><ele>182</ele><time>2020-01-12T09:00:38Z</time></trkpt>
<trkpt lat="43.715154994" lon="11.325250966"><ele>182</ele><time>2020-01-12T09:00:39Z</time></trkpt>
<trkpt lat="43.715175027" lon="11.325212996"><ele>182</ele><time>2020-01-12T09:00:40Z</time></trkpt>
<trkpt lat="43.71519397" lon="11.325175026"><ele>182</ele><time>2020-01-12T09:00:41Z</time></trkpt>
<trkpt lat="43.715211991" lon="11.325136973"><ele>182</ele><time>2020-01-12T09:00:42Z</time></trkpt>
<trkpt lat="43.715229006" lon="11.325099003"><ele>181</ele><time>2020-01-12T09:00:43Z</time></trkpt>
<trkpt lat="43.715245016" lon="11.325060027"><ele>181</ele><time>2020-01-12T09:00:44Z</time></trkpt>
<trkpt lat="43.715261025" lon="11.325020967"><ele>181</ele><time>2020-01-12T09:00:45Z</time></trkpt>
<trkpt lat="43.715277035" lon="11.324982997"><ele>181</ele><time>2020-01-12T09:00:46Z</time></trkpt>
<trkpt lat="43.715291033" lon="11.324944021"><ele>181</ele><time>2020-01-12T09:00:47Z</time></trkpt>
<trkpt lat="43.715306036" lon="11.324904962"><ele>181</ele><time>2020-01-12T09:00:48Z</time></trkpt>
<trkpt lat="43.715320034" lon="11.324865986"><ele>182</ele><time>2020-01-12T09:00:49Z</time></trkpt>
<trkpt lat="43.715334032" lon="11.324826004"><ele>182</ele><time>2020-01-12T09:00:50Z</time></trkpt>
<trkpt lat="43.71534803" lon="11.324787028"><ele>182</ele><time>2020-01-12T09:00:51Z</time></trkpt>
<trkpt lat="43.715361021" lon="11.324747968"><ele>182</ele><time>2020-01-12T09:00:52Z</time></trkpt>
<trkpt lat="43.715375019" lon="11.324707987"><ele>182</ele><time>2020-01-12T09:00:53Z</time></trkpt>
<trkpt lat="43.715389017" lon="11.324668005"><ele>182</ele><time>2020-01-12T09:00:54Z</time></trkpt>
<trkpt lat="43.715404021" lon="11.324629029"><ele>182</ele><time>2020-01-12T09:00:55Z</time></trkpt>
<trkpt lat="43.715419024" lon="11.324588964"><ele>182</ele><time>2020-01-12T09:00:56Z</time></trkpt>
<trkpt lat="43.715434028" lon="11.324548982"><ele>182</ele><time>2020-01-12T09:00:57Z</time></trkpt>
<trkpt lat="43.715450037" lon="11.324509"><ele>181</ele><time>2020-01-12T09:00:58Z</time></trkpt>
<trkpt lat="43.715465963" lon="11.324469019"><ele>181</ele><time>2020-01-12T09:00:59Z</time></trkpt>
<trkpt lat="43.715482978" lon="11.324429037"><ele>181</ele><time>2020-01-12T09:01:00Z</time></trkpt>
<trkpt lat="43.715499993" lon="11.324388972"><ele>181</ele><time>2020-01-12T09:01:01Z</time></trkpt>
<trkpt lat="43.715518015" lon="11.32434899"><ele>181</ele><time>2020-01-12T09:01:02Z</time></trkpt>
<trkpt lat="43.715537041" lon="11.324309008"><ele>181</ele><time>2020-01-12T09:01:03Z</time></trkpt>
<trkpt lat="43.715555985" lon="11.324269027"><ele>181</ele><time>2020-01-12T09:01:04Z</time></trkpt>
<trkpt lat="43.715575011" lon="11.324229967"><ele>181</ele><time>2020-01-12T09:01:05Z</time></trkpt>
<trkpt lat="43.71559496" lon="11.324190991"><ele>181</ele><time>2020-01-12T09:01:06Z</time></trkpt>
<trkpt lat="43.715614993" lon="11.324152015"><ele>181</ele><time>2020-01-12T09:01:07Z</time></trkpt>
<trkpt lat="43.715636032" lon="11.324113961"><ele>180</ele><time>2020-01-12T09:01:08Z</time></trkpt>
<trkpt lat="43.715656986" lon="11.324075991"><ele>180</ele><time>2020-01-12T09:01:09Z</time></trkpt>
<trkpt lat="43.715678025" lon="11.324039027"><ele>180</ele><time>2020-01-12T09:01:10Z</time></trkpt>
<trkpt lat="43.715699986" lon="11.324001979"><ele>180</ele><time>2020-01-12T09:01:11Z</time></trkpt>
<trkpt lat="43.71572203" lon="11.323965015"><ele>180</ele><time>2020-01-12T09:01:12Z</time></trkpt>
<trkpt lat="43.715743991" lon="11.323929979"><ele>180</ele><time>2020-01-12T09:01:13Z</time></trkpt>
<trkpt lat="43.715767041" lon="11.323895026"><ele>179</ele><time>2020-01-12T09:01:14Z</time></trkpt>
<trkpt lat="43.715790007" lon="11.32385999"><ele>179</ele><time>2020-01-12T09:01:15Z</time></trkpt>
<trkpt lat="43.715812974" lon="11.323826965"><ele>179</ele><time>2020-01-12T09:01:16Z</time></trkpt>
<trkpt lat="43.71583703" lon="11.323794024"><ele>179</ele><time>2020-01-12T09:01:17Z</time></trkpt>
<trkpt lat="43.715861002" lon="11.323762005"><ele>179</ele><time>2020-01-12T09:01:18Z</time></trkpt>
<trkpt lat="43.715884974" lon="11.323729986"><ele>179</ele><time>2020-01-12T09:01:19Z</time></trkpt>
<trkpt lat="43.71590903" lon="11.323698973"><ele>179</ele><time>2020-01-12T09:01:20Z</time></trkpt>
<trkpt lat="43.715933003" lon="11.323668966"><ele>179</ele><time>2020-01-12T09:01:21Z</time></trkpt>
<trkpt lat="43.715957981" lon="11.323638959"><ele>179</ele><time>2020-01-12T09:01:22Z</time></trkpt>
<trkpt lat="43.715982037" lon="11.323610041"><ele>179</ele><time>2020-01-12T09:01:23Z</time></trkpt>
<trkpt lat="43.716007015" lon="11.32358104"><ele>179</ele><time>2020-01-12T09:01:24Z</time></trkpt>
<trkpt lat="43.716031993" lon="11.323552961"><ele>179</ele><time>2020-01-12T09:01:25Z</time></trkpt>
<trkpt lat="43.716055965" lon="11.323523959"><ele>178</ele><time>2020-01-12T09:01:26Z</time></trkpt>
<trkpt lat="43.716081027" lon="11.323495964"><ele>178</ele><time>2020-01-12T09:01:27Z</time></trkpt>
<trkpt lat="43.716106005" lon="11.323467968"><ele>178</ele><time>2020-01-12T09:01:28Z</time></trkpt>
<trkpt lat="43.716129977" lon="11.323439972"><ele>178</ele><time>2020-01-12T09:01:29Z</time></trkpt>
<trkpt lat="43.716155039" lon="11.323410971"><ele>178</ele><time>2020-01-12T09:01:30Z</time></trkpt>
<trkpt lat="43.716179011" lon="11.323380964"><ele>178</ele><time>2020-01-12T09:01:31Z</time></trkpt>
<trkpt lat="43.716202984" lon="11.32335104"><ele>178</ele><time>2020-01-12T09:01:32Z</time></trkpt>
<trkpt lat="43.71622704" lon="11.323320027"><ele>178</ele><time>2020-01-12T09:01:33Z</time></trkpt>
<trkpt lat="43.716251012" lon="11.323287003"><ele>178</ele><time>2020-01-12T09:01:34Z</time></trkpt>
<trkpt lat="43.716273978" lon="11.323252972"><ele>178</ele><time>2020-01-12T09:01:35Z</time></trkpt>
<trkpt lat="43.716297029" lon="11.323217014"><ele>178</ele><time>2020-01-12T09:01:36Z</time></trkpt>
<trkpt lat="43.716319995" lon="11.323180972"><ele>178</ele><time>2020-01-12T09:01:37Z</time></trkpt>
<trkpt lat="43.716342961" lon="11.323145013"><ele>177</ele><time>2020-01-12T09:01:38Z</time></trkpt>
<trkpt lat="43.716365006" lon="11.323108971"><ele>177</ele><time>2020-01-12T09:01:39Z</time></trkpt>
<trkpt lat="43.716386966" lon="11.32307603"><ele>177</ele><time>2020-01-12T09:01:40Z</time></trkpt>
<trkpt lat="43.716409011" lon="11.323045017"><ele>177</ele><time>2020-01-12T09:01:41Z</time></trkpt>
<trkpt lat="43.716429966" lon="11.323017022"><ele>177</ele><time>2020-01-12T09:01:42Z</time></trkpt>
<trkpt lat="43.71645201" lon="11.322989026"><ele>177</ele><time>2020-01-12T09:01:43Z</time></trkpt>
<trkpt lat="43.716471959" lon="11.322962036"><ele>176</ele><time>2020-01-12T09:01:44Z</time></trkpt>
<trkpt lat="43.716492997" lon="11.322933035"><ele>176</ele><time>2020-01-12T09:01:45Z</time></trkpt>
<trkpt lat="43.71651303" lon="11.322903028"><ele>176</ele><time>2020-01-12T09:01:46Z</time></trkpt>
<trkpt lat="43.716532979" lon="11.322872015"><ele>176</ele><time>2020-01-12T09:01:47Z</time></trkpt>
<trkpt lat="43.716553012" lon="11.322839996"><ele>176</ele><time>2020-01-12T09:01:48Z</time></trkpt>
<trkpt lat="43.716572961" lon="11.322807977"><ele>175</ele><time>2020-01-12T09:01:49Z</time></trkpt>
<trkpt lat="43.716592994" lon="11.322775036"><ele>175</ele><time>2020-01-12T09:01:50Z</time></trkpt>
<trkpt lat="43.716615038" lon="11.322742011"><ele>175</ele><time>2020-01-12T09:01:51Z</time></trkpt>
<trkpt lat="43.716636999" lon="11.322709993"><ele>175</ele><time>2020-01-12T09:01:52Z</time></trkpt>
<trkpt lat="43.716659965" lon="11.322677974"><ele>174</ele><time>2020-01-12T09:01:53Z</time></trkpt>
<trkpt lat="43.716685027" lon="11.322647966"><ele>174</ele><time>2020-01-12T09:01:54Z</time></trkpt>
<trkpt lat="43.716710005" lon="11.322618965"><ele>174</ele><time>2020-01-12T09:01:55Z</time></trkpt>
<trkpt lat="43.716736995" lon="11.32259097"><ele>174</ele><time>2020-01-12T09:01:56Z</time></trkpt>
<trkpt lat="43.716763984" lon="11.322561968"><ele>174</ele><time>2020-01-12T09:01:57Z</time></trkpt>
<trkpt lat="43.716790974" lon="11.322532967"><ele>174</ele><time>2020-01-12T09:01:58Z</time></trkpt>
<trkpt lat="43.716816036" lon="11.322502038"><ele>174</ele><time>2020-01-12T09:01:59Z</time></trkpt>
<trkpt lat="43.716839002" lon="11.322468007"><ele>174</ele><time>2020-01-12T09:02:00Z</time></trkpt>
<trkpt lat="43.716861969" lon="11.322432971"><ele>174</ele><time>2020-01-12T09:02:01Z</time></trkpt>
<trkpt lat="43.716883007" lon="11.322396006"><ele>174</ele><time>2020-01-12T09:02:02Z</time></trkpt>
<trkpt lat="43.716903962" lon="11.322358958"><ele>174</ele><time>2020-01-12T09:02:03Z</time></trkpt>
<trkpt lat="43.716925001" lon="11.322323"><ele>174</ele><time>2020-01-12T09:02:04Z</time></trkpt>
<trkpt lat="43.716946961" lon="11.322287042"><ele>174</ele><time>2020-01-12T09:02:05Z</time></trkpt>
<trkpt lat="43.717015022" lon="11.322188973"><ele>174</ele><time>2020-01-12T09:02:08Z</time></trkpt>
<trkpt lat="43.717038995" lon="11.322157038"><ele>174</ele><time>2020-01-12T09:02:09Z</time></trkpt>
<trkpt lat="43.717061961" lon="11.322127031"><ele>174</ele><time>2020-01-12T09:02:10Z</time></trkpt>
<trkpt lat="43.717086017" lon="11.322097024"><ele>174</ele><time>2020-01-12T09:02:11Z</time></trkpt>
<trkpt lat="43.717110995" lon="11.322068023"><ele>174</ele><time>2020-01-12T09:02:12Z</time></trkpt>
<trkpt lat="43.717134967" lon="11.322038015"><ele>174</ele><time>2020-01-12T09:02:13Z</time></trkpt>
<trkpt lat="43.717159024" lon="11.32201002"><ele>174</ele><time>2020-01-12T09:02:14Z</time></trkpt>
<trkpt lat="43.717182996" lon="11.321981018"><ele>174</ele><time>2020-01-12T09:02:15Z</time></trkpt>
<trkpt lat="43.717206968" lon="11.321953023"><ele>174</ele><time>2020-01-12T09:02:16Z</time></trkpt>
<trkpt lat="43.717231024" lon="11.321925027"><ele>174</ele><time>2020-01-12T09:02:17Z</time></trkpt>
<trkpt lat="43.717256002" lon="11.321898038"><ele>174</ele><time>2020-01-12T09:02:18Z</time></trkpt>
<trkpt lat="43.717279974" lon="11.32187197"><ele>174</ele><time>2020-01-12T09:02:19Z</time></trkpt>
<trkpt lat="43.717305958" lon="11.321846992"><ele>173</ele><time>2020-01-12T09:02:20Z</time></trkpt>
<trkpt lat="43.71733102" lon="11.32182302"><ele>173</ele><time>2020-01-12T09:02:21Z</time></trkpt>
<trkpt lat="43.71735801" lon="11.321799969"><ele>173</ele><time>2020-01-12T09:02:22Z</time></trkpt>
<trkpt lat="43.717385" lon="11.321779015"><ele>173</ele><time>2020-01-12T09:02:23Z</time></trkpt>
<trkpt lat="43.717411989" lon="11.321757976"><ele>173</ele><time>2020-01-12T09:02:24Z</time></trkpt>
<trkpt lat="43.717440991" lon="11.321740039"><ele>173</ele><time>2020-01-12T09:02:25Z</time></trkpt>
<trkpt lat="43.717469992" lon="11.321722018"><ele>173</ele><time>2020-01-12T09:02:26Z</time></trkpt>
<trkpt lat="43.717498994" lon="11.321705002"><ele>172</ele><time>2020-01-12T09:02:27Z</time></trkpt>
<trkpt lat="43.717529001" lon="11.321689999"><ele>172</ele><time>2020-01-12T09:02:28Z</time></trkpt>
<trkpt lat="43.717559008" lon="11.321676001"><ele>172</ele><time>2020-01-12T09:02:29Z</time></trkpt>
<trkpt lat="43.717589015" lon="11.321662003"><ele>172</ele><time>2020-01-12T09:02:30Z</time></trkpt>
<trkpt lat="43.717620028" lon="11.321649011"><ele>172</ele><time>2020-01-12T09:02:31Z</time></trkpt>
<trkpt lat="43.717650035" lon="11.321637025"><ele>172</ele><time>2020-01-12T09:02:32Z</time></trkpt>
<trkpt lat="43.717680965" lon="11.321625961"><ele>173</ele><time>2020-01-12T09:02:33Z</time></trkpt>
<trkpt lat="43.717710972" lon="11.321614981"><ele>173</ele><time>2020-01-12T09:02:34Z</time></trkpt>
<trkpt lat="43.717741985" lon="11.321604"><ele>173</ele><time>2020-01-12T09:02:35Z</time></trkpt>
<trkpt lat="43.717771992" lon="11.321595032"><ele>173</ele><time>2020-01-12T09:02:36Z</time></trkpt>
<trkpt lat="43.717801999" lon="11.321585979"><ele>173</ele><time>2020-01-12T09:02:37Z</time></trkpt>
<trkpt lat="43.717833012" lon="11.321577011"><ele>173</ele><time>2020-01-12T09:02:38Z</time></trkpt>
<trkpt lat="43.71786302" lon="11.321568964"><ele>173</ele><time>2020-01-12T09:02:39Z</time></trkpt>
<trkpt lat="43.717894033" lon="11.321562007"><ele>173</ele><time>2020-01-12T09:02:40Z</time></trkpt>
<trkpt lat="43.71792404" lon="11.321555972"><ele>173</ele><time>2020-01-12T09:02:41Z</time></trkpt>
<trkpt lat="43.717954969" lon="11.321550021"><ele>173</ele><time>2020-01-12T09:02:42Z</time></trkpt>
<trkpt lat="43.717984976" lon="11.321544992"><ele>173</ele><time>2020-01-12T09:02:43Z</time></trkpt>
<trkpt lat="43.718015989" lon="11.321540968"><ele>173</ele><time>2020-01-12T09:02:44Z</time></trkpt>
<trkpt lat="43.718045997" lon="11.321536023"><ele>173</ele><time>2020-01-12T09:02:45Z</time></trkpt>
<trkpt lat="43.718076004" lon="11.321530994"><ele>173</ele><time>2020-01-12T09:02:46Z</time></trkpt>
<trkpt lat="43.718106011" lon="11.321524959"><ele>173</ele><time>2020-01-12T09:02:47Z</time></trkpt>
<trkpt lat="43.718135012" lon="11.321518002"><ele>173</ele><time>2020-01-12T09:02:48Z</time></trkpt>
<trkpt lat="43.718164014" lon="11.321510039"><ele>173</ele><time>2020-01-12T09:02:49Z</time></trkpt>
<trkpt lat="43.718191003" lon="11.321500987"><ele>173</ele><time>2020-01-12T09:02:50Z</time></trkpt>
<trkpt lat="43.718217993" lon="11.321489001"><ele>173</ele><time>2020-01-12T09:02:51Z</time></trkpt>
<trkpt lat="43.718243977" lon="11.321475003"><ele>173</ele><time>2020-01-12T09:02:52Z</time></trkpt>
<trkpt lat="43.718269961" lon="11.321458993"><ele>173</ele><time>2020-01-12T09:02:53Z</time></trkpt>
<trkpt lat="43.718295023" lon="11.321442984"><ele>173</ele><time>2020-01-12T09:02:54Z</time></trkpt>
<trkpt lat="43.718321007" lon="11.321425969"><ele>173</ele><time>2020-01-12T09:02:55Z</time></trkpt>
<trkpt lat="43.718347996" lon="11.321409037"><ele>173</ele><time>2020-01-12T09:02:56Z</time></trkpt>
<trkpt lat="43.718375992" lon="11.321394034"><ele>173</ele><time>2020-01-12T09:02:57Z</time></trkpt>
<trkpt lat="43.718405999" lon="11.32137903"><ele>173</ele><time>2020-01-12T09:02:58Z</time></trkpt>
<trkpt lat="43.718436006" lon="11.321366038"><ele>173</ele><time>2020-01-12T09:02:59Z</time></trkpt>
<trkpt lat="43.718466014" lon="11.321352962"><ele>172</ele><time>2020-01-12T09:03:00Z</time></trkpt>
<trkpt lat="43.718497027" lon="11.32133997"><ele>172</ele><time>2020-01-12T09:03:01Z</time></trkpt>
<trkpt lat="43.71852804" lon="11.321326979"><ele>172</ele><time>2020-01-12T09:03:02Z</time></trkpt>
<trkpt lat="43.718558969" lon="11.321313987"><ele>172</ele><time>2020-01-12T09:03:03Z</time></trkpt>
<trkpt lat="43.718588976" lon="11.321302"><ele>172</ele><time>2020-01-12T09:03:04Z</time></trkpt>
<trkpt lat="43.718617978" lon="11.321289008"><ele>172</ele><time>2020-01-12T09:03:05Z</time></trkpt>
<trkpt lat="43.718646979" lon="11.321277022"><ele>171</ele><time>2020-01-12T09:03:06Z</time></trkpt>
<trkpt lat="43.718674975" lon="11.321265036"><ele>171</ele><time>2020-01-12T09:03:07Z</time></trkpt>
<trkpt lat="43.718701964" lon="11.321252966"><ele>171</ele><time>2020-01-12T09:03:08Z</time></trkpt>
<trkpt lat="43.718728032" lon="11.32124098"><ele>171</ele><time>2020-01-12T09:03:09Z</time></trkpt>
<trkpt lat="43.71875301" lon="11.321228994"><ele>171</ele><time>2020-01-12T09:03:10Z</time></trkpt>
<trkpt lat="43.718775976" lon="11.321217008"><ele>171</ele><time>2020-01-12T09:03:11Z</time></trkpt>
<trkpt lat="43.718798021" lon="11.321205022"><ele>171</ele><time>2020-01-12T09:03:12Z</time></trkpt>
<trkpt lat="43.718819981" lon="11.321193036"><ele>171</ele><time>2020-01-12T09:03:13Z</time></trkpt>
<trkpt lat="43.718840014" lon="11.321179038"><ele>171</ele><time>2020-01-12T09:03:14Z</time></trkpt>
<trkpt lat="43.718860969" lon="11.321164034"><ele>171</ele><time>2020-01-12T09:03:15Z</time></trkpt>
<trkpt lat="43.718882008" lon="11.321147019"><ele>170</ele><time>2020-01-12T09:03:16Z</time></trkpt>
<trkpt lat="43.718903968" lon="11.321126986"><ele>170</ele><time>2020-01-12T09:03:17Z</time></trkpt>
<trkpt lat="43.718927018" lon="11.321105026"><ele>170</ele><time>2020-01-12T09:03:18Z</time></trkpt>
<trkpt lat="43.718949985" lon="11.321081975"><ele>170</ele><time>2020-01-12T09:03:19Z</time></trkpt>
<trkpt lat="43.718973035" lon="11.321058003"><ele>170</ele><time>2020-01-12T09:03:20Z</time></trkpt>
<trkpt lat="43.718996001" lon="11.321034031"><ele>170</ele><time>2020-01-12T09:03:21Z</time></trkpt>
<trkpt lat="43.719062973" lon="11.320963958"><ele>170</ele><time>2020-01-12T09:03:24Z</time></trkpt>
<trkpt lat="43.719085017" lon="11.320940992"><ele>170</ele><time>2020-01-12T09:03:25Z</time></trkpt>
<trkpt lat="43.719107984" lon="11.320916014"><ele>170</ele><time>2020-01-12T09:03:26Z</time></trkpt>
<trkpt lat="43.719130028" lon="11.320891036"><ele>170</ele><time>2020-01-12T09:03:27Z</time></trkpt>
<trkpt lat="43.719152994" lon="11.320863962"><ele>170</ele><time>2020-01-12T09:03:28Z</time></trkpt>
<trkpt lat="43.719175961" lon="11.320834961"><ele>170</ele><time>2020-01-12T09:03:29Z</time></trkpt>
<trkpt lat="43.719200017" lon="11.320803026"><ele>170</ele><time>2020-01-12T09:03:30Z</time></trkpt>
<trkpt lat="43.719224995" lon="11.320770001"><ele>170</ele><time>2020-01-12T09:03:31Z</time></trkpt>
<trkpt lat="43.719249973" lon="11.320733959"><ele>169</ele><time>2020-01-12T09:03:32Z</time></trkpt>
<trkpt lat="43.719276041" lon="11.320695989"><ele>169</ele><time>2020-01-12T09:03:33Z</time></trkpt>
<trkpt lat="43.719302025" lon="11.320657013"><ele>169</ele><time>2020-01-12T09:03:34Z</time></trkpt>
<trkpt lat="43.719327003" lon="11.320618037"><ele>169</ele><time>2020-01-12T09:03:35Z</time></trkpt>
<trkpt lat="43.719402021" lon="11.320502032"><ele>168</ele><time>2020-01-12T09:03:38Z</time></trkpt>
<trkpt lat="43.719424987" lon="11.320465989"><ele>168</ele><time>2020-01-12T09:03:39Z</time></trkpt>
<trkpt lat="43.719446026" lon="11.320431037"><ele>168</ele><time>2020-01-12T09:03:40Z</time></trkpt>
<trkpt lat="43.719466981" lon="11.320399018"><ele>168</ele><time>2020-01-12T09:03:41Z</time></trkpt>
<trkpt lat="43.719486007" lon="11.320369011"><ele>168</ele><time>2020-01-12T09:03:42Z</time></trkpt>
<trkpt lat="43.719504029" lon="11.320341015"><ele>168</ele><time>2020-01-12T09:03:43Z</time></trkpt>
<trkpt lat="43.71952096" lon="11.320315031"><ele>168</ele><time>2020-01-12T09:03:44Z</time></trkpt>
<trkpt lat="43.719537975" lon="11.320289969"><ele>168</ele><time>2020-01-12T09:03:45Z</time></trkpt>
<trkpt lat="43.719554991" lon="11.320265997"><ele>168</ele><time>2020-01-12T09:03:46Z</time></trkpt>
<trkpt lat="43.719572006" lon="11.320243031"><ele>168</ele><time>2020-01-12T09:03:47Z</time></trkpt>
<trkpt lat="43.719590027" lon="11.320219981"><ele>168</ele><time>2020-01-12T09:03:48Z</time></trkpt>
<trkpt lat="43.719607964" lon="11.320197014"><ele>167</ele><time>2020-01-12T09:03:49Z</time></trkpt>
<trkpt lat="43.719626991" lon="11.320173964"><ele>167</ele><time>2020-01-12T09:03:50Z</time></trkpt>
<trkpt lat="43.719647024" lon="11.320150997"><ele>167</ele><time>2020-01-12T09:03:51Z</time></trkpt>
<trkpt lat="43.719667979" lon="11.320127025"><ele>167</ele><time>2020-01-12T09:03:52Z</time></trkpt>
<trkpt lat="43.719689017" lon="11.320103975"><ele>167</ele><time>2020-01-12T09:03:53Z</time></trkpt>
<trkpt lat="43.719709972" lon="11.320080003"><ele>167</ele><time>2020-01-12T09:03:54Z</time></trkpt>
<trkpt lat="43.71973101" lon="11.320055025"><ele>167</ele><time>2020-01-12T09:03:55Z</time></trkpt>
<trkpt lat="43.719751965" lon="11.320030969"><ele>167</ele><time>2020-01-12T09:03:56Z</time></trkpt>
<trkpt lat="43.719773004" lon="11.320005991"><ele>167</ele><time>2020-01-12T09:03:57Z</time></trkpt>
<trkpt lat="43.719792031" lon="11.319982018"><ele>167</ele><time>2020-01-12T09:03:58Z</time></trkpt>
<trkpt lat="43.719810974" lon="11.319956034"><ele>167</ele><time>2020-01-12T09:03:59Z</time></trkpt>
<trkpt lat="43.719828995" lon="11.319930973"><ele>167</ele><time>2020-01-12T09:04:00Z</time></trkpt>
<trkpt lat="43.71984601" lon="11.319905994"><ele>167</ele><time>2020-01-12T09:04:01Z</time></trkpt>
<trkpt lat="43.719863025" lon="11.319880011"><ele>167</ele><time>2020-01-12T09:04:02Z</time></trkpt>
<trkpt lat="43.719878029" lon="11.319854027"><ele>167</ele><time>2020-01-12T09:04:03Z</time></trkpt>
<trkpt lat="43.719894039" lon="11.319827959"><ele>167</ele><time>2020-01-12T09:04:04Z</time></trkpt>
<trkpt lat="43.719908958" lon="11.319801975"><ele>167</ele><time>2020-01-12T09:04:05Z</time></trkpt>
<trkpt lat="43.71992304" lon="11.319775991"><ele>167</ele><time>2020-01-12T09:04:06Z</time></trkpt>
<trkpt lat="43.71993796" lon="11.319750007"><ele>167</ele><time>2020-01-12T09:04:07Z</time></trkpt>
<trkpt lat="43.719952963" lon="11.319723018"><ele>167</ele><time>2020-01-12T09:04:08Z</time></trkpt>
<trkpt lat="43.719967967" lon="11.319697034"><ele>167</ele><time>2020-01-12T09:04:09Z</time></trkpt>
<trkpt lat="43.719983976" lon="11.319670966"><ele>167</ele><time>2020-01-12T09:04:10Z</time></trkpt>
<trkpt lat="43.71999898" lon="11.319644982"><ele>167</ele><time>2020-01-12T09:04:11Z</time></trkpt>
<trkpt lat="43.720014989" lon="11.319618998"><ele>168</ele><time>2020-01-12T09:04:12Z</time></trkpt>
<trkpt lat="43.720030999" lon="11.319592008"><ele>168</ele><time>2020-01-12T09:04:13Z</time></trkpt>
<trkpt lat="43.720048014" lon="11.319566024"><ele>168</ele><time>2020-01-12T09:04:14Z</time></trkpt>
<trkpt lat="43.720064024" lon="11.319540041"><ele>168</ele><time>2020-01-12T09:04:15Z</time></trkpt>
<trkpt lat="43.720081039" lon="11.319513973"><ele>168</ele><time>2020-01-12T09:04:16Z</time></trkpt>
<trkpt lat="43.720096964" lon="11.319487989"><ele>168</ele><time>2020-01-12T09:04:17Z</time></trkpt>
<trkpt lat="43.72011398" lon="11.319460999"><ele>168</ele><time>2020-01-12T09:04:18Z</time></trkpt>
<trkpt lat="43.720130995" lon="11.319435015"><ele>168</ele><time>2020-01-12T09:04:19Z</time></trkpt>
<trkpt lat="43.72014801" lon="11.319409031"><ele>168</ele><time>2020-01-12T09:04:20Z</time></trkpt>
<trkpt lat="43.720165025" lon="11.319382964"><ele>168</ele><time>2020-01-12T09:04:21Z</time></trkpt>
<trkpt lat="43.720182041" lon="11.31935698"><ele>168</ele><time>2020-01-12T09:04:22Z</time></trkpt>
<trkpt lat="43.720197966" lon="11.319330996"><ele>168</ele><time>2020-01-12T09:04:23Z</time></trkpt>
<trkpt lat="43.720214982" lon="11.319305012"><ele>168</ele><time>2020-01-12T09:04:24Z</time></trkpt>
<trkpt lat="43.720231997" lon="11.319278022"><ele>169</ele><time>2020-01-12T09:04:25Z</time></trkpt>
<trkpt lat="43.720249012" lon="11.319252038"><ele>169</ele><time>2020-01-12T09:04:26Z</time></trkpt>
<trkpt lat="43.720265022" lon="11.319225971"><ele>169</ele><time>2020-01-12T09:04:27Z</time></trkpt>
<trkpt lat="43.720281031" lon="11.319199987"><ele>169</ele><time>2020-01-12T09:04:28Z</time></trkpt>
<trkpt lat="43.720297962" lon="11.319174003"><ele>169</ele><time>2020-01-12T09:04:29Z</time></trkpt>
<trkpt lat="43.720312966" lon="11.319147013"><ele>169</ele><time>2020-01-12T09:04:30Z</time></trkpt>
<trkpt lat="43.720328975" lon="11.319121029"><ele>169</ele><time>2020-01-12T09:04:31Z</time></trkpt>
<trkpt lat="43.720343979" lon="11.319094039"><ele>170</ele><time>2020-01-12T09:04:32Z</time></trkpt>
<trkpt lat="43.720358983" lon="11.319066966"><ele>170</ele><time>2020-01-12T09:04:33Z</time></trkpt>
<trkpt lat="43.72037298" lon="11.31903897"><ele>170</ele><time>2020-01-12T09:04:34Z</time></trkpt>
<trkpt lat="43.720386978" lon="11.319010975"><ele>170</ele><time>2020-01-12T09:04:35Z</time></trkpt>
<trkpt lat="43.720400976" lon="11.318981973"><ele>170</ele><time>2020-01-12T09:04:36Z</time></trkpt>
<trkpt lat="43.720412962" lon="11.318951966"><ele>170</ele><time>2020-01-12T09:04:37Z</time></trkpt>
<trkpt lat="43.720425032" lon="11.318921959"><ele>170</ele><time>2020-01-12T09:04:38Z</time></trkpt>
<trkpt lat="43.720437018" lon="11.31889103"><ele>171</ele><time>2020-01-12T09:04:39Z</time></trkpt>
<trkpt lat="43.720447998" lon="11.318859011"><ele>171</ele><time>2020-01-12T09:04:40Z</time></trkpt>
<trkpt lat="43.720457973" lon="11.318826992"><ele>171</ele><time>2020-01-12T09:04:41Z</time></trkpt>
<trkpt lat="43.720468031" lon="11.318793967"><ele>171</ele><time>2020-01-12T09:04:42Z</time></trkpt>
<trkpt lat="43.720478006" lon="11.318761026"><ele>171</ele><time>2020-01-12T09:04:43Z</time></trkpt>
<trkpt lat="43.72048798" lon="11.318728002"><ele>172</ele><time>2020-01-12T09:04:44Z</time></trkpt>
<trkpt lat="43.720497033" lon="11.318693971"><ele>172</ele><time>2020-01-12T09:04:45Z</time></trkpt>
<trkpt lat="43.720507007" lon="11.318660025"><ele>172</ele><time>2020-01-12T09:04:46Z</time></trkpt>
<trkpt lat="43.720515976" lon="11.318625994"><ele>172</ele><time>2020-01-12T09:04:47Z</time></trkpt>
<trkpt lat="43.720526034" lon="11.318591963"><ele>172</ele><time>2020-01-12T09:04:48Z</time></trkpt>
<trkpt lat="43.720536008" lon="11.318557011"><ele>173</ele><time>2020-01-12T09:04:49Z</time></trkpt>
<trkpt lat="43.720545983" lon="11.318521975"><ele>173</ele><time>2020-01-12T09:04:50Z</time></trkpt>
<trkpt lat="43.720556041" lon="11.318486016"><ele>173</ele><time>2020-01-12T09:04:51Z</time></trkpt>
<trkpt lat="43.720567022" lon="11.318449974"><ele>173</ele><time>2020-01-12T09:04:52Z</time></trkpt>
<trkpt lat="43.720578002" lon="11.318412004"><ele>174</ele><time>2020-01-12T09:04:53Z</time></trkpt>
<trkpt lat="43.72058697" lon="11.31837504"><ele>174</ele><time>2020-01-12T09:04:54Z</time></trkpt>
<trkpt lat="43.720595017" lon="11.31833598"><ele>174</ele><time>2020-01-12T09:04:55Z</time></trkpt>
<trkpt lat="43.720599962" lon="11.318297004"><ele>174</ele><time>2020-01-12T09:04:56Z</time></trkpt>
<trkpt lat="43.72060298" lon="11.318258028"><ele>174</ele><time>2020-01-12T09:04:57Z</time></trkpt>
<trkpt lat="43.720603986" lon="11.318218969"><ele>174</ele><time>2020-01-12T09:04:58Z</time></trkpt>
<trkpt lat="43.720603986" lon="11.318179993"><ele>174</ele><time>2020-01-12T09:04:59Z</time></trkpt>
<trkpt lat="43.720604992" lon="11.318141017"><ele>174</ele><time>2020-01-12T09:05:00Z</time></trkpt>
<trkpt lat="43.720608009" lon="11.318102041"><ele>174</ele><time>2020-01-12T09:05:01Z</time></trkpt>
<trkpt lat="43.720613038" lon="11.318062982"><ele>174</ele><time>2020-01-12T09:05:02Z</time></trkpt>
<trkpt lat="43.720619995" lon="11.318024006"><ele>174</ele><time>2020-01-12T09:05:03Z</time></trkpt>
<trkpt lat="43.720628964" lon="11.317986036"><ele>174</ele><time>2020-01-12T09:05:04Z</time></trkpt>
<trkpt lat="43.720638016" lon="11.317947982"><ele>174</ele><time>2020-01-12T09:05:05Z</time></trkpt>
<trkpt lat="43.720647991" lon="11.317909006"><ele>174</ele><time>2020-01-12T09:05:06Z</time></trkpt>
<trkpt lat="43.720657965" lon="11.317871036"><ele>174</ele><time>2020-01-12T09:05:07Z</time></trkpt>
<trkpt lat="43.720668023" lon="11.317831976"><ele>174</ele><time>2020-01-12T09:05:08Z</time></trkpt>
<trkpt lat="43.720677998" lon="11.317793"><ele>174</ele><time>2020-01-12T09:05:09Z</time></trkpt>
<trkpt lat="43.720687972" lon="11.31775503"><ele>174</ele><time>2020-01-12T09:05:10Z</time></trkpt>
<trkpt lat="43.720698031" lon="11.317715971"><ele>174</ele><time>2020-01-12T09:05:11Z</time></trkpt>
<trkpt lat="43.720706999" lon="11.317675989"><ele>174</ele><time>2020-01-12T09:05:12Z</time></trkpt>
<trkpt lat="43.720716974" lon="11.317637013"><ele>174</ele><time>2020-01-12T09:05:13Z</time></trkpt>
<trkpt lat="43.720726026" lon="11.317597032"><ele>174</ele><time>2020-01-12T09:05:14Z</time></trkpt>
<trkpt lat="43.720734995" lon="11.317556966"><ele>174</ele><time>2020-01-12T09:05:15Z</time></trkpt>
<trkpt lat="43.720743963" lon="11.317516984"><ele>174</ele><time>2020-01-12T09:05:16Z</time></trkpt>
<trkpt lat="43.72075201" lon="11.317477003"><ele>174</ele><time>2020-01-12T09:05:17Z</time></trkpt>
<trkpt lat="43.720759973" lon="11.317437021"><ele>174</ele><time>2020-01-12T09:05:18Z</time></trkpt>
<trkpt lat="43.720767014" lon="11.317397039"><ele>174</ele><time>2020-01-12T09:05:19Z</time></trkpt>
<trkpt lat="43.720773971" lon="11.317356974"><ele>174</ele><time>2020-01-12T09:05:20Z</time></trkpt>
<trkpt lat="43.720781012" lon="11.317316992"><ele>174</ele><time>2020-01-12T09:05:21Z</time></trkpt>
<trkpt lat="43.720786963" lon="11.317278016"><ele>174</ele><time>2020-01-12T09:05:22Z</time></trkpt>
<trkpt lat="43.720791992" lon="11.317239963"><ele>174</ele><time>2020-01-12T09:05:23Z</time></trkpt>
<trkpt lat="43.720796015" lon="11.317202998"><ele>174</ele><time>2020-01-12T09:05:24Z</time></trkpt>
<trkpt lat="43.720800038" lon="11.317166034"><ele>173</ele><time>2020-01-12T09:05:25Z</time></trkpt>
<trkpt lat="43.720802972" lon="11.317130998"><ele>173</ele><time>2020-01-12T09:05:26Z</time></trkpt>
<trkpt lat="43.72080599" lon="11.317095039"><ele>173</ele><time>2020-01-12T09:05:27Z</time></trkpt>
<trkpt lat="43.720808001" lon="11.317060003"><ele>173</ele><time>2020-01-12T09:05:28Z</time></trkpt>
<trkpt lat="43.720810013" lon="11.317024967"><ele>173</ele><time>2020-01-12T09:05:29Z</time></trkpt>
<trkpt lat="43.720811019" lon="11.316989008"><ele>173</ele><time>2020-01-12T09:05:30Z</time></trkpt>
<trkpt lat="43.72081303" lon="11.316952966"><ele>173</ele><time>2020-01-12T09:05:31Z</time></trkpt>
<trkpt lat="43.720814958" lon="11.316914996"><ele>173</ele><time>2020-01-12T09:05:32Z</time></trkpt>
<trkpt lat="43.72081697" lon="11.316877026"><ele>173</ele><time>2020-01-12T09:05:33Z</time></trkpt>
<trkpt lat="43.720818982" lon="11.316836961"><ele>173</ele><time>2020-01-12T09:05:34Z</time></trkpt>
<trkpt lat="43.720821999" lon="11.316794967"><ele>172</ele><time>2020-01-12T09:05:35Z</time></trkpt>
<trkpt lat="43.720825016" lon="11.316751968"><ele>172</ele><time>2020-01-12T09:05:36Z</time></trkpt>
<trkpt lat="43.72082904" lon="11.316707963"><ele>172</ele><time>2020-01-12T09:05:37Z</time></trkpt>
<trkpt lat="43.720834991" lon="11.316663958"><ele>172</ele><time>2020-01-12T09:05:38Z</time></trkpt>
<trkpt lat="43.720841026" lon="11.316620959"><ele>172</ele><time>2020-01-12T09:05:39Z</time></trkpt>
<trkpt lat="43.720847983" lon="11.31657796"><ele>172</ele><time>2020-01-12T09:05:40Z</time></trkpt>
<trkpt lat="43.720857035" lon="11.316535966"><ele>171</ele><time>2020-01-12T09:05:41Z</time></trkpt>
<trkpt lat="43.720868016" lon="11.316495985"><ele>171</ele><time>2020-01-12T09:05:42Z</time></trkpt>
<trkpt lat="43.720880002" lon="11.316458015"><ele>171</ele><time>2020-01-12T09:05:43Z</time></trkpt>
<trkpt lat="43.720895005" lon="11.316422978"><ele>171</ele><time>2020-01-12T09:05:44Z</time></trkpt>
<trkpt lat="43.720911015" lon="11.316390038"><ele>171</ele><time>2020-01-12T09:05:45Z</time></trkpt>
<trkpt lat="43.720929036" lon="11.316359024"><ele>171</ele><time>2020-01-12T09:05:46Z</time></trkpt>
<trkpt lat="43.720947979" lon="11.316330023"><ele>171</ele><time>2020-01-12T09:05:47Z</time></trkpt>
<trkpt lat="43.720968012" lon="11.316301022"><ele>171</ele><time>2020-01-12T09:05:48Z</time></trkpt>
<trkpt lat="43.720989972" lon="11.316274032"><ele>171</ele><time>2020-01-12T09:05:49Z</time></trkpt>
<trkpt lat="43.721012017" lon="11.316246036"><ele>171</ele><time>2020-01-12T09:05:50Z</time></trkpt>
<trkpt lat="43.721035989" lon="11.316218041"><ele>172</ele><time>2020-01-12T09:05:51Z</time></trkpt>
<trkpt lat="43.721059039" lon="11.316189962"><ele>172</ele><time>2020-01-12T09:05:52Z</time></trkpt>
<trkpt lat="43.721084017" lon="11.316160038"><ele>172</ele><time>2020-01-12T09:05:53Z</time></trkpt>
<trkpt lat="43.721132968" lon="11.316098012"><ele>172</ele><time>2020-01-12T09:05:55Z</time></trkpt>
<trkpt lat="43.72115803" lon="11.316064987"><ele>172</ele><time>2020-01-12T09:05:56Z</time></trkpt>
<trkpt lat="43.721184013" lon="11.316031963"><ele>172</ele><time>2020-01-12T09:05:57Z</time></trkpt>
<trkpt lat="43.721208991" lon="11.315999022"><ele>173</ele><time>2020-01-12T09:05:58Z</time></trkpt>
<trkpt lat="43.721234975" lon="11.315965997"><ele>173</ele><time>2020-01-12T09:05:59Z</time></trkpt>
<trkpt lat="43.721260959" lon="11.315932972"><ele>173</ele><time>2020-01-12T09:06:00Z</time></trkpt>
<trkpt lat="43.721287027" lon="11.315901959"><ele>173</ele><time>2020-01-12T09:06:01Z</time></trkpt>
<trkpt lat="43.721313011" lon="11.315872036"><ele>174</ele><time>2020-01-12T09:06:02Z</time></trkpt>
<trkpt lat="43.721338995" lon="11.315843035"><ele>174</ele><time>2020-01-12T09:06:03Z</time></trkpt>
<trkpt lat="43.721364979" lon="11.315815961"><ele>174</ele><time>2020-01-12T09:06:04Z</time></trkpt>
<trkpt lat="43.721443014" lon="11.315745972"><ele>174</ele><time>2020-01-12T09:06:07Z</time></trkpt>
<trkpt lat="43.721468998" lon="11.315727029"><ele>174</ele><time>2020-01-12T09:06:08Z</time></trkpt>
<trkpt lat="43.721494982" lon="11.315709008"><ele>174</ele><time>2020-01-12T09:06:09Z</time></trkpt>
<trkpt lat="43.72151996" lon="11.315692998"><ele>174</ele><time>2020-01-12T09:06:10Z</time></trkpt>
<trkpt lat="43.721546028" lon="11.315679001"><ele>175</ele><time>2020-01-12T09:06:11Z</time></trkpt>
<trkpt lat="43.721571006" lon="11.31566802"><ele>175</ele><time>2020-01-12T09:06:12Z</time></trkpt>
<trkpt lat="43.721595984" lon="11.315657962"><ele>175</ele><time>2020-01-12T09:06:13Z</time></trkpt>
<trkpt lat="43.721620962" lon="11.315649999"><ele>175</ele><time>2020-01-12T09:06:14Z</time></trkpt>
<trkpt lat="43.721645018" lon="11.315643964"><ele>175</ele><time>2020-01-12T09:06:15Z</time></trkpt>
<trkpt lat="43.72166899" lon="11.315638013"><ele>176</ele><time>2020-01-12T09:06:16Z</time></trkpt>
<trkpt lat="43.721693968" lon="11.31563399"><ele>176</ele><time>2020-01-12T09:06:17Z</time></trkpt>
<trkpt lat="43.721718024" lon="11.315630972"><ele>176</ele><time>2020-01-12T09:06:18Z</time></trkpt>
<trkpt lat="43.721741997" lon="11.315628039"><ele>176</ele><time>2020-01-12T09:06:19Z</time></trkpt>
<trkpt lat="43.721764963" lon="11.315625021"><ele>176</ele><time>2020-01-12T09:06:20Z</time></trkpt>
<trkpt lat="43.721789019" lon="11.315622004"><ele>176</ele><time>2020-01-12T09:06:21Z</time></trkpt>
<trkpt lat="43.721812991" lon="11.31561798"><ele>176</ele><time>2020-01-12T09:06:22Z</time></trkpt>
<trkpt lat="43.721836964" lon="11.315614041"><ele>176</ele><time>2020-01-12T09:06:23Z</time></trkpt>
<trkpt lat="43.72186102" lon="11.315610018"><ele>176</ele><time>2020-01-12T09:06:24Z</time></trkpt>
<trkpt lat="43.721884992" lon="11.315604988"><ele>176</ele><time>2020-01-12T09:06:25Z</time></trkpt>
<trkpt lat="43.721907958" lon="11.315600965"><ele>176</ele><time>2020-01-12T09:06:26Z</time></trkpt>
<trkpt lat="43.721932014" lon="11.31559602"><ele>176</ele><time>2020-01-12T09:06:27Z</time></trkpt>
<trkpt lat="43.721955987" lon="11.315590991"><ele>177</ele><time>2020-01-12T09:06:28Z</time></trkpt>
<trkpt lat="43.721979959" lon="11.315585962"><ele>177</ele><time>2020-01-12T09:06:29Z</time></trkpt>
<trkpt lat="43.722004015" lon="11.315581016"><ele>177</ele><time>2020-01-12T09:06:30Z</time></trkpt>
<trkpt lat="43.722026981" lon="11.315575987"><ele>177</ele><time>2020-01-12T09:06:31Z</time></trkpt>
<trkpt lat="43.722051037" lon="11.315571042"><ele>177</ele><time>2020-01-12T09:06:32Z</time></trkpt>
<trkpt lat="43.72207501" lon="11.315566013"><ele>177</ele><time>2020-01-12T09:06:33Z</time></trkpt>
<trkpt lat="43.722097976" lon="11.315560983"><ele>177</ele><time>2020-01-12T09:06:34Z</time></trkpt>
<trkpt lat="43.722122032" lon="11.31555696"><ele>177</ele><time>2020-01-12T09:06:35Z</time></trkpt>
<trkpt lat="43.722146004" lon="11.315552015"><ele>177</ele><time>2020-01-12T09:06:36Z</time></trkpt>
<trkpt lat="43.722169977" lon="11.315547992"><ele>177</ele><time>2020-01-12T09:06:37Z</time></trkpt>
<trkpt lat="43.722194033" lon="11.315543968"><ele>177</ele><time>2020-01-12T09:06:38Z</time></trkpt>
<trkpt lat="43.722219011" lon="11.315540029"><ele>177</ele><time>2020-01-12T09:06:39Z</time></trkpt>
<trkpt lat="43.722242983" lon="11.315537011"><ele>178</ele><time>2020-01-12T09:06:40Z</time></trkpt>
<trkpt lat="43.722267961" lon="11.315533994"><ele>178</ele><time>2020-01-12T09:06:41Z</time></trkpt>
<trkpt lat="43.722293023" lon="11.31552997"><ele>178</ele><time>2020-01-12T09:06:42Z</time></trkpt>
<trkpt lat="43.722318001" lon="11.315527037"><ele>178</ele><time>2020-01-12T09:06:43Z</time></trkpt>
<trkpt lat="43.722342979" lon="11.315522008"><ele>178</ele><time>2020-01-12T09:06:44Z</time></trkpt>
<trkpt lat="43.722368963" lon="11.315516979"><ele>178</ele><time>2020-01-12T09:06:45Z</time></trkpt>
<trkpt lat="43.722394025" lon="11.315511027"><ele>178</ele><time>2020-01-12T09:06:46Z</time></trkpt>
<trkpt lat="43.722419003" lon="11.315502981"><ele>178</ele><time>2020-01-12T09:06:47Z</time></trkpt>
<trkpt lat="43.722443981" lon="11.315493006"><ele>178</ele><time>2020-01-12T09:06:48Z</time></trkpt>
<trkpt lat="43.722468959" lon="11.31548102"><ele>179</ele><time>2020-01-12T09:06:49Z</time></trkpt>
<trkpt lat="43.722494021" lon="11.315467022"><ele>179</ele><time>2020-01-12T09:06:50Z</time></trkpt>
<trkpt lat="43.722518999" lon="11.315450007"><ele>179</ele><time>2020-01-12T09:06:51Z</time></trkpt>
<trkpt lat="43.722542971" lon="11.315429974"><ele>178</ele><time>2020-01-12T09:06:52Z</time></trkpt>
<trkpt lat="43.722567027" lon="11.31540902"><ele>178</ele><time>2020-01-12T09:06:53Z</time></trkpt>
<trkpt lat="43.722591" lon="11.315384964"><ele>178</ele><time>2020-01-12T09:06:54Z</time></trkpt>
<trkpt lat="43.722613966" lon="11.315359985"><ele>178</ele><time>2020-01-12T09:06:55Z</time></trkpt>
<trkpt lat="43.722637016" lon="11.315332996"><ele>178</ele><time>2020-01-12T09:06:56Z</time></trkpt>
<trkpt lat="43.722658977" lon="11.315306006"><ele>178</ele><time>2020-01-12T09:06:57Z</time></trkpt>
<trkpt lat="43.722681021" lon="11.315277005"><ele>178</ele><time>2020-01-12T09:06:58Z</time></trkpt>
<trkpt lat="43.722701976" lon="11.315249009"><ele>178</ele><time>2020-01-12T09:06:59Z</time></trkpt>
<trkpt lat="43.722723015" lon="11.315219002"><ele>178</ele><time>2020-01-12T09:07:00Z</time></trkpt>
<trkpt lat="43.722742964" lon="11.31519"><ele>178</ele><time>2020-01-12T09:07:01Z</time></trkpt>
<trkpt lat="43.722761991" lon="11.315160999"><ele>178</ele><time>2020-01-12T09:07:02Z</time></trkpt>
<trkpt lat="43.722782023" lon="11.315131998"><ele>178</ele><time>2020-01-12T09:07:03Z</time></trkpt>
<trkpt lat="43.722800966" lon="11.315102996"><ele>178</ele><time>2020-01-12T09:07:04Z</time></trkpt>
<trkpt lat="43.722819993" lon="11.315072989"><ele>178</ele><time>2020-01-12T09:07:05Z</time></trkpt>
<trkpt lat="43.722838014" lon="11.315044994"><ele>178</ele><time>2020-01-12T09:07:06Z</time></trkpt>
<trkpt lat="43.722857041" lon="11.315015992"><ele>178</ele><time>2020-01-12T09:07:07Z</time></trkpt>
<trkpt lat="43.722875984" lon="11.314987997"><ele>178</ele><time>2020-01-12T09:07:08Z</time></trkpt>
<trkpt lat="43.722895011" lon="11.314960001"><ele>178</ele><time>2020-01-12T09:07:09Z</time></trkpt>
<trkpt lat="43.722914038" lon="11.314933011"><ele>178</ele><time>2020-01-12T09:07:10Z</time></trkpt>
<trkpt lat="43.722932981" lon="11.314906022"><ele>178</ele><time>2020-01-12T09:07:11Z</time></trkpt>
<trkpt lat="43.722952008" lon="11.314879032"><ele>178</ele><time>2020-01-12T09:07:12Z</time></trkpt>
<trkpt lat="43.722972041" lon="11.314851958"><ele>178</ele><time>2020-01-12T09:07:13Z</time></trkpt>
<trkpt lat="43.72299199" lon="11.314825974"><ele>178</ele><time>2020-01-12T09:07:14Z</time></trkpt>
<trkpt lat="43.723011017" lon="11.314798985"><ele>178</ele><time>2020-01-12T09:07:15Z</time></trkpt>
<trkpt lat="43.723030966" lon="11.314771995"><ele>178</ele><time>2020-01-12T09:07:16Z</time></trkpt>
<trkpt lat="43.723049993" lon="11.314743999"><ele>178</ele><time>2020-01-12T09:07:17Z</time></trkpt>
<trkpt lat="43.723070025" lon="11.31471701"><ele>178</ele><time>2020-01-12T09:07:18Z</time></trkpt>
<trkpt lat="43.723088969" lon="11.314688008"><ele>178</ele><time>2020-01-12T09:07:19Z</time></trkpt>
<trkpt lat="43.723109001" lon="11.314659007"><ele>178</ele><time>2020-01-12T09:07:20Z</time></trkpt>
<trkpt lat="43.723128028" lon="11.314630006"><ele>178</ele><time>2020-01-12T09:07:21Z</time></trkpt>
<trkpt lat="43.723146971" lon="11.314601004"><ele>178</ele><time>2020-01-12T09:07:22Z</time></trkpt>
<trkpt lat="43.723165998" lon="11.314572003"><ele>179</ele><time>2020-01-12T09:07:23Z</time></trkpt>
<trkpt lat="43.723186031" lon="11.314544007"><ele>179</ele><time>2020-01-12T09:07:24Z</time></trkpt>
<trkpt lat="43.723204974" lon="11.314515006"><ele>179</ele><time>2020-01-12T09:07:25Z</time></trkpt>
<trkpt lat="43.723225007" lon="11.314488016"><ele>179</ele><time>2020-01-12T09:07:26Z</time></trkpt>
<trkpt lat="43.72324504" lon="11.314461026"><ele>179</ele><time>2020-01-12T09:07:27Z</time></trkpt>
<trkpt lat="43.723264989" lon="11.314435964"><ele>180</ele><time>2020-01-12T09:07:28Z</time></trkpt>
<trkpt lat="43.723285021" lon="11.314410986"><ele>180</ele><time>2020-01-12T09:07:29Z</time></trkpt>
<trkpt lat="43.723305976" lon="11.31438802"><ele>180</ele><time>2020-01-12T09:07:30Z</time></trkpt>
<trkpt lat="43.723327015" lon="11.31436497"><ele>181</ele><time>2020-01-12T09:07:31Z</time></trkpt>
<trkpt lat="43.723348975" lon="11.314343009"><ele>181</ele><time>2020-01-12T09:07:32Z</time></trkpt>
<trkpt lat="43.723370014" lon="11.314320965"><ele>181</ele><time>2020-01-12T09:07:33Z</time></trkpt>
<trkpt lat="43.723390969" lon="11.31430001"><ele>181</ele><time>2020-01-12T09:07:34Z</time></trkpt>
<trkpt lat="43.723412007" lon="11.314278971"><ele>181</ele><time>2020-01-12T09:07:35Z</time></trkpt>
<trkpt lat="43.723432962" lon="11.314257011"><ele>181</ele><time>2020-01-12T09:07:36Z</time></trkpt>
<trkpt lat="43.723454" lon="11.314234966"><ele>181</ele><time>2020-01-12T09:07:37Z</time></trkpt>
<trkpt lat="43.723475039" lon="11.314212"><ele>182</ele><time>2020-01-12T09:07:38Z</time></trkpt>
<trkpt lat="43.723493982" lon="11.314188028"><ele>182</ele><time>2020-01-12T09:07:39Z</time></trkpt>
<trkpt lat="43.723513009" lon="11.314163972"><ele>182</ele><time>2020-01-12T09:07:40Z</time></trkpt>
<trkpt lat="43.723530024" lon="11.314137988"><ele>182</ele><time>2020-01-12T09:07:41Z</time></trkpt>
<trkpt lat="43.723545028" lon="11.314109992"><ele>182</ele><time>2020-01-12T09:07:42Z</time></trkpt>
<trkpt lat="43.72355802" lon="11.314080991"><ele>182</ele><time>2020-01-12T09:07:43Z</time></trkpt>
<trkpt lat="43.723566988" lon="11.314049978"><ele>182</ele><time>2020-01-12T09:07:44Z</time></trkpt>
<trkpt lat="43.723573023" lon="11.314017037"><ele>182</ele><time>2020-01-12T09:07:45Z</time></trkpt>
<trkpt lat="43.723576041" lon="11.313982001"><ele>182</ele><time>2020-01-12T09:07:46Z</time></trkpt>
<trkpt lat="43.723574029" lon="11.313944031"><ele>182</ele><time>2020-01-12T09:07:47Z</time></trkpt>
<trkpt lat="43.723567994" lon="11.313903965"><ele>182</ele><time>2020-01-12T09:07:48Z</time></trkpt>
<trkpt lat="43.723559026" lon="11.313861972"><ele>182</ele><time>2020-01-12T09:07:49Z</time></trkpt>
<trkpt lat="43.72354704" lon="11.313817967"><ele>182</ele><time>2020-01-12T09:07:50Z</time></trkpt>
<trkpt lat="43.723533964" lon="11.31377304"><ele>182</ele><time>2020-01-12T09:07:51Z</time></trkpt>
<trkpt lat="43.723520972" lon="11.313728029"><ele>182</ele><time>2020-01-12T09:07:52Z</time></trkpt>
<trkpt lat="43.723509992" lon="11.313684024"><ele>182</ele><time>2020-01-12T09:07:53Z</time></trkpt>
<trkpt lat="43.723500017" lon="11.313640019"><ele>182</ele><time>2020-01-12T09:07:54Z</time></trkpt>
<trkpt lat="43.723490965" lon="11.313596014"><ele>182</ele><time>2020-01-12T09:07:55Z</time></trkpt>
<trkpt lat="43.723481996" lon="11.313554021"><ele>182</ele><time>2020-01-12T09:07:56Z</time></trkpt>
<trkpt lat="43.723475039" lon="11.313512027"><ele>181</ele><time>2020-01-12T09:07:57Z</time></trkpt>
<trkpt lat="43.723469004" lon="11.313471962"><ele>181</ele><time>2020-01-12T09:07:58Z</time></trkpt>
<trkpt lat="43.723462969" lon="11.31343198"><ele>181</ele><time>2020-01-12T09:07:59Z</time></trkpt>
<trkpt lat="43.723457018" lon="11.313391998"><ele>181</ele><time>2020-01-12T09:08:00Z</time></trkpt>
<trkpt lat="43.723450983" lon="11.313353023"><ele>181</ele><time>2020-01-12T09:08:01Z</time></trkpt>
<trkpt lat="43.723445032" lon="11.313313041"><ele>181</ele><time>2020-01-12T09:08:02Z</time></trkpt>
<trkpt lat="43.723438997" lon="11.313272975"><ele>181</ele><time>2020-01-12T09:08:03Z</time></trkpt>
<trkpt lat="43.72343204" lon="11.313232994"><ele>180</ele><time>2020-01-12T09:08:04Z</time></trkpt>
<trkpt lat="43.723424999" lon="11.313192006"><ele>180</ele><time>2020-01-12T09:08:05Z</time></trkpt>
<trkpt lat="43.72341603" lon="11.313150013"><ele>180</ele><time>2020-01-12T09:08:06Z</time></trkpt>
<trkpt lat="43.723406978" lon="11.31310802"><ele>179</ele><time>2020-01-12T09:08:07Z</time></trkpt>
<trkpt lat="43.723397003" lon="11.31306502"><ele>179</ele><time>2020-01-12T09:08:08Z</time></trkpt>
<trkpt lat="43.723386023" lon="11.313022021"><ele>179</ele><time>2020-01-12T09:08:09Z</time></trkpt>
<trkpt lat="43.723375965" lon="11.31298204"><ele>178</ele><time>2020-01-12T09:08:10Z</time></trkpt>
<trkpt lat="43.723366996" lon="11.31294298"><ele>178</ele><time>2020-01-12T09:08:11Z</time></trkpt>
<trkpt lat="43.723346042" lon="11.312838038"><ele>177</ele><time>2020-01-12T09:08:14Z</time></trkpt>
<trkpt lat="43.723340007" lon="11.312797973"><ele>177</ele><time>2020-01-12T09:08:15Z</time></trkpt>
<trkpt lat="43.723334977" lon="11.31275204"><ele>177</ele><time>2020-01-12T09:08:16Z</time></trkpt>
<trkpt lat="43.723331038" lon="11.312702"><ele>177</ele><time>2020-01-12T09:08:17Z</time></trkpt>
<trkpt lat="43.723330032" lon="11.312649027"><ele>176</ele><time>2020-01-12T09:08:18Z</time></trkpt>
<trkpt lat="43.723332966" lon="11.312596975"><ele>176</ele><time>2020-01-12T09:08:19Z</time></trkpt>
<trkpt lat="43.723340007" lon="11.312546013"><ele>176</ele><time>2020-01-12T09:08:20Z</time></trkpt>
<trkpt lat="43.723354004" lon="11.31249899"><ele>176</ele><time>2020-01-12T09:08:21Z</time></trkpt>
<trkpt lat="43.723373031" lon="11.312455991"><ele>176</ele><time>2020-01-12T09:08:22Z</time></trkpt>
<trkpt lat="43.723394992" lon="11.312417015"><ele>176</ele><time>2020-01-12T09:08:23Z</time></trkpt>
<trkpt lat="43.723420976" lon="11.312380973"><ele>175</ele><time>2020-01-12T09:08:24Z</time></trkpt>
<trkpt lat="43.723447965" lon="11.31234996"><ele>175</ele><time>2020-01-12T09:08:25Z</time></trkpt>
<trkpt lat="43.723476967" lon="11.312320959"><ele>175</ele><time>2020-01-12T09:08:26Z</time></trkpt>
<trkpt lat="43.723504962" lon="11.312294975"><ele>175</ele><time>2020-01-12T09:08:27Z</time></trkpt>
<trkpt lat="43.723533964" lon="11.312269997"><ele>175</ele><time>2020-01-12T09:08:28Z</time></trkpt>
<trkpt lat="43.723562965" lon="11.312245019"><ele>175</ele><time>2020-01-12T09:08:29Z</time></trkpt>
<trkpt lat="43.723592972" lon="11.312219035"><ele>175</ele><time>2020-01-12T09:08:30Z</time></trkpt>
<trkpt lat="43.723621974" lon="11.312190033"><ele>175</ele><time>2020-01-12T09:08:31Z</time></trkpt>
<trkpt lat="43.723650975" lon="11.31215902"><ele>175</ele><time>2020-01-12T09:08:32Z</time></trkpt>
<trkpt lat="43.723678971" lon="11.312128007"><ele>175</ele><time>2020-01-12T09:08:33Z</time></trkpt>
<trkpt lat="43.723707972" lon="11.312095989"><ele>175</ele><time>2020-01-12T09:08:34Z</time></trkpt>
<trkpt lat="43.723736973" lon="11.312064976"><ele>175</ele><time>2020-01-12T09:08:35Z</time></trkpt>
<trkpt lat="43.723764969" lon="11.312034968"><ele>175</ele><time>2020-01-12T09:08:36Z</time></trkpt>
<trkpt lat="43.72379397" lon="11.312004961"><ele>175</ele><time>2020-01-12T09:08:37Z</time></trkpt>
<trkpt lat="43.723821966" lon="11.311975038"><ele>175</ele><time>2020-01-12T09:08:38Z</time></trkpt>
<trkpt lat="43.723849962" lon="11.311946036"><ele>175</ele><time>2020-01-12T09:08:39Z</time></trkpt>
<trkpt lat="43.723877035" lon="11.311917035"><ele>175</ele><time>2020-01-12T09:08:40Z</time></trkpt>
<trkpt lat="43.723904025" lon="11.311888034"><ele>175</ele><time>2020-01-12T09:08:41Z</time></trkpt>
<trkpt lat="43.723931015" lon="11.311860038"><ele>175</ele><time>2020-01-12T09:08:42Z</time></trkpt>
<trkpt lat="43.723956998" lon="11.311831037"><ele>175</ele><time>2020-01-12T09:08:43Z</time></trkpt>
<trkpt lat="43.723982982" lon="11.311803041"><ele>175</ele><time>2020-01-12T09:08:44Z</time></trkpt>
<trkpt lat="43.72400796" lon="11.31177404"><ele>175</ele><time>2020-01-12T09:08:45Z</time></trkpt>
<trkpt lat="43.724032016" lon="11.311745038"><ele>175</ele><time>2020-01-12T09:08:46Z</time></trkpt>
<trkpt lat="43.724101" lon="11.311656022"><ele>175</ele><time>2020-01-12T09:08:49Z</time></trkpt>
<trkpt lat="43.724122038" lon="11.311626015"><ele>175</ele><time>2020-01-12T09:08:50Z</time></trkpt>
<trkpt lat="43.724142993" lon="11.311593996"><ele>175</ele><time>2020-01-12T09:08:51Z</time></trkpt>
<trkpt lat="43.72416202" lon="11.311561977"><ele>175</ele><time>2020-01-12T09:08:52Z</time></trkpt>
<trkpt lat="43.724180963" lon="11.311529959"><ele>175</ele><time>2020-01-12T09:08:53Z</time></trkpt>
<trkpt lat="43.724197978" lon="11.311496012"><ele>174</ele><time>2020-01-12T09:08:54Z</time></trkpt>
<trkpt lat="43.724213988" lon="11.311461981"><ele>174</ele><time>2020-01-12T09:08:55Z</time></trkpt>
<trkpt lat="43.724229997" lon="11.311426023"><ele>174</ele><time>2020-01-12T09:08:56Z</time></trkpt>
<trkpt lat="43.724245001" lon="11.311390987"><ele>174</ele><time>2020-01-12T09:08:57Z</time></trkpt>
<trkpt lat="43.724260004" lon="11.311354022"><ele>174</ele><time>2020-01-12T09:08:58Z</time></trkpt>
<trkpt lat="43.724275008" lon="11.311316974"><ele>174</ele><time>2020-01-12T09:08:59Z</time></trkpt>
<trkpt lat="43.724289006" lon="11.31128001"><ele>173</ele><time>2020-01-12T09:09:00Z</time></trkpt>
<trkpt lat="43.724304009" lon="11.31124204"><ele>173</ele><time>2020-01-12T09:09:01Z</time></trkpt>
<trkpt lat="43.724319013" lon="11.311203986"><ele>173</ele><time>2020-01-12T09:09:02Z</time></trkpt>
<trkpt lat="43.724335022" lon="11.311166016"><ele>173</ele><time>2020-01-12T09:09:03Z</time></trkpt>
<trkpt lat="43.724351032" lon="11.311127041"><ele>172</ele><time>2020-01-12T09:09:04Z</time></trkpt>
<trkpt lat="43.724367963" lon="11.311087981"><ele>172</ele><time>2020-01-12T09:09:05Z</time></trkpt>
<trkpt lat="43.724384978" lon="11.311049005"><ele>172</ele><time>2020-01-12T09:09:06Z</time></trkpt>
<trkpt lat="43.724401994" lon="11.311011035"><ele>172</ele><time>2020-01-12T09:09:07Z</time></trkpt>
<trkpt lat="43.724420015" lon="11.310971975"><ele>172</ele><time>2020-01-12T09:09:08Z</time></trkpt>
<trkpt lat="43.72443703" lon="11.310932999"><ele>171</ele><time>2020-01-12T09:09:09Z</time></trkpt>
<trkpt lat="43.724453961" lon="11.310895029"><ele>171</ele><time>2020-01-12T09:09:10Z</time></trkpt>
<trkpt lat="43.724470977" lon="11.310856976"><ele>171</ele><time>2020-01-12T09:09:11Z</time></trkpt>
<trkpt lat="43.724486986" lon="11.310819006"><ele>171</ele><time>2020-01-12T09:09:12Z</time></trkpt>
<trkpt lat="43.724502996" lon="11.310782041"><ele>170</ele><time>2020-01-12T09:09:13Z</time></trkpt>
<trkpt lat="43.724517999" lon="11.310744993"><ele>170</ele><time>2020-01-12T09:09:14Z</time></trkpt>
<trkpt lat="43.724534009" lon="11.310709035"><ele>169</ele><time>2020-01-12T09:09:15Z</time></trkpt>
<trkpt lat="43.724549012" lon="11.310673999"><ele>169</ele><time>2020-01-12T09:09:16Z</time></trkpt>
<trkpt lat="43.724566028" lon="11.310639968"><ele>168</ele><time>2020-01-12T09:09:17Z</time></trkpt>
<trkpt lat="43.724582959" lon="11.310608033"><ele>168</ele><time>2020-01-12T09:09:18Z</time></trkpt>
<trkpt lat="43.724601986" lon="11.31057702"><ele>168</ele><time>2020-01-12T09:09:19Z</time></trkpt>
<trkpt lat="43.724622019" lon="11.310549024"><ele>168</ele><time>2020-01-12T09:09:20Z</time></trkpt>
<trkpt lat="43.724643979" lon="11.310522035"><ele>167</ele><time>2020-01-12T09:09:21Z</time></trkpt>
<trkpt lat="43.724668035" lon="11.310497979"><ele>167</ele><time>2020-01-12T09:09:22Z</time></trkpt>
<trkpt lat="43.724695025" lon="11.310476018"><ele>167</ele><time>2020-01-12T09:09:23Z</time></trkpt>
<trkpt lat="43.724723021" lon="11.310457997"><ele>167</ele><time>2020-01-12T09:09:24Z</time></trkpt>
<trkpt lat="43.724754034" lon="11.310443999"><ele>167</ele><time>2020-01-12T09:09:25Z</time></trkpt>
<trkpt lat="43.724785969" lon="11.310434025"><ele>168</ele><time>2020-01-12T09:09:26Z</time></trkpt>
<trkpt lat="43.724818993" lon="11.310431007"><ele>168</ele><time>2020-01-12T09:09:27Z</time></trkpt>
<trkpt lat="43.724852018" lon="11.310434025"><ele>169</ele><time>2020-01-12T09:09:28Z</time></trkpt>
<trkpt lat="43.724885965" lon="11.310441988"><ele>169</ele><time>2020-01-12T09:09:29Z</time></trkpt>
<trkpt lat="43.724918989" lon="11.310451962"><ele>170</ele><time>2020-01-12T09:09:30Z</time></trkpt>
<trkpt lat="43.72495302" lon="11.310463026"><ele>171</ele><time>2020-01-12T09:09:31Z</time></trkpt>
<trkpt lat="43.724986967" lon="11.310473001"><ele>172</ele><time>2020-01-12T09:09:32Z</time></trkpt>
<trkpt lat="43.725019991" lon="11.310481969"><ele>172</ele><time>2020-01-12T09:09:33Z</time></trkpt>
<trkpt lat="43.725053016" lon="11.31048901"><ele>172</ele><time>2020-01-12T09:09:34Z</time></trkpt>
<trkpt lat="43.725086041" lon="11.310494961"><ele>172</ele><time>2020-01-12T09:09:35Z</time></trkpt>
<trkpt lat="43.725118982" lon="11.31049999"><ele>173</ele><time>2020-01-12T09:09:36Z</time></trkpt>
<trkpt lat="43.725152006" lon="11.310504014"><ele>173</ele><time>2020-01-12T09:09:37Z</time></trkpt>
<trkpt lat="43.725185031" lon="11.310506025"><ele>173</ele><time>2020-01-12T09:09:38Z</time></trkpt>
<trkpt lat="43.725217972" lon="11.310507031"><ele>173</ele><time>2020-01-12T09:09:39Z</time></trkpt>
<trkpt lat="43.725252002" lon="11.310507031"><ele>173</ele><time>2020-01-12T09:09:40Z</time></trkpt>
<trkpt lat="43.725286033" lon="11.310506025"><ele>173</ele><time>2020-01-12T09:09:41Z</time></trkpt>
<trkpt lat="43.72531998" lon="11.310504014"><ele>173</ele><time>2020-01-12T09:09:42Z</time></trkpt>
<trkpt lat="43.725355016" lon="11.310500996"><ele>173</ele><time>2020-01-12T09:09:43Z</time></trkpt>
<trkpt lat="43.725388963" lon="11.310495967"><ele>173</ele><time>2020-01-12T09:09:44Z</time></trkpt>
<trkpt lat="43.725423999" lon="11.31048901"><ele>172</ele><time>2020-01-12T09:09:45Z</time></trkpt>
<trkpt lat="43.72545803" lon="11.310480041"><ele>172</ele><time>2020-01-12T09:09:46Z</time></trkpt>
<trkpt lat="43.725491976" lon="11.310467971"><ele>172</ele><time>2020-01-12T09:09:47Z</time></trkpt>
<trkpt lat="43.725526007" lon="11.310453974"><ele>172</ele><time>2020-01-12T09:09:48Z</time></trkpt>
<trkpt lat="43.725558026" lon="11.310436958"><ele>171</ele><time>2020-01-12T09:09:49Z</time></trkpt>
<trkpt lat="43.72562198" lon="11.310392031"><ele>170</ele><time>2020-01-12T09:09:51Z</time></trkpt>
<trkpt lat="43.725651987" lon="11.310364036"><ele>170</ele><time>2020-01-12T09:09:52Z</time></trkpt>
<trkpt lat="43.725680988" lon="11.310334029"><ele>169</ele><time>2020-01-12T09:09:53Z</time></trkpt>
<trkpt lat="43.72570999" lon="11.310301004"><ele>168</ele><time>2020-01-12T09:09:54Z</time></trkpt>
<trkpt lat="43.725737985" lon="11.310266973"><ele>168</ele><time>2020-01-12T09:09:55Z</time></trkpt>
<trkpt lat="43.725764975" lon="11.310232021"><ele>167</ele><time>2020-01-12T09:09:56Z</time></trkpt>
<trkpt lat="43.725791965" lon="11.310195979"><ele>166</ele><time>2020-01-12T09:09:57Z</time></trkpt>
<trkpt lat="43.725818032" lon="11.31016002"><ele>165</ele><time>2020-01-12T09:09:58Z</time></trkpt>
<trkpt lat="43.725844016" lon="11.310122972"><ele>165</ele><time>2020-01-12T09:09:59Z</time></trkpt>
<trkpt lat="43.725868994" lon="11.31008802"><ele>164</ele><time>2020-01-12T09:10:00Z</time></trkpt>
<trkpt lat="43.725894978" lon="11.310053989"><ele>163</ele><time>2020-01-12T09:10:01Z</time></trkpt>
<trkpt lat="43.72592004" lon="11.310020965"><ele>163</ele><time>2020-01-12T09:10:02Z</time></trkpt>
<trkpt lat="43.725945018" lon="11.309988024"><ele>162</ele><time>2020-01-12T09:10:03Z</time></trkpt>
<trkpt lat="43.725969996" lon="11.309957011"><ele>162</ele><time>2020-01-12T09:10:04Z</time></trkpt>
<trkpt lat="43.725994974" lon="11.309925998"><ele>162</ele><time>2020-01-12T09:10:05Z</time></trkpt>
<trkpt lat="43.726020036" lon="11.309894985"><ele>161</ele><time>2020-01-12T09:10:06Z</time></trkpt>
<trkpt lat="43.726045014" lon="11.309863972"><ele>161</ele><time>2020-01-12T09:10:07Z</time></trkpt>
<trkpt lat="43.726069992" lon="11.309833964"><ele>161</ele><time>2020-01-12T09:10:08Z</time></trkpt>
<trkpt lat="43.726095976" lon="11.309803035"><ele>161</ele><time>2020-01-12T09:10:09Z</time></trkpt>
<trkpt lat="43.72612196" lon="11.309772022"><ele>160</ele><time>2020-01-12T09:10:10Z</time></trkpt>
<trkpt lat="43.726149034" lon="11.309741009"><ele>160</ele><time>2020-01-12T09:10:11Z</time></trkpt>
<trkpt lat="43.726176023" lon="11.309709996"><ele>160</ele><time>2020-01-12T09:10:12Z</time></trkpt>
<trkpt lat="43.726203013" lon="11.309677977"><ele>160</ele><time>2020-01-12T09:10:13Z</time></trkpt>
<trkpt lat="43.726231009" lon="11.309645958"><ele>159</ele><time>2020-01-12T09:10:14Z</time></trkpt>
<trkpt lat="43.726257998" lon="11.309614023"><ele>159</ele><time>2020-01-12T09:10:15Z</time></trkpt>
<trkpt lat="43.726285994" lon="11.309580998"><ele>159</ele><time>2020-01-12T09:10:16Z</time></trkpt>
<trkpt lat="43.726314995" lon="11.30954898"><ele>158</ele><time>2020-01-12T09:10:17Z</time></trkpt>
<trkpt lat="43.726342991" lon="11.309516039"><ele>158</ele><time>2020-01-12T09:10:18Z</time></trkpt>
<trkpt lat="43.726370987" lon="11.309483014"><ele>158</ele><time>2020-01-12T09:10:19Z</time></trkpt>
<trkpt lat="43.726456985" lon="11.309384024"><ele>157</ele><time>2020-01-12T09:10:22Z</time></trkpt>
<trkpt lat="43.72648498" lon="11.309350999"><ele>157</ele><time>2020-01-12T09:10:23Z</time></trkpt>
<trkpt lat="43.726513982" lon="11.309317974"><ele>157</ele><time>2020-01-12T09:10:24Z</time></trkpt>
<trkpt lat="43.726541977" lon="11.309285033"><ele>157</ele><time>2020-01-12T09:10:25Z</time></trkpt>
<trkpt lat="43.726569973" lon="11.309252009"><ele>156</ele><time>2020-01-12T09:10:26Z</time></trkpt>
<trkpt lat="43.726597968" lon="11.309218984"><ele>156</ele><time>2020-01-12T09:10:27Z</time></trkpt>
<trkpt lat="43.726625964" lon="11.309185959"><ele>156</ele><time>2020-01-12T09:10:28Z</time></trkpt>
<trkpt lat="43.72665396" lon="11.309153019"><ele>156</ele><time>2020-01-12T09:10:29Z</time></trkpt>
<trkpt lat="43.726681033" lon="11.309119994"><ele>156</ele><time>2020-01-12T09:10:30Z</time></trkpt>
<trkpt lat="43.726708023" lon="11.309086969"><ele>155</ele><time>2020-01-12T09:10:31Z</time></trkpt>
<trkpt lat="43.726735013" lon="11.309053022"><ele>155</ele><time>2020-01-12T09:10:32Z</time></trkpt>
<trkpt lat="43.726760997" lon="11.309019998"><ele>154</ele><time>2020-01-12T09:10:33Z</time></trkpt>
<trkpt lat="43.726787986" lon="11.308985967"><ele>154</ele><time>2020-01-12T09:10:34Z</time></trkpt>
<trkpt lat="43.72681397" lon="11.308951015"><ele>153</ele><time>2020-01-12T09:10:35Z</time></trkpt>
<trkpt lat="43.726839032" lon="11.308915978"><ele>153</ele><time>2020-01-12T09:10:36Z</time></trkpt>
<trkpt lat="43.72686401" lon="11.30888002"><ele>152</ele><time>2020-01-12T09:10:37Z</time></trkpt>
<trkpt lat="43.726888988" lon="11.308842972"><ele>152</ele><time>2020-01-12T09:10:38Z</time></trkpt>
<trkpt lat="43.72691296" lon="11.308806008"><ele>151</ele><time>2020-01-12T09:10:39Z</time></trkpt>
<trkpt lat="43.726937016" lon="11.308767032"><ele>151</ele><time>2020-01-12T09:10:40Z</time></trkpt>
<trkpt lat="43.726959983" lon="11.308727972"><ele>151</ele><time>2020-01-12T09:10:41Z</time></trkpt>
<trkpt lat="43.726982027" lon="11.308687991"><ele>150</ele><time>2020-01-12T09:10:42Z</time></trkpt>
<trkpt lat="43.727003988" lon="11.308647003"><ele>150</ele><time>2020-01-12T09:10:43Z</time></trkpt>
<trkpt lat="43.727025026" lon="11.308606016"><ele>149</ele><time>2020-01-12T09:10:44Z</time></trkpt>
<trkpt lat="43.727044975" lon="11.308564022"><ele>149</ele><time>2020-01-12T09:10:45Z</time></trkpt>
<trkpt lat="43.727064002" lon="11.308522029"><ele>149</ele><time>2020-01-12T09:10:46Z</time></trkpt>
<trkpt lat="43.727082023" lon="11.30847903"><ele>148</ele><time>2020-01-12T09:10:47Z</time></trkpt>
<trkpt lat="43.727099039" lon="11.308437036"><ele>148</ele><time>2020-01-12T09:10:48Z</time></trkpt>
<trkpt lat="43.727114964" lon="11.308394037"><ele>148</ele><time>2020-01-12T09:10:49Z</time></trkpt>
<trkpt lat="43.727129968" lon="11.308351038"><ele>147</ele><time>2020-01-12T09:10:50Z</time></trkpt>
<trkpt lat="43.727143966" lon="11.308308039"><ele>147</ele><time>2020-01-12T09:10:51Z</time></trkpt>
<trkpt lat="43.727157041" lon="11.30826504"><ele>147</ele><time>2020-01-12T09:10:52Z</time></trkpt>
<trkpt lat="43.727170033" lon="11.308222041"><ele>147</ele><time>2020-01-12T09:10:53Z</time></trkpt>
<trkpt lat="43.727183025" lon="11.308179041"><ele>147</ele><time>2020-01-12T09:10:54Z</time></trkpt>
<trkpt lat="43.727195011" lon="11.308135958"><ele>147</ele><time>2020-01-12T09:10:55Z</time></trkpt>
<trkpt lat="43.727206998" lon="11.308093965"><ele>147</ele><time>2020-01-12T09:10:56Z</time></trkpt>
<trkpt lat="43.727218984" lon="11.308050966"><ele>147</ele><time>2020-01-12T09:10:57Z</time></trkpt>
<trkpt lat="43.72723097" lon="11.308008973"><ele>147</ele><time>2020-01-12T09:10:58Z</time></trkpt>
<trkpt lat="43.72724304" lon="11.307967985"><ele>147</ele><time>2020-01-12T09:10:59Z</time></trkpt>
<trkpt lat="43.727255026" lon="11.307926998"><ele>147</ele><time>2020-01-12T09:11:00Z</time></trkpt>
<trkpt lat="43.727267012" lon="11.30788601"><ele>147</ele><time>2020-01-12T09:11:01Z</time></trkpt>
<trkpt lat="43.727280004" lon="11.307846028"><ele>147</ele><time>2020-01-12T09:11:02Z</time></trkpt>
<trkpt lat="43.727292996" lon="11.307805963"><ele>147</ele><time>2020-01-12T09:11:03Z</time></trkpt>
<trkpt lat="43.727306994" lon="11.307766987"><ele>147</ele><time>2020-01-12T09:11:04Z</time></trkpt>
<trkpt lat="43.727321997" lon="11.307729017"><ele>147</ele><time>2020-01-12T09:11:05Z</time></trkpt>
<trkpt lat="43.727337001" lon="11.307690963"><ele>147</ele><time>2020-01-12T09:11:06Z</time></trkpt>
<trkpt lat="43.72735301" lon="11.307653999"><ele>147</ele><time>2020-01-12T09:11:07Z</time></trkpt>
<trkpt lat="43.727371031" lon="11.307618041"><ele>147</ele><time>2020-01-12T09:11:08Z</time></trkpt>
<trkpt lat="43.727388969" lon="11.307581998"><ele>147</ele><time>2020-01-12T09:11:09Z</time></trkpt>
<trkpt lat="43.72740699" lon="11.30754604"><ele>147</ele><time>2020-01-12T09:11:10Z</time></trkpt>
<trkpt lat="43.727426017" lon="11.307509998"><ele>147</ele><time>2020-01-12T09:11:11Z</time></trkpt>
<trkpt lat="43.72744496" lon="11.307473034"><ele>147</ele><time>2020-01-12T09:11:12Z</time></trkpt>
<trkpt lat="43.727463987" lon="11.307436991"><ele>147</ele><time>2020-01-12T09:11:13Z</time></trkpt>
<trkpt lat="43.727484019" lon="11.307402039"><ele>147</ele><time>2020-01-12T09:11:14Z</time></trkpt>
<trkpt lat="43.727503968" lon="11.307369014"><ele>147</ele><time>2020-01-12T09:11:15Z</time></trkpt>
<trkpt lat="43.727525007" lon="11.307340013"><ele>147</ele><time>2020-01-12T09:11:16Z</time></trkpt>
<trkpt lat="43.727592984" lon="11.307269018"><ele>146</ele><time>2020-01-12T09:11:19Z</time></trkpt>
<trkpt lat="43.727616034" lon="11.307245968"><ele>146</ele><time>2020-01-12T09:11:20Z</time></trkpt>
<trkpt lat="43.727640007" lon="11.307219984"><ele>146</ele><time>2020-01-12T09:11:21Z</time></trkpt>
<trkpt lat="43.727662973" lon="11.307190983"><ele>146</ele><time>2020-01-12T09:11:22Z</time></trkpt>
<trkpt lat="43.727686023" lon="11.307157036"><ele>145</ele><time>2020-01-12T09:11:23Z</time></trkpt>
<trkpt lat="43.72770899" lon="11.307122"><ele>145</ele><time>2020-01-12T09:11:24Z</time></trkpt>
<trkpt lat="43.727731034" lon="11.30708403"><ele>145</ele><time>2020-01-12T09:11:25Z</time></trkpt>
<trkpt lat="43.727750983" lon="11.30704497"><ele>145</ele><time>2020-01-12T09:11:26Z</time></trkpt>
<trkpt lat="43.727771016" lon="11.307004988"><ele>145</ele><time>2020-01-12T09:11:27Z</time></trkpt>
<trkpt lat="43.727789037" lon="11.306965007"><ele>145</ele><time>2020-01-12T09:11:28Z</time></trkpt>
<trkpt lat="43.727805968" lon="11.306924019"><ele>145</ele><time>2020-01-12T09:11:29Z</time></trkpt>
<trkpt lat="43.727820972" lon="11.30688102"><ele>145</ele><time>2020-01-12T09:11:30Z</time></trkpt>
<trkpt lat="43.72783497" lon="11.306839027"><ele>144</ele><time>2020-01-12T09:11:31Z</time></trkpt>
<trkpt lat="43.727847962" lon="11.306796027"><ele>144</ele><time>2020-01-12T09:11:32Z</time></trkpt>
<trkpt lat="43.727860032" lon="11.306752022"><ele>144</ele><time>2020-01-12T09:11:33Z</time></trkpt>
<trkpt lat="43.727871012" lon="11.306707012"><ele>144</ele><time>2020-01-12T09:11:34Z</time></trkpt>
<trkpt lat="43.727879981" lon="11.306663007"><ele>144</ele><time>2020-01-12T09:11:35Z</time></trkpt>
<trkpt lat="43.727888027" lon="11.306617996"><ele>144</ele><time>2020-01-12T09:11:36Z</time></trkpt>
<trkpt lat="43.727893978" lon="11.306571979"><ele>144</ele><time>2020-01-12T09:11:37Z</time></trkpt>
<trkpt lat="43.727900013" lon="11.306525962"><ele>144</ele><time>2020-01-12T09:11:38Z</time></trkpt>
<trkpt lat="43.727904959" lon="11.30648003"><ele>143</ele><time>2020-01-12T09:11:39Z</time></trkpt>
<trkpt lat="43.727908982" lon="11.306433007"><ele>143</ele><time>2020-01-12T09:11:40Z</time></trkpt>
<trkpt lat="43.727911999" lon="11.30638699"><ele>143</ele><time>2020-01-12T09:11:41Z</time></trkpt>
<trkpt lat="43.727915017" lon="11.306338962"><ele>142</ele><time>2020-01-12T09:11:42Z</time></trkpt>
<trkpt lat="43.727918034" lon="11.306292024"><ele>142</ele><time>2020-01-12T09:11:43Z</time></trkpt>
<trkpt lat="43.727919962" lon="11.306242989"><ele>142</ele><time>2020-01-12T09:11:44Z</time></trkpt>
<trkpt lat="43.727921974" lon="11.306194961"><ele>142</ele><time>2020-01-12T09:11:45Z</time></trkpt>
<trkpt lat="43.727923986" lon="11.306146011"><ele>142</ele><time>2020-01-12T09:11:46Z</time></trkpt>
<trkpt lat="43.727925997" lon="11.306096977"><ele>141</ele><time>2020-01-12T09:11:47Z</time></trkpt>
<trkpt lat="43.727928009" lon="11.306048026"><ele>141</ele><time>2020-01-12T09:11:48Z</time></trkpt>
<trkpt lat="43.727929015" lon="11.305998992"><ele>141</ele><time>2020-01-12T09:11:49Z</time></trkpt>
<trkpt lat="43.727930021" lon="11.305950042"><ele>141</ele><time>2020-01-12T09:11:50Z</time></trkpt>
<trkpt lat="43.727931026" lon="11.305900002"><ele>140</ele><time>2020-01-12T09:11:51Z</time></trkpt>
<trkpt lat="43.727932032" lon="11.305850968"><ele>140</ele><time>2020-01-12T09:11:52Z</time></trkpt>
<trkpt lat="43.727933038" lon="11.305802017"><ele>140</ele><time>2020-01-12T09:11:53Z</time></trkpt>
<trkpt lat="43.727933038" lon="11.305752983"><ele>140</ele><time>2020-01-12T09:11:54Z</time></trkpt>
<trkpt lat="43.727933038" lon="11.305704033"><ele>139</ele><time>2020-01-12T09:11:55Z</time></trkpt>
<trkpt lat="43.727933038" lon="11.305654999"><ele>139</ele><time>2020-01-12T09:11:56Z</time></trkpt>
<trkpt lat="43.727933038" lon="11.305605965"><ele>139</ele><time>2020-01-12T09:11:57Z</time></trkpt>
<trkpt lat="43.727933038" lon="11.305557014"><ele>139</ele><time>2020-01-12T09:11:58Z</time></trkpt>
<trkpt lat="43.727932032" lon="11.305508986"><ele>138</ele><time>2020-01-12T09:11:59Z</time></trkpt>
<trkpt lat="43.727932032" lon="11.305460036"><ele>138</ele><time>2020-01-12T09:12:00Z</time></trkpt>
<trkpt lat="43.727933038" lon="11.305412007"><ele>138</ele><time>2020-01-12T09:12:01Z</time></trkpt>
<trkpt lat="43.72793396" lon="11.305362973"><ele>138</ele><time>2020-01-12T09:12:02Z</time></trkpt>
<trkpt lat="43.727934966" lon="11.305314023"><ele>138</ele><time>2020-01-12T09:12:03Z</time></trkpt>
<trkpt lat="43.727936978" lon="11.305264989"><ele>137</ele><time>2020-01-12T09:12:04Z</time></trkpt>
<trkpt lat="43.727938989" lon="11.305216039"><ele>137</ele><time>2020-01-12T09:12:05Z</time></trkpt>
<trkpt lat="43.727942007" lon="11.305165999"><ele>137</ele><time>2020-01-12T09:12:06Z</time></trkpt>
<trkpt lat="43.727945024" lon="11.305116965"><ele>137</ele><time>2020-01-12T09:12:07Z</time></trkpt>
<trkpt lat="43.727948042" lon="11.305067008"><ele>136</ele><time>2020-01-12T09:12:08Z</time></trkpt>
<trkpt lat="43.727951981" lon="11.305017974"><ele>136</ele><time>2020-01-12T09:12:09Z</time></trkpt>
<trkpt lat="43.727954999" lon="11.304968018"><ele>136</ele><time>2020-01-12T09:12:10Z</time></trkpt>
<trkpt lat="43.727959022" lon="11.304917978"><ele>136</ele><time>2020-01-12T09:12:11Z</time></trkpt>
<trkpt lat="43.727962961" lon="11.304869028"><ele>136</ele><time>2020-01-12T09:12:12Z</time></trkpt>
<trkpt lat="43.727966985" lon="11.304819994"><ele>136</ele><time>2020-01-12T09:12:13Z</time></trkpt>
<trkpt lat="43.727971008" lon="11.304770038"><ele>136</ele><time>2020-01-12T09:12:14Z</time></trkpt>
<trkpt lat="43.727975031" lon="11.304721003"><ele>136</ele><time>2020-01-12T09:12:15Z</time></trkpt>
<trkpt lat="43.727977965" lon="11.304672975"><ele>136</ele><time>2020-01-12T09:12:16Z</time></trkpt>
<trkpt lat="43.727980983" lon="11.304624025"><ele>136</ele><time>2020-01-12T09:12:17Z</time></trkpt>
<trkpt lat="43.727984" lon="11.304575996"><ele>136</ele><time>2020-01-12T09:12:18Z</time></trkpt>
<trkpt lat="43.727986012" lon="11.304527968"><ele>135</ele><time>2020-01-12T09:12:19Z</time></trkpt>
<trkpt lat="43.727988023" lon="11.304480024"><ele>135</ele><time>2020-01-12T09:12:20Z</time></trkpt>
<trkpt lat="43.727990035" lon="11.304433001"><ele>135</ele><time>2020-01-12T09:12:21Z</time></trkpt>
<trkpt lat="43.727990035" lon="11.304385979"><ele>135</ele><time>2020-01-12T09:12:22Z</time></trkpt>
<trkpt lat="43.727990035" lon="11.304339962"><ele>135</ele><time>2020-01-12T09:12:23Z</time></trkpt>
<trkpt lat="43.727990035" lon="11.304294029"><ele>135</ele><time>2020-01-12T09:12:24Z</time></trkpt>
<trkpt lat="43.727990035" lon="11.304248013"><ele>135</ele><time>2020-01-12T09:12:25Z</time></trkpt>
<trkpt lat="43.727989029" lon="11.304203002"><ele>135</ele><time>2020-01-12T09:12:26Z</time></trkpt>
<trkpt lat="43.727989029" lon="11.304156985"><ele>135</ele><time>2020-01-12T09:12:27Z</time></trkpt>
<trkpt lat="43.727990035" lon="11.304111974"><ele>135</ele><time>2020-01-12T09:12:28Z</time></trkpt>
<trkpt lat="43.727991963" lon="11.304067969"><ele>134</ele><time>2020-01-12T09:12:29Z</time></trkpt>
<trkpt lat="43.72799498" lon="11.304022959"><ele>134</ele><time>2020-01-12T09:12:30Z</time></trkpt>
<trkpt lat="43.727999004" lon="11.303978032"><ele>134</ele><time>2020-01-12T09:12:31Z</time></trkpt>
<trkpt lat="43.728005961" lon="11.303933021"><ele>134</ele><time>2020-01-12T09:12:32Z</time></trkpt>
<trkpt lat="43.728014007" lon="11.30388801"><ele>134</ele><time>2020-01-12T09:12:33Z</time></trkpt>
<trkpt lat="43.728023982" lon="11.303842999"><ele>134</ele><time>2020-01-12T09:12:34Z</time></trkpt>
<trkpt lat="43.728035968" lon="11.303797988"><ele>134</ele><time>2020-01-12T09:12:35Z</time></trkpt>
<trkpt lat="43.72804896" lon="11.303753983"><ele>134</ele><time>2020-01-12T09:12:36Z</time></trkpt>
<trkpt lat="43.728063963" lon="11.303709978"><ele>134</ele><time>2020-01-12T09:12:37Z</time></trkpt>
<trkpt lat="43.728078967" lon="11.303666979"><ele>134</ele><time>2020-01-12T09:12:38Z</time></trkpt>
<trkpt lat="43.728094976" lon="11.303624986"><ele>134</ele><time>2020-01-12T09:12:39Z</time></trkpt>
<trkpt lat="43.728111992" lon="11.303583998"><ele>133</ele><time>2020-01-12T09:12:40Z</time></trkpt>
<trkpt lat="43.728129007" lon="11.303544017"><ele>133</ele><time>2020-01-12T09:12:41Z</time></trkpt>
<trkpt lat="43.728146022" lon="11.303505963"><ele>133</ele><time>2020-01-12T09:12:42Z</time></trkpt>
<trkpt lat="43.728163959" lon="11.303467993"><ele>133</ele><time>2020-01-12T09:12:43Z</time></trkpt>
<trkpt lat="43.728180975" lon="11.303432034"><ele>133</ele><time>2020-01-12T09:12:44Z</time></trkpt>
<trkpt lat="43.72819799" lon="11.303394986"><ele>133</ele><time>2020-01-12T09:12:45Z</time></trkpt>
<trkpt lat="43.728215005" lon="11.303359028"><ele>133</ele><time>2020-01-12T09:12:46Z</time></trkpt>
<trkpt lat="43.728232021" lon="11.303322986"><ele>133</ele><time>2020-01-12T09:12:47Z</time></trkpt>
<trkpt lat="43.72824803" lon="11.303286022"><ele>133</ele><time>2020-01-12T09:12:48Z</time></trkpt>
<trkpt lat="43.728264039" lon="11.303247968"><ele>134</ele><time>2020-01-12T09:12:49Z</time></trkpt>
<trkpt lat="43.728279965" lon="11.303208992"><ele>134</ele><time>2020-01-12T09:12:50Z</time></trkpt>
<trkpt lat="43.728294969" lon="11.30316901"><ele>134</ele><time>2020-01-12T09:12:51Z</time></trkpt>
<trkpt lat="43.728308966" lon="11.303127017"><ele>134</ele><time>2020-01-12T09:12:52Z</time></trkpt>
<trkpt lat="43.728322964" lon="11.303083012"><ele>134</ele><time>2020-01-12T09:12:53Z</time></trkpt>
<trkpt lat="43.72833604" lon="11.303038001"><ele>134</ele><time>2020-01-12T09:12:54Z</time></trkpt>
<trkpt lat="43.728349032" lon="11.302990979"><ele>134</ele><time>2020-01-12T09:12:55Z</time></trkpt>
<trkpt lat="43.728361018" lon="11.30294404"><ele>134</ele><time>2020-01-12T09:12:56Z</time></trkpt>
<trkpt lat="43.72837401" lon="11.302897017"><ele>134</ele><time>2020-01-12T09:12:57Z</time></trkpt>
<trkpt lat="43.728385996" lon="11.302848989"><ele>133</ele><time>2020-01-12T09:12:58Z</time></trkpt>
<trkpt lat="43.728397982" lon="11.302800961"><ele>133</ele><time>2020-01-12T09:12:59Z</time></trkpt>
<trkpt lat="43.728409968" lon="11.302754022"><ele>133</ele><time>2020-01-12T09:13:00Z</time></trkpt>
<trkpt lat="43.728421032" lon="11.302707"><ele>133</ele><time>2020-01-12T09:13:01Z</time></trkpt>
<trkpt lat="43.728433019" lon="11.302659977"><ele>133</ele><time>2020-01-12T09:13:02Z</time></trkpt>
<trkpt lat="43.728445005" lon="11.302613961"><ele>133</ele><time>2020-01-12T09:13:03Z</time></trkpt>
<trkpt lat="43.728456991" lon="11.302568028"><ele>132</ele><time>2020-01-12T09:13:04Z</time></trkpt>
<trkpt lat="43.728467971" lon="11.302523017"><ele>132</ele><time>2020-01-12T09:13:05Z</time></trkpt>
<trkpt lat="43.728480041" lon="11.302477"><ele>132</ele><time>2020-01-12T09:13:06Z</time></trkpt>
<trkpt lat="43.728491021" lon="11.302431989"><ele>132</ele><time>2020-01-12T09:13:07Z</time></trkpt>
<trkpt lat="43.728500996" lon="11.302385973"><ele>132</ele><time>2020-01-12T09:13:08Z</time></trkpt>
<trkpt lat="43.728511976" lon="11.30234004"><ele>132</ele><time>2020-01-12T09:13:09Z</time></trkpt>
<trkpt lat="43.728522034" lon="11.302294023"><ele>132</ele><time>2020-01-12T09:13:10Z</time></trkpt>
<trkpt lat="43.728531003" lon="11.302247001"><ele>131</ele><time>2020-01-12T09:13:11Z</time></trkpt>
<trkpt lat="43.728539972" lon="11.302199978"><ele>131</ele><time>2020-01-12T09:13:12Z</time></trkpt>
<trkpt lat="43.728549024" lon="11.30215304"><ele>131</ele><time>2020-01-12T09:13:13Z</time></trkpt>
<trkpt lat="43.728556987" lon="11.302106017"><ele>131</ele><time>2020-01-12T09:13:14Z</time></trkpt>
<trkpt lat="43.728566039" lon="11.302057989"><ele>131</ele><time>2020-01-12T09:13:15Z</time></trkpt>
<trkpt lat="43.728574002" lon="11.302010966"><ele>131</ele><time>2020-01-12T09:13:16Z</time></trkpt>
<trkpt lat="43.728582971" lon="11.301963022"><ele>131</ele><time>2020-01-12T09:13:17Z</time></trkpt>
<trkpt lat="43.728592023" lon="11.301916"><ele>130</ele><time>2020-01-12T09:13:18Z</time></trkpt>
<trkpt lat="43.728600992" lon="11.301868977"><ele>130</ele><time>2020-01-12T09:13:19Z</time></trkpt>
<trkpt lat="43.728610966" lon="11.301821033"><ele>130</ele><time>2020-01-12T09:13:20Z</time></trkpt>
<trkpt lat="43.728621025" lon="11.301775016"><ele>130</ele><time>2020-01-12T09:13:21Z</time></trkpt>
<trkpt lat="43.728632005" lon="11.301727993"><ele>130</ele><time>2020-01-12T09:13:22Z</time></trkpt>
<trkpt lat="43.728642985" lon="11.301680971"><ele>130</ele><time>2020-01-12T09:13:23Z</time></trkpt>
<trkpt lat="43.728653966" lon="11.301634032"><ele>129</ele><time>2020-01-12T09:13:24Z</time></trkpt>
<trkpt lat="43.728666035" lon="11.301588016"><ele>129</ele><time>2020-01-12T09:13:25Z</time></trkpt>
<trkpt lat="43.728677016" lon="11.301540993"><ele>129</ele><time>2020-01-12T09:13:26Z</time></trkpt>
<trkpt lat="43.728689002" lon="11.301494977"><ele>129</ele><time>2020-01-12T09:13:27Z</time></trkpt>
<trkpt lat="43.728700988" lon="11.301448038"><ele>128</ele><time>2020-01-12T09:13:28Z</time></trkpt>
<trkpt lat="43.728711968" lon="11.301401015"><ele>128</ele><time>2020-01-12T09:13:29Z</time></trkpt>
<trkpt lat="43.728724038" lon="11.301353993"><ele>128</ele><time>2020-01-12T09:13:30Z</time></trkpt>
<trkpt lat="43.728736024" lon="11.30130697"><ele>128</ele><time>2020-01-12T09:13:31Z</time></trkpt>
<trkpt lat="43.728747005" lon="11.301259026"><ele>128</ele><time>2020-01-12T09:13:32Z</time></trkpt>
<trkpt lat="43.728757985" lon="11.301212003"><ele>127</ele><time>2020-01-12T09:13:33Z</time></trkpt>
<trkpt lat="43.728768965" lon="11.301163975"><ele>127</ele><time>2020-01-12T09:13:34Z</time></trkpt>
<trkpt lat="43.728780029" lon="11.301115025"><ele>127</ele><time>2020-01-12T09:13:35Z</time></trkpt>
<trkpt lat="43.728790004" lon="11.301066997"><ele>127</ele><time>2020-01-12T09:13:36Z</time></trkpt>
<trkpt lat="43.728799978" lon="11.30101704"><ele>127</ele><time>2020-01-12T09:13:37Z</time></trkpt>
<trkpt lat="43.728809031" lon="11.300968006"><ele>126</ele><time>2020-01-12T09:13:38Z</time></trkpt>
<trkpt lat="43.728817999" lon="11.300917966"><ele>126</ele><time>2020-01-12T09:13:39Z</time></trkpt>
<trkpt lat="43.728825962" lon="11.300867004"><ele>126</ele><time>2020-01-12T09:13:40Z</time></trkpt>
<trkpt lat="43.728835015" lon="11.300816964"><ele>126</ele><time>2020-01-12T09:13:41Z</time></trkpt>
<trkpt lat="43.728842977" lon="11.300766002"><ele>126</ele><time>2020-01-12T09:13:42Z</time></trkpt>
<trkpt lat="43.72885203" lon="11.30071504"><ele>126</ele><time>2020-01-12T09:13:43Z</time></trkpt>
<trkpt lat="43.728859993" lon="11.300663995"><ele>126</ele><time>2020-01-12T09:13:44Z</time></trkpt>
<trkpt lat="43.728869967" lon="11.300614038"><ele>126</ele><time>2020-01-12T09:13:45Z</time></trkpt>
<trkpt lat="43.728880025" lon="11.300563999"><ele>125</ele><time>2020-01-12T09:13:46Z</time></trkpt>
<trkpt lat="43.728891006" lon="11.300513959"><ele>125</ele><time>2020-01-12T09:13:47Z</time></trkpt>
<trkpt lat="43.728903998" lon="11.300465008"><ele>125</ele><time>2020-01-12T09:13:48Z</time></trkpt>
<trkpt lat="43.72891699" lon="11.30041698"><ele>125</ele><time>2020-01-12T09:13:49Z</time></trkpt>
<trkpt lat="43.728931993" lon="11.300369035"><ele>125</ele><time>2020-01-12T09:13:50Z</time></trkpt>
<trkpt lat="43.728949009" lon="11.300323019"><ele>125</ele><time>2020-01-12T09:13:51Z</time></trkpt>
<trkpt lat="43.728966024" lon="11.300277002"><ele>124</ele><time>2020-01-12T09:13:52Z</time></trkpt>
<trkpt lat="43.728983961" lon="11.300231991"><ele>124</ele><time>2020-01-12T09:13:53Z</time></trkpt>
<trkpt lat="43.729003994" lon="11.300187986"><ele>124</ele><time>2020-01-12T09:13:54Z</time></trkpt>
<trkpt lat="43.729024027" lon="11.300144987"><ele>123</ele><time>2020-01-12T09:13:55Z</time></trkpt>
<trkpt lat="43.729045987" lon="11.300102994"><ele>123</ele><time>2020-01-12T09:13:56Z</time></trkpt>
<trkpt lat="43.729068032" lon="11.300063012"><ele>123</ele><time>2020-01-12T09:13:57Z</time></trkpt>
<trkpt lat="43.729090998" lon="11.30002303"><ele>122</ele><time>2020-01-12T09:13:58Z</time></trkpt>
<trkpt lat="43.72911497" lon="11.299984977"><ele>122</ele><time>2020-01-12T09:13:59Z</time></trkpt>
<trkpt lat="43.729140032" lon="11.299947007"><ele>122</ele><time>2020-01-12T09:14:00Z</time></trkpt>
<trkpt lat="43.72916501" lon="11.299909959"><ele>122</ele><time>2020-01-12T09:14:01Z</time></trkpt>
<trkpt lat="43.729190994" lon="11.299874"><ele>121</ele><time>2020-01-12T09:14:02Z</time></trkpt>
<trkpt lat="43.729215972" lon="11.299838042"><ele>121</ele><time>2020-01-12T09:14:03Z</time></trkpt>
<trkpt lat="43.729242962" lon="11.299802"><ele>121</ele><time>2020-01-12T09:14:04Z</time></trkpt>
<trkpt lat="43.72926903" lon="11.299766041"><ele>120</ele><time>2020-01-12T09:14:05Z</time></trkpt>
<trkpt lat="43.729295013" lon="11.299729999"><ele>120</ele><time>2020-01-12T09:14:06Z</time></trkpt>
<trkpt lat="43.729320997" lon="11.299694963"><ele>120</ele><time>2020-01-12T09:14:07Z</time></trkpt>
<trkpt lat="43.729346981" lon="11.299657999"><ele>119</ele><time>2020-01-12T09:14:08Z</time></trkpt>
<trkpt lat="43.729372965" lon="11.29962204"><ele>119</ele><time>2020-01-12T09:14:09Z</time></trkpt>
<trkpt lat="43.729399033" lon="11.299584992"><ele>119</ele><time>2020-01-12T09:14:10Z</time></trkpt>
<trkpt lat="43.729424011" lon="11.299548028"><ele>119</ele><time>2020-01-12T09:14:11Z</time></trkpt>
<trkpt lat="43.729449995" lon="11.299511986"><ele>118</ele><time>2020-01-12T09:14:12Z</time></trkpt>
<trkpt lat="43.729475979" lon="11.299475022"><ele>118</ele><time>2020-01-12T09:14:13Z</time></trkpt>
<trkpt lat="43.729501041" lon="11.299438979"><ele>118</ele><time>2020-01-12T09:14:14Z</time></trkpt>
<trkpt lat="43.729527025" lon="11.299403021"><ele>117</ele><time>2020-01-12T09:14:15Z</time></trkpt>
<trkpt lat="43.729553008" lon="11.299366979"><ele>117</ele><time>2020-01-12T09:14:16Z</time></trkpt>
<trkpt lat="43.729578992" lon="11.299332026"><ele>117</ele><time>2020-01-12T09:14:17Z</time></trkpt>
<trkpt lat="43.729604976" lon="11.29929699"><ele>116</ele><time>2020-01-12T09:14:18Z</time></trkpt>
<trkpt lat="43.729631966" lon="11.29926296"><ele>116</ele><time>2020-01-12T09:14:19Z</time></trkpt>
<trkpt lat="43.729658034" lon="11.299230019"><ele>116</ele><time>2020-01-12T09:14:20Z</time></trkpt>
<trkpt lat="43.729685023" lon="11.299195988"><ele>115</ele><time>2020-01-12T09:14:21Z</time></trkpt>
<trkpt lat="43.729711007" lon="11.299162963"><ele>115</ele><time>2020-01-12T09:14:22Z</time></trkpt>
<trkpt lat="43.729791977" lon="11.299065985"><ele>114</ele><time>2020-01-12T09:14:25Z</time></trkpt>
<trkpt lat="43.72981796" lon="11.299034972"><ele>114</ele><time>2020-01-12T09:14:26Z</time></trkpt>
<trkpt lat="43.729845034" lon="11.299003037"><ele>113</ele><time>2020-01-12T09:14:27Z</time></trkpt>
<trkpt lat="43.729872024" lon="11.298972024"><ele>113</ele><time>2020-01-12T09:14:28Z</time></trkpt>
<trkpt lat="43.729898008" lon="11.298941011"><ele>113</ele><time>2020-01-12T09:14:29Z</time></trkpt>
<trkpt lat="43.729924997" lon="11.298908992"><ele>113</ele><time>2020-01-12T09:14:30Z</time></trkpt>
<trkpt lat="43.729951987" lon="11.298877979"><ele>112</ele><time>2020-01-12T09:14:31Z</time></trkpt>
<trkpt lat="43.729977971" lon="11.298846966"><ele>112</ele><time>2020-01-12T09:14:32Z</time></trkpt>
<trkpt lat="43.730004039" lon="11.298816958"><ele>112</ele><time>2020-01-12T09:14:33Z</time></trkpt>
<trkpt lat="43.730030023" lon="11.298786029"><ele>112</ele><time>2020-01-12T09:14:34Z</time></trkpt>
<trkpt lat="43.730056006" lon="11.298755016"><ele>111</ele><time>2020-01-12T09:14:35Z</time></trkpt>
<trkpt lat="43.730133958" lon="11.298660971"><ele>110</ele><time>2020-01-12T09:14:38Z</time></trkpt>
<trkpt lat="43.730161032" lon="11.29862803"><ele>110</ele><time>2020-01-12T09:14:39Z</time></trkpt>
<trkpt lat="43.730188021" lon="11.298595006"><ele>109</ele><time>2020-01-12T09:14:40Z</time></trkpt>
<trkpt lat="43.730216017" lon="11.298560975"><ele>109</ele><time>2020-01-12T09:14:41Z</time></trkpt>
<trkpt lat="43.730244013" lon="11.298530968"><ele>108</ele><time>2020-01-12T09:14:42Z</time></trkpt>
<trkpt lat="43.730271002" lon="11.298509007"><ele>108</ele><time>2020-01-12T09:14:43Z</time></trkpt>
<trkpt lat="43.73029598" lon="11.298500039"><ele>107</ele><time>2020-01-12T09:14:44Z</time></trkpt>
<trkpt lat="43.730318025" lon="11.298508001"><ele>107</ele><time>2020-01-12T09:14:45Z</time></trkpt>
<trkpt lat="43.730336968" lon="11.298535997"><ele>106</ele><time>2020-01-12T09:14:46Z</time></trkpt>
<trkpt lat="43.730350966" lon="11.298580002"><ele>105</ele><time>2020-01-12T09:14:47Z</time></trkpt>
<trkpt lat="43.730361024" lon="11.298633981"><ele>105</ele><time>2020-01-12T09:14:48Z</time></trkpt>
<trkpt lat="43.730365969" lon="11.29869299"><ele>105</ele><time>2020-01-12T09:14:49Z</time></trkpt>
<trkpt lat="43.730365969" lon="11.298749987"><ele>104</ele><time>2020-01-12T09:14:50Z</time></trkpt>
<trkpt lat="43.730360018" lon="11.298801033"><ele>104</ele><time>2020-01-12T09:14:51Z</time></trkpt>
<trkpt lat="43.73034996" lon="11.298846966"><ele>104</ele><time>2020-01-12T09:14:52Z</time></trkpt>
<trkpt lat="43.730337974" lon="11.298890971"><ele>104</ele><time>2020-01-12T09:14:53Z</time></trkpt>
<trkpt lat="43.730324982" lon="11.298935981"><ele>104</ele><time>2020-01-12T09:14:54Z</time></trkpt>
<trkpt lat="43.730314001" lon="11.298981998"><ele>104</ele><time>2020-01-12T09:14:55Z</time></trkpt>
<trkpt lat="43.730304027" lon="11.299031032"><ele>104</ele><time>2020-01-12T09:14:56Z</time></trkpt>
<trkpt lat="43.73029598" lon="11.299081994"><ele>104</ele><time>2020-01-12T09:14:57Z</time></trkpt>
<trkpt lat="43.730289023" lon="11.299134968"><ele>104</ele><time>2020-01-12T09:14:58Z</time></trkpt>
<trkpt lat="43.730283994" lon="11.299188025"><ele>104</ele><time>2020-01-12T09:14:59Z</time></trkpt>
<trkpt lat="43.730280977" lon="11.299240999"><ele>103</ele><time>2020-01-12T09:15:00Z</time></trkpt>
<trkpt lat="43.730277959" lon="11.299293973"><ele>103</ele><time>2020-01-12T09:15:01Z</time></trkpt>
<trkpt lat="43.730277037" lon="11.299348036"><ele>103</ele><time>2020-01-12T09:15:02Z</time></trkpt>
<trkpt lat="43.730277037" lon="11.299401009"><ele>103</ele><time>2020-01-12T09:15:03Z</time></trkpt>
<trkpt lat="43.730277037" lon="11.299453983"><ele>102</ele><time>2020-01-12T09:15:04Z</time></trkpt>
<trkpt lat="43.730277037" lon="11.299507041"><ele>102</ele><time>2020-01-12T09:15:05Z</time></trkpt>
<trkpt lat="43.730277959" lon="11.299559008"><ele>102</ele><time>2020-01-12T09:15:06Z</time></trkpt>
<trkpt lat="43.730278965" lon="11.29960997"><ele>102</ele><time>2020-01-12T09:15:07Z</time></trkpt>
<trkpt lat="43.730279971" lon="11.29966001"><ele>102</ele><time>2020-01-12T09:15:08Z</time></trkpt>
<trkpt lat="43.730280977" lon="11.299708961"><ele>101</ele><time>2020-01-12T09:15:09Z</time></trkpt>
<trkpt lat="43.730281983" lon="11.299755983"><ele>101</ele><time>2020-01-12T09:15:10Z</time></trkpt>
<trkpt lat="43.730283994" lon="11.299803006"><ele>101</ele><time>2020-01-12T09:15:11Z</time></trkpt>
<trkpt lat="43.730286006" lon="11.299849022"><ele>101</ele><time>2020-01-12T09:15:12Z</time></trkpt>
<trkpt lat="43.730288018" lon="11.299895961"><ele>100</ele><time>2020-01-12T09:15:13Z</time></trkpt>
<trkpt lat="43.730291035" lon="11.299943989"><ele>100</ele><time>2020-01-12T09:15:14Z</time></trkpt>
<trkpt lat="43.730294975" lon="11.299993023"><ele>100</ele><time>2020-01-12T09:15:15Z</time></trkpt>
<trkpt lat="43.730301009" lon="11.300041974"><ele>100</ele><time>2020-01-12T09:15:16Z</time></trkpt>
<trkpt lat="43.730307966" lon="11.300091008"><ele>100</ele><time>2020-01-12T09:15:17Z</time></trkpt>
<trkpt lat="43.730317019" lon="11.300139036"><ele>100</ele><time>2020-01-12T09:15:18Z</time></trkpt>
<trkpt lat="43.730327999" lon="11.300184969"><ele>100</ele><time>2020-01-12T09:15:19Z</time></trkpt>
<trkpt lat="43.730341997" lon="11.30022998"><ele>100</ele><time>2020-01-12T09:15:20Z</time></trkpt>
<trkpt lat="43.730359012" lon="11.300270967"><ele>100</ele><time>2020-01-12T09:15:21Z</time></trkpt>
<trkpt lat="43.730378961" lon="11.300310027"><ele>99</ele><time>2020-01-12T09:15:22Z</time></trkpt>
<trkpt lat="43.730402011" lon="11.300344979"><ele>99</ele><time>2020-01-12T09:15:23Z</time></trkpt>
<trkpt lat="43.730429001" lon="11.300375992"><ele>99</ele><time>2020-01-12T09:15:24Z</time></trkpt>
<trkpt lat="43.730459008" lon="11.300403988"><ele>98</ele><time>2020-01-12T09:15:25Z</time></trkpt>
<trkpt lat="43.730490021" lon="11.30042796"><ele>98</ele><time>2020-01-12T09:15:26Z</time></trkpt>
<trkpt lat="43.730521034" lon="11.300450005"><ele>98</ele><time>2020-01-12T09:15:27Z</time></trkpt>
<trkpt lat="43.730551042" lon="11.300470037"><ele>97</ele><time>2020-01-12T09:15:28Z</time></trkpt>
<trkpt lat="43.730578031" lon="11.30048898"><ele>97</ele><time>2020-01-12T09:15:29Z</time></trkpt>
<trkpt lat="43.730605021" lon="11.300508007"><ele>97</ele><time>2020-01-12T09:15:30Z</time></trkpt>
<trkpt lat="43.730632011" lon="11.30052804"><ele>96</ele><time>2020-01-12T09:15:31Z</time></trkpt>
<trkpt lat="43.730661012" lon="11.300550001"><ele>96</ele><time>2020-01-12T09:15:32Z</time></trkpt>
<trkpt lat="43.730693031" lon="11.300573973"><ele>95</ele><time>2020-01-12T09:15:33Z</time></trkpt>
<trkpt lat="43.730726978" lon="11.300599035"><ele>95</ele><time>2020-01-12T09:15:34Z</time></trkpt>
<trkpt lat="43.73076302" lon="11.300624013"><ele>95</ele><time>2020-01-12T09:15:35Z</time></trkpt>
<trkpt lat="43.730798978" lon="11.300645974"><ele>94</ele><time>2020-01-12T09:15:36Z</time></trkpt>
<trkpt lat="43.730835021" lon="11.300662989"><ele>94</ele><time>2020-01-12T09:15:37Z</time></trkpt>
<trkpt lat="43.730868967" lon="11.300673969"><ele>93</ele><time>2020-01-12T09:15:38Z</time></trkpt>
<trkpt lat="43.730901992" lon="11.300677992"><ele>93</ele><time>2020-01-12T09:15:39Z</time></trkpt>
<trkpt lat="43.730934011" lon="11.300676987"><ele>93</ele><time>2020-01-12T09:15:40Z</time></trkpt>
<trkpt lat="43.730965024" lon="11.300671035"><ele>93</ele><time>2020-01-12T09:15:41Z</time></trkpt>
<trkpt lat="43.73102596" lon="11.300644968"><ele>93</ele><time>2020-01-12T09:15:43Z</time></trkpt>
<trkpt lat="43.731056973" lon="11.300626025"><ele>92</ele><time>2020-01-12T09:15:44Z</time></trkpt>
<trkpt lat="43.731087986" lon="11.300604986"><ele>92</ele><time>2020-01-12T09:15:45Z</time></trkpt>
<trkpt lat="43.731118999" lon="11.300580008"><ele>92</ele><time>2020-01-12T09:15:46Z</time></trkpt>
<trkpt lat="43.731149007" lon="11.300554024"><ele>92</ele><time>2020-01-12T09:15:47Z</time></trkpt>
<trkpt lat="43.73118002" lon="11.300527034"><ele>92</ele><time>2020-01-12T09:15:48Z</time></trkpt>
<trkpt lat="43.731210027" lon="11.300498033"><ele>91</ele><time>2020-01-12T09:15:49Z</time></trkpt>
<trkpt lat="43.731240034" lon="11.300470037"><ele>91</ele><time>2020-01-12T09:15:50Z</time></trkpt>
<trkpt lat="43.731269035" lon="11.300441036"><ele>91</ele><time>2020-01-12T09:15:51Z</time></trkpt>
<trkpt lat="43.731298959" lon="11.30041304"><ele>91</ele><time>2020-01-12T09:15:52Z</time></trkpt>
<trkpt lat="43.731327038" lon="11.300384961"><ele>91</ele><time>2020-01-12T09:15:53Z</time></trkpt>
<trkpt lat="43.73135604" lon="11.300357971"><ele>90</ele><time>2020-01-12T09:15:54Z</time></trkpt>
<trkpt lat="43.731384035" lon="11.300331987"><ele>90</ele><time>2020-01-12T09:15:55Z</time></trkpt>
<trkpt lat="43.731412031" lon="11.300304998"><ele>90</ele><time>2020-01-12T09:15:56Z</time></trkpt>
<trkpt lat="43.73143902" lon="11.300279014"><ele>90</ele><time>2020-01-12T09:15:57Z</time></trkpt>
<trkpt lat="43.73146601" lon="11.300254036"><ele>90</ele><time>2020-01-12T09:15:58Z</time></trkpt>
<trkpt lat="43.731493" lon="11.300227968"><ele>90</ele><time>2020-01-12T09:15:59Z</time></trkpt>
<trkpt lat="43.73151999" lon="11.300201984"><ele>90</ele><time>2020-01-12T09:16:00Z</time></trkpt>
<trkpt lat="43.731546979" lon="11.300177006"><ele>90</ele><time>2020-01-12T09:16:01Z</time></trkpt>
<trkpt lat="43.731572963" lon="11.300151022"><ele>89</ele><time>2020-01-12T09:16:02Z</time></trkpt>
<trkpt lat="43.731599031" lon="11.300125038"><ele>89</ele><time>2020-01-12T09:16:03Z</time></trkpt>
<trkpt lat="43.731626021" lon="11.300098971"><ele>89</ele><time>2020-01-12T09:16:04Z</time></trkpt>
<trkpt lat="43.731652005" lon="11.300071981"><ele>89</ele><time>2020-01-12T09:16:05Z</time></trkpt>
<trkpt lat="43.731677989" lon="11.300044991"><ele>89</ele><time>2020-01-12T09:16:06Z</time></trkpt>
<trkpt lat="43.731703972" lon="11.300016996"><ele>89</ele><time>2020-01-12T09:16:07Z</time></trkpt>
<trkpt lat="43.73173004" lon="11.299989"><ele>89</ele><time>2020-01-12T09:16:08Z</time></trkpt>
<trkpt lat="43.731756024" lon="11.299959999"><ele>88</ele><time>2020-01-12T09:16:09Z</time></trkpt>
<trkpt lat="43.731782008" lon="11.299930997"><ele>88</ele><time>2020-01-12T09:16:10Z</time></trkpt>
<trkpt lat="43.731808998" lon="11.299899984"><ele>88</ele><time>2020-01-12T09:16:11Z</time></trkpt>
<trkpt lat="43.731833976" lon="11.299868971"><ele>88</ele><time>2020-01-12T09:16:12Z</time></trkpt>
<trkpt lat="43.731859038" lon="11.29983603"><ele>88</ele><time>2020-01-12T09:16:13Z</time></trkpt>
<trkpt lat="43.73188301" lon="11.299803006"><ele>87</ele><time>2020-01-12T09:16:14Z</time></trkpt>
<trkpt lat="43.73190497" lon="11.299767969"><ele>87</ele><time>2020-01-12T09:16:15Z</time></trkpt>
<trkpt lat="43.731925003" lon="11.299732011"><ele>87</ele><time>2020-01-12T09:16:16Z</time></trkpt>
<trkpt lat="43.731942018" lon="11.299694963"><ele>87</ele><time>2020-01-12T09:16:17Z</time></trkpt>
<trkpt lat="43.731956016" lon="11.299656993"><ele>87</ele><time>2020-01-12T09:16:18Z</time></trkpt>
<trkpt lat="43.731976971" lon="11.299533024"><ele>86</ele><time>2020-01-12T09:16:21Z</time></trkpt>
<trkpt lat="43.731975965" lon="11.299488014"><ele>86</ele><time>2020-01-12T09:16:22Z</time></trkpt>
<trkpt lat="43.731973032" lon="11.299443003"><ele>86</ele><time>2020-01-12T09:16:23Z</time></trkpt>
<trkpt lat="43.731969008" lon="11.299397992"><ele>86</ele><time>2020-01-12T09:16:24Z</time></trkpt>
<trkpt lat="43.731964985" lon="11.299352981"><ele>86</ele><time>2020-01-12T09:16:25Z</time></trkpt>
<trkpt lat="43.731960962" lon="11.299306965"><ele>85</ele><time>2020-01-12T09:16:26Z</time></trkpt>
<trkpt lat="43.731959034" lon="11.299262038"><ele>85</ele><time>2020-01-12T09:16:27Z</time></trkpt>
<trkpt lat="43.731959034" lon="11.299217027"><ele>85</ele><time>2020-01-12T09:16:28Z</time></trkpt>
<trkpt lat="43.731960962" lon="11.299172016"><ele>85</ele><time>2020-01-12T09:16:29Z</time></trkpt>
<trkpt lat="43.731965991" lon="11.299128011"><ele>85</ele><time>2020-01-12T09:16:30Z</time></trkpt>
<trkpt lat="43.731974037" lon="11.299083"><ele>85</ele><time>2020-01-12T09:16:31Z</time></trkpt>
<trkpt lat="43.731984012" lon="11.299038995"><ele>85</ele><time>2020-01-12T09:16:32Z</time></trkpt>
<trkpt lat="43.731995998" lon="11.29899499"><ele>85</ele><time>2020-01-12T09:16:33Z</time></trkpt>
<trkpt lat="43.73200899" lon="11.298950985"><ele>85</ele><time>2020-01-12T09:16:34Z</time></trkpt>
<trkpt lat="43.732023994" lon="11.298907986"><ele>85</ele><time>2020-01-12T09:16:35Z</time></trkpt>
<trkpt lat="43.732040003" lon="11.298864987"><ele>85</ele><time>2020-01-12T09:16:36Z</time></trkpt>
<trkpt lat="43.732056012" lon="11.298822993"><ele>84</ele><time>2020-01-12T09:16:37Z</time></trkpt>
<trkpt lat="43.732104963" lon="11.298700031"><ele>84</ele><time>2020-01-12T09:16:40Z</time></trkpt>
<trkpt lat="43.732120972" lon="11.298660971"><ele>84</ele><time>2020-01-12T09:16:41Z</time></trkpt>
<trkpt lat="43.732150979" lon="11.298584025"><ele>84</ele><time>2020-01-12T09:16:43Z</time></trkpt>
<trkpt lat="43.732164977" lon="11.298545972"><ele>84</ele><time>2020-01-12T09:16:44Z</time></trkpt>
<trkpt lat="43.732179981" lon="11.298508001"><ele>84</ele><time>2020-01-12T09:16:45Z</time></trkpt>
<trkpt lat="43.732193979" lon="11.298471037"><ele>84</ele><time>2020-01-12T09:16:46Z</time></trkpt>
<trkpt lat="43.732207976" lon="11.298432983"><ele>84</ele><time>2020-01-12T09:16:47Z</time></trkpt>
<trkpt lat="43.732220968" lon="11.298396019"><ele>84</ele><time>2020-01-12T09:16:48Z</time></trkpt>
<trkpt lat="43.732234966" lon="11.298357965"><ele>83</ele><time>2020-01-12T09:16:49Z</time></trkpt>
<trkpt lat="43.732248042" lon="11.298319995"><ele>83</ele><time>2020-01-12T09:16:50Z</time></trkpt>
<trkpt lat="43.732261034" lon="11.298282025"><ele>83</ele><time>2020-01-12T09:16:51Z</time></trkpt>
<trkpt lat="43.732274026" lon="11.298242966"><ele>83</ele><time>2020-01-12T09:16:52Z</time></trkpt>
<trkpt lat="43.732287018" lon="11.298204996"><ele>83</ele><time>2020-01-12T09:16:53Z</time></trkpt>
<trkpt lat="43.732299004" lon="11.29816602"><ele>83</ele><time>2020-01-12T09:16:54Z</time></trkpt>
<trkpt lat="43.732311996" lon="11.29812696"><ele>83</ele><time>2020-01-12T09:16:55Z</time></trkpt>
<trkpt lat="43.732324988" lon="11.298087984"><ele>83</ele><time>2020-01-12T09:16:56Z</time></trkpt>
<trkpt lat="43.732336974" lon="11.298049008"><ele>83</ele><time>2020-01-12T09:16:57Z</time></trkpt>
<trkpt lat="43.732349966" lon="11.298010033"><ele>83</ele><time>2020-01-12T09:16:58Z</time></trkpt>
<trkpt lat="43.732362036" lon="11.297970973"><ele>83</ele><time>2020-01-12T09:16:59Z</time></trkpt>
<trkpt lat="43.732375028" lon="11.297930991"><ele>83</ele><time>2020-01-12T09:17:00Z</time></trkpt>
<trkpt lat="43.732387014" lon="11.297892015"><ele>83</ele><time>2020-01-12T09:17:01Z</time></trkpt>
<trkpt lat="43.732400006" lon="11.29785304"><ele>83</ele><time>2020-01-12T09:17:02Z</time></trkpt>
<trkpt lat="43.732412998" lon="11.297812974"><ele>83</ele><time>2020-01-12T09:17:03Z</time></trkpt>
<trkpt lat="43.73242599" lon="11.297773998"><ele>83</ele><time>2020-01-12T09:17:04Z</time></trkpt>
<trkpt lat="43.732438982" lon="11.297735022"><ele>83</ele><time>2020-01-12T09:17:05Z</time></trkpt>
<trkpt lat="43.732451973" lon="11.297695041"><ele>83</ele><time>2020-01-12T09:17:06Z</time></trkpt>
<trkpt lat="43.732465971" lon="11.297655981"><ele>83</ele><time>2020-01-12T09:17:07Z</time></trkpt>
<trkpt lat="43.732478963" lon="11.297617005"><ele>83</ele><time>2020-01-12T09:17:08Z</time></trkpt>
<trkpt lat="43.732492039" lon="11.297578029"><ele>83</ele><time>2020-01-12T09:17:09Z</time></trkpt>
<trkpt lat="43.732505031" lon="11.297539975"><ele>83</ele><time>2020-01-12T09:17:10Z</time></trkpt>
<trkpt lat="43.732516011" lon="11.297503011"><ele>83</ele><time>2020-01-12T09:17:11Z</time></trkpt>
<trkpt lat="43.732523974" lon="11.297466969"><ele>83</ele><time>2020-01-12T09:17:12Z</time></trkpt>
<trkpt lat="43.732531015" lon="11.297432017"><ele>83</ele><time>2020-01-12T09:17:13Z</time></trkpt>
<trkpt lat="43.732534032" lon="11.297398992"><ele>84</ele><time>2020-01-12T09:17:14Z</time></trkpt>
<trkpt lat="43.732533026" lon="11.297367979"><ele>84</ele><time>2020-01-12T09:17:15Z</time></trkpt>
<trkpt lat="43.732527997" lon="11.297339983"><ele>84</ele><time>2020-01-12T09:17:16Z</time></trkpt>
<trkpt lat="43.732518023" lon="11.297312994"><ele>84</ele><time>2020-01-12T09:17:17Z</time></trkpt>
<trkpt lat="43.732504025" lon="11.297290027"><ele>84</ele><time>2020-01-12T09:17:18Z</time></trkpt>
<trkpt lat="43.732483992" lon="11.297268989"><ele>84</ele><time>2020-01-12T09:17:19Z</time></trkpt>
<trkpt lat="43.732434036" lon="11.297232024"><ele>84</ele><time>2020-01-12T09:17:21Z</time></trkpt>
<trkpt lat="43.732404029" lon="11.297216015"><ele>85</ele><time>2020-01-12T09:17:22Z</time></trkpt>
<trkpt lat="43.732373016" lon="11.297201011"><ele>85</ele><time>2020-01-12T09:17:23Z</time></trkpt>
<trkpt lat="43.732339991" lon="11.297185002"><ele>85</ele><time>2020-01-12T09:17:24Z</time></trkpt>
<trkpt lat="43.732306967" lon="11.297169998"><ele>85</ele><time>2020-01-12T09:17:25Z</time></trkpt>
<trkpt lat="43.732274026" lon="11.297154995"><ele>85</ele><time>2020-01-12T09:17:26Z</time></trkpt>
<trkpt lat="43.732242007" lon="11.297137979"><ele>85</ele><time>2020-01-12T09:17:27Z</time></trkpt>
<trkpt lat="43.732209988" lon="11.297120964"><ele>85</ele><time>2020-01-12T09:17:28Z</time></trkpt>
<trkpt lat="43.732179981" lon="11.297103027"><ele>85</ele><time>2020-01-12T09:17:29Z</time></trkpt>
<trkpt lat="43.732149974" lon="11.297085006"><ele>85</ele><time>2020-01-12T09:17:30Z</time></trkpt>
<trkpt lat="43.732119966" lon="11.297066985"><ele>86</ele><time>2020-01-12T09:17:31Z</time></trkpt>
<trkpt lat="43.732091971" lon="11.297048042"><ele>86</ele><time>2020-01-12T09:17:32Z</time></trkpt>
<trkpt lat="43.732063975" lon="11.297029015"><ele>86</ele><time>2020-01-12T09:17:33Z</time></trkpt>
<trkpt lat="43.732036985" lon="11.297010994"><ele>86</ele><time>2020-01-12T09:17:34Z</time></trkpt>
<trkpt lat="43.732011002" lon="11.296992972"><ele>86</ele><time>2020-01-12T09:17:35Z</time></trkpt>
<trkpt lat="43.731986023" lon="11.296975035"><ele>86</ele><time>2020-01-12T09:17:36Z</time></trkpt>
<trkpt lat="43.73196004" lon="11.29695802"><ele>86</ele><time>2020-01-12T09:17:37Z</time></trkpt>
<trkpt lat="43.731935984" lon="11.296941005"><ele>86</ele><time>2020-01-12T09:17:38Z</time></trkpt>
<trkpt lat="43.731912011" lon="11.296923989"><ele>87</ele><time>2020-01-12T09:17:39Z</time></trkpt>
<trkpt lat="43.731887033" lon="11.29690798"><ele>87</ele><time>2020-01-12T09:17:40Z</time></trkpt>
<trkpt lat="43.731862977" lon="11.296890965"><ele>87</ele><time>2020-01-12T09:17:41Z</time></trkpt>
<trkpt lat="43.731839005" lon="11.296875039"><ele>87</ele><time>2020-01-12T09:17:42Z</time></trkpt>
<trkpt lat="43.731814027" lon="11.296858024"><ele>87</ele><time>2020-01-12T09:17:43Z</time></trkpt>
<trkpt lat="43.731787959" lon="11.296841009"><ele>87</ele><time>2020-01-12T09:17:44Z</time></trkpt>
<trkpt lat="43.731761975" lon="11.296823993"><ele>87</ele><time>2020-01-12T09:17:45Z</time></trkpt>
<trkpt lat="43.73168" lon="11.296766996"><ele>88</ele><time>2020-01-12T09:17:48Z</time></trkpt>
<trkpt lat="43.731655022" lon="11.296746042"><ele>88</ele><time>2020-01-12T09:17:49Z</time></trkpt>
<trkpt lat="43.731631972" lon="11.296723997"><ele>88</ele><time>2020-01-12T09:17:50Z</time></trkpt>
<trkpt lat="43.731612023" lon="11.296700025"><ele>89</ele><time>2020-01-12T09:17:51Z</time></trkpt>
<trkpt lat="43.731594002" lon="11.296675969"><ele>89</ele><time>2020-01-12T09:17:52Z</time></trkpt>
<trkpt lat="43.731576987" lon="11.296651997"><ele>90</ele><time>2020-01-12T09:17:53Z</time></trkpt>
<trkpt lat="43.731559971" lon="11.296628024"><ele>90</ele><time>2020-01-12T09:17:54Z</time></trkpt>
<trkpt lat="43.731542034" lon="11.29660598"><ele>90</ele><time>2020-01-12T09:17:55Z</time></trkpt>
<trkpt lat="43.731523007" lon="11.296587037"><ele>90</ele><time>2020-01-12T09:17:56Z</time></trkpt>
<trkpt lat="43.731501969" lon="11.296570022"><ele>90</ele><time>2020-01-12T09:17:57Z</time></trkpt>
<trkpt lat="43.731479002" lon="11.296554012"><ele>91</ele><time>2020-01-12T09:17:58Z</time></trkpt>
<trkpt lat="43.73145503" lon="11.296540014"><ele>91</ele><time>2020-01-12T09:17:59Z</time></trkpt>
<trkpt lat="43.731374983" lon="11.296505984"><ele>92</ele><time>2020-01-12T09:18:02Z</time></trkpt>
<trkpt lat="43.731345981" lon="11.296496009"><ele>92</ele><time>2020-01-12T09:18:03Z</time></trkpt>
<trkpt lat="43.731315974" lon="11.296486035"><ele>93</ele><time>2020-01-12T09:18:04Z</time></trkpt>
<trkpt lat="43.731285967" lon="11.296475977"><ele>93</ele><time>2020-01-12T09:18:05Z</time></trkpt>
<trkpt lat="43.731255038" lon="11.296466002"><ele>93</ele><time>2020-01-12T09:18:06Z</time></trkpt>
<trkpt lat="43.731224025" lon="11.296456028"><ele>94</ele><time>2020-01-12T09:18:07Z</time></trkpt>
<trkpt lat="43.731193012" lon="11.296445969"><ele>94</ele><time>2020-01-12T09:18:08Z</time></trkpt>
<trkpt lat="43.731161999" lon="11.296435995"><ele>94</ele><time>2020-01-12T09:18:09Z</time></trkpt>
<trkpt lat="43.731130986" lon="11.296427026"><ele>95</ele><time>2020-01-12T09:18:10Z</time></trkpt>
<trkpt lat="43.731101984" lon="11.296417974"><ele>95</ele><time>2020-01-12T09:18:11Z</time></trkpt>
<trkpt lat="43.731071977" lon="11.296410011"><ele>95</ele><time>2020-01-12T09:18:12Z</time></trkpt>
<trkpt lat="43.731043981" lon="11.296401965"><ele>96</ele><time>2020-01-12T09:18:13Z</time></trkpt>
<trkpt lat="43.731017997" lon="11.296395008"><ele>96</ele><time>2020-01-12T09:18:14Z</time></trkpt>
<trkpt lat="43.730992014" lon="11.296388973"><ele>96</ele><time>2020-01-12T09:18:15Z</time></trkpt>
<trkpt lat="43.730967036" lon="11.296383021"><ele>96</ele><time>2020-01-12T09:18:16Z</time></trkpt>
<trkpt lat="43.730940968" lon="11.296377992"><ele>96</ele><time>2020-01-12T09:18:17Z</time></trkpt>
<trkpt lat="43.730913978" lon="11.296372041"><ele>97</ele><time>2020-01-12T09:18:18Z</time></trkpt>
<trkpt lat="43.730883971" lon="11.296366006"><ele>97</ele><time>2020-01-12T09:18:19Z</time></trkpt>
<trkpt lat="43.730850024" lon="11.296358965"><ele>97</ele><time>2020-01-12T09:18:20Z</time></trkpt>
<trkpt lat="43.730813982" lon="11.296351003"><ele>97</ele><time>2020-01-12T09:18:21Z</time></trkpt>
<trkpt lat="43.730777018" lon="11.296342034"><ele>97</ele><time>2020-01-12T09:18:22Z</time></trkpt>
<trkpt lat="43.730740976" lon="11.296332981"><ele>97</ele><time>2020-01-12T09:18:23Z</time></trkpt>
<trkpt lat="43.730647014" lon="11.29630398"><ele>97</ele><time>2020-01-12T09:18:26Z</time></trkpt>
<trkpt lat="43.730618013" lon="11.296293"><ele>97</ele><time>2020-01-12T09:18:27Z</time></trkpt>
<trkpt lat="43.730592029" lon="11.296283025"><ele>97</ele><time>2020-01-12T09:18:28Z</time></trkpt>
<trkpt lat="43.730565961" lon="11.296271961"><ele>96</ele><time>2020-01-12T09:18:29Z</time></trkpt>
<trkpt lat="43.730540983" lon="11.296260981"><ele>96</ele><time>2020-01-12T09:18:30Z</time></trkpt>
<trkpt lat="43.730517011" lon="11.296248995"><ele>96</ele><time>2020-01-12T09:18:31Z</time></trkpt>
<trkpt lat="43.730492033" lon="11.296238014"><ele>96</ele><time>2020-01-12T09:18:32Z</time></trkpt>
<trkpt lat="43.730467977" lon="11.296226028"><ele>96</ele><time>2020-01-12T09:18:33Z</time></trkpt>
<trkpt lat="43.730442999" lon="11.296214964"><ele>96</ele><time>2020-01-12T09:18:34Z</time></trkpt>
<trkpt lat="43.730417015" lon="11.296202978"><ele>95</ele><time>2020-01-12T09:18:35Z</time></trkpt>
<trkpt lat="43.730392037" lon="11.296190992"><ele>95</ele><time>2020-01-12T09:18:36Z</time></trkpt>
<trkpt lat="43.730365969" lon="11.296180012"><ele>95</ele><time>2020-01-12T09:18:37Z</time></trkpt>
<trkpt lat="43.73033898" lon="11.296168026"><ele>95</ele><time>2020-01-12T09:18:38Z</time></trkpt>
<trkpt lat="43.730312996" lon="11.296156961"><ele>95</ele><time>2020-01-12T09:18:39Z</time></trkpt>
<trkpt lat="43.730286006" lon="11.296145981"><ele>95</ele><time>2020-01-12T09:18:40Z</time></trkpt>
<trkpt lat="43.730259016" lon="11.296135001"><ele>95</ele><time>2020-01-12T09:18:41Z</time></trkpt>
<trkpt lat="43.730232026" lon="11.296125026"><ele>94</ele><time>2020-01-12T09:18:42Z</time></trkpt>
<trkpt lat="43.730204031" lon="11.296114968"><ele>94</ele><time>2020-01-12T09:18:43Z</time></trkpt>
<trkpt lat="43.730177041" lon="11.296104994"><ele>94</ele><time>2020-01-12T09:18:44Z</time></trkpt>
<trkpt lat="43.730148962" lon="11.296096025"><ele>94</ele><time>2020-01-12T09:18:45Z</time></trkpt>
<trkpt lat="43.730120966" lon="11.296085967"><ele>94</ele><time>2020-01-12T09:18:46Z</time></trkpt>
<trkpt lat="43.730092971" lon="11.296078004"><ele>94</ele><time>2020-01-12T09:18:47Z</time></trkpt>
<trkpt lat="43.730064975" lon="11.296069035"><ele>94</ele><time>2020-01-12T09:18:48Z</time></trkpt>
<trkpt lat="43.73003698" lon="11.296059983"><ele>94</ele><time>2020-01-12T09:18:49Z</time></trkpt>
<trkpt lat="43.730008984" lon="11.29605202"><ele>94</ele><time>2020-01-12T09:18:50Z</time></trkpt>
<trkpt lat="43.729980988" lon="11.296042968"><ele>93</ele><time>2020-01-12T09:18:51Z</time></trkpt>
<trkpt lat="43.729952993" lon="11.296035005"><ele>93</ele><time>2020-01-12T09:18:52Z</time></trkpt>
<trkpt lat="43.729923991" lon="11.296026958"><ele>93</ele><time>2020-01-12T09:18:53Z</time></trkpt>
<trkpt lat="43.729895996" lon="11.29601799"><ele>93</ele><time>2020-01-12T09:18:54Z</time></trkpt>
<trkpt lat="43.729868" lon="11.296010027"><ele>92</ele><time>2020-01-12T09:18:55Z</time></trkpt>
<trkpt lat="43.729838999" lon="11.296000974"><ele>92</ele><time>2020-01-12T09:18:56Z</time></trkpt>
<trkpt lat="43.729811003" lon="11.295993011"><ele>92</ele><time>2020-01-12T09:18:57Z</time></trkpt>
<trkpt lat="43.729783008" lon="11.295983959"><ele>91</ele><time>2020-01-12T09:18:58Z</time></trkpt>
<trkpt lat="43.729754006" lon="11.29597499"><ele>91</ele><time>2020-01-12T09:18:59Z</time></trkpt>
<trkpt lat="43.729726011" lon="11.295966022"><ele>91</ele><time>2020-01-12T09:19:00Z</time></trkpt>
<trkpt lat="43.729698015" lon="11.295955963"><ele>91</ele><time>2020-01-12T09:19:01Z</time></trkpt>
<trkpt lat="43.72967002" lon="11.295945989"><ele>90</ele><time>2020-01-12T09:19:02Z</time></trkpt>
<trkpt lat="43.729642024" lon="11.295936015"><ele>90</ele><time>2020-01-12T09:19:03Z</time></trkpt>
<trkpt lat="43.729613023" lon="11.295926962"><ele>90</ele><time>2020-01-12T09:19:04Z</time></trkpt>
<trkpt lat="43.729585027" lon="11.295917993"><ele>90</ele><time>2020-01-12T09:19:05Z</time></trkpt>
<trkpt lat="43.729556026" lon="11.295910031"><ele>89</ele><time>2020-01-12T09:19:06Z</time></trkpt>
<trkpt lat="43.729526019" lon="11.295903996"><ele>89</ele><time>2020-01-12T09:19:07Z</time></trkpt>
<trkpt lat="43.729496012" lon="11.295899972"><ele>89</ele><time>2020-01-12T09:19:08Z</time></trkpt>
<trkpt lat="43.72946701" lon="11.295897961"><ele>89</ele><time>2020-01-12T09:19:09Z</time></trkpt>
<trkpt lat="43.729439015" lon="11.295899972"><ele>89</ele><time>2020-01-12T09:19:10Z</time></trkpt>
<trkpt lat="43.729412025" lon="11.295906007"><ele>89</ele><time>2020-01-12T09:19:11Z</time></trkpt>
<trkpt lat="43.729386963" lon="11.295916988"><ele>89</ele><time>2020-01-12T09:19:12Z</time></trkpt>
<trkpt lat="43.729362991" lon="11.295931991"><ele>89</ele><time>2020-01-12T09:19:13Z</time></trkpt>
<trkpt lat="43.729342036" lon="11.295950012"><ele>89</ele><time>2020-01-12T09:19:14Z</time></trkpt>
<trkpt lat="43.729320997" lon="11.295970967"><ele>89</ele><time>2020-01-12T09:19:15Z</time></trkpt>
<trkpt lat="43.72930197" lon="11.295994017"><ele>89</ele><time>2020-01-12T09:19:16Z</time></trkpt>
<trkpt lat="43.729284033" lon="11.296018995"><ele>89</ele><time>2020-01-12T09:19:17Z</time></trkpt>
<trkpt lat="43.729266012" lon="11.296043973"><ele>89</ele><time>2020-01-12T09:19:18Z</time></trkpt>
<trkpt lat="43.729248997" lon="11.296070041"><ele>89</ele><time>2020-01-12T09:19:19Z</time></trkpt>
<trkpt lat="43.729231982" lon="11.296097031"><ele>89</ele><time>2020-01-12T09:19:20Z</time></trkpt>
<trkpt lat="43.72921396" lon="11.296125026"><ele>89</ele><time>2020-01-12T09:19:21Z</time></trkpt>
<trkpt lat="43.729196023" lon="11.296153022"><ele>90</ele><time>2020-01-12T09:19:22Z</time></trkpt>
<trkpt lat="43.729176996" lon="11.296181018"><ele>90</ele><time>2020-01-12T09:19:23Z</time></trkpt>
<trkpt lat="43.729156964" lon="11.296210019"><ele>90</ele><time>2020-01-12T09:19:24Z</time></trkpt>
<trkpt lat="43.729137015" lon="11.296238014"><ele>90</ele><time>2020-01-12T09:19:25Z</time></trkpt>
<trkpt lat="43.729115976" lon="11.296267016"><ele>90</ele><time>2020-01-12T09:19:26Z</time></trkpt>
<trkpt lat="43.729095021" lon="11.296296017"><ele>90</ele><time>2020-01-12T09:19:27Z</time></trkpt>
<trkpt lat="43.729072977" lon="11.296325019"><ele>90</ele><time>2020-01-12T09:19:28Z</time></trkpt>
<trkpt lat="43.729051016" lon="11.29635402"><ele>90</ele><time>2020-01-12T09:19:29Z</time></trkpt>
<trkpt lat="43.729027966" lon="11.296383021"><ele>91</ele><time>2020-01-12T09:19:30Z</time></trkpt>
<trkpt lat="43.729005" lon="11.296412023"><ele>91</ele><time>2020-01-12T09:19:31Z</time></trkpt>
<trkpt lat="43.728981027" lon="11.296440018"><ele>91</ele><time>2020-01-12T09:19:32Z</time></trkpt>
<trkpt lat="43.728956971" lon="11.296467008"><ele>91</ele><time>2020-01-12T09:19:33Z</time></trkpt>
<trkpt lat="43.728931993" lon="11.296493998"><ele>91</ele><time>2020-01-12T09:19:34Z</time></trkpt>
<trkpt lat="43.728906009" lon="11.29651797"><ele>91</ele><time>2020-01-12T09:19:35Z</time></trkpt>
<trkpt lat="43.728880025" lon="11.29654102"><ele>91</ele><time>2020-01-12T09:19:36Z</time></trkpt>
<trkpt lat="43.728854042" lon="11.296561975"><ele>91</ele><time>2020-01-12T09:19:37Z</time></trkpt>
<trkpt lat="43.728826968" lon="11.296579996"><ele>91</ele><time>2020-01-12T09:19:38Z</time></trkpt>
<trkpt lat="43.72874097" lon="11.296616038"><ele>91</ele><time>2020-01-12T09:19:41Z</time></trkpt>
<trkpt lat="43.72871004" lon="11.296622995"><ele>91</ele><time>2020-01-12T09:19:42Z</time></trkpt>
<trkpt lat="43.728678022" lon="11.296628024"><ele>91</ele><time>2020-01-12T09:19:43Z</time></trkpt>
<trkpt lat="43.728643991" lon="11.296630958"><ele>90</ele><time>2020-01-12T09:19:44Z</time></trkpt>
<trkpt lat="43.728607027" lon="11.29663297"><ele>90</ele><time>2020-01-12T09:19:45Z</time></trkpt>
<trkpt lat="43.728569979" lon="11.29663297"><ele>90</ele><time>2020-01-12T09:19:46Z</time></trkpt>
<trkpt lat="43.728532009" lon="11.296630036"><ele>90</ele><time>2020-01-12T09:19:47Z</time></trkpt>
<trkpt lat="43.728494961" lon="11.296626013"><ele>90</ele><time>2020-01-12T09:19:48Z</time></trkpt>
<trkpt lat="43.728460008" lon="11.296617966"><ele>90</ele><time>2020-01-12T09:19:49Z</time></trkpt>
<trkpt lat="43.728427989" lon="11.29660598"><ele>89</ele><time>2020-01-12T09:19:50Z</time></trkpt>
<trkpt lat="43.728396976" lon="11.296591982"><ele>89</ele><time>2020-01-12T09:19:51Z</time></trkpt>
<trkpt lat="43.728367975" lon="11.296575973"><ele>89</ele><time>2020-01-12T09:19:52Z</time></trkpt>
<trkpt lat="43.728338974" lon="11.296559041"><ele>89</ele><time>2020-01-12T09:19:53Z</time></trkpt>
<trkpt lat="43.728309972" lon="11.29654102"><ele>89</ele><time>2020-01-12T09:19:54Z</time></trkpt>
<trkpt lat="43.728279965" lon="11.296522999"><ele>89</ele><time>2020-01-12T09:19:55Z</time></trkpt>
<trkpt lat="43.728249036" lon="11.29650699"><ele>89</ele><time>2020-01-12T09:19:56Z</time></trkpt>
<trkpt lat="43.728217017" lon="11.296489974"><ele>89</ele><time>2020-01-12T09:19:57Z</time></trkpt>
<trkpt lat="43.728184998" lon="11.296474971"><ele>90</ele><time>2020-01-12T09:19:58Z</time></trkpt>
<trkpt lat="43.728152979" lon="11.296459967"><ele>90</ele><time>2020-01-12T09:19:59Z</time></trkpt>
<trkpt lat="43.728121966" lon="11.296445969"><ele>90</ele><time>2020-01-12T09:20:00Z</time></trkpt>
<trkpt lat="43.728090031" lon="11.296432978"><ele>90</ele><time>2020-01-12T09:20:01Z</time></trkpt>
<trkpt lat="43.728058012" lon="11.296419986"><ele>90</ele><time>2020-01-12T09:20:02Z</time></trkpt>
<trkpt lat="43.728025993" lon="11.296406994"><ele>90</ele><time>2020-01-12T09:20:03Z</time></trkpt>
<trkpt lat="43.727993974" lon="11.296395008"><ele>91</ele><time>2020-01-12T09:20:04Z</time></trkpt>
<trkpt lat="43.727900013" lon="11.296359971"><ele>91</ele><time>2020-01-12T09:20:07Z</time></trkpt>
<trkpt lat="43.727867994" lon="11.296347985"><ele>91</ele><time>2020-01-12T09:20:08Z</time></trkpt>
<trkpt lat="43.727836981" lon="11.296335999"><ele>91</ele><time>2020-01-12T09:20:09Z</time></trkpt>
<trkpt lat="43.727805968" lon="11.296324013"><ele>91</ele><time>2020-01-12T09:20:10Z</time></trkpt>
<trkpt lat="43.727775961" lon="11.296311021"><ele>91</ele><time>2020-01-12T09:20:11Z</time></trkpt>
<trkpt lat="43.727746038" lon="11.296298029"><ele>92</ele><time>2020-01-12T09:20:12Z</time></trkpt>
<trkpt lat="43.727716031" lon="11.296285037"><ele>92</ele><time>2020-01-12T09:20:13Z</time></trkpt>
<trkpt lat="43.727686023" lon="11.296271039"><ele>92</ele><time>2020-01-12T09:20:14Z</time></trkpt>
<trkpt lat="43.727657022" lon="11.296256036"><ele>92</ele><time>2020-01-12T09:20:15Z</time></trkpt>
<trkpt lat="43.727628021" lon="11.296240026"><ele>92</ele><time>2020-01-12T09:20:16Z</time></trkpt>
<trkpt lat="43.727599019" lon="11.296223011"><ele>92</ele><time>2020-01-12T09:20:17Z</time></trkpt>
<trkpt lat="43.727571024" lon="11.296205996"><ele>92</ele><time>2020-01-12T09:20:18Z</time></trkpt>
<trkpt lat="43.727543028" lon="11.296187975"><ele>92</ele><time>2020-01-12T09:20:19Z</time></trkpt>
<trkpt lat="43.727515033" lon="11.296169031"><ele>92</ele><time>2020-01-12T09:20:20Z</time></trkpt>
<trkpt lat="43.727487037" lon="11.29615101"><ele>92</ele><time>2020-01-12T09:20:21Z</time></trkpt>
<trkpt lat="43.727400033" lon="11.296098959"><ele>92</ele><time>2020-01-12T09:20:24Z</time></trkpt>
<trkpt lat="43.727370026" lon="11.296083033"><ele>92</ele><time>2020-01-12T09:20:25Z</time></trkpt>
<trkpt lat="43.727340018" lon="11.296065012"><ele>92</ele><time>2020-01-12T09:20:26Z</time></trkpt>
<trkpt lat="43.727311017" lon="11.296046991"><ele>92</ele><time>2020-01-12T09:20:27Z</time></trkpt>
<trkpt lat="43.727282016" lon="11.296026958"><ele>92</ele><time>2020-01-12T09:20:28Z</time></trkpt>
<trkpt lat="43.72725402" lon="11.296006003"><ele>92</ele><time>2020-01-12T09:20:29Z</time></trkpt>
<trkpt lat="43.727226024" lon="11.295983037"><ele>92</ele><time>2020-01-12T09:20:30Z</time></trkpt>
<trkpt lat="43.727199035" lon="11.295958981"><ele>92</ele><time>2020-01-12T09:20:31Z</time></trkpt>
<trkpt lat="43.727172967" lon="11.295934003"><ele>92</ele><time>2020-01-12T09:20:32Z</time></trkpt>
<trkpt lat="43.727147989" lon="11.295907013"><ele>92</ele><time>2020-01-12T09:20:33Z</time></trkpt>
<trkpt lat="43.727124017" lon="11.295879018"><ele>91</ele><time>2020-01-12T09:20:34Z</time></trkpt>
<trkpt lat="43.727100966" lon="11.295850016"><ele>91</ele><time>2020-01-12T09:20:35Z</time></trkpt>
<trkpt lat="43.727079006" lon="11.295820009"><ele>91</ele><time>2020-01-12T09:20:36Z</time></trkpt>
<trkpt lat="43.727057967" lon="11.29578799"><ele>91</ele><time>2020-01-12T09:20:37Z</time></trkpt>
<trkpt lat="43.727038018" lon="11.295754965"><ele>91</ele><time>2020-01-12T09:20:38Z</time></trkpt>
<trkpt lat="43.727018991" lon="11.295722025"><ele>91</ele><time>2020-01-12T09:20:39Z</time></trkpt>
<trkpt lat="43.72700097" lon="11.295686988"><ele>91</ele><time>2020-01-12T09:20:40Z</time></trkpt>
<trkpt lat="43.726984039" lon="11.295652036"><ele>91</ele><time>2020-01-12T09:20:41Z</time></trkpt>
<trkpt lat="43.72696803" lon="11.295614988"><ele>91</ele><time>2020-01-12T09:20:42Z</time></trkpt>
<trkpt lat="43.72695202" lon="11.295578023"><ele>91</ele><time>2020-01-12T09:20:43Z</time></trkpt>
<trkpt lat="43.726938022" lon="11.295540975"><ele>91</ele><time>2020-01-12T09:20:44Z</time></trkpt>
<trkpt lat="43.726924025" lon="11.295503005"><ele>91</ele><time>2020-01-12T09:20:45Z</time></trkpt>
<trkpt lat="43.726911033" lon="11.29546403"><ele>91</ele><time>2020-01-12T09:20:46Z</time></trkpt>
<trkpt lat="43.726898041" lon="11.295423964"><ele>91</ele><time>2020-01-12T09:20:47Z</time></trkpt>
<trkpt lat="43.726885971" lon="11.295384988"><ele>90</ele><time>2020-01-12T09:20:48Z</time></trkpt>
<trkpt lat="43.726873985" lon="11.295345007"><ele>90</ele><time>2020-01-12T09:20:49Z</time></trkpt>
<trkpt lat="43.726863004" lon="11.295305025"><ele>90</ele><time>2020-01-12T09:20:50Z</time></trkpt>
<trkpt lat="43.726852024" lon="11.295264037"><ele>90</ele><time>2020-01-12T09:20:51Z</time></trkpt>
<trkpt lat="43.726841966" lon="11.295223972"><ele>90</ele><time>2020-01-12T09:20:52Z</time></trkpt>
<trkpt lat="43.726831991" lon="11.295182984"><ele>90</ele><time>2020-01-12T09:20:53Z</time></trkpt>
<trkpt lat="43.726822017" lon="11.295143003"><ele>90</ele><time>2020-01-12T09:20:54Z</time></trkpt>
<trkpt lat="43.726811958" lon="11.295102015"><ele>89</ele><time>2020-01-12T09:20:55Z</time></trkpt>
<trkpt lat="43.726801984" lon="11.295062033"><ele>89</ele><time>2020-01-12T09:20:56Z</time></trkpt>
<trkpt lat="43.726793015" lon="11.295021968"><ele>89</ele><time>2020-01-12T09:20:57Z</time></trkpt>
<trkpt lat="43.726783041" lon="11.294981986"><ele>89</ele><time>2020-01-12T09:20:58Z</time></trkpt>
<trkpt lat="43.726773988" lon="11.294942005"><ele>89</ele><time>2020-01-12T09:20:59Z</time></trkpt>
<trkpt lat="43.726766026" lon="11.294902023"><ele>89</ele><time>2020-01-12T09:21:00Z</time></trkpt>
<trkpt lat="43.726756973" lon="11.294862041"><ele>89</ele><time>2020-01-12T09:21:01Z</time></trkpt>
<trkpt lat="43.72674901" lon="11.294821976"><ele>89</ele><time>2020-01-12T09:21:02Z</time></trkpt>
<trkpt lat="43.72674197" lon="11.294781994"><ele>89</ele><time>2020-01-12T09:21:03Z</time></trkpt>
<trkpt lat="43.726735013" lon="11.294741007"><ele>89</ele><time>2020-01-12T09:21:04Z</time></trkpt>
<trkpt lat="43.726727972" lon="11.294700019"><ele>89</ele><time>2020-01-12T09:21:05Z</time></trkpt>
<trkpt lat="43.726722021" lon="11.294659032"><ele>89</ele><time>2020-01-12T09:21:06Z</time></trkpt>
<trkpt lat="43.726716992" lon="11.29461796"><ele>89</ele><time>2020-01-12T09:21:07Z</time></trkpt>
<trkpt lat="43.72671104" lon="11.294575967"><ele>89</ele><time>2020-01-12T09:21:08Z</time></trkpt>
<trkpt lat="43.726707017" lon="11.294534979"><ele>89</ele><time>2020-01-12T09:21:09Z</time></trkpt>
<trkpt lat="43.726701988" lon="11.294493992"><ele>88</ele><time>2020-01-12T09:21:10Z</time></trkpt>
<trkpt lat="43.726696959" lon="11.294453004"><ele>88</ele><time>2020-01-12T09:21:11Z</time></trkpt>
<trkpt lat="43.726682961" lon="11.294334987"><ele>88</ele><time>2020-01-12T09:21:14Z</time></trkpt>
<trkpt lat="43.726678016" lon="11.294298023"><ele>88</ele><time>2020-01-12T09:21:15Z</time></trkpt>
<trkpt lat="43.726672987" lon="11.294260975"><ele>88</ele><time>2020-01-12T09:21:16Z</time></trkpt>
<trkpt lat="43.726668041" lon="11.294224011"><ele>88</ele><time>2020-01-12T09:21:17Z</time></trkpt>
<trkpt lat="43.726664018" lon="11.294186963"><ele>88</ele><time>2020-01-12T09:21:18Z</time></trkpt>
<trkpt lat="43.726661" lon="11.294149999"><ele>88</ele><time>2020-01-12T09:21:19Z</time></trkpt>
<trkpt lat="43.726659995" lon="11.294113034"><ele>88</ele><time>2020-01-12T09:21:20Z</time></trkpt>
<trkpt lat="43.726659995" lon="11.294073975"><ele>88</ele><time>2020-01-12T09:21:21Z</time></trkpt>
<trkpt lat="43.726658989" lon="11.294034999"><ele>88</ele><time>2020-01-12T09:21:22Z</time></trkpt>
<trkpt lat="43.726657983" lon="11.293996023"><ele>88</ele><time>2020-01-12T09:21:23Z</time></trkpt>
<trkpt lat="43.726654965" lon="11.293956963"><ele>88</ele><time>2020-01-12T09:21:24Z</time></trkpt>
<trkpt lat="43.72665002" lon="11.293917987"><ele>88</ele><time>2020-01-12T09:21:25Z</time></trkpt>
<trkpt lat="43.726642979" lon="11.293878006"><ele>88</ele><time>2020-01-12T09:21:26Z</time></trkpt>
<trkpt lat="43.726633005" lon="11.293840036"><ele>88</ele><time>2020-01-12T09:21:27Z</time></trkpt>
<trkpt lat="43.726621019" lon="11.293801982"><ele>88</ele><time>2020-01-12T09:21:28Z</time></trkpt>
<trkpt lat="43.726607021" lon="11.293766024"><ele>88</ele><time>2020-01-12T09:21:29Z</time></trkpt>
<trkpt lat="43.726591012" lon="11.293730987"><ele>88</ele><time>2020-01-12T09:21:30Z</time></trkpt>
<trkpt lat="43.726571985" lon="11.293697963"><ele>88</ele><time>2020-01-12T09:21:31Z</time></trkpt>
<trkpt lat="43.726552036" lon="11.293667033"><ele>89</ele><time>2020-01-12T09:21:32Z</time></trkpt>
<trkpt lat="43.726528985" lon="11.293638032"><ele>89</ele><time>2020-01-12T09:21:33Z</time></trkpt>
<trkpt lat="43.726504007" lon="11.29361297"><ele>89</ele><time>2020-01-12T09:21:34Z</time></trkpt>
<trkpt lat="43.726477018" lon="11.293590004"><ele>89</ele><time>2020-01-12T09:21:35Z</time></trkpt>
<trkpt lat="43.726448016" lon="11.293568965"><ele>89</ele><time>2020-01-12T09:21:36Z</time></trkpt>
<trkpt lat="43.726419015" lon="11.293551028"><ele>88</ele><time>2020-01-12T09:21:37Z</time></trkpt>
<trkpt lat="43.726388002" lon="11.293536024"><ele>88</ele><time>2020-01-12T09:21:38Z</time></trkpt>
<trkpt lat="43.726356989" lon="11.293522026"><ele>88</ele><time>2020-01-12T09:21:39Z</time></trkpt>
<trkpt lat="43.726325976" lon="11.29351004"><ele>88</ele><time>2020-01-12T09:21:40Z</time></trkpt>
<trkpt lat="43.726294041" lon="11.293499982"><ele>88</ele><time>2020-01-12T09:21:41Z</time></trkpt>
<trkpt lat="43.726263028" lon="11.293492019"><ele>88</ele><time>2020-01-12T09:21:42Z</time></trkpt>
<trkpt lat="43.72623302" lon="11.293484978"><ele>88</ele><time>2020-01-12T09:21:43Z</time></trkpt>
<trkpt lat="43.726204019" lon="11.293479027"><ele>88</ele><time>2020-01-12T09:21:44Z</time></trkpt>
<trkpt lat="43.726176023" lon="11.293473998"><ele>88</ele><time>2020-01-12T09:21:45Z</time></trkpt>
<trkpt lat="43.726148028" lon="11.293470981"><ele>88</ele><time>2020-01-12T09:21:46Z</time></trkpt>
<trkpt lat="43.726121038" lon="11.293468969"><ele>88</ele><time>2020-01-12T09:21:47Z</time></trkpt>
<trkpt lat="43.726093965" lon="11.293467963"><ele>88</ele><time>2020-01-12T09:21:48Z</time></trkpt>
<trkpt lat="43.726066975" lon="11.293467963"><ele>88</ele><time>2020-01-12T09:21:49Z</time></trkpt>
<trkpt lat="43.726039985" lon="11.293467963"><ele>88</ele><time>2020-01-12T09:21:50Z</time></trkpt>
<trkpt lat="43.72601199" lon="11.293468969"><ele>88</ele><time>2020-01-12T09:21:51Z</time></trkpt>
<trkpt lat="43.725983994" lon="11.293470981"><ele>88</ele><time>2020-01-12T09:21:52Z</time></trkpt>
<trkpt lat="43.725955999" lon="11.293473998"><ele>88</ele><time>2020-01-12T09:21:53Z</time></trkpt>
<trkpt lat="43.725925991" lon="11.293477016"><ele>88</ele><time>2020-01-12T09:21:54Z</time></trkpt>
<trkpt lat="43.725895984" lon="11.293480033"><ele>88</ele><time>2020-01-12T09:21:55Z</time></trkpt>
<trkpt lat="43.725866983" lon="11.293483973"><ele>88</ele><time>2020-01-12T09:21:56Z</time></trkpt>
<trkpt lat="43.725836975" lon="11.293487996"><ele>88</ele><time>2020-01-12T09:21:57Z</time></trkpt>
<trkpt lat="43.725807974" lon="11.293491013"><ele>88</ele><time>2020-01-12T09:21:58Z</time></trkpt>
<trkpt lat="43.725778973" lon="11.293494031"><ele>88</ele><time>2020-01-12T09:21:59Z</time></trkpt>
<trkpt lat="43.725750977" lon="11.293496964"><ele>88</ele><time>2020-01-12T09:22:00Z</time></trkpt>
<trkpt lat="43.725723987" lon="11.293499982"><ele>88</ele><time>2020-01-12T09:22:01Z</time></trkpt>
<trkpt lat="43.725699009" lon="11.293501994"><ele>88</ele><time>2020-01-12T09:22:02Z</time></trkpt>
<trkpt lat="43.725675037" lon="11.293502999"><ele>88</ele><time>2020-01-12T09:22:03Z</time></trkpt>
<trkpt lat="43.725650981" lon="11.293502999"><ele>88</ele><time>2020-01-12T09:22:04Z</time></trkpt>
<trkpt lat="43.725627009" lon="11.293504005"><ele>88</ele><time>2020-01-12T09:22:05Z</time></trkpt>
<trkpt lat="43.725547967" lon="11.293501994"><ele>88</ele><time>2020-01-12T09:22:08Z</time></trkpt>
<trkpt lat="43.72551796" lon="11.293500988"><ele>88</ele><time>2020-01-12T09:22:09Z</time></trkpt>
<trkpt lat="43.725487031" lon="11.293500988"><ele>88</ele><time>2020-01-12T09:22:10Z</time></trkpt>
<trkpt lat="43.725456018" lon="11.293502999"><ele>88</ele><time>2020-01-12T09:22:11Z</time></trkpt>
<trkpt lat="43.725364991" lon="11.293514986"><ele>88</ele><time>2020-01-12T09:22:14Z</time></trkpt>
<trkpt lat="43.725335989" lon="11.293521021"><ele>88</ele><time>2020-01-12T09:22:15Z</time></trkpt>
<trkpt lat="43.725306988" lon="11.293528983"><ele>88</ele><time>2020-01-12T09:22:16Z</time></trkpt>
<trkpt lat="43.725278992" lon="11.293538036"><ele>88</ele><time>2020-01-12T09:22:17Z</time></trkpt>
<trkpt lat="43.725250997" lon="11.293547004"><ele>88</ele><time>2020-01-12T09:22:18Z</time></trkpt>
<trkpt lat="43.725223001" lon="11.293557985"><ele>89</ele><time>2020-01-12T09:22:19Z</time></trkpt>
<trkpt lat="43.725196011" lon="11.293568965"><ele>89</ele><time>2020-01-12T09:22:20Z</time></trkpt>
<trkpt lat="43.725169022" lon="11.293581035"><ele>89</ele><time>2020-01-12T09:22:21Z</time></trkpt>
<trkpt lat="43.725142032" lon="11.293593021"><ele>89</ele><time>2020-01-12T09:22:22Z</time></trkpt>
<trkpt lat="43.725114958" lon="11.293606013"><ele>89</ele><time>2020-01-12T09:22:23Z</time></trkpt>
<trkpt lat="43.725087969" lon="11.293619005"><ele>89</ele><time>2020-01-12T09:22:24Z</time></trkpt>
<trkpt lat="43.725061985" lon="11.293633003"><ele>89</ele><time>2020-01-12T09:22:25Z</time></trkpt>
<trkpt lat="43.725034995" lon="11.293647001"><ele>89</ele><time>2020-01-12T09:22:26Z</time></trkpt>
<trkpt lat="43.725009011" lon="11.293662004"><ele>89</ele><time>2020-01-12T09:22:27Z</time></trkpt>
<trkpt lat="43.724982021" lon="11.293677008"><ele>89</ele><time>2020-01-12T09:22:28Z</time></trkpt>
<trkpt lat="43.724956037" lon="11.293692011"><ele>89</ele><time>2020-01-12T09:22:29Z</time></trkpt>
<trkpt lat="43.724928964" lon="11.293707015"><ele>89</ele><time>2020-01-12T09:22:30Z</time></trkpt>
<trkpt lat="43.724901974" lon="11.293723024"><ele>89</ele><time>2020-01-12T09:22:31Z</time></trkpt>
<trkpt lat="43.724874984" lon="11.293738028"><ele>88</ele><time>2020-01-12T09:22:32Z</time></trkpt>
<trkpt lat="43.724847995" lon="11.293753032"><ele>88</ele><time>2020-01-12T09:22:33Z</time></trkpt>
<trkpt lat="43.724821005" lon="11.293767029"><ele>88</ele><time>2020-01-12T09:22:34Z</time></trkpt>
<trkpt lat="43.724794015" lon="11.293780021"><ele>88</ele><time>2020-01-12T09:22:35Z</time></trkpt>
<trkpt lat="43.72476602" lon="11.293792007"><ele>88</ele><time>2020-01-12T09:22:36Z</time></trkpt>
<trkpt lat="43.724738024" lon="11.293803994"><ele>88</ele><time>2020-01-12T09:22:37Z</time></trkpt>
<trkpt lat="43.724711034" lon="11.29381598"><ele>88</ele><time>2020-01-12T09:22:38Z</time></trkpt>
<trkpt lat="43.724683961" lon="11.293829978"><ele>88</ele><time>2020-01-12T09:22:39Z</time></trkpt>
<trkpt lat="43.724657977" lon="11.293846993"><ele>88</ele><time>2020-01-12T09:22:40Z</time></trkpt>
<trkpt lat="43.724632999" lon="11.293867026"><ele>88</ele><time>2020-01-12T09:22:41Z</time></trkpt>
<trkpt lat="43.724609027" lon="11.293890998"><ele>88</ele><time>2020-01-12T09:22:42Z</time></trkpt>
<trkpt lat="43.724585976" lon="11.293917987"><ele>88</ele><time>2020-01-12T09:22:43Z</time></trkpt>
<trkpt lat="43.724520011" lon="11.294010021"><ele>88</ele><time>2020-01-12T09:22:46Z</time></trkpt>
<trkpt lat="43.724498972" lon="11.294042962"><ele>88</ele><time>2020-01-12T09:22:47Z</time></trkpt>
<trkpt lat="43.724478018" lon="11.294074981"><ele>88</ele><time>2020-01-12T09:22:48Z</time></trkpt>
<trkpt lat="43.724456979" lon="11.294105994"><ele>88</ele><time>2020-01-12T09:22:49Z</time></trkpt>
<trkpt lat="43.724435018" lon="11.294137007"><ele>88</ele><time>2020-01-12T09:22:50Z</time></trkpt>
<trkpt lat="43.72441398" lon="11.294166008"><ele>88</ele><time>2020-01-12T09:22:51Z</time></trkpt>
<trkpt lat="43.724394031" lon="11.294195009"><ele>88</ele><time>2020-01-12T09:22:52Z</time></trkpt>
<trkpt lat="43.724373998" lon="11.294223005"><ele>88</ele><time>2020-01-12T09:22:53Z</time></trkpt>
<trkpt lat="43.724354971" lon="11.294251001"><ele>88</ele><time>2020-01-12T09:22:54Z</time></trkpt>
<trkpt lat="43.724337034" lon="11.294278996"><ele>88</ele><time>2020-01-12T09:22:55Z</time></trkpt>
<trkpt lat="43.724321024" lon="11.294306992"><ele>88</ele><time>2020-01-12T09:22:56Z</time></trkpt>
<trkpt lat="43.724306021" lon="11.294335993"><ele>88</ele><time>2020-01-12T09:22:57Z</time></trkpt>
<trkpt lat="43.724293029" lon="11.294364994"><ele>88</ele><time>2020-01-12T09:22:58Z</time></trkpt>
<trkpt lat="43.724282971" lon="11.294396007"><ele>88</ele><time>2020-01-12T09:22:59Z</time></trkpt>
<trkpt lat="43.724275008" lon="11.294428026"><ele>88</ele><time>2020-01-12T09:23:00Z</time></trkpt>
<trkpt lat="43.724269979" lon="11.294460967"><ele>88</ele><time>2020-01-12T09:23:01Z</time></trkpt>
<trkpt lat="43.724267967" lon="11.294496004"><ele>88</ele><time>2020-01-12T09:23:02Z</time></trkpt>
<trkpt lat="43.724269979" lon="11.294533974"><ele>88</ele><time>2020-01-12T09:23:03Z</time></trkpt>
<trkpt lat="43.724275008" lon="11.294573033"><ele>88</ele><time>2020-01-12T09:23:04Z</time></trkpt>
<trkpt lat="43.724283976" lon="11.294616032"><ele>88</ele><time>2020-01-12T09:23:05Z</time></trkpt>
<trkpt lat="43.724296968" lon="11.294660959"><ele>88</ele><time>2020-01-12T09:23:06Z</time></trkpt>
<trkpt lat="43.724313984" lon="11.294708988"><ele>88</ele><time>2020-01-12T09:23:07Z</time></trkpt>
<trkpt lat="43.724336028" lon="11.294760033"><ele>88</ele><time>2020-01-12T09:23:08Z</time></trkpt></trkseg></trk><wpt lat="43.724336028" lon="11.294760033"><name>Finish km:15.428, Lat:43.7243, Lon:11.2948</name><sym>Finish</sym><ele>88</ele></wpt><wpt lat="43.71705601" lon="11.299202023"><name>km:1, Lat:43.7171, Lon:11.2992</name><ele>96</ele></wpt><wpt lat="43.708778964" lon="11.301510986"><name>km:2, Lat:43.7088, Lon:11.3015</name><ele>111</ele></wpt><wpt lat="43.701793989" lon="11.307651987"><name>km:3, Lat:43.7018, Lon:11.3077</name><ele>105</ele></wpt><wpt lat="43.697497007" lon="11.317827031"><name>km:4, Lat:43.6975, Lon:11.3178</name><ele>156</ele></wpt><wpt lat="43.694716981" lon="11.328882007"><name>km:5, Lat:43.6947, Lon:11.3289</name><ele>211</ele></wpt><wpt lat="43.691117037" lon="11.339262994"><name>km:6, Lat:43.6911, Lon:11.3393</name><ele>260</ele></wpt><wpt lat="43.694890989" lon="11.348308995"><name>km:7, Lat:43.6949, Lon:11.3483</name><ele>301</ele></wpt><wpt lat="43.700492028" lon="11.346874014"><name>km:8, Lat:43.7005, Lon:11.3469</name><ele>286</ele></wpt><wpt lat="43.704260029" lon="11.337698009"><name>km:9, Lat:43.7043, Lon:11.3377</name><ele>210</ele></wpt><wpt lat="43.70989996" lon="11.328971023"><name>km:10, Lat:43.7099, Lon:11.329</name><ele>213</ele></wpt><wpt lat="43.716861969" lon="11.322432971"><name>km:11, Lat:43.7169, Lon:11.3224</name><ele>174</ele></wpt><wpt lat="43.723030966" lon="11.314771995"><name>km:12, Lat:43.723, Lon:11.3148</name><ele>178</ele></wpt><wpt lat="43.727930021" lon="11.305950042"><name>km:13, Lat:43.7279, Lon:11.306</name><ele>141</ele></wpt><wpt lat="43.731572963" lon="11.300151022"><name>km:14, Lat:43.7316, Lon:11.3002</name><ele>89</ele></wpt><wpt lat="43.726783041" lon="11.294981986"><name>km:15, Lat:43.7268, Lon:11.295</name><ele>89</ele></wpt></gpx>
